<?xml version="1.0" encoding="UTF-8" standalone="no" ?>
<gpx xmlns="http://www.topografix.com/GPX/1/1" xmlns:xsi="http://www.w3.org/2001/XMLSchema-instance" xsi:schemaLocation="http://www.topografix.com/GPX/1/1 http://www.topografix.com/GPX/1/1/gpx.xsd" version="1.1" creator="VisuGPX - https://www.visugpx.com">
  <metadata>
    <name>Les civières | Trail</name>
  </metadata>
  <trk>
    <name><![CDATA[Les civières | Run | Strava]]></name>
    <trkseg>
      <trkpt lat="45.15911" lon="5.75987">
        <ele>219.2</ele>
        <time>2021-05-26T16:48:00.000Z</time>
      </trkpt>
      <trkpt lat="45.15909" lon="5.75987">
        <ele>219.2</ele>
        <time>2021-05-26T16:48:01.000Z</time>
      </trkpt>
      <trkpt lat="45.15908" lon="5.75986">
        <ele>219.2</ele>
        <time>2021-05-26T16:48:02.000Z</time>
      </trkpt>
      <trkpt lat="45.15907" lon="5.75985">
        <ele>219.2</ele>
        <time>2021-05-26T16:48:03.000Z</time>
      </trkpt>
      <trkpt lat="45.15905" lon="5.75985">
        <ele>219.3</ele>
        <time>2021-05-26T16:48:04.000Z</time>
      </trkpt>
      <trkpt lat="45.15904" lon="5.75984">
        <ele>219.3</ele>
        <time>2021-05-26T16:48:05.000Z</time>
      </trkpt>
      <trkpt lat="45.15903" lon="5.75983">
        <ele>219.3</ele>
        <time>2021-05-26T16:48:06.000Z</time>
      </trkpt>
      <trkpt lat="45.15902" lon="5.75982">
        <ele>219.3</ele>
        <time>2021-05-26T16:48:07.000Z</time>
      </trkpt>
      <trkpt lat="45.159" lon="5.7598">
        <ele>219.3</ele>
        <time>2021-05-26T16:48:08.000Z</time>
      </trkpt>
      <trkpt lat="45.15899" lon="5.75979">
        <ele>219.3</ele>
        <time>2021-05-26T16:48:09.000Z</time>
      </trkpt>
      <trkpt lat="45.15898" lon="5.75977">
        <ele>219.3</ele>
        <time>2021-05-26T16:48:10.000Z</time>
      </trkpt>
      <trkpt lat="45.15897" lon="5.75976">
        <ele>219.3</ele>
        <time>2021-05-26T16:48:11.000Z</time>
      </trkpt>
      <trkpt lat="45.15897" lon="5.75975">
        <ele>219.3</ele>
        <time>2021-05-26T16:48:13.000Z</time>
      </trkpt>
      <trkpt lat="45.15896" lon="5.75974">
        <ele>219.4</ele>
        <time>2021-05-26T16:48:14.000Z</time>
      </trkpt>
      <trkpt lat="45.15895" lon="5.75972">
        <ele>219.4</ele>
        <time>2021-05-26T16:48:15.000Z</time>
      </trkpt>
      <trkpt lat="45.15894" lon="5.75971">
        <ele>219.4</ele>
        <time>2021-05-26T16:48:16.000Z</time>
      </trkpt>
      <trkpt lat="45.15893" lon="5.7597">
        <ele>219.4</ele>
        <time>2021-05-26T16:48:17.000Z</time>
      </trkpt>
      <trkpt lat="45.15892" lon="5.75968">
        <ele>219.4</ele>
        <time>2021-05-26T16:48:18.000Z</time>
      </trkpt>
      <trkpt lat="45.15892" lon="5.75967">
        <ele>219.4</ele>
        <time>2021-05-26T16:48:19.000Z</time>
      </trkpt>
      <trkpt lat="45.15891" lon="5.75966">
        <ele>219.4</ele>
        <time>2021-05-26T16:48:20.000Z</time>
      </trkpt>
      <trkpt lat="45.1589" lon="5.75965">
        <ele>219.5</ele>
        <time>2021-05-26T16:48:21.000Z</time>
      </trkpt>
      <trkpt lat="45.1589" lon="5.75964">
        <ele>219.5</ele>
        <time>2021-05-26T16:48:22.000Z</time>
      </trkpt>
      <trkpt lat="45.15889" lon="5.75964">
        <ele>219.5</ele>
        <time>2021-05-26T16:48:23.000Z</time>
      </trkpt>
      <trkpt lat="45.15889" lon="5.75963">
        <ele>219.5</ele>
        <time>2021-05-26T16:48:24.000Z</time>
      </trkpt>
      <trkpt lat="45.15888" lon="5.75962">
        <ele>219.5</ele>
        <time>2021-05-26T16:48:25.000Z</time>
      </trkpt>
      <trkpt lat="45.15888" lon="5.75961">
        <ele>219.5</ele>
        <time>2021-05-26T16:48:26.000Z</time>
      </trkpt>
      <trkpt lat="45.15887" lon="5.75961">
        <ele>219.5</ele>
        <time>2021-05-26T16:48:27.000Z</time>
      </trkpt>
      <trkpt lat="45.15886" lon="5.7596">
        <ele>219.5</ele>
        <time>2021-05-26T16:48:28.000Z</time>
      </trkpt>
      <trkpt lat="45.15881" lon="5.75953">
        <ele>219.6</ele>
        <time>2021-05-26T16:48:29.000Z</time>
      </trkpt>
      <trkpt lat="45.15879" lon="5.75953">
        <ele>219.7</ele>
        <time>2021-05-26T16:48:30.000Z</time>
      </trkpt>
      <trkpt lat="45.15878" lon="5.75953">
        <ele>219.7</ele>
        <time>2021-05-26T16:48:31.000Z</time>
      </trkpt>
      <trkpt lat="45.15877" lon="5.75952">
        <ele>219.7</ele>
        <time>2021-05-26T16:48:32.000Z</time>
      </trkpt>
      <trkpt lat="45.15875" lon="5.75952">
        <ele>219.7</ele>
        <time>2021-05-26T16:48:33.000Z</time>
      </trkpt>
      <trkpt lat="45.15865" lon="5.75949">
        <ele>220</ele>
        <time>2021-05-26T16:48:34.000Z</time>
      </trkpt>
      <trkpt lat="45.15861" lon="5.75947">
        <ele>220</ele>
        <time>2021-05-26T16:48:35.000Z</time>
      </trkpt>
      <trkpt lat="45.15859" lon="5.75949">
        <ele>220</ele>
        <time>2021-05-26T16:48:36.000Z</time>
      </trkpt>
      <trkpt lat="45.15858" lon="5.7595">
        <ele>220</ele>
        <time>2021-05-26T16:48:37.000Z</time>
      </trkpt>
      <trkpt lat="45.15856" lon="5.75951">
        <ele>220</ele>
        <time>2021-05-26T16:48:39.000Z</time>
      </trkpt>
      <trkpt lat="45.15855" lon="5.75952">
        <ele>220.2</ele>
        <time>2021-05-26T16:48:40.000Z</time>
      </trkpt>
      <trkpt lat="45.15853" lon="5.75953">
        <ele>220.2</ele>
        <time>2021-05-26T16:48:41.000Z</time>
      </trkpt>
      <trkpt lat="45.15851" lon="5.75954">
        <ele>220.2</ele>
        <time>2021-05-26T16:48:42.000Z</time>
      </trkpt>
      <trkpt lat="45.15849" lon="5.75957">
        <ele>220.2</ele>
        <time>2021-05-26T16:48:43.000Z</time>
      </trkpt>
      <trkpt lat="45.15847" lon="5.7596">
        <ele>220.1</ele>
        <time>2021-05-26T16:48:45.000Z</time>
      </trkpt>
      <trkpt lat="45.15844" lon="5.75963">
        <ele>220.1</ele>
        <time>2021-05-26T16:48:46.000Z</time>
      </trkpt>
      <trkpt lat="45.15843" lon="5.75965">
        <ele>220.1</ele>
        <time>2021-05-26T16:48:47.000Z</time>
      </trkpt>
      <trkpt lat="45.15841" lon="5.75967">
        <ele>220.1</ele>
        <time>2021-05-26T16:48:48.000Z</time>
      </trkpt>
      <trkpt lat="45.15839" lon="5.7597">
        <ele>220.1</ele>
        <time>2021-05-26T16:48:49.000Z</time>
      </trkpt>
      <trkpt lat="45.15837" lon="5.75972">
        <ele>220.1</ele>
        <time>2021-05-26T16:48:50.000Z</time>
      </trkpt>
      <trkpt lat="45.15835" lon="5.75975">
        <ele>220.2</ele>
        <time>2021-05-26T16:48:51.000Z</time>
      </trkpt>
      <trkpt lat="45.15834" lon="5.75977">
        <ele>220.2</ele>
        <time>2021-05-26T16:48:52.000Z</time>
      </trkpt>
      <trkpt lat="45.15832" lon="5.7598">
        <ele>220.2</ele>
        <time>2021-05-26T16:48:53.000Z</time>
      </trkpt>
      <trkpt lat="45.1583" lon="5.75982">
        <ele>220.2</ele>
        <time>2021-05-26T16:48:54.000Z</time>
      </trkpt>
      <trkpt lat="45.15829" lon="5.75985">
        <ele>220.2</ele>
        <time>2021-05-26T16:48:55.000Z</time>
      </trkpt>
      <trkpt lat="45.15827" lon="5.75987">
        <ele>220.2</ele>
        <time>2021-05-26T16:48:56.000Z</time>
      </trkpt>
      <trkpt lat="45.15826" lon="5.7599">
        <ele>220.2</ele>
        <time>2021-05-26T16:48:57.000Z</time>
      </trkpt>
      <trkpt lat="45.15826" lon="5.7599">
        <ele>220.2</ele>
        <time>2021-05-26T16:48:58.000Z</time>
      </trkpt>
      <trkpt lat="45.15823" lon="5.75995">
        <ele>220.3</ele>
        <time>2021-05-26T16:48:59.000Z</time>
      </trkpt>
      <trkpt lat="45.15821" lon="5.75998">
        <ele>220.3</ele>
        <time>2021-05-26T16:49:00.000Z</time>
      </trkpt>
      <trkpt lat="45.1582" lon="5.76">
        <ele>220.3</ele>
        <time>2021-05-26T16:49:01.000Z</time>
      </trkpt>
      <trkpt lat="45.1582" lon="5.76">
        <ele>220.3</ele>
        <time>2021-05-26T16:49:02.000Z</time>
      </trkpt>
      <trkpt lat="45.15818" lon="5.76004">
        <ele>220.3</ele>
        <time>2021-05-26T16:49:03.000Z</time>
      </trkpt>
      <trkpt lat="45.15818" lon="5.76004">
        <ele>220.3</ele>
        <time>2021-05-26T16:49:04.000Z</time>
      </trkpt>
      <trkpt lat="45.15815" lon="5.76008">
        <ele>220.3</ele>
        <time>2021-05-26T16:49:05.000Z</time>
      </trkpt>
      <trkpt lat="45.15814" lon="5.7601">
        <ele>220.3</ele>
        <time>2021-05-26T16:49:06.000Z</time>
      </trkpt>
      <trkpt lat="45.15813" lon="5.76012">
        <ele>220.3</ele>
        <time>2021-05-26T16:49:07.000Z</time>
      </trkpt>
      <trkpt lat="45.15811" lon="5.76014">
        <ele>220.4</ele>
        <time>2021-05-26T16:49:08.000Z</time>
      </trkpt>
      <trkpt lat="45.1581" lon="5.76016">
        <ele>220.4</ele>
        <time>2021-05-26T16:49:09.000Z</time>
      </trkpt>
      <trkpt lat="45.15808" lon="5.76018">
        <ele>220.4</ele>
        <time>2021-05-26T16:49:10.000Z</time>
      </trkpt>
      <trkpt lat="45.15807" lon="5.7602">
        <ele>220.4</ele>
        <time>2021-05-26T16:49:11.000Z</time>
      </trkpt>
      <trkpt lat="45.15805" lon="5.76022">
        <ele>220.4</ele>
        <time>2021-05-26T16:49:12.000Z</time>
      </trkpt>
      <trkpt lat="45.15805" lon="5.76022">
        <ele>220.4</ele>
        <time>2021-05-26T16:49:13.000Z</time>
      </trkpt>
      <trkpt lat="45.15803" lon="5.76027">
        <ele>220.4</ele>
        <time>2021-05-26T16:49:14.000Z</time>
      </trkpt>
      <trkpt lat="45.15802" lon="5.76028">
        <ele>220.4</ele>
        <time>2021-05-26T16:49:15.000Z</time>
      </trkpt>
      <trkpt lat="45.15801" lon="5.7603">
        <ele>220.4</ele>
        <time>2021-05-26T16:49:16.000Z</time>
      </trkpt>
      <trkpt lat="45.158" lon="5.76032">
        <ele>220.4</ele>
        <time>2021-05-26T16:49:17.000Z</time>
      </trkpt>
      <trkpt lat="45.158" lon="5.76034">
        <ele>220.4</ele>
        <time>2021-05-26T16:49:18.000Z</time>
      </trkpt>
      <trkpt lat="45.15799" lon="5.76036">
        <ele>220.4</ele>
        <time>2021-05-26T16:49:19.000Z</time>
      </trkpt>
      <trkpt lat="45.15799" lon="5.76038">
        <ele>220.5</ele>
        <time>2021-05-26T16:49:20.000Z</time>
      </trkpt>
      <trkpt lat="45.15798" lon="5.7604">
        <ele>220.5</ele>
        <time>2021-05-26T16:49:21.000Z</time>
      </trkpt>
      <trkpt lat="45.15795" lon="5.76051">
        <ele>220.5</ele>
        <time>2021-05-26T16:49:22.000Z</time>
      </trkpt>
      <trkpt lat="45.15794" lon="5.76054">
        <ele>220.5</ele>
        <time>2021-05-26T16:49:23.000Z</time>
      </trkpt>
      <trkpt lat="45.15793" lon="5.76055">
        <ele>220.5</ele>
        <time>2021-05-26T16:49:24.000Z</time>
      </trkpt>
      <trkpt lat="45.15792" lon="5.76056">
        <ele>220.5</ele>
        <time>2021-05-26T16:49:25.000Z</time>
      </trkpt>
      <trkpt lat="45.15791" lon="5.76058">
        <ele>220.5</ele>
        <time>2021-05-26T16:49:26.000Z</time>
      </trkpt>
      <trkpt lat="45.1579" lon="5.76059">
        <ele>220.6</ele>
        <time>2021-05-26T16:49:27.000Z</time>
      </trkpt>
      <trkpt lat="45.1579" lon="5.7606">
        <ele>220.6</ele>
        <time>2021-05-26T16:49:28.000Z</time>
      </trkpt>
      <trkpt lat="45.15784" lon="5.76069">
        <ele>220.6</ele>
        <time>2021-05-26T16:49:29.000Z</time>
      </trkpt>
      <trkpt lat="45.15783" lon="5.76072">
        <ele>220.6</ele>
        <time>2021-05-26T16:49:30.000Z</time>
      </trkpt>
      <trkpt lat="45.15781" lon="5.76075">
        <ele>220.7</ele>
        <time>2021-05-26T16:49:31.000Z</time>
      </trkpt>
      <trkpt lat="45.15779" lon="5.76077">
        <ele>220.7</ele>
        <time>2021-05-26T16:49:32.000Z</time>
      </trkpt>
      <trkpt lat="45.15778" lon="5.7608">
        <ele>220.7</ele>
        <time>2021-05-26T16:49:33.000Z</time>
      </trkpt>
      <trkpt lat="45.15778" lon="5.7608">
        <ele>220.7</ele>
        <time>2021-05-26T16:49:34.000Z</time>
      </trkpt>
      <trkpt lat="45.15775" lon="5.76084">
        <ele>220.7</ele>
        <time>2021-05-26T16:49:35.000Z</time>
      </trkpt>
      <trkpt lat="45.15775" lon="5.76084">
        <ele>220.7</ele>
        <time>2021-05-26T16:49:36.000Z</time>
      </trkpt>
      <trkpt lat="45.15773" lon="5.76089">
        <ele>220.8</ele>
        <time>2021-05-26T16:49:37.000Z</time>
      </trkpt>
      <trkpt lat="45.15773" lon="5.76089">
        <ele>220.8</ele>
        <time>2021-05-26T16:49:38.000Z</time>
      </trkpt>
      <trkpt lat="45.15771" lon="5.76094">
        <ele>220.8</ele>
        <time>2021-05-26T16:49:39.000Z</time>
      </trkpt>
      <trkpt lat="45.1577" lon="5.76096">
        <ele>220.8</ele>
        <time>2021-05-26T16:49:40.000Z</time>
      </trkpt>
      <trkpt lat="45.15768" lon="5.76099">
        <ele>220.8</ele>
        <time>2021-05-26T16:49:41.000Z</time>
      </trkpt>
      <trkpt lat="45.15767" lon="5.76102">
        <ele>220.8</ele>
        <time>2021-05-26T16:49:42.000Z</time>
      </trkpt>
      <trkpt lat="45.15766" lon="5.76105">
        <ele>220.8</ele>
        <time>2021-05-26T16:49:43.000Z</time>
      </trkpt>
      <trkpt lat="45.15766" lon="5.76105">
        <ele>220.8</ele>
        <time>2021-05-26T16:49:44.000Z</time>
      </trkpt>
      <trkpt lat="45.15763" lon="5.76109">
        <ele>220.9</ele>
        <time>2021-05-26T16:49:45.000Z</time>
      </trkpt>
      <trkpt lat="45.15762" lon="5.76112">
        <ele>220.9</ele>
        <time>2021-05-26T16:49:46.000Z</time>
      </trkpt>
      <trkpt lat="45.1576" lon="5.76114">
        <ele>220.9</ele>
        <time>2021-05-26T16:49:47.000Z</time>
      </trkpt>
      <trkpt lat="45.15757" lon="5.76121">
        <ele>220.9</ele>
        <time>2021-05-26T16:49:48.000Z</time>
      </trkpt>
      <trkpt lat="45.15757" lon="5.76121">
        <ele>220.9</ele>
        <time>2021-05-26T16:49:49.000Z</time>
      </trkpt>
      <trkpt lat="45.15756" lon="5.76124">
        <ele>220.9</ele>
        <time>2021-05-26T16:49:50.000Z</time>
      </trkpt>
      <trkpt lat="45.15754" lon="5.76127">
        <ele>221</ele>
        <time>2021-05-26T16:49:51.000Z</time>
      </trkpt>
      <trkpt lat="45.15752" lon="5.7613">
        <ele>221</ele>
        <time>2021-05-26T16:49:52.000Z</time>
      </trkpt>
      <trkpt lat="45.1575" lon="5.76133">
        <ele>221</ele>
        <time>2021-05-26T16:49:53.000Z</time>
      </trkpt>
      <trkpt lat="45.15747" lon="5.76139">
        <ele>221</ele>
        <time>2021-05-26T16:49:55.000Z</time>
      </trkpt>
      <trkpt lat="45.15746" lon="5.76142">
        <ele>221.1</ele>
        <time>2021-05-26T16:49:56.000Z</time>
      </trkpt>
      <trkpt lat="45.15745" lon="5.76144">
        <ele>221.1</ele>
        <time>2021-05-26T16:49:57.000Z</time>
      </trkpt>
      <trkpt lat="45.15743" lon="5.76147">
        <ele>221.1</ele>
        <time>2021-05-26T16:49:58.000Z</time>
      </trkpt>
      <trkpt lat="45.15741" lon="5.76149">
        <ele>221.1</ele>
        <time>2021-05-26T16:49:59.000Z</time>
      </trkpt>
      <trkpt lat="45.1574" lon="5.76152">
        <ele>221.2</ele>
        <time>2021-05-26T16:50:00.000Z</time>
      </trkpt>
      <trkpt lat="45.15738" lon="5.76155">
        <ele>221.2</ele>
        <time>2021-05-26T16:50:01.000Z</time>
      </trkpt>
      <trkpt lat="45.15737" lon="5.76158">
        <ele>221.2</ele>
        <time>2021-05-26T16:50:02.000Z</time>
      </trkpt>
      <trkpt lat="45.15736" lon="5.76161">
        <ele>221.3</ele>
        <time>2021-05-26T16:50:03.000Z</time>
      </trkpt>
      <trkpt lat="45.15735" lon="5.76164">
        <ele>221.3</ele>
        <time>2021-05-26T16:50:04.000Z</time>
      </trkpt>
      <trkpt lat="45.15734" lon="5.76166">
        <ele>221.4</ele>
        <time>2021-05-26T16:50:05.000Z</time>
      </trkpt>
      <trkpt lat="45.15734" lon="5.76166">
        <ele>221.4</ele>
        <time>2021-05-26T16:50:06.000Z</time>
      </trkpt>
      <trkpt lat="45.15732" lon="5.76171">
        <ele>221.4</ele>
        <time>2021-05-26T16:50:07.000Z</time>
      </trkpt>
      <trkpt lat="45.15731" lon="5.76174">
        <ele>221.5</ele>
        <time>2021-05-26T16:50:08.000Z</time>
      </trkpt>
      <trkpt lat="45.15729" lon="5.76176">
        <ele>221.5</ele>
        <time>2021-05-26T16:50:09.000Z</time>
      </trkpt>
      <trkpt lat="45.15729" lon="5.76176">
        <ele>221.5</ele>
        <time>2021-05-26T16:50:10.000Z</time>
      </trkpt>
      <trkpt lat="45.15728" lon="5.76181">
        <ele>221.6</ele>
        <time>2021-05-26T16:50:11.000Z</time>
      </trkpt>
      <trkpt lat="45.15728" lon="5.76181">
        <ele>221.6</ele>
        <time>2021-05-26T16:50:12.000Z</time>
      </trkpt>
      <trkpt lat="45.15727" lon="5.76187">
        <ele>221.7</ele>
        <time>2021-05-26T16:50:14.000Z</time>
      </trkpt>
      <trkpt lat="45.15726" lon="5.76189">
        <ele>221.7</ele>
        <time>2021-05-26T16:50:15.000Z</time>
      </trkpt>
      <trkpt lat="45.15725" lon="5.76191">
        <ele>221.8</ele>
        <time>2021-05-26T16:50:16.000Z</time>
      </trkpt>
      <trkpt lat="45.15725" lon="5.76193">
        <ele>221.8</ele>
        <time>2021-05-26T16:50:17.000Z</time>
      </trkpt>
      <trkpt lat="45.15724" lon="5.76196">
        <ele>221.8</ele>
        <time>2021-05-26T16:50:18.000Z</time>
      </trkpt>
      <trkpt lat="45.15723" lon="5.76198">
        <ele>221.9</ele>
        <time>2021-05-26T16:50:19.000Z</time>
      </trkpt>
      <trkpt lat="45.15723" lon="5.76198">
        <ele>221.9</ele>
        <time>2021-05-26T16:50:20.000Z</time>
      </trkpt>
      <trkpt lat="45.15722" lon="5.76204">
        <ele>222</ele>
        <time>2021-05-26T16:50:21.000Z</time>
      </trkpt>
      <trkpt lat="45.15721" lon="5.76206">
        <ele>222</ele>
        <time>2021-05-26T16:50:22.000Z</time>
      </trkpt>
      <trkpt lat="45.1572" lon="5.76209">
        <ele>222.1</ele>
        <time>2021-05-26T16:50:23.000Z</time>
      </trkpt>
      <trkpt lat="45.15719" lon="5.76212">
        <ele>222.1</ele>
        <time>2021-05-26T16:50:24.000Z</time>
      </trkpt>
      <trkpt lat="45.15718" lon="5.76215">
        <ele>222.2</ele>
        <time>2021-05-26T16:50:25.000Z</time>
      </trkpt>
      <trkpt lat="45.15717" lon="5.76217">
        <ele>222.3</ele>
        <time>2021-05-26T16:50:26.000Z</time>
      </trkpt>
      <trkpt lat="45.15717" lon="5.7622">
        <ele>222.3</ele>
        <time>2021-05-26T16:50:27.000Z</time>
      </trkpt>
      <trkpt lat="45.15716" lon="5.76223">
        <ele>222.4</ele>
        <time>2021-05-26T16:50:28.000Z</time>
      </trkpt>
      <trkpt lat="45.15716" lon="5.76226">
        <ele>222.4</ele>
        <time>2021-05-26T16:50:29.000Z</time>
      </trkpt>
      <trkpt lat="45.15715" lon="5.76228">
        <ele>222.5</ele>
        <time>2021-05-26T16:50:30.000Z</time>
      </trkpt>
      <trkpt lat="45.15714" lon="5.76231">
        <ele>222.5</ele>
        <time>2021-05-26T16:50:31.000Z</time>
      </trkpt>
      <trkpt lat="45.15714" lon="5.76234">
        <ele>222.6</ele>
        <time>2021-05-26T16:50:33.000Z</time>
      </trkpt>
      <trkpt lat="45.15713" lon="5.76237">
        <ele>222.7</ele>
        <time>2021-05-26T16:50:34.000Z</time>
      </trkpt>
      <trkpt lat="45.15713" lon="5.76239">
        <ele>222.8</ele>
        <time>2021-05-26T16:50:35.000Z</time>
      </trkpt>
      <trkpt lat="45.15713" lon="5.76241">
        <ele>222.8</ele>
        <time>2021-05-26T16:50:36.000Z</time>
      </trkpt>
      <trkpt lat="45.15713" lon="5.76243">
        <ele>222.9</ele>
        <time>2021-05-26T16:50:37.000Z</time>
      </trkpt>
      <trkpt lat="45.15713" lon="5.76245">
        <ele>223</ele>
        <time>2021-05-26T16:50:38.000Z</time>
      </trkpt>
      <trkpt lat="45.15713" lon="5.76255">
        <ele>223.3</ele>
        <time>2021-05-26T16:50:39.000Z</time>
      </trkpt>
      <trkpt lat="45.15713" lon="5.76256">
        <ele>223.3</ele>
        <time>2021-05-26T16:50:40.000Z</time>
      </trkpt>
      <trkpt lat="45.15713" lon="5.76258">
        <ele>223.4</ele>
        <time>2021-05-26T16:50:41.000Z</time>
      </trkpt>
      <trkpt lat="45.15713" lon="5.76259">
        <ele>223.5</ele>
        <time>2021-05-26T16:50:42.000Z</time>
      </trkpt>
      <trkpt lat="45.15713" lon="5.76261">
        <ele>223.5</ele>
        <time>2021-05-26T16:50:43.000Z</time>
      </trkpt>
      <trkpt lat="45.15714" lon="5.7627">
        <ele>223.8</ele>
        <time>2021-05-26T16:50:44.000Z</time>
      </trkpt>
      <trkpt lat="45.15715" lon="5.76272">
        <ele>223.9</ele>
        <time>2021-05-26T16:50:45.000Z</time>
      </trkpt>
      <trkpt lat="45.15715" lon="5.76274">
        <ele>224.1</ele>
        <time>2021-05-26T16:50:47.000Z</time>
      </trkpt>
      <trkpt lat="45.15716" lon="5.76276">
        <ele>224.2</ele>
        <time>2021-05-26T16:50:48.000Z</time>
      </trkpt>
      <trkpt lat="45.15719" lon="5.76285">
        <ele>224.7</ele>
        <time>2021-05-26T16:50:49.000Z</time>
      </trkpt>
      <trkpt lat="45.1572" lon="5.76286">
        <ele>224.7</ele>
        <time>2021-05-26T16:50:50.000Z</time>
      </trkpt>
      <trkpt lat="45.1572" lon="5.76288">
        <ele>224.8</ele>
        <time>2021-05-26T16:50:52.000Z</time>
      </trkpt>
      <trkpt lat="45.15721" lon="5.76289">
        <ele>224.9</ele>
        <time>2021-05-26T16:50:53.000Z</time>
      </trkpt>
      <trkpt lat="45.15722" lon="5.76291">
        <ele>225</ele>
        <time>2021-05-26T16:50:54.000Z</time>
      </trkpt>
      <trkpt lat="45.15725" lon="5.76302">
        <ele>225.6</ele>
        <time>2021-05-26T16:50:55.000Z</time>
      </trkpt>
      <trkpt lat="45.15726" lon="5.76304">
        <ele>225.7</ele>
        <time>2021-05-26T16:50:56.000Z</time>
      </trkpt>
      <trkpt lat="45.15727" lon="5.76307">
        <ele>225.8</ele>
        <time>2021-05-26T16:50:57.000Z</time>
      </trkpt>
      <trkpt lat="45.15728" lon="5.7631">
        <ele>226</ele>
        <time>2021-05-26T16:50:58.000Z</time>
      </trkpt>
      <trkpt lat="45.15729" lon="5.76312">
        <ele>226.1</ele>
        <time>2021-05-26T16:50:59.000Z</time>
      </trkpt>
      <trkpt lat="45.15731" lon="5.76315">
        <ele>226.2</ele>
        <time>2021-05-26T16:51:00.000Z</time>
      </trkpt>
      <trkpt lat="45.15731" lon="5.76318">
        <ele>226.4</ele>
        <time>2021-05-26T16:51:01.000Z</time>
      </trkpt>
      <trkpt lat="45.15732" lon="5.7632">
        <ele>226.5</ele>
        <time>2021-05-26T16:51:02.000Z</time>
      </trkpt>
      <trkpt lat="45.15733" lon="5.76323">
        <ele>226.6</ele>
        <time>2021-05-26T16:51:03.000Z</time>
      </trkpt>
      <trkpt lat="45.15734" lon="5.76326">
        <ele>226.8</ele>
        <time>2021-05-26T16:51:04.000Z</time>
      </trkpt>
      <trkpt lat="45.15734" lon="5.76326">
        <ele>226.8</ele>
        <time>2021-05-26T16:51:05.000Z</time>
      </trkpt>
      <trkpt lat="45.15736" lon="5.7633">
        <ele>227</ele>
        <time>2021-05-26T16:51:06.000Z</time>
      </trkpt>
      <trkpt lat="45.15737" lon="5.76332">
        <ele>227.1</ele>
        <time>2021-05-26T16:51:07.000Z</time>
      </trkpt>
      <trkpt lat="45.15738" lon="5.76334">
        <ele>227.2</ele>
        <time>2021-05-26T16:51:08.000Z</time>
      </trkpt>
      <trkpt lat="45.15739" lon="5.76336">
        <ele>227.3</ele>
        <time>2021-05-26T16:51:09.000Z</time>
      </trkpt>
      <trkpt lat="45.15741" lon="5.76338">
        <ele>227.4</ele>
        <time>2021-05-26T16:51:11.000Z</time>
      </trkpt>
      <trkpt lat="45.15742" lon="5.76341">
        <ele>227.6</ele>
        <time>2021-05-26T16:51:12.000Z</time>
      </trkpt>
      <trkpt lat="45.15742" lon="5.76341">
        <ele>227.6</ele>
        <time>2021-05-26T16:51:13.000Z</time>
      </trkpt>
      <trkpt lat="45.15745" lon="5.76346">
        <ele>227.8</ele>
        <time>2021-05-26T16:51:14.000Z</time>
      </trkpt>
      <trkpt lat="45.15745" lon="5.7635">
        <ele>227.9</ele>
        <time>2021-05-26T16:51:15.000Z</time>
      </trkpt>
      <trkpt lat="45.15746" lon="5.76353">
        <ele>228.1</ele>
        <time>2021-05-26T16:51:16.000Z</time>
      </trkpt>
      <trkpt lat="45.15748" lon="5.76358">
        <ele>228</ele>
        <time>2021-05-26T16:51:18.000Z</time>
      </trkpt>
      <trkpt lat="45.15748" lon="5.76361">
        <ele>228</ele>
        <time>2021-05-26T16:51:19.000Z</time>
      </trkpt>
      <trkpt lat="45.15749" lon="5.76363">
        <ele>228</ele>
        <time>2021-05-26T16:51:20.000Z</time>
      </trkpt>
      <trkpt lat="45.1575" lon="5.76366">
        <ele>228</ele>
        <time>2021-05-26T16:51:21.000Z</time>
      </trkpt>
      <trkpt lat="45.15752" lon="5.76368">
        <ele>228</ele>
        <time>2021-05-26T16:51:22.000Z</time>
      </trkpt>
      <trkpt lat="45.15753" lon="5.76371">
        <ele>228</ele>
        <time>2021-05-26T16:51:23.000Z</time>
      </trkpt>
      <trkpt lat="45.15755" lon="5.76373">
        <ele>227.9</ele>
        <time>2021-05-26T16:51:24.000Z</time>
      </trkpt>
      <trkpt lat="45.15757" lon="5.76376">
        <ele>227.9</ele>
        <time>2021-05-26T16:51:25.000Z</time>
      </trkpt>
      <trkpt lat="45.15759" lon="5.76378">
        <ele>227.9</ele>
        <time>2021-05-26T16:51:26.000Z</time>
      </trkpt>
      <trkpt lat="45.15761" lon="5.76381">
        <ele>227.9</ele>
        <time>2021-05-26T16:51:27.000Z</time>
      </trkpt>
      <trkpt lat="45.15762" lon="5.76382">
        <ele>227.9</ele>
        <time>2021-05-26T16:51:28.000Z</time>
      </trkpt>
      <trkpt lat="45.15763" lon="5.76384">
        <ele>227.8</ele>
        <time>2021-05-26T16:51:29.000Z</time>
      </trkpt>
      <trkpt lat="45.15764" lon="5.76385">
        <ele>227.8</ele>
        <time>2021-05-26T16:51:30.000Z</time>
      </trkpt>
      <trkpt lat="45.15767" lon="5.7639">
        <ele>227.8</ele>
        <time>2021-05-26T16:51:31.000Z</time>
      </trkpt>
      <trkpt lat="45.15768" lon="5.76393">
        <ele>227.7</ele>
        <time>2021-05-26T16:51:32.000Z</time>
      </trkpt>
      <trkpt lat="45.15769" lon="5.76396">
        <ele>227.7</ele>
        <time>2021-05-26T16:51:33.000Z</time>
      </trkpt>
      <trkpt lat="45.15771" lon="5.76399">
        <ele>227.7</ele>
        <time>2021-05-26T16:51:34.000Z</time>
      </trkpt>
      <trkpt lat="45.15772" lon="5.76401">
        <ele>227.7</ele>
        <time>2021-05-26T16:51:35.000Z</time>
      </trkpt>
      <trkpt lat="45.15772" lon="5.76403">
        <ele>227.7</ele>
        <time>2021-05-26T16:51:36.000Z</time>
      </trkpt>
      <trkpt lat="45.15773" lon="5.76406">
        <ele>227.6</ele>
        <time>2021-05-26T16:51:37.000Z</time>
      </trkpt>
      <trkpt lat="45.15776" lon="5.76411">
        <ele>227.6</ele>
        <time>2021-05-26T16:51:38.000Z</time>
      </trkpt>
      <trkpt lat="45.15778" lon="5.76413">
        <ele>227.5</ele>
        <time>2021-05-26T16:51:39.000Z</time>
      </trkpt>
      <trkpt lat="45.1578" lon="5.76416">
        <ele>227.5</ele>
        <time>2021-05-26T16:51:40.000Z</time>
      </trkpt>
      <trkpt lat="45.1578" lon="5.76416">
        <ele>227.5</ele>
        <time>2021-05-26T16:51:41.000Z</time>
      </trkpt>
      <trkpt lat="45.15782" lon="5.7642">
        <ele>227.5</ele>
        <time>2021-05-26T16:51:42.000Z</time>
      </trkpt>
      <trkpt lat="45.15784" lon="5.76424">
        <ele>227.4</ele>
        <time>2021-05-26T16:51:43.000Z</time>
      </trkpt>
      <trkpt lat="45.15786" lon="5.76427">
        <ele>227.4</ele>
        <time>2021-05-26T16:51:44.000Z</time>
      </trkpt>
      <trkpt lat="45.15787" lon="5.76429">
        <ele>227.3</ele>
        <time>2021-05-26T16:51:45.000Z</time>
      </trkpt>
      <trkpt lat="45.15789" lon="5.76432">
        <ele>227.3</ele>
        <time>2021-05-26T16:51:46.000Z</time>
      </trkpt>
      <trkpt lat="45.15791" lon="5.76435">
        <ele>227.2</ele>
        <time>2021-05-26T16:51:47.000Z</time>
      </trkpt>
      <trkpt lat="45.15792" lon="5.76437">
        <ele>227.2</ele>
        <time>2021-05-26T16:51:49.000Z</time>
      </trkpt>
      <trkpt lat="45.15794" lon="5.7644">
        <ele>227.1</ele>
        <time>2021-05-26T16:51:50.000Z</time>
      </trkpt>
      <trkpt lat="45.15795" lon="5.76442">
        <ele>227.1</ele>
        <time>2021-05-26T16:51:51.000Z</time>
      </trkpt>
      <trkpt lat="45.15796" lon="5.76444">
        <ele>227</ele>
        <time>2021-05-26T16:51:52.000Z</time>
      </trkpt>
      <trkpt lat="45.15797" lon="5.76445">
        <ele>227</ele>
        <time>2021-05-26T16:51:53.000Z</time>
      </trkpt>
      <trkpt lat="45.15798" lon="5.76447">
        <ele>226.9</ele>
        <time>2021-05-26T16:51:54.000Z</time>
      </trkpt>
      <trkpt lat="45.15802" lon="5.76457">
        <ele>226.7</ele>
        <time>2021-05-26T16:51:55.000Z</time>
      </trkpt>
      <trkpt lat="45.15804" lon="5.76459">
        <ele>226.7</ele>
        <time>2021-05-26T16:51:56.000Z</time>
      </trkpt>
      <trkpt lat="45.15805" lon="5.76461">
        <ele>226.6</ele>
        <time>2021-05-26T16:51:57.000Z</time>
      </trkpt>
      <trkpt lat="45.15806" lon="5.76464">
        <ele>226.6</ele>
        <time>2021-05-26T16:51:58.000Z</time>
      </trkpt>
      <trkpt lat="45.15807" lon="5.76466">
        <ele>226.5</ele>
        <time>2021-05-26T16:51:59.000Z</time>
      </trkpt>
      <trkpt lat="45.15808" lon="5.76469">
        <ele>226.4</ele>
        <time>2021-05-26T16:52:00.000Z</time>
      </trkpt>
      <trkpt lat="45.15809" lon="5.7647">
        <ele>226.4</ele>
        <time>2021-05-26T16:52:01.000Z</time>
      </trkpt>
      <trkpt lat="45.1581" lon="5.76471">
        <ele>226.4</ele>
        <time>2021-05-26T16:52:02.000Z</time>
      </trkpt>
      <trkpt lat="45.1581" lon="5.76472">
        <ele>226.3</ele>
        <time>2021-05-26T16:52:03.000Z</time>
      </trkpt>
      <trkpt lat="45.15811" lon="5.76474">
        <ele>226.3</ele>
        <time>2021-05-26T16:52:04.000Z</time>
      </trkpt>
      <trkpt lat="45.15812" lon="5.76475">
        <ele>226.3</ele>
        <time>2021-05-26T16:52:05.000Z</time>
      </trkpt>
      <trkpt lat="45.15817" lon="5.76483">
        <ele>226.1</ele>
        <time>2021-05-26T16:52:06.000Z</time>
      </trkpt>
      <trkpt lat="45.15817" lon="5.76484">
        <ele>226</ele>
        <time>2021-05-26T16:52:08.000Z</time>
      </trkpt>
      <trkpt lat="45.15818" lon="5.76486">
        <ele>226</ele>
        <time>2021-05-26T16:52:09.000Z</time>
      </trkpt>
      <trkpt lat="45.15819" lon="5.76487">
        <ele>225.9</ele>
        <time>2021-05-26T16:52:10.000Z</time>
      </trkpt>
      <trkpt lat="45.15819" lon="5.76489">
        <ele>225.9</ele>
        <time>2021-05-26T16:52:11.000Z</time>
      </trkpt>
      <trkpt lat="45.15824" lon="5.76498">
        <ele>225.7</ele>
        <time>2021-05-26T16:52:12.000Z</time>
      </trkpt>
      <trkpt lat="45.15826" lon="5.76501">
        <ele>225.6</ele>
        <time>2021-05-26T16:52:13.000Z</time>
      </trkpt>
      <trkpt lat="45.15827" lon="5.76502">
        <ele>225.6</ele>
        <time>2021-05-26T16:52:14.000Z</time>
      </trkpt>
      <trkpt lat="45.15828" lon="5.76503">
        <ele>225.5</ele>
        <time>2021-05-26T16:52:15.000Z</time>
      </trkpt>
      <trkpt lat="45.15829" lon="5.76505">
        <ele>225.5</ele>
        <time>2021-05-26T16:52:16.000Z</time>
      </trkpt>
      <trkpt lat="45.15829" lon="5.76505">
        <ele>225.5</ele>
        <time>2021-05-26T16:52:17.000Z</time>
      </trkpt>
      <trkpt lat="45.15832" lon="5.76508">
        <ele>225.4</ele>
        <time>2021-05-26T16:52:18.000Z</time>
      </trkpt>
      <trkpt lat="45.15834" lon="5.7651">
        <ele>225.3</ele>
        <time>2021-05-26T16:52:19.000Z</time>
      </trkpt>
      <trkpt lat="45.15836" lon="5.76512">
        <ele>225.3</ele>
        <time>2021-05-26T16:52:20.000Z</time>
      </trkpt>
      <trkpt lat="45.15837" lon="5.76513">
        <ele>225.2</ele>
        <time>2021-05-26T16:52:21.000Z</time>
      </trkpt>
      <trkpt lat="45.15839" lon="5.76515">
        <ele>225.2</ele>
        <time>2021-05-26T16:52:22.000Z</time>
      </trkpt>
      <trkpt lat="45.15842" lon="5.76516">
        <ele>225.1</ele>
        <time>2021-05-26T16:52:23.000Z</time>
      </trkpt>
      <trkpt lat="45.15844" lon="5.76518">
        <ele>225</ele>
        <time>2021-05-26T16:52:24.000Z</time>
      </trkpt>
      <trkpt lat="45.15847" lon="5.76519">
        <ele>225</ele>
        <time>2021-05-26T16:52:25.000Z</time>
      </trkpt>
      <trkpt lat="45.15849" lon="5.76521">
        <ele>225</ele>
        <time>2021-05-26T16:52:26.000Z</time>
      </trkpt>
      <trkpt lat="45.15852" lon="5.76522">
        <ele>224.9</ele>
        <time>2021-05-26T16:52:27.000Z</time>
      </trkpt>
      <trkpt lat="45.15854" lon="5.76524">
        <ele>224.9</ele>
        <time>2021-05-26T16:52:28.000Z</time>
      </trkpt>
      <trkpt lat="45.15857" lon="5.76525">
        <ele>224.9</ele>
        <time>2021-05-26T16:52:29.000Z</time>
      </trkpt>
      <trkpt lat="45.15859" lon="5.76527">
        <ele>224.8</ele>
        <time>2021-05-26T16:52:30.000Z</time>
      </trkpt>
      <trkpt lat="45.15861" lon="5.76529">
        <ele>224.8</ele>
        <time>2021-05-26T16:52:31.000Z</time>
      </trkpt>
      <trkpt lat="45.15864" lon="5.7653">
        <ele>224.8</ele>
        <time>2021-05-26T16:52:32.000Z</time>
      </trkpt>
      <trkpt lat="45.15866" lon="5.76532">
        <ele>224.7</ele>
        <time>2021-05-26T16:52:33.000Z</time>
      </trkpt>
      <trkpt lat="45.15868" lon="5.76535">
        <ele>224.7</ele>
        <time>2021-05-26T16:52:34.000Z</time>
      </trkpt>
      <trkpt lat="45.1587" lon="5.76537">
        <ele>224.7</ele>
        <time>2021-05-26T16:52:35.000Z</time>
      </trkpt>
      <trkpt lat="45.15872" lon="5.76539">
        <ele>224.6</ele>
        <time>2021-05-26T16:52:36.000Z</time>
      </trkpt>
      <trkpt lat="45.15875" lon="5.76541">
        <ele>224.6</ele>
        <time>2021-05-26T16:52:37.000Z</time>
      </trkpt>
      <trkpt lat="45.15877" lon="5.76542">
        <ele>224.6</ele>
        <time>2021-05-26T16:52:38.000Z</time>
      </trkpt>
      <trkpt lat="45.1588" lon="5.76545">
        <ele>224.5</ele>
        <time>2021-05-26T16:52:39.000Z</time>
      </trkpt>
      <trkpt lat="45.15883" lon="5.76547">
        <ele>224.5</ele>
        <time>2021-05-26T16:52:40.000Z</time>
      </trkpt>
      <trkpt lat="45.15886" lon="5.76549">
        <ele>224.4</ele>
        <time>2021-05-26T16:52:41.000Z</time>
      </trkpt>
      <trkpt lat="45.15888" lon="5.76552">
        <ele>224.4</ele>
        <time>2021-05-26T16:52:42.000Z</time>
      </trkpt>
      <trkpt lat="45.15891" lon="5.76554">
        <ele>224.4</ele>
        <time>2021-05-26T16:52:43.000Z</time>
      </trkpt>
      <trkpt lat="45.15893" lon="5.76556">
        <ele>224.4</ele>
        <time>2021-05-26T16:52:44.000Z</time>
      </trkpt>
      <trkpt lat="45.15894" lon="5.76557">
        <ele>224.4</ele>
        <time>2021-05-26T16:52:46.000Z</time>
      </trkpt>
      <trkpt lat="45.15896" lon="5.76558">
        <ele>224.3</ele>
        <time>2021-05-26T16:52:47.000Z</time>
      </trkpt>
      <trkpt lat="45.15897" lon="5.76559">
        <ele>224.3</ele>
        <time>2021-05-26T16:52:48.000Z</time>
      </trkpt>
      <trkpt lat="45.15899" lon="5.7656">
        <ele>224.3</ele>
        <time>2021-05-26T16:52:49.000Z</time>
      </trkpt>
      <trkpt lat="45.15905" lon="5.76564">
        <ele>224.2</ele>
        <time>2021-05-26T16:52:50.000Z</time>
      </trkpt>
      <trkpt lat="45.15906" lon="5.76565">
        <ele>224.2</ele>
        <time>2021-05-26T16:52:51.000Z</time>
      </trkpt>
      <trkpt lat="45.15906" lon="5.76565">
        <ele>224.2</ele>
        <time>2021-05-26T16:52:52.000Z</time>
      </trkpt>
      <trkpt lat="45.15907" lon="5.76566">
        <ele>224.2</ele>
        <time>2021-05-26T16:52:53.000Z</time>
      </trkpt>
      <trkpt lat="45.15908" lon="5.76566">
        <ele>224.2</ele>
        <time>2021-05-26T16:52:54.000Z</time>
      </trkpt>
      <trkpt lat="45.15917" lon="5.76572">
        <ele>224</ele>
        <time>2021-05-26T16:52:56.000Z</time>
      </trkpt>
      <trkpt lat="45.15918" lon="5.76574">
        <ele>224</ele>
        <time>2021-05-26T16:52:57.000Z</time>
      </trkpt>
      <trkpt lat="45.15919" lon="5.76575">
        <ele>224</ele>
        <time>2021-05-26T16:52:58.000Z</time>
      </trkpt>
      <trkpt lat="45.15921" lon="5.76576">
        <ele>224</ele>
        <time>2021-05-26T16:52:59.000Z</time>
      </trkpt>
      <trkpt lat="45.15927" lon="5.76582">
        <ele>224</ele>
        <time>2021-05-26T16:53:00.000Z</time>
      </trkpt>
      <trkpt lat="45.15929" lon="5.76583">
        <ele>224</ele>
        <time>2021-05-26T16:53:01.000Z</time>
      </trkpt>
      <trkpt lat="45.15931" lon="5.76584">
        <ele>224</ele>
        <time>2021-05-26T16:53:02.000Z</time>
      </trkpt>
      <trkpt lat="45.15932" lon="5.76585">
        <ele>224</ele>
        <time>2021-05-26T16:53:03.000Z</time>
      </trkpt>
      <trkpt lat="45.15934" lon="5.76586">
        <ele>223.9</ele>
        <time>2021-05-26T16:53:04.000Z</time>
      </trkpt>
      <trkpt lat="45.15936" lon="5.76588">
        <ele>223.9</ele>
        <time>2021-05-26T16:53:05.000Z</time>
      </trkpt>
      <trkpt lat="45.15937" lon="5.76588">
        <ele>223.9</ele>
        <time>2021-05-26T16:53:06.000Z</time>
      </trkpt>
      <trkpt lat="45.15938" lon="5.76589">
        <ele>223.9</ele>
        <time>2021-05-26T16:53:07.000Z</time>
      </trkpt>
      <trkpt lat="45.1594" lon="5.7659">
        <ele>223.9</ele>
        <time>2021-05-26T16:53:08.000Z</time>
      </trkpt>
      <trkpt lat="45.15941" lon="5.76591">
        <ele>223.9</ele>
        <time>2021-05-26T16:53:09.000Z</time>
      </trkpt>
      <trkpt lat="45.15947" lon="5.76595">
        <ele>223.9</ele>
        <time>2021-05-26T16:53:10.000Z</time>
      </trkpt>
      <trkpt lat="45.15948" lon="5.76596">
        <ele>223.8</ele>
        <time>2021-05-26T16:53:12.000Z</time>
      </trkpt>
      <trkpt lat="45.15949" lon="5.76596">
        <ele>223.8</ele>
        <time>2021-05-26T16:53:13.000Z</time>
      </trkpt>
      <trkpt lat="45.1595" lon="5.76597">
        <ele>223.8</ele>
        <time>2021-05-26T16:53:14.000Z</time>
      </trkpt>
      <trkpt lat="45.15952" lon="5.76598">
        <ele>223.8</ele>
        <time>2021-05-26T16:53:15.000Z</time>
      </trkpt>
      <trkpt lat="45.15958" lon="5.76601">
        <ele>223.8</ele>
        <time>2021-05-26T16:53:16.000Z</time>
      </trkpt>
      <trkpt lat="45.15959" lon="5.76602">
        <ele>223.8</ele>
        <time>2021-05-26T16:53:17.000Z</time>
      </trkpt>
      <trkpt lat="45.1596" lon="5.76602">
        <ele>223.7</ele>
        <time>2021-05-26T16:53:18.000Z</time>
      </trkpt>
      <trkpt lat="45.15961" lon="5.76603">
        <ele>223.7</ele>
        <time>2021-05-26T16:53:19.000Z</time>
      </trkpt>
      <trkpt lat="45.15963" lon="5.76603">
        <ele>223.7</ele>
        <time>2021-05-26T16:53:20.000Z</time>
      </trkpt>
      <trkpt lat="45.15971" lon="5.76606">
        <ele>223.7</ele>
        <time>2021-05-26T16:53:21.000Z</time>
      </trkpt>
      <trkpt lat="45.15974" lon="5.76606">
        <ele>223.7</ele>
        <time>2021-05-26T16:53:22.000Z</time>
      </trkpt>
      <trkpt lat="45.15976" lon="5.76607">
        <ele>223.6</ele>
        <time>2021-05-26T16:53:24.000Z</time>
      </trkpt>
      <trkpt lat="45.15979" lon="5.76608">
        <ele>223.6</ele>
        <time>2021-05-26T16:53:25.000Z</time>
      </trkpt>
      <trkpt lat="45.15981" lon="5.76609">
        <ele>223.6</ele>
        <time>2021-05-26T16:53:26.000Z</time>
      </trkpt>
      <trkpt lat="45.15983" lon="5.7661">
        <ele>223.6</ele>
        <time>2021-05-26T16:53:27.000Z</time>
      </trkpt>
      <trkpt lat="45.15984" lon="5.76611">
        <ele>223.6</ele>
        <time>2021-05-26T16:53:28.000Z</time>
      </trkpt>
      <trkpt lat="45.1599" lon="5.76614">
        <ele>223.6</ele>
        <time>2021-05-26T16:53:29.000Z</time>
      </trkpt>
      <trkpt lat="45.15991" lon="5.76615">
        <ele>223.6</ele>
        <time>2021-05-26T16:53:30.000Z</time>
      </trkpt>
      <trkpt lat="45.15992" lon="5.76615">
        <ele>223.6</ele>
        <time>2021-05-26T16:53:31.000Z</time>
      </trkpt>
      <trkpt lat="45.15993" lon="5.76616">
        <ele>223.6</ele>
        <time>2021-05-26T16:53:32.000Z</time>
      </trkpt>
      <trkpt lat="45.15994" lon="5.76616">
        <ele>223.6</ele>
        <time>2021-05-26T16:53:33.000Z</time>
      </trkpt>
      <trkpt lat="45.15995" lon="5.76617">
        <ele>223.6</ele>
        <time>2021-05-26T16:53:34.000Z</time>
      </trkpt>
      <trkpt lat="45.16001" lon="5.7662">
        <ele>223.6</ele>
        <time>2021-05-26T16:53:35.000Z</time>
      </trkpt>
      <trkpt lat="45.16002" lon="5.76621">
        <ele>223.6</ele>
        <time>2021-05-26T16:53:36.000Z</time>
      </trkpt>
      <trkpt lat="45.16003" lon="5.76622">
        <ele>223.6</ele>
        <time>2021-05-26T16:53:37.000Z</time>
      </trkpt>
      <trkpt lat="45.16004" lon="5.76623">
        <ele>223.6</ele>
        <time>2021-05-26T16:53:38.000Z</time>
      </trkpt>
      <trkpt lat="45.16005" lon="5.76623">
        <ele>223.6</ele>
        <time>2021-05-26T16:53:39.000Z</time>
      </trkpt>
      <trkpt lat="45.16006" lon="5.76624">
        <ele>223.6</ele>
        <time>2021-05-26T16:53:40.000Z</time>
      </trkpt>
      <trkpt lat="45.16013" lon="5.7663">
        <ele>223.6</ele>
        <time>2021-05-26T16:53:41.000Z</time>
      </trkpt>
      <trkpt lat="45.16015" lon="5.76631">
        <ele>223.6</ele>
        <time>2021-05-26T16:53:43.000Z</time>
      </trkpt>
      <trkpt lat="45.16016" lon="5.76632">
        <ele>223.6</ele>
        <time>2021-05-26T16:53:44.000Z</time>
      </trkpt>
      <trkpt lat="45.16017" lon="5.76632">
        <ele>223.6</ele>
        <time>2021-05-26T16:53:45.000Z</time>
      </trkpt>
      <trkpt lat="45.16024" lon="5.76637">
        <ele>223.6</ele>
        <time>2021-05-26T16:53:46.000Z</time>
      </trkpt>
      <trkpt lat="45.16025" lon="5.76638">
        <ele>223.6</ele>
        <time>2021-05-26T16:53:47.000Z</time>
      </trkpt>
      <trkpt lat="45.16026" lon="5.76638">
        <ele>223.6</ele>
        <time>2021-05-26T16:53:48.000Z</time>
      </trkpt>
      <trkpt lat="45.16027" lon="5.76639">
        <ele>223.6</ele>
        <time>2021-05-26T16:53:49.000Z</time>
      </trkpt>
      <trkpt lat="45.16028" lon="5.7664">
        <ele>223.6</ele>
        <time>2021-05-26T16:53:50.000Z</time>
      </trkpt>
      <trkpt lat="45.16028" lon="5.76641">
        <ele>223.6</ele>
        <time>2021-05-26T16:53:51.000Z</time>
      </trkpt>
      <trkpt lat="45.16035" lon="5.76646">
        <ele>223.7</ele>
        <time>2021-05-26T16:53:52.000Z</time>
      </trkpt>
      <trkpt lat="45.16036" lon="5.76647">
        <ele>223.7</ele>
        <time>2021-05-26T16:53:53.000Z</time>
      </trkpt>
      <trkpt lat="45.16037" lon="5.76648">
        <ele>223.7</ele>
        <time>2021-05-26T16:53:54.000Z</time>
      </trkpt>
      <trkpt lat="45.16038" lon="5.76648">
        <ele>223.7</ele>
        <time>2021-05-26T16:53:55.000Z</time>
      </trkpt>
      <trkpt lat="45.16039" lon="5.76649">
        <ele>223.7</ele>
        <time>2021-05-26T16:53:56.000Z</time>
      </trkpt>
      <trkpt lat="45.16047" lon="5.76654">
        <ele>223.7</ele>
        <time>2021-05-26T16:53:57.000Z</time>
      </trkpt>
      <trkpt lat="45.16049" lon="5.76655">
        <ele>223.7</ele>
        <time>2021-05-26T16:53:58.000Z</time>
      </trkpt>
      <trkpt lat="45.16051" lon="5.76656">
        <ele>223.8</ele>
        <time>2021-05-26T16:53:59.000Z</time>
      </trkpt>
      <trkpt lat="45.16053" lon="5.76657">
        <ele>223.8</ele>
        <time>2021-05-26T16:54:00.000Z</time>
      </trkpt>
      <trkpt lat="45.16055" lon="5.76657">
        <ele>223.8</ele>
        <time>2021-05-26T16:54:01.000Z</time>
      </trkpt>
      <trkpt lat="45.16057" lon="5.76658">
        <ele>223.8</ele>
        <time>2021-05-26T16:54:02.000Z</time>
      </trkpt>
      <trkpt lat="45.16059" lon="5.76659">
        <ele>223.8</ele>
        <time>2021-05-26T16:54:03.000Z</time>
      </trkpt>
      <trkpt lat="45.16061" lon="5.76661">
        <ele>223.8</ele>
        <time>2021-05-26T16:54:04.000Z</time>
      </trkpt>
      <trkpt lat="45.16063" lon="5.76662">
        <ele>223.9</ele>
        <time>2021-05-26T16:54:05.000Z</time>
      </trkpt>
      <trkpt lat="45.16069" lon="5.76666">
        <ele>223.9</ele>
        <time>2021-05-26T16:54:06.000Z</time>
      </trkpt>
      <trkpt lat="45.1607" lon="5.76667">
        <ele>223.9</ele>
        <time>2021-05-26T16:54:07.000Z</time>
      </trkpt>
      <trkpt lat="45.16072" lon="5.76668">
        <ele>223.9</ele>
        <time>2021-05-26T16:54:08.000Z</time>
      </trkpt>
      <trkpt lat="45.16073" lon="5.76668">
        <ele>223.9</ele>
        <time>2021-05-26T16:54:09.000Z</time>
      </trkpt>
      <trkpt lat="45.16074" lon="5.76669">
        <ele>224</ele>
        <time>2021-05-26T16:54:10.000Z</time>
      </trkpt>
      <trkpt lat="45.1608" lon="5.76674">
        <ele>224</ele>
        <time>2021-05-26T16:54:11.000Z</time>
      </trkpt>
      <trkpt lat="45.16081" lon="5.76675">
        <ele>224</ele>
        <time>2021-05-26T16:54:12.000Z</time>
      </trkpt>
      <trkpt lat="45.16082" lon="5.76675">
        <ele>224</ele>
        <time>2021-05-26T16:54:13.000Z</time>
      </trkpt>
      <trkpt lat="45.16083" lon="5.76676">
        <ele>224</ele>
        <time>2021-05-26T16:54:14.000Z</time>
      </trkpt>
      <trkpt lat="45.16084" lon="5.76677">
        <ele>224.1</ele>
        <time>2021-05-26T16:54:15.000Z</time>
      </trkpt>
      <trkpt lat="45.16085" lon="5.76677">
        <ele>224.1</ele>
        <time>2021-05-26T16:54:16.000Z</time>
      </trkpt>
      <trkpt lat="45.16091" lon="5.76683">
        <ele>224.2</ele>
        <time>2021-05-26T16:54:17.000Z</time>
      </trkpt>
      <trkpt lat="45.16093" lon="5.76685">
        <ele>224.2</ele>
        <time>2021-05-26T16:54:18.000Z</time>
      </trkpt>
      <trkpt lat="45.16095" lon="5.76687">
        <ele>224.2</ele>
        <time>2021-05-26T16:54:19.000Z</time>
      </trkpt>
      <trkpt lat="45.16096" lon="5.76689">
        <ele>224.3</ele>
        <time>2021-05-26T16:54:21.000Z</time>
      </trkpt>
      <trkpt lat="45.16098" lon="5.76691">
        <ele>224.3</ele>
        <time>2021-05-26T16:54:22.000Z</time>
      </trkpt>
      <trkpt lat="45.16099" lon="5.76692">
        <ele>224.3</ele>
        <time>2021-05-26T16:54:23.000Z</time>
      </trkpt>
      <trkpt lat="45.161" lon="5.76693">
        <ele>224.3</ele>
        <time>2021-05-26T16:54:24.000Z</time>
      </trkpt>
      <trkpt lat="45.16101" lon="5.76694">
        <ele>224.4</ele>
        <time>2021-05-26T16:54:25.000Z</time>
      </trkpt>
      <trkpt lat="45.16102" lon="5.76695">
        <ele>224.4</ele>
        <time>2021-05-26T16:54:26.000Z</time>
      </trkpt>
      <trkpt lat="45.16104" lon="5.76696">
        <ele>224.4</ele>
        <time>2021-05-26T16:54:27.000Z</time>
      </trkpt>
      <trkpt lat="45.1611" lon="5.76701">
        <ele>224.6</ele>
        <time>2021-05-26T16:54:28.000Z</time>
      </trkpt>
      <trkpt lat="45.16111" lon="5.76702">
        <ele>224.6</ele>
        <time>2021-05-26T16:54:29.000Z</time>
      </trkpt>
      <trkpt lat="45.16112" lon="5.76703">
        <ele>224.6</ele>
        <time>2021-05-26T16:54:30.000Z</time>
      </trkpt>
      <trkpt lat="45.16113" lon="5.76703">
        <ele>224.6</ele>
        <time>2021-05-26T16:54:31.000Z</time>
      </trkpt>
      <trkpt lat="45.16114" lon="5.76704">
        <ele>224.6</ele>
        <time>2021-05-26T16:54:32.000Z</time>
      </trkpt>
      <trkpt lat="45.16118" lon="5.76707">
        <ele>224.7</ele>
        <time>2021-05-26T16:54:33.000Z</time>
      </trkpt>
      <trkpt lat="45.16122" lon="5.76709">
        <ele>224.8</ele>
        <time>2021-05-26T16:54:34.000Z</time>
      </trkpt>
      <trkpt lat="45.16124" lon="5.7671">
        <ele>224.8</ele>
        <time>2021-05-26T16:54:35.000Z</time>
      </trkpt>
      <trkpt lat="45.16126" lon="5.76711">
        <ele>224.9</ele>
        <time>2021-05-26T16:54:36.000Z</time>
      </trkpt>
      <trkpt lat="45.16126" lon="5.76711">
        <ele>224.9</ele>
        <time>2021-05-26T16:54:37.000Z</time>
      </trkpt>
      <trkpt lat="45.16126" lon="5.76711">
        <ele>224.9</ele>
        <time>2021-05-26T16:54:38.000Z</time>
      </trkpt>
      <trkpt lat="45.16136" lon="5.76716">
        <ele>225.1</ele>
        <time>2021-05-26T16:54:40.000Z</time>
      </trkpt>
      <trkpt lat="45.16138" lon="5.76717">
        <ele>225.1</ele>
        <time>2021-05-26T16:54:41.000Z</time>
      </trkpt>
      <trkpt lat="45.16139" lon="5.76718">
        <ele>225.1</ele>
        <time>2021-05-26T16:54:42.000Z</time>
      </trkpt>
      <trkpt lat="45.1614" lon="5.76719">
        <ele>225.1</ele>
        <time>2021-05-26T16:54:43.000Z</time>
      </trkpt>
      <trkpt lat="45.16141" lon="5.76719">
        <ele>225.1</ele>
        <time>2021-05-26T16:54:44.000Z</time>
      </trkpt>
      <trkpt lat="45.16147" lon="5.76723">
        <ele>225.2</ele>
        <time>2021-05-26T16:54:45.000Z</time>
      </trkpt>
      <trkpt lat="45.16148" lon="5.76724">
        <ele>225.3</ele>
        <time>2021-05-26T16:54:46.000Z</time>
      </trkpt>
      <trkpt lat="45.1615" lon="5.76725">
        <ele>225.3</ele>
        <time>2021-05-26T16:54:47.000Z</time>
      </trkpt>
      <trkpt lat="45.16151" lon="5.76726">
        <ele>225.3</ele>
        <time>2021-05-26T16:54:48.000Z</time>
      </trkpt>
      <trkpt lat="45.16152" lon="5.76727">
        <ele>225.3</ele>
        <time>2021-05-26T16:54:49.000Z</time>
      </trkpt>
      <trkpt lat="45.16159" lon="5.76732">
        <ele>225.4</ele>
        <time>2021-05-26T16:54:50.000Z</time>
      </trkpt>
      <trkpt lat="45.1616" lon="5.76732">
        <ele>225.5</ele>
        <time>2021-05-26T16:54:51.000Z</time>
      </trkpt>
      <trkpt lat="45.16161" lon="5.76733">
        <ele>225.5</ele>
        <time>2021-05-26T16:54:52.000Z</time>
      </trkpt>
      <trkpt lat="45.16162" lon="5.76734">
        <ele>225.5</ele>
        <time>2021-05-26T16:54:53.000Z</time>
      </trkpt>
      <trkpt lat="45.16163" lon="5.76735">
        <ele>225.5</ele>
        <time>2021-05-26T16:54:54.000Z</time>
      </trkpt>
      <trkpt lat="45.16169" lon="5.7674">
        <ele>225.6</ele>
        <time>2021-05-26T16:54:55.000Z</time>
      </trkpt>
      <trkpt lat="45.1617" lon="5.7674">
        <ele>225.6</ele>
        <time>2021-05-26T16:54:56.000Z</time>
      </trkpt>
      <trkpt lat="45.16171" lon="5.76741">
        <ele>225.7</ele>
        <time>2021-05-26T16:54:57.000Z</time>
      </trkpt>
      <trkpt lat="45.16173" lon="5.76742">
        <ele>225.7</ele>
        <time>2021-05-26T16:54:59.000Z</time>
      </trkpt>
      <trkpt lat="45.16174" lon="5.76743">
        <ele>225.7</ele>
        <time>2021-05-26T16:55:00.000Z</time>
      </trkpt>
      <trkpt lat="45.1618" lon="5.76748">
        <ele>225.8</ele>
        <time>2021-05-26T16:55:01.000Z</time>
      </trkpt>
      <trkpt lat="45.16181" lon="5.76749">
        <ele>225.8</ele>
        <time>2021-05-26T16:55:02.000Z</time>
      </trkpt>
      <trkpt lat="45.16182" lon="5.7675">
        <ele>225.8</ele>
        <time>2021-05-26T16:55:03.000Z</time>
      </trkpt>
      <trkpt lat="45.16184" lon="5.76751">
        <ele>225.8</ele>
        <time>2021-05-26T16:55:04.000Z</time>
      </trkpt>
      <trkpt lat="45.16185" lon="5.76752">
        <ele>225.8</ele>
        <time>2021-05-26T16:55:05.000Z</time>
      </trkpt>
      <trkpt lat="45.1619" lon="5.76756">
        <ele>225.8</ele>
        <time>2021-05-26T16:55:06.000Z</time>
      </trkpt>
      <trkpt lat="45.1619" lon="5.76756">
        <ele>225.8</ele>
        <time>2021-05-26T16:55:07.000Z</time>
      </trkpt>
      <trkpt lat="45.1619" lon="5.76756">
        <ele>225.8</ele>
        <time>2021-05-26T16:55:08.000Z</time>
      </trkpt>
      <trkpt lat="45.16203" lon="5.76757">
        <ele>225.9</ele>
        <time>2021-05-26T16:55:10.000Z</time>
      </trkpt>
      <trkpt lat="45.16204" lon="5.76758">
        <ele>225.9</ele>
        <time>2021-05-26T16:55:11.000Z</time>
      </trkpt>
      <trkpt lat="45.16206" lon="5.76758">
        <ele>225.9</ele>
        <time>2021-05-26T16:55:12.000Z</time>
      </trkpt>
      <trkpt lat="45.16207" lon="5.76759">
        <ele>225.9</ele>
        <time>2021-05-26T16:55:13.000Z</time>
      </trkpt>
      <trkpt lat="45.16208" lon="5.76759">
        <ele>225.9</ele>
        <time>2021-05-26T16:55:14.000Z</time>
      </trkpt>
      <trkpt lat="45.16209" lon="5.7676">
        <ele>225.9</ele>
        <time>2021-05-26T16:55:15.000Z</time>
      </trkpt>
      <trkpt lat="45.16216" lon="5.76764">
        <ele>226</ele>
        <time>2021-05-26T16:55:16.000Z</time>
      </trkpt>
      <trkpt lat="45.16218" lon="5.76765">
        <ele>226</ele>
        <time>2021-05-26T16:55:18.000Z</time>
      </trkpt>
      <trkpt lat="45.16219" lon="5.76766">
        <ele>226</ele>
        <time>2021-05-26T16:55:19.000Z</time>
      </trkpt>
      <trkpt lat="45.16221" lon="5.76767">
        <ele>226</ele>
        <time>2021-05-26T16:55:20.000Z</time>
      </trkpt>
      <trkpt lat="45.16228" lon="5.76772">
        <ele>226</ele>
        <time>2021-05-26T16:55:21.000Z</time>
      </trkpt>
      <trkpt lat="45.16229" lon="5.76773">
        <ele>226</ele>
        <time>2021-05-26T16:55:22.000Z</time>
      </trkpt>
      <trkpt lat="45.1623" lon="5.76774">
        <ele>226</ele>
        <time>2021-05-26T16:55:23.000Z</time>
      </trkpt>
      <trkpt lat="45.16232" lon="5.76775">
        <ele>226</ele>
        <time>2021-05-26T16:55:24.000Z</time>
      </trkpt>
      <trkpt lat="45.16238" lon="5.76779">
        <ele>226</ele>
        <time>2021-05-26T16:55:25.000Z</time>
      </trkpt>
      <trkpt lat="45.16239" lon="5.7678">
        <ele>226</ele>
        <time>2021-05-26T16:55:26.000Z</time>
      </trkpt>
      <trkpt lat="45.16239" lon="5.76781">
        <ele>226</ele>
        <time>2021-05-26T16:55:27.000Z</time>
      </trkpt>
      <trkpt lat="45.1624" lon="5.76782">
        <ele>226</ele>
        <time>2021-05-26T16:55:28.000Z</time>
      </trkpt>
      <trkpt lat="45.16241" lon="5.76782">
        <ele>226</ele>
        <time>2021-05-26T16:55:29.000Z</time>
      </trkpt>
      <trkpt lat="45.16242" lon="5.76783">
        <ele>226</ele>
        <time>2021-05-26T16:55:30.000Z</time>
      </trkpt>
      <trkpt lat="45.16242" lon="5.76784">
        <ele>226</ele>
        <time>2021-05-26T16:55:31.000Z</time>
      </trkpt>
      <trkpt lat="45.16249" lon="5.7679">
        <ele>226</ele>
        <time>2021-05-26T16:55:32.000Z</time>
      </trkpt>
      <trkpt lat="45.16251" lon="5.76792">
        <ele>225.9</ele>
        <time>2021-05-26T16:55:33.000Z</time>
      </trkpt>
      <trkpt lat="45.16253" lon="5.76793">
        <ele>225.9</ele>
        <time>2021-05-26T16:55:34.000Z</time>
      </trkpt>
      <trkpt lat="45.16255" lon="5.76794">
        <ele>225.9</ele>
        <time>2021-05-26T16:55:35.000Z</time>
      </trkpt>
      <trkpt lat="45.16257" lon="5.76796">
        <ele>225.9</ele>
        <time>2021-05-26T16:55:36.000Z</time>
      </trkpt>
      <trkpt lat="45.16259" lon="5.76797">
        <ele>225.9</ele>
        <time>2021-05-26T16:55:37.000Z</time>
      </trkpt>
      <trkpt lat="45.16261" lon="5.76797">
        <ele>225.9</ele>
        <time>2021-05-26T16:55:38.000Z</time>
      </trkpt>
      <trkpt lat="45.16262" lon="5.76797">
        <ele>225.9</ele>
        <time>2021-05-26T16:55:39.000Z</time>
      </trkpt>
      <trkpt lat="45.16263" lon="5.76798">
        <ele>225.9</ele>
        <time>2021-05-26T16:55:40.000Z</time>
      </trkpt>
      <trkpt lat="45.16265" lon="5.76798">
        <ele>225.9</ele>
        <time>2021-05-26T16:55:41.000Z</time>
      </trkpt>
      <trkpt lat="45.16272" lon="5.768">
        <ele>225.9</ele>
        <time>2021-05-26T16:55:42.000Z</time>
      </trkpt>
      <trkpt lat="45.16275" lon="5.768">
        <ele>225.9</ele>
        <time>2021-05-26T16:55:43.000Z</time>
      </trkpt>
      <trkpt lat="45.16277" lon="5.76801">
        <ele>225.9</ele>
        <time>2021-05-26T16:55:44.000Z</time>
      </trkpt>
      <trkpt lat="45.16279" lon="5.76802">
        <ele>225.9</ele>
        <time>2021-05-26T16:55:45.000Z</time>
      </trkpt>
      <trkpt lat="45.16282" lon="5.76803">
        <ele>225.9</ele>
        <time>2021-05-26T16:55:46.000Z</time>
      </trkpt>
      <trkpt lat="45.16284" lon="5.76802">
        <ele>225.9</ele>
        <time>2021-05-26T16:55:47.000Z</time>
      </trkpt>
      <trkpt lat="45.16286" lon="5.76802">
        <ele>225.9</ele>
        <time>2021-05-26T16:55:48.000Z</time>
      </trkpt>
      <trkpt lat="45.16288" lon="5.76802">
        <ele>225.9</ele>
        <time>2021-05-26T16:55:49.000Z</time>
      </trkpt>
      <trkpt lat="45.1629" lon="5.76801">
        <ele>225.9</ele>
        <time>2021-05-26T16:55:50.000Z</time>
      </trkpt>
      <trkpt lat="45.16292" lon="5.76802">
        <ele>225.9</ele>
        <time>2021-05-26T16:55:51.000Z</time>
      </trkpt>
      <trkpt lat="45.16295" lon="5.76802">
        <ele>225.9</ele>
        <time>2021-05-26T16:55:52.000Z</time>
      </trkpt>
      <trkpt lat="45.16297" lon="5.76803">
        <ele>226</ele>
        <time>2021-05-26T16:55:53.000Z</time>
      </trkpt>
      <trkpt lat="45.16299" lon="5.76804">
        <ele>226</ele>
        <time>2021-05-26T16:55:54.000Z</time>
      </trkpt>
      <trkpt lat="45.16303" lon="5.76803">
        <ele>226</ele>
        <time>2021-05-26T16:55:56.000Z</time>
      </trkpt>
      <trkpt lat="45.16303" lon="5.76803">
        <ele>226</ele>
        <time>2021-05-26T16:55:57.000Z</time>
      </trkpt>
      <trkpt lat="45.16305" lon="5.76803">
        <ele>226</ele>
        <time>2021-05-26T16:55:58.000Z</time>
      </trkpt>
      <trkpt lat="45.16306" lon="5.76803">
        <ele>226</ele>
        <time>2021-05-26T16:55:59.000Z</time>
      </trkpt>
      <trkpt lat="45.16308" lon="5.76803">
        <ele>226</ele>
        <time>2021-05-26T16:56:00.000Z</time>
      </trkpt>
      <trkpt lat="45.16309" lon="5.76803">
        <ele>226</ele>
        <time>2021-05-26T16:56:01.000Z</time>
      </trkpt>
      <trkpt lat="45.16316" lon="5.76801">
        <ele>226.1</ele>
        <time>2021-05-26T16:56:02.000Z</time>
      </trkpt>
      <trkpt lat="45.16317" lon="5.76801">
        <ele>226.1</ele>
        <time>2021-05-26T16:56:03.000Z</time>
      </trkpt>
      <trkpt lat="45.16318" lon="5.76801">
        <ele>226.1</ele>
        <time>2021-05-26T16:56:04.000Z</time>
      </trkpt>
      <trkpt lat="45.16319" lon="5.76801">
        <ele>226.1</ele>
        <time>2021-05-26T16:56:05.000Z</time>
      </trkpt>
      <trkpt lat="45.1632" lon="5.76801">
        <ele>226.1</ele>
        <time>2021-05-26T16:56:06.000Z</time>
      </trkpt>
      <trkpt lat="45.16327" lon="5.768">
        <ele>226.2</ele>
        <time>2021-05-26T16:56:07.000Z</time>
      </trkpt>
      <trkpt lat="45.16328" lon="5.76799">
        <ele>226.2</ele>
        <time>2021-05-26T16:56:08.000Z</time>
      </trkpt>
      <trkpt lat="45.16329" lon="5.76799">
        <ele>226.2</ele>
        <time>2021-05-26T16:56:09.000Z</time>
      </trkpt>
      <trkpt lat="45.1633" lon="5.76799">
        <ele>226.2</ele>
        <time>2021-05-26T16:56:10.000Z</time>
      </trkpt>
      <trkpt lat="45.16331" lon="5.76799">
        <ele>226.2</ele>
        <time>2021-05-26T16:56:11.000Z</time>
      </trkpt>
      <trkpt lat="45.16338" lon="5.76799">
        <ele>226.4</ele>
        <time>2021-05-26T16:56:12.000Z</time>
      </trkpt>
      <trkpt lat="45.1634" lon="5.76799">
        <ele>226.4</ele>
        <time>2021-05-26T16:56:14.000Z</time>
      </trkpt>
      <trkpt lat="45.16341" lon="5.76799">
        <ele>226.4</ele>
        <time>2021-05-26T16:56:15.000Z</time>
      </trkpt>
      <trkpt lat="45.16343" lon="5.76799">
        <ele>226.4</ele>
        <time>2021-05-26T16:56:16.000Z</time>
      </trkpt>
      <trkpt lat="45.1635" lon="5.76798">
        <ele>226.6</ele>
        <time>2021-05-26T16:56:17.000Z</time>
      </trkpt>
      <trkpt lat="45.16351" lon="5.76798">
        <ele>226.6</ele>
        <time>2021-05-26T16:56:18.000Z</time>
      </trkpt>
      <trkpt lat="45.16352" lon="5.76799">
        <ele>226.6</ele>
        <time>2021-05-26T16:56:19.000Z</time>
      </trkpt>
      <trkpt lat="45.16354" lon="5.76799">
        <ele>226.6</ele>
        <time>2021-05-26T16:56:20.000Z</time>
      </trkpt>
      <trkpt lat="45.16355" lon="5.76799">
        <ele>226.6</ele>
        <time>2021-05-26T16:56:21.000Z</time>
      </trkpt>
      <trkpt lat="45.16363" lon="5.76799">
        <ele>226.8</ele>
        <time>2021-05-26T16:56:22.000Z</time>
      </trkpt>
      <trkpt lat="45.16364" lon="5.76799">
        <ele>226.8</ele>
        <time>2021-05-26T16:56:23.000Z</time>
      </trkpt>
      <trkpt lat="45.16365" lon="5.76799">
        <ele>226.8</ele>
        <time>2021-05-26T16:56:24.000Z</time>
      </trkpt>
      <trkpt lat="45.16366" lon="5.76799">
        <ele>226.8</ele>
        <time>2021-05-26T16:56:25.000Z</time>
      </trkpt>
      <trkpt lat="45.16367" lon="5.76799">
        <ele>226.8</ele>
        <time>2021-05-26T16:56:26.000Z</time>
      </trkpt>
      <trkpt lat="45.16368" lon="5.768">
        <ele>226.9</ele>
        <time>2021-05-26T16:56:27.000Z</time>
      </trkpt>
      <trkpt lat="45.16376" lon="5.76801">
        <ele>227</ele>
        <time>2021-05-26T16:56:28.000Z</time>
      </trkpt>
      <trkpt lat="45.16377" lon="5.76801">
        <ele>227.1</ele>
        <time>2021-05-26T16:56:29.000Z</time>
      </trkpt>
      <trkpt lat="45.16379" lon="5.76802">
        <ele>227.1</ele>
        <time>2021-05-26T16:56:30.000Z</time>
      </trkpt>
      <trkpt lat="45.1638" lon="5.76803">
        <ele>227.1</ele>
        <time>2021-05-26T16:56:31.000Z</time>
      </trkpt>
      <trkpt lat="45.16382" lon="5.76804">
        <ele>227.2</ele>
        <time>2021-05-26T16:56:32.000Z</time>
      </trkpt>
      <trkpt lat="45.16383" lon="5.76804">
        <ele>227.2</ele>
        <time>2021-05-26T16:56:33.000Z</time>
      </trkpt>
      <trkpt lat="45.16385" lon="5.76805">
        <ele>227.2</ele>
        <time>2021-05-26T16:56:34.000Z</time>
      </trkpt>
      <trkpt lat="45.16386" lon="5.76805">
        <ele>227.3</ele>
        <time>2021-05-26T16:56:35.000Z</time>
      </trkpt>
      <trkpt lat="45.16387" lon="5.76805">
        <ele>227.3</ele>
        <time>2021-05-26T16:56:36.000Z</time>
      </trkpt>
      <trkpt lat="45.16388" lon="5.76805">
        <ele>227.3</ele>
        <time>2021-05-26T16:56:37.000Z</time>
      </trkpt>
      <trkpt lat="45.16389" lon="5.76805">
        <ele>227.3</ele>
        <time>2021-05-26T16:56:38.000Z</time>
      </trkpt>
      <trkpt lat="45.1639" lon="5.76805">
        <ele>227.4</ele>
        <time>2021-05-26T16:56:39.000Z</time>
      </trkpt>
      <trkpt lat="45.16391" lon="5.76805">
        <ele>227.4</ele>
        <time>2021-05-26T16:56:40.000Z</time>
      </trkpt>
      <trkpt lat="45.16398" lon="5.76806">
        <ele>227.6</ele>
        <time>2021-05-26T16:56:41.000Z</time>
      </trkpt>
      <trkpt lat="45.164" lon="5.76806">
        <ele>227.6</ele>
        <time>2021-05-26T16:56:42.000Z</time>
      </trkpt>
      <trkpt lat="45.16401" lon="5.76806">
        <ele>227.6</ele>
        <time>2021-05-26T16:56:43.000Z</time>
      </trkpt>
      <trkpt lat="45.16403" lon="5.76806">
        <ele>227.7</ele>
        <time>2021-05-26T16:56:44.000Z</time>
      </trkpt>
      <trkpt lat="45.16404" lon="5.76806">
        <ele>227.7</ele>
        <time>2021-05-26T16:56:45.000Z</time>
      </trkpt>
      <trkpt lat="45.16413" lon="5.76806">
        <ele>227.9</ele>
        <time>2021-05-26T16:56:46.000Z</time>
      </trkpt>
      <trkpt lat="45.16414" lon="5.76806">
        <ele>228</ele>
        <time>2021-05-26T16:56:47.000Z</time>
      </trkpt>
      <trkpt lat="45.16416" lon="5.76806">
        <ele>228</ele>
        <time>2021-05-26T16:56:48.000Z</time>
      </trkpt>
      <trkpt lat="45.16417" lon="5.76806">
        <ele>228.1</ele>
        <time>2021-05-26T16:56:49.000Z</time>
      </trkpt>
      <trkpt lat="45.16424" lon="5.76806">
        <ele>228.4</ele>
        <time>2021-05-26T16:56:50.000Z</time>
      </trkpt>
      <trkpt lat="45.16426" lon="5.76806">
        <ele>228.4</ele>
        <time>2021-05-26T16:56:51.000Z</time>
      </trkpt>
      <trkpt lat="45.16427" lon="5.76806">
        <ele>228.5</ele>
        <time>2021-05-26T16:56:53.000Z</time>
      </trkpt>
      <trkpt lat="45.16429" lon="5.76806">
        <ele>228.5</ele>
        <time>2021-05-26T16:56:54.000Z</time>
      </trkpt>
      <trkpt lat="45.16436" lon="5.76807">
        <ele>228.8</ele>
        <time>2021-05-26T16:56:55.000Z</time>
      </trkpt>
      <trkpt lat="45.16437" lon="5.76807">
        <ele>228.8</ele>
        <time>2021-05-26T16:56:56.000Z</time>
      </trkpt>
      <trkpt lat="45.16438" lon="5.76808">
        <ele>228.9</ele>
        <time>2021-05-26T16:56:57.000Z</time>
      </trkpt>
      <trkpt lat="45.16439" lon="5.76808">
        <ele>228.9</ele>
        <time>2021-05-26T16:56:58.000Z</time>
      </trkpt>
      <trkpt lat="45.1644" lon="5.76808">
        <ele>229</ele>
        <time>2021-05-26T16:56:59.000Z</time>
      </trkpt>
      <trkpt lat="45.16447" lon="5.76812">
        <ele>229.2</ele>
        <time>2021-05-26T16:57:00.000Z</time>
      </trkpt>
      <trkpt lat="45.16448" lon="5.76813">
        <ele>229.3</ele>
        <time>2021-05-26T16:57:01.000Z</time>
      </trkpt>
      <trkpt lat="45.16449" lon="5.76814">
        <ele>229.3</ele>
        <time>2021-05-26T16:57:02.000Z</time>
      </trkpt>
      <trkpt lat="45.1645" lon="5.76815">
        <ele>229.4</ele>
        <time>2021-05-26T16:57:03.000Z</time>
      </trkpt>
      <trkpt lat="45.1645" lon="5.76817">
        <ele>229.4</ele>
        <time>2021-05-26T16:57:04.000Z</time>
      </trkpt>
      <trkpt lat="45.16456" lon="5.76825">
        <ele>229.7</ele>
        <time>2021-05-26T16:57:05.000Z</time>
      </trkpt>
      <trkpt lat="45.16456" lon="5.76827">
        <ele>229.8</ele>
        <time>2021-05-26T16:57:06.000Z</time>
      </trkpt>
      <trkpt lat="45.16457" lon="5.76829">
        <ele>229.9</ele>
        <time>2021-05-26T16:57:07.000Z</time>
      </trkpt>
      <trkpt lat="45.16457" lon="5.76832">
        <ele>230</ele>
        <time>2021-05-26T16:57:08.000Z</time>
      </trkpt>
      <trkpt lat="45.16458" lon="5.76835">
        <ele>230.1</ele>
        <time>2021-05-26T16:57:09.000Z</time>
      </trkpt>
      <trkpt lat="45.16458" lon="5.76838">
        <ele>230.3</ele>
        <time>2021-05-26T16:57:10.000Z</time>
      </trkpt>
      <trkpt lat="45.16459" lon="5.76841">
        <ele>230.4</ele>
        <time>2021-05-26T16:57:11.000Z</time>
      </trkpt>
      <trkpt lat="45.16459" lon="5.76844">
        <ele>230.6</ele>
        <time>2021-05-26T16:57:12.000Z</time>
      </trkpt>
      <trkpt lat="45.16459" lon="5.76848">
        <ele>230.8</ele>
        <time>2021-05-26T16:57:13.000Z</time>
      </trkpt>
      <trkpt lat="45.16459" lon="5.76853">
        <ele>231</ele>
        <time>2021-05-26T16:57:14.000Z</time>
      </trkpt>
      <trkpt lat="45.16459" lon="5.76855">
        <ele>231.1</ele>
        <time>2021-05-26T16:57:15.000Z</time>
      </trkpt>
      <trkpt lat="45.16459" lon="5.76857">
        <ele>231.3</ele>
        <time>2021-05-26T16:57:16.000Z</time>
      </trkpt>
      <trkpt lat="45.16458" lon="5.7686">
        <ele>231.4</ele>
        <time>2021-05-26T16:57:17.000Z</time>
      </trkpt>
      <trkpt lat="45.16458" lon="5.76862">
        <ele>231.5</ele>
        <time>2021-05-26T16:57:18.000Z</time>
      </trkpt>
      <trkpt lat="45.16458" lon="5.76865">
        <ele>231.6</ele>
        <time>2021-05-26T16:57:19.000Z</time>
      </trkpt>
      <trkpt lat="45.16459" lon="5.7687">
        <ele>231.9</ele>
        <time>2021-05-26T16:57:20.000Z</time>
      </trkpt>
      <trkpt lat="45.16459" lon="5.76873">
        <ele>232</ele>
        <time>2021-05-26T16:57:21.000Z</time>
      </trkpt>
      <trkpt lat="45.16459" lon="5.76875">
        <ele>232.2</ele>
        <time>2021-05-26T16:57:22.000Z</time>
      </trkpt>
      <trkpt lat="45.1646" lon="5.76878">
        <ele>232.3</ele>
        <time>2021-05-26T16:57:23.000Z</time>
      </trkpt>
      <trkpt lat="45.1646" lon="5.76878">
        <ele>232.3</ele>
        <time>2021-05-26T16:57:24.000Z</time>
      </trkpt>
      <trkpt lat="45.16461" lon="5.76883">
        <ele>232.6</ele>
        <time>2021-05-26T16:57:25.000Z</time>
      </trkpt>
      <trkpt lat="45.16462" lon="5.76886">
        <ele>232.8</ele>
        <time>2021-05-26T16:57:26.000Z</time>
      </trkpt>
      <trkpt lat="45.16463" lon="5.76888">
        <ele>233</ele>
        <time>2021-05-26T16:57:27.000Z</time>
      </trkpt>
      <trkpt lat="45.16464" lon="5.76891">
        <ele>233.2</ele>
        <time>2021-05-26T16:57:28.000Z</time>
      </trkpt>
      <trkpt lat="45.16465" lon="5.76894">
        <ele>233.4</ele>
        <time>2021-05-26T16:57:29.000Z</time>
      </trkpt>
      <trkpt lat="45.16466" lon="5.76897">
        <ele>233.6</ele>
        <time>2021-05-26T16:57:31.000Z</time>
      </trkpt>
      <trkpt lat="45.16467" lon="5.769">
        <ele>233.9</ele>
        <time>2021-05-26T16:57:32.000Z</time>
      </trkpt>
      <trkpt lat="45.16468" lon="5.76903">
        <ele>234.1</ele>
        <time>2021-05-26T16:57:33.000Z</time>
      </trkpt>
      <trkpt lat="45.16469" lon="5.76906">
        <ele>234.3</ele>
        <time>2021-05-26T16:57:34.000Z</time>
      </trkpt>
      <trkpt lat="45.16469" lon="5.76908">
        <ele>234.5</ele>
        <time>2021-05-26T16:57:35.000Z</time>
      </trkpt>
      <trkpt lat="45.1647" lon="5.76911">
        <ele>234.8</ele>
        <time>2021-05-26T16:57:36.000Z</time>
      </trkpt>
      <trkpt lat="45.1647" lon="5.76913">
        <ele>235</ele>
        <time>2021-05-26T16:57:37.000Z</time>
      </trkpt>
      <trkpt lat="45.16471" lon="5.76916">
        <ele>235.2</ele>
        <time>2021-05-26T16:57:38.000Z</time>
      </trkpt>
      <trkpt lat="45.16471" lon="5.76917">
        <ele>235.3</ele>
        <time>2021-05-26T16:57:39.000Z</time>
      </trkpt>
      <trkpt lat="45.16471" lon="5.76918">
        <ele>235.4</ele>
        <time>2021-05-26T16:57:40.000Z</time>
      </trkpt>
      <trkpt lat="45.1647" lon="5.7692">
        <ele>235.5</ele>
        <time>2021-05-26T16:57:41.000Z</time>
      </trkpt>
      <trkpt lat="45.1647" lon="5.76921">
        <ele>235.7</ele>
        <time>2021-05-26T16:57:42.000Z</time>
      </trkpt>
      <trkpt lat="45.1647" lon="5.76923">
        <ele>235.8</ele>
        <time>2021-05-26T16:57:43.000Z</time>
      </trkpt>
      <trkpt lat="45.1647" lon="5.76924">
        <ele>235.9</ele>
        <time>2021-05-26T16:57:44.000Z</time>
      </trkpt>
      <trkpt lat="45.16468" lon="5.76935">
        <ele>236.6</ele>
        <time>2021-05-26T16:57:45.000Z</time>
      </trkpt>
      <trkpt lat="45.16467" lon="5.76937">
        <ele>236.8</ele>
        <time>2021-05-26T16:57:46.000Z</time>
      </trkpt>
      <trkpt lat="45.16467" lon="5.7694">
        <ele>237</ele>
        <time>2021-05-26T16:57:47.000Z</time>
      </trkpt>
      <trkpt lat="45.16466" lon="5.76943">
        <ele>237.1</ele>
        <time>2021-05-26T16:57:48.000Z</time>
      </trkpt>
      <trkpt lat="45.16466" lon="5.76944">
        <ele>237.2</ele>
        <time>2021-05-26T16:57:50.000Z</time>
      </trkpt>
      <trkpt lat="45.16465" lon="5.76945">
        <ele>237.3</ele>
        <time>2021-05-26T16:57:52.000Z</time>
      </trkpt>
      <trkpt lat="45.16465" lon="5.76946">
        <ele>237.4</ele>
        <time>2021-05-26T16:57:53.000Z</time>
      </trkpt>
      <trkpt lat="45.16464" lon="5.76947">
        <ele>237.5</ele>
        <time>2021-05-26T16:57:55.000Z</time>
      </trkpt>
      <trkpt lat="45.16463" lon="5.76948">
        <ele>237.5</ele>
        <time>2021-05-26T16:57:56.000Z</time>
      </trkpt>
      <trkpt lat="45.16463" lon="5.76949">
        <ele>238.7</ele>
        <time>2021-05-26T16:57:57.000Z</time>
      </trkpt>
      <trkpt lat="45.16462" lon="5.7695">
        <ele>238.9</ele>
        <time>2021-05-26T16:57:58.000Z</time>
      </trkpt>
      <trkpt lat="45.16459" lon="5.76957">
        <ele>240.3</ele>
        <time>2021-05-26T16:57:59.000Z</time>
      </trkpt>
      <trkpt lat="45.16459" lon="5.76958">
        <ele>240.4</ele>
        <time>2021-05-26T16:58:00.000Z</time>
      </trkpt>
      <trkpt lat="45.16459" lon="5.76958">
        <ele>240.5</ele>
        <time>2021-05-26T16:58:01.000Z</time>
      </trkpt>
      <trkpt lat="45.16459" lon="5.76959">
        <ele>240.6</ele>
        <time>2021-05-26T16:58:02.000Z</time>
      </trkpt>
      <trkpt lat="45.16459" lon="5.7696">
        <ele>240.7</ele>
        <time>2021-05-26T16:58:03.000Z</time>
      </trkpt>
      <trkpt lat="45.16459" lon="5.76961">
        <ele>240.8</ele>
        <time>2021-05-26T16:58:04.000Z</time>
      </trkpt>
      <trkpt lat="45.16459" lon="5.76961">
        <ele>241</ele>
        <time>2021-05-26T16:58:05.000Z</time>
      </trkpt>
      <trkpt lat="45.16459" lon="5.76962">
        <ele>241.1</ele>
        <time>2021-05-26T16:58:07.000Z</time>
      </trkpt>
      <trkpt lat="45.16459" lon="5.76963">
        <ele>241.2</ele>
        <time>2021-05-26T16:58:09.000Z</time>
      </trkpt>
      <trkpt lat="45.16459" lon="5.76964">
        <ele>241.3</ele>
        <time>2021-05-26T16:58:10.000Z</time>
      </trkpt>
      <trkpt lat="45.16459" lon="5.76964">
        <ele>241.5</ele>
        <time>2021-05-26T16:58:11.000Z</time>
      </trkpt>
      <trkpt lat="45.16459" lon="5.76974">
        <ele>243</ele>
        <time>2021-05-26T16:58:12.000Z</time>
      </trkpt>
      <trkpt lat="45.16459" lon="5.76974">
        <ele>243.1</ele>
        <time>2021-05-26T16:58:13.000Z</time>
      </trkpt>
      <trkpt lat="45.16459" lon="5.76975">
        <ele>243.3</ele>
        <time>2021-05-26T16:58:14.000Z</time>
      </trkpt>
      <trkpt lat="45.16459" lon="5.76976">
        <ele>243.4</ele>
        <time>2021-05-26T16:58:15.000Z</time>
      </trkpt>
      <trkpt lat="45.16459" lon="5.76977">
        <ele>243.6</ele>
        <time>2021-05-26T16:58:16.000Z</time>
      </trkpt>
      <trkpt lat="45.16459" lon="5.76978">
        <ele>243.7</ele>
        <time>2021-05-26T16:58:17.000Z</time>
      </trkpt>
      <trkpt lat="45.16459" lon="5.76979">
        <ele>243.9</ele>
        <time>2021-05-26T16:58:18.000Z</time>
      </trkpt>
      <trkpt lat="45.16459" lon="5.7698">
        <ele>244</ele>
        <time>2021-05-26T16:58:19.000Z</time>
      </trkpt>
      <trkpt lat="45.16459" lon="5.7698">
        <ele>244.1</ele>
        <time>2021-05-26T16:58:20.000Z</time>
      </trkpt>
      <trkpt lat="45.1646" lon="5.76989">
        <ele>245.6</ele>
        <time>2021-05-26T16:58:21.000Z</time>
      </trkpt>
      <trkpt lat="45.1646" lon="5.7699">
        <ele>245.8</ele>
        <time>2021-05-26T16:58:22.000Z</time>
      </trkpt>
      <trkpt lat="45.1646" lon="5.76991">
        <ele>246</ele>
        <time>2021-05-26T16:58:23.000Z</time>
      </trkpt>
      <trkpt lat="45.1646" lon="5.76992">
        <ele>246.2</ele>
        <time>2021-05-26T16:58:24.000Z</time>
      </trkpt>
      <trkpt lat="45.1646" lon="5.76993">
        <ele>246.4</ele>
        <time>2021-05-26T16:58:25.000Z</time>
      </trkpt>
      <trkpt lat="45.1646" lon="5.76994">
        <ele>246.5</ele>
        <time>2021-05-26T16:58:26.000Z</time>
      </trkpt>
      <trkpt lat="45.1646" lon="5.76995">
        <ele>246.7</ele>
        <time>2021-05-26T16:58:28.000Z</time>
      </trkpt>
      <trkpt lat="45.1646" lon="5.76996">
        <ele>246.9</ele>
        <time>2021-05-26T16:58:29.000Z</time>
      </trkpt>
      <trkpt lat="45.16461" lon="5.77005">
        <ele>248.5</ele>
        <time>2021-05-26T16:58:30.000Z</time>
      </trkpt>
      <trkpt lat="45.16462" lon="5.77006">
        <ele>248.6</ele>
        <time>2021-05-26T16:58:31.000Z</time>
      </trkpt>
      <trkpt lat="45.16462" lon="5.77006">
        <ele>248.7</ele>
        <time>2021-05-26T16:58:32.000Z</time>
      </trkpt>
      <trkpt lat="45.16462" lon="5.77007">
        <ele>248.8</ele>
        <time>2021-05-26T16:58:33.000Z</time>
      </trkpt>
      <trkpt lat="45.16462" lon="5.77007">
        <ele>248.9</ele>
        <time>2021-05-26T16:58:34.000Z</time>
      </trkpt>
      <trkpt lat="45.16462" lon="5.77008">
        <ele>249</ele>
        <time>2021-05-26T16:58:35.000Z</time>
      </trkpt>
      <trkpt lat="45.16462" lon="5.77008">
        <ele>249.1</ele>
        <time>2021-05-26T16:58:36.000Z</time>
      </trkpt>
      <trkpt lat="45.16462" lon="5.77009">
        <ele>249.2</ele>
        <time>2021-05-26T16:58:37.000Z</time>
      </trkpt>
      <trkpt lat="45.16462" lon="5.7701">
        <ele>249.3</ele>
        <time>2021-05-26T16:58:38.000Z</time>
      </trkpt>
      <trkpt lat="45.16462" lon="5.7701">
        <ele>249.4</ele>
        <time>2021-05-26T16:58:39.000Z</time>
      </trkpt>
      <trkpt lat="45.16462" lon="5.77011">
        <ele>249.5</ele>
        <time>2021-05-26T16:58:40.000Z</time>
      </trkpt>
      <trkpt lat="45.16462" lon="5.77011">
        <ele>249.7</ele>
        <time>2021-05-26T16:58:41.000Z</time>
      </trkpt>
      <trkpt lat="45.16462" lon="5.77012">
        <ele>249.7</ele>
        <time>2021-05-26T16:58:42.000Z</time>
      </trkpt>
      <trkpt lat="45.16462" lon="5.77012">
        <ele>249.9</ele>
        <time>2021-05-26T16:58:43.000Z</time>
      </trkpt>
      <trkpt lat="45.16463" lon="5.77021">
        <ele>251.5</ele>
        <time>2021-05-26T16:58:44.000Z</time>
      </trkpt>
      <trkpt lat="45.16463" lon="5.77022">
        <ele>251.6</ele>
        <time>2021-05-26T16:58:45.000Z</time>
      </trkpt>
      <trkpt lat="45.16463" lon="5.77023">
        <ele>251.8</ele>
        <time>2021-05-26T16:58:47.000Z</time>
      </trkpt>
      <trkpt lat="45.16464" lon="5.77023">
        <ele>251.9</ele>
        <time>2021-05-26T16:58:48.000Z</time>
      </trkpt>
      <trkpt lat="45.16464" lon="5.77024">
        <ele>252.1</ele>
        <time>2021-05-26T16:58:49.000Z</time>
      </trkpt>
      <trkpt lat="45.16464" lon="5.77025">
        <ele>252.2</ele>
        <time>2021-05-26T16:58:50.000Z</time>
      </trkpt>
      <trkpt lat="45.16464" lon="5.77025">
        <ele>252.4</ele>
        <time>2021-05-26T16:58:51.000Z</time>
      </trkpt>
      <trkpt lat="45.16464" lon="5.77026">
        <ele>252.5</ele>
        <time>2021-05-26T16:58:52.000Z</time>
      </trkpt>
      <trkpt lat="45.16465" lon="5.77027">
        <ele>252.7</ele>
        <time>2021-05-26T16:58:53.000Z</time>
      </trkpt>
      <trkpt lat="45.16465" lon="5.77028">
        <ele>252.8</ele>
        <time>2021-05-26T16:58:54.000Z</time>
      </trkpt>
      <trkpt lat="45.16467" lon="5.77035">
        <ele>254.4</ele>
        <time>2021-05-26T16:58:55.000Z</time>
      </trkpt>
      <trkpt lat="45.16467" lon="5.77035">
        <ele>254.4</ele>
        <time>2021-05-26T16:58:56.000Z</time>
      </trkpt>
      <trkpt lat="45.16467" lon="5.77035">
        <ele>254.4</ele>
        <time>2021-05-26T16:58:57.000Z</time>
      </trkpt>
      <trkpt lat="45.16467" lon="5.77035">
        <ele>254.4</ele>
        <time>2021-05-26T16:58:58.000Z</time>
      </trkpt>
      <trkpt lat="45.16467" lon="5.77035">
        <ele>254.4</ele>
        <time>2021-05-26T16:59:00.000Z</time>
      </trkpt>
      <trkpt lat="45.16467" lon="5.77035">
        <ele>254.4</ele>
        <time>2021-05-26T16:59:01.000Z</time>
      </trkpt>
      <trkpt lat="45.16467" lon="5.77035">
        <ele>254.4</ele>
        <time>2021-05-26T16:59:02.000Z</time>
      </trkpt>
      <trkpt lat="45.16467" lon="5.77035">
        <ele>254.4</ele>
        <time>2021-05-26T16:59:03.000Z</time>
      </trkpt>
      <trkpt lat="45.16467" lon="5.77035">
        <ele>254.4</ele>
        <time>2021-05-26T16:59:04.000Z</time>
      </trkpt>
      <trkpt lat="45.16472" lon="5.7705">
        <ele>257.5</ele>
        <time>2021-05-26T16:59:06.000Z</time>
      </trkpt>
      <trkpt lat="45.16472" lon="5.77051">
        <ele>257.7</ele>
        <time>2021-05-26T16:59:07.000Z</time>
      </trkpt>
      <trkpt lat="45.16472" lon="5.77051">
        <ele>257.9</ele>
        <time>2021-05-26T16:59:08.000Z</time>
      </trkpt>
      <trkpt lat="45.16473" lon="5.77052">
        <ele>258.1</ele>
        <time>2021-05-26T16:59:09.000Z</time>
      </trkpt>
      <trkpt lat="45.16473" lon="5.77053">
        <ele>258.3</ele>
        <time>2021-05-26T16:59:10.000Z</time>
      </trkpt>
      <trkpt lat="45.16474" lon="5.77054">
        <ele>258.4</ele>
        <time>2021-05-26T16:59:11.000Z</time>
      </trkpt>
      <trkpt lat="45.16474" lon="5.77054">
        <ele>258.6</ele>
        <time>2021-05-26T16:59:12.000Z</time>
      </trkpt>
      <trkpt lat="45.16474" lon="5.77055">
        <ele>258.8</ele>
        <time>2021-05-26T16:59:13.000Z</time>
      </trkpt>
      <trkpt lat="45.16475" lon="5.77056">
        <ele>259</ele>
        <time>2021-05-26T16:59:14.000Z</time>
      </trkpt>
      <trkpt lat="45.16478" lon="5.77063">
        <ele>260.6</ele>
        <time>2021-05-26T16:59:15.000Z</time>
      </trkpt>
      <trkpt lat="45.16478" lon="5.77063">
        <ele>260.7</ele>
        <time>2021-05-26T16:59:16.000Z</time>
      </trkpt>
      <trkpt lat="45.16478" lon="5.77064">
        <ele>260.8</ele>
        <time>2021-05-26T16:59:17.000Z</time>
      </trkpt>
      <trkpt lat="45.16479" lon="5.77064">
        <ele>260.9</ele>
        <time>2021-05-26T16:59:18.000Z</time>
      </trkpt>
      <trkpt lat="45.16479" lon="5.77065">
        <ele>261</ele>
        <time>2021-05-26T16:59:19.000Z</time>
      </trkpt>
      <trkpt lat="45.16479" lon="5.77066">
        <ele>261.2</ele>
        <time>2021-05-26T16:59:20.000Z</time>
      </trkpt>
      <trkpt lat="45.16479" lon="5.77066">
        <ele>261.3</ele>
        <time>2021-05-26T16:59:21.000Z</time>
      </trkpt>
      <trkpt lat="45.16479" lon="5.77067">
        <ele>261.4</ele>
        <time>2021-05-26T16:59:22.000Z</time>
      </trkpt>
      <trkpt lat="45.16479" lon="5.77067">
        <ele>261.5</ele>
        <time>2021-05-26T16:59:23.000Z</time>
      </trkpt>
      <trkpt lat="45.16479" lon="5.77068">
        <ele>261.6</ele>
        <time>2021-05-26T16:59:25.000Z</time>
      </trkpt>
      <trkpt lat="45.1648" lon="5.77069">
        <ele>261.7</ele>
        <time>2021-05-26T16:59:27.000Z</time>
      </trkpt>
      <trkpt lat="45.1648" lon="5.77069">
        <ele>261.9</ele>
        <time>2021-05-26T16:59:28.000Z</time>
      </trkpt>
      <trkpt lat="45.1648" lon="5.7707">
        <ele>262</ele>
        <time>2021-05-26T16:59:29.000Z</time>
      </trkpt>
      <trkpt lat="45.16482" lon="5.77078">
        <ele>263.6</ele>
        <time>2021-05-26T16:59:30.000Z</time>
      </trkpt>
      <trkpt lat="45.16482" lon="5.77079">
        <ele>263.7</ele>
        <time>2021-05-26T16:59:31.000Z</time>
      </trkpt>
      <trkpt lat="45.16482" lon="5.7708">
        <ele>263.9</ele>
        <time>2021-05-26T16:59:32.000Z</time>
      </trkpt>
      <trkpt lat="45.16482" lon="5.77081">
        <ele>264</ele>
        <time>2021-05-26T16:59:33.000Z</time>
      </trkpt>
      <trkpt lat="45.16483" lon="5.77081">
        <ele>264.2</ele>
        <time>2021-05-26T16:59:34.000Z</time>
      </trkpt>
      <trkpt lat="45.16483" lon="5.77082">
        <ele>264.3</ele>
        <time>2021-05-26T16:59:35.000Z</time>
      </trkpt>
      <trkpt lat="45.16483" lon="5.77083">
        <ele>264.5</ele>
        <time>2021-05-26T16:59:36.000Z</time>
      </trkpt>
      <trkpt lat="45.16483" lon="5.77084">
        <ele>264.6</ele>
        <time>2021-05-26T16:59:37.000Z</time>
      </trkpt>
      <trkpt lat="45.16484" lon="5.77084">
        <ele>264.7</ele>
        <time>2021-05-26T16:59:38.000Z</time>
      </trkpt>
      <trkpt lat="45.16484" lon="5.77085">
        <ele>264.9</ele>
        <time>2021-05-26T16:59:39.000Z</time>
      </trkpt>
      <trkpt lat="45.16486" lon="5.77094">
        <ele>266.4</ele>
        <time>2021-05-26T16:59:40.000Z</time>
      </trkpt>
      <trkpt lat="45.16486" lon="5.77094">
        <ele>266.5</ele>
        <time>2021-05-26T16:59:41.000Z</time>
      </trkpt>
      <trkpt lat="45.16486" lon="5.77095">
        <ele>266.7</ele>
        <time>2021-05-26T16:59:43.000Z</time>
      </trkpt>
      <trkpt lat="45.16486" lon="5.77096">
        <ele>266.8</ele>
        <time>2021-05-26T16:59:44.000Z</time>
      </trkpt>
      <trkpt lat="45.16486" lon="5.77096">
        <ele>266.9</ele>
        <time>2021-05-26T16:59:45.000Z</time>
      </trkpt>
      <trkpt lat="45.16486" lon="5.77097">
        <ele>267</ele>
        <time>2021-05-26T16:59:46.000Z</time>
      </trkpt>
      <trkpt lat="45.16486" lon="5.77098">
        <ele>267.2</ele>
        <time>2021-05-26T16:59:47.000Z</time>
      </trkpt>
      <trkpt lat="45.16487" lon="5.77099">
        <ele>267.3</ele>
        <time>2021-05-26T16:59:48.000Z</time>
      </trkpt>
      <trkpt lat="45.16487" lon="5.77099">
        <ele>267.4</ele>
        <time>2021-05-26T16:59:49.000Z</time>
      </trkpt>
      <trkpt lat="45.16487" lon="5.771">
        <ele>267.5</ele>
        <time>2021-05-26T16:59:50.000Z</time>
      </trkpt>
      <trkpt lat="45.16487" lon="5.77101">
        <ele>267.7</ele>
        <time>2021-05-26T16:59:51.000Z</time>
      </trkpt>
      <trkpt lat="45.16488" lon="5.7711">
        <ele>269.2</ele>
        <time>2021-05-26T16:59:52.000Z</time>
      </trkpt>
      <trkpt lat="45.16488" lon="5.77111">
        <ele>269.3</ele>
        <time>2021-05-26T16:59:53.000Z</time>
      </trkpt>
      <trkpt lat="45.16488" lon="5.77112">
        <ele>269.5</ele>
        <time>2021-05-26T16:59:54.000Z</time>
      </trkpt>
      <trkpt lat="45.16488" lon="5.77113">
        <ele>269.6</ele>
        <time>2021-05-26T16:59:55.000Z</time>
      </trkpt>
      <trkpt lat="45.16489" lon="5.77114">
        <ele>269.8</ele>
        <time>2021-05-26T16:59:56.000Z</time>
      </trkpt>
      <trkpt lat="45.16489" lon="5.77115">
        <ele>270</ele>
        <time>2021-05-26T16:59:58.000Z</time>
      </trkpt>
      <trkpt lat="45.16489" lon="5.77116">
        <ele>270.1</ele>
        <time>2021-05-26T16:59:59.000Z</time>
      </trkpt>
      <trkpt lat="45.16489" lon="5.77116">
        <ele>270.3</ele>
        <time>2021-05-26T17:00:00.000Z</time>
      </trkpt>
      <trkpt lat="45.1649" lon="5.77125">
        <ele>271.5</ele>
        <time>2021-05-26T17:00:01.000Z</time>
      </trkpt>
      <trkpt lat="45.1649" lon="5.77126">
        <ele>271.7</ele>
        <time>2021-05-26T17:00:03.000Z</time>
      </trkpt>
      <trkpt lat="45.1649" lon="5.77126">
        <ele>271.8</ele>
        <time>2021-05-26T17:00:04.000Z</time>
      </trkpt>
      <trkpt lat="45.1649" lon="5.77127">
        <ele>271.9</ele>
        <time>2021-05-26T17:00:05.000Z</time>
      </trkpt>
      <trkpt lat="45.1649" lon="5.77128">
        <ele>272</ele>
        <time>2021-05-26T17:00:06.000Z</time>
      </trkpt>
      <trkpt lat="45.16489" lon="5.77129">
        <ele>272.2</ele>
        <time>2021-05-26T17:00:07.000Z</time>
      </trkpt>
      <trkpt lat="45.16489" lon="5.7713">
        <ele>272.3</ele>
        <time>2021-05-26T17:00:08.000Z</time>
      </trkpt>
      <trkpt lat="45.16489" lon="5.77131">
        <ele>272.4</ele>
        <time>2021-05-26T17:00:09.000Z</time>
      </trkpt>
      <trkpt lat="45.16489" lon="5.77132">
        <ele>272.6</ele>
        <time>2021-05-26T17:00:10.000Z</time>
      </trkpt>
      <trkpt lat="45.16488" lon="5.7714">
        <ele>273.8</ele>
        <time>2021-05-26T17:00:11.000Z</time>
      </trkpt>
      <trkpt lat="45.16488" lon="5.7714">
        <ele>273.9</ele>
        <time>2021-05-26T17:00:12.000Z</time>
      </trkpt>
      <trkpt lat="45.16488" lon="5.77141">
        <ele>273.9</ele>
        <time>2021-05-26T17:00:13.000Z</time>
      </trkpt>
      <trkpt lat="45.16488" lon="5.77141">
        <ele>274</ele>
        <time>2021-05-26T17:00:14.000Z</time>
      </trkpt>
      <trkpt lat="45.16488" lon="5.77142">
        <ele>274.1</ele>
        <time>2021-05-26T17:00:15.000Z</time>
      </trkpt>
      <trkpt lat="45.16488" lon="5.77143">
        <ele>274.2</ele>
        <time>2021-05-26T17:00:16.000Z</time>
      </trkpt>
      <trkpt lat="45.16488" lon="5.77143">
        <ele>274.3</ele>
        <time>2021-05-26T17:00:17.000Z</time>
      </trkpt>
      <trkpt lat="45.16488" lon="5.77144">
        <ele>274.4</ele>
        <time>2021-05-26T17:00:18.000Z</time>
      </trkpt>
      <trkpt lat="45.16488" lon="5.77144">
        <ele>274.4</ele>
        <time>2021-05-26T17:00:19.000Z</time>
      </trkpt>
      <trkpt lat="45.16488" lon="5.77145">
        <ele>274.5</ele>
        <time>2021-05-26T17:00:20.000Z</time>
      </trkpt>
      <trkpt lat="45.16488" lon="5.77145">
        <ele>274.6</ele>
        <time>2021-05-26T17:00:22.000Z</time>
      </trkpt>
      <trkpt lat="45.16488" lon="5.77146">
        <ele>274.7</ele>
        <time>2021-05-26T17:00:23.000Z</time>
      </trkpt>
      <trkpt lat="45.16488" lon="5.77146">
        <ele>274.8</ele>
        <time>2021-05-26T17:00:24.000Z</time>
      </trkpt>
      <trkpt lat="45.16488" lon="5.77147">
        <ele>274.9</ele>
        <time>2021-05-26T17:00:25.000Z</time>
      </trkpt>
      <trkpt lat="45.16488" lon="5.77156">
        <ele>276.1</ele>
        <time>2021-05-26T17:00:26.000Z</time>
      </trkpt>
      <trkpt lat="45.16488" lon="5.77157">
        <ele>276.3</ele>
        <time>2021-05-26T17:00:27.000Z</time>
      </trkpt>
      <trkpt lat="45.16489" lon="5.77158">
        <ele>276.4</ele>
        <time>2021-05-26T17:00:28.000Z</time>
      </trkpt>
      <trkpt lat="45.16489" lon="5.77158">
        <ele>276.6</ele>
        <time>2021-05-26T17:00:29.000Z</time>
      </trkpt>
      <trkpt lat="45.16489" lon="5.77159">
        <ele>276.7</ele>
        <time>2021-05-26T17:00:30.000Z</time>
      </trkpt>
      <trkpt lat="45.1649" lon="5.7716">
        <ele>276.9</ele>
        <time>2021-05-26T17:00:31.000Z</time>
      </trkpt>
      <trkpt lat="45.1649" lon="5.77161">
        <ele>277</ele>
        <time>2021-05-26T17:00:32.000Z</time>
      </trkpt>
      <trkpt lat="45.16491" lon="5.77162">
        <ele>277.2</ele>
        <time>2021-05-26T17:00:33.000Z</time>
      </trkpt>
      <trkpt lat="45.16491" lon="5.77163">
        <ele>277.3</ele>
        <time>2021-05-26T17:00:34.000Z</time>
      </trkpt>
      <trkpt lat="45.16491" lon="5.77164">
        <ele>277.5</ele>
        <time>2021-05-26T17:00:35.000Z</time>
      </trkpt>
      <trkpt lat="45.16492" lon="5.77165">
        <ele>277.7</ele>
        <time>2021-05-26T17:00:36.000Z</time>
      </trkpt>
      <trkpt lat="45.16492" lon="5.77166">
        <ele>277.8</ele>
        <time>2021-05-26T17:00:37.000Z</time>
      </trkpt>
      <trkpt lat="45.16493" lon="5.77166">
        <ele>278</ele>
        <time>2021-05-26T17:00:38.000Z</time>
      </trkpt>
      <trkpt lat="45.16493" lon="5.77167">
        <ele>278.1</ele>
        <time>2021-05-26T17:00:39.000Z</time>
      </trkpt>
      <trkpt lat="45.16493" lon="5.77168">
        <ele>278.3</ele>
        <time>2021-05-26T17:00:40.000Z</time>
      </trkpt>
      <trkpt lat="45.16494" lon="5.77169">
        <ele>278.5</ele>
        <time>2021-05-26T17:00:41.000Z</time>
      </trkpt>
      <trkpt lat="45.16494" lon="5.77169">
        <ele>278.5</ele>
        <time>2021-05-26T17:00:42.000Z</time>
      </trkpt>
      <trkpt lat="45.16494" lon="5.7717">
        <ele>278.6</ele>
        <time>2021-05-26T17:00:43.000Z</time>
      </trkpt>
      <trkpt lat="45.16494" lon="5.7717">
        <ele>278.6</ele>
        <time>2021-05-26T17:00:44.000Z</time>
      </trkpt>
      <trkpt lat="45.16494" lon="5.7717">
        <ele>278.7</ele>
        <time>2021-05-26T17:00:45.000Z</time>
      </trkpt>
      <trkpt lat="45.16494" lon="5.7717">
        <ele>278.7</ele>
        <time>2021-05-26T17:00:46.000Z</time>
      </trkpt>
      <trkpt lat="45.16495" lon="5.77171">
        <ele>278.8</ele>
        <time>2021-05-26T17:00:47.000Z</time>
      </trkpt>
      <trkpt lat="45.16495" lon="5.77171">
        <ele>278.8</ele>
        <time>2021-05-26T17:00:48.000Z</time>
      </trkpt>
      <trkpt lat="45.16495" lon="5.77171">
        <ele>278.9</ele>
        <time>2021-05-26T17:00:49.000Z</time>
      </trkpt>
      <trkpt lat="45.16495" lon="5.77171">
        <ele>278.9</ele>
        <time>2021-05-26T17:00:50.000Z</time>
      </trkpt>
      <trkpt lat="45.16495" lon="5.77172">
        <ele>279</ele>
        <time>2021-05-26T17:00:51.000Z</time>
      </trkpt>
      <trkpt lat="45.16495" lon="5.77172">
        <ele>279</ele>
        <time>2021-05-26T17:00:52.000Z</time>
      </trkpt>
      <trkpt lat="45.16495" lon="5.77172">
        <ele>279.1</ele>
        <time>2021-05-26T17:00:53.000Z</time>
      </trkpt>
      <trkpt lat="45.16496" lon="5.77172">
        <ele>279.1</ele>
        <time>2021-05-26T17:00:54.000Z</time>
      </trkpt>
      <trkpt lat="45.16496" lon="5.77173">
        <ele>279.2</ele>
        <time>2021-05-26T17:00:55.000Z</time>
      </trkpt>
      <trkpt lat="45.16496" lon="5.77173">
        <ele>279.2</ele>
        <time>2021-05-26T17:00:56.000Z</time>
      </trkpt>
      <trkpt lat="45.16496" lon="5.77173">
        <ele>279.3</ele>
        <time>2021-05-26T17:00:57.000Z</time>
      </trkpt>
      <trkpt lat="45.16496" lon="5.77174">
        <ele>279.4</ele>
        <time>2021-05-26T17:00:58.000Z</time>
      </trkpt>
      <trkpt lat="45.16496" lon="5.77174">
        <ele>279.4</ele>
        <time>2021-05-26T17:01:00.000Z</time>
      </trkpt>
      <trkpt lat="45.16496" lon="5.77174">
        <ele>279.5</ele>
        <time>2021-05-26T17:01:01.000Z</time>
      </trkpt>
      <trkpt lat="45.16497" lon="5.77174">
        <ele>279.5</ele>
        <time>2021-05-26T17:01:02.000Z</time>
      </trkpt>
      <trkpt lat="45.16497" lon="5.77175">
        <ele>279.6</ele>
        <time>2021-05-26T17:01:03.000Z</time>
      </trkpt>
      <trkpt lat="45.16497" lon="5.77175">
        <ele>279.6</ele>
        <time>2021-05-26T17:01:04.000Z</time>
      </trkpt>
      <trkpt lat="45.16497" lon="5.77175">
        <ele>279.7</ele>
        <time>2021-05-26T17:01:05.000Z</time>
      </trkpt>
      <trkpt lat="45.16497" lon="5.77175">
        <ele>279.7</ele>
        <time>2021-05-26T17:01:06.000Z</time>
      </trkpt>
      <trkpt lat="45.16497" lon="5.77176">
        <ele>279.8</ele>
        <time>2021-05-26T17:01:07.000Z</time>
      </trkpt>
      <trkpt lat="45.16501" lon="5.77182">
        <ele>280.2</ele>
        <time>2021-05-26T17:01:08.000Z</time>
      </trkpt>
      <trkpt lat="45.16501" lon="5.77182">
        <ele>280.2</ele>
        <time>2021-05-26T17:01:09.000Z</time>
      </trkpt>
      <trkpt lat="45.16501" lon="5.77183">
        <ele>280.2</ele>
        <time>2021-05-26T17:01:10.000Z</time>
      </trkpt>
      <trkpt lat="45.16501" lon="5.77183">
        <ele>280.2</ele>
        <time>2021-05-26T17:01:11.000Z</time>
      </trkpt>
      <trkpt lat="45.16502" lon="5.77183">
        <ele>280.2</ele>
        <time>2021-05-26T17:01:12.000Z</time>
      </trkpt>
      <trkpt lat="45.16502" lon="5.77183">
        <ele>280.2</ele>
        <time>2021-05-26T17:01:13.000Z</time>
      </trkpt>
      <trkpt lat="45.16502" lon="5.77183">
        <ele>280.2</ele>
        <time>2021-05-26T17:01:14.000Z</time>
      </trkpt>
      <trkpt lat="45.16502" lon="5.77184">
        <ele>280.2</ele>
        <time>2021-05-26T17:01:15.000Z</time>
      </trkpt>
      <trkpt lat="45.16502" lon="5.77184">
        <ele>280.2</ele>
        <time>2021-05-26T17:01:16.000Z</time>
      </trkpt>
      <trkpt lat="45.16502" lon="5.77184">
        <ele>280.3</ele>
        <time>2021-05-26T17:01:17.000Z</time>
      </trkpt>
      <trkpt lat="45.16502" lon="5.77184">
        <ele>280.3</ele>
        <time>2021-05-26T17:01:19.000Z</time>
      </trkpt>
      <trkpt lat="45.16503" lon="5.77184">
        <ele>280.3</ele>
        <time>2021-05-26T17:01:20.000Z</time>
      </trkpt>
      <trkpt lat="45.16503" lon="5.77185">
        <ele>280.3</ele>
        <time>2021-05-26T17:01:21.000Z</time>
      </trkpt>
      <trkpt lat="45.16503" lon="5.77185">
        <ele>280.3</ele>
        <time>2021-05-26T17:01:22.000Z</time>
      </trkpt>
      <trkpt lat="45.16503" lon="5.77185">
        <ele>280.3</ele>
        <time>2021-05-26T17:01:23.000Z</time>
      </trkpt>
      <trkpt lat="45.16503" lon="5.77185">
        <ele>280.3</ele>
        <time>2021-05-26T17:01:25.000Z</time>
      </trkpt>
      <trkpt lat="45.16503" lon="5.77185">
        <ele>280.3</ele>
        <time>2021-05-26T17:01:26.000Z</time>
      </trkpt>
      <trkpt lat="45.16504" lon="5.77186">
        <ele>280.3</ele>
        <time>2021-05-26T17:01:27.000Z</time>
      </trkpt>
      <trkpt lat="45.16504" lon="5.77186">
        <ele>280.3</ele>
        <time>2021-05-26T17:01:28.000Z</time>
      </trkpt>
      <trkpt lat="45.16504" lon="5.77186">
        <ele>280.3</ele>
        <time>2021-05-26T17:01:29.000Z</time>
      </trkpt>
      <trkpt lat="45.16504" lon="5.77186">
        <ele>280.3</ele>
        <time>2021-05-26T17:01:30.000Z</time>
      </trkpt>
      <trkpt lat="45.16504" lon="5.77186">
        <ele>280.6</ele>
        <time>2021-05-26T17:01:31.000Z</time>
      </trkpt>
      <trkpt lat="45.16504" lon="5.77187">
        <ele>280.7</ele>
        <time>2021-05-26T17:01:32.000Z</time>
      </trkpt>
      <trkpt lat="45.16505" lon="5.77187">
        <ele>280.8</ele>
        <time>2021-05-26T17:01:33.000Z</time>
      </trkpt>
      <trkpt lat="45.16505" lon="5.77187">
        <ele>280.9</ele>
        <time>2021-05-26T17:01:34.000Z</time>
      </trkpt>
      <trkpt lat="45.16505" lon="5.77187">
        <ele>281</ele>
        <time>2021-05-26T17:01:35.000Z</time>
      </trkpt>
      <trkpt lat="45.16509" lon="5.77193">
        <ele>284</ele>
        <time>2021-05-26T17:01:36.000Z</time>
      </trkpt>
      <trkpt lat="45.1651" lon="5.77193">
        <ele>284.3</ele>
        <time>2021-05-26T17:01:38.000Z</time>
      </trkpt>
      <trkpt lat="45.1651" lon="5.77193">
        <ele>284.6</ele>
        <time>2021-05-26T17:01:39.000Z</time>
      </trkpt>
      <trkpt lat="45.16511" lon="5.77193">
        <ele>284.9</ele>
        <time>2021-05-26T17:01:40.000Z</time>
      </trkpt>
      <trkpt lat="45.16511" lon="5.77193">
        <ele>285.1</ele>
        <time>2021-05-26T17:01:41.000Z</time>
      </trkpt>
      <trkpt lat="45.16512" lon="5.77193">
        <ele>285.4</ele>
        <time>2021-05-26T17:01:42.000Z</time>
      </trkpt>
      <trkpt lat="45.16512" lon="5.77193">
        <ele>285.7</ele>
        <time>2021-05-26T17:01:43.000Z</time>
      </trkpt>
      <trkpt lat="45.16513" lon="5.77193">
        <ele>286</ele>
        <time>2021-05-26T17:01:44.000Z</time>
      </trkpt>
      <trkpt lat="45.16513" lon="5.77193">
        <ele>286.2</ele>
        <time>2021-05-26T17:01:46.000Z</time>
      </trkpt>
      <trkpt lat="45.16514" lon="5.77193">
        <ele>286.5</ele>
        <time>2021-05-26T17:01:47.000Z</time>
      </trkpt>
      <trkpt lat="45.16514" lon="5.77193">
        <ele>286.8</ele>
        <time>2021-05-26T17:01:48.000Z</time>
      </trkpt>
      <trkpt lat="45.1652" lon="5.77195">
        <ele>290</ele>
        <time>2021-05-26T17:01:49.000Z</time>
      </trkpt>
      <trkpt lat="45.1652" lon="5.77195">
        <ele>290.1</ele>
        <time>2021-05-26T17:01:50.000Z</time>
      </trkpt>
      <trkpt lat="45.1652" lon="5.77195">
        <ele>290.3</ele>
        <time>2021-05-26T17:01:51.000Z</time>
      </trkpt>
      <trkpt lat="45.16521" lon="5.77195">
        <ele>290.4</ele>
        <time>2021-05-26T17:01:52.000Z</time>
      </trkpt>
      <trkpt lat="45.16521" lon="5.77196">
        <ele>290.6</ele>
        <time>2021-05-26T17:01:54.000Z</time>
      </trkpt>
      <trkpt lat="45.16521" lon="5.77196">
        <ele>290.7</ele>
        <time>2021-05-26T17:01:55.000Z</time>
      </trkpt>
      <trkpt lat="45.16521" lon="5.77196">
        <ele>290.9</ele>
        <time>2021-05-26T17:01:57.000Z</time>
      </trkpt>
      <trkpt lat="45.16521" lon="5.77196">
        <ele>291</ele>
        <time>2021-05-26T17:01:58.000Z</time>
      </trkpt>
      <trkpt lat="45.16522" lon="5.77197">
        <ele>291.1</ele>
        <time>2021-05-26T17:01:59.000Z</time>
      </trkpt>
      <trkpt lat="45.16522" lon="5.77197">
        <ele>291.3</ele>
        <time>2021-05-26T17:02:00.000Z</time>
      </trkpt>
      <trkpt lat="45.16522" lon="5.77197">
        <ele>291.4</ele>
        <time>2021-05-26T17:02:01.000Z</time>
      </trkpt>
      <trkpt lat="45.16522" lon="5.77197">
        <ele>291.5</ele>
        <time>2021-05-26T17:02:02.000Z</time>
      </trkpt>
      <trkpt lat="45.16522" lon="5.77197">
        <ele>291.7</ele>
        <time>2021-05-26T17:02:03.000Z</time>
      </trkpt>
      <trkpt lat="45.16522" lon="5.77198">
        <ele>291.8</ele>
        <time>2021-05-26T17:02:04.000Z</time>
      </trkpt>
      <trkpt lat="45.16523" lon="5.77198">
        <ele>292</ele>
        <time>2021-05-26T17:02:05.000Z</time>
      </trkpt>
      <trkpt lat="45.16523" lon="5.77198">
        <ele>292.1</ele>
        <time>2021-05-26T17:02:06.000Z</time>
      </trkpt>
      <trkpt lat="45.16523" lon="5.77198">
        <ele>292.3</ele>
        <time>2021-05-26T17:02:07.000Z</time>
      </trkpt>
      <trkpt lat="45.16523" lon="5.77199">
        <ele>292.4</ele>
        <time>2021-05-26T17:02:08.000Z</time>
      </trkpt>
      <trkpt lat="45.16523" lon="5.77199">
        <ele>292.5</ele>
        <time>2021-05-26T17:02:09.000Z</time>
      </trkpt>
      <trkpt lat="45.16524" lon="5.77199">
        <ele>292.7</ele>
        <time>2021-05-26T17:02:10.000Z</time>
      </trkpt>
      <trkpt lat="45.16524" lon="5.77199">
        <ele>292.8</ele>
        <time>2021-05-26T17:02:11.000Z</time>
      </trkpt>
      <trkpt lat="45.16524" lon="5.77199">
        <ele>293</ele>
        <time>2021-05-26T17:02:12.000Z</time>
      </trkpt>
      <trkpt lat="45.16529" lon="5.77205">
        <ele>297.8</ele>
        <time>2021-05-26T17:02:13.000Z</time>
      </trkpt>
      <trkpt lat="45.16529" lon="5.77205">
        <ele>298</ele>
        <time>2021-05-26T17:02:14.000Z</time>
      </trkpt>
      <trkpt lat="45.1653" lon="5.77205">
        <ele>298.2</ele>
        <time>2021-05-26T17:02:16.000Z</time>
      </trkpt>
      <trkpt lat="45.16531" lon="5.77205">
        <ele>298.4</ele>
        <time>2021-05-26T17:02:17.000Z</time>
      </trkpt>
      <trkpt lat="45.16531" lon="5.77205">
        <ele>298.6</ele>
        <time>2021-05-26T17:02:18.000Z</time>
      </trkpt>
      <trkpt lat="45.16532" lon="5.77205">
        <ele>298.8</ele>
        <time>2021-05-26T17:02:19.000Z</time>
      </trkpt>
      <trkpt lat="45.16532" lon="5.77205">
        <ele>299</ele>
        <time>2021-05-26T17:02:20.000Z</time>
      </trkpt>
      <trkpt lat="45.16533" lon="5.77205">
        <ele>299.2</ele>
        <time>2021-05-26T17:02:21.000Z</time>
      </trkpt>
      <trkpt lat="45.16533" lon="5.77205">
        <ele>299.4</ele>
        <time>2021-05-26T17:02:22.000Z</time>
      </trkpt>
      <trkpt lat="45.16534" lon="5.77206">
        <ele>299.6</ele>
        <time>2021-05-26T17:02:23.000Z</time>
      </trkpt>
      <trkpt lat="45.16534" lon="5.77206">
        <ele>299.8</ele>
        <time>2021-05-26T17:02:24.000Z</time>
      </trkpt>
      <trkpt lat="45.16535" lon="5.77206">
        <ele>300</ele>
        <time>2021-05-26T17:02:25.000Z</time>
      </trkpt>
      <trkpt lat="45.16536" lon="5.77206">
        <ele>300.2</ele>
        <time>2021-05-26T17:02:26.000Z</time>
      </trkpt>
      <trkpt lat="45.16536" lon="5.77206">
        <ele>300.3</ele>
        <time>2021-05-26T17:02:28.000Z</time>
      </trkpt>
      <trkpt lat="45.16537" lon="5.77206">
        <ele>300.5</ele>
        <time>2021-05-26T17:02:29.000Z</time>
      </trkpt>
      <trkpt lat="45.16537" lon="5.77206">
        <ele>300.7</ele>
        <time>2021-05-26T17:02:30.000Z</time>
      </trkpt>
      <trkpt lat="45.16538" lon="5.77206">
        <ele>300.9</ele>
        <time>2021-05-26T17:02:31.000Z</time>
      </trkpt>
      <trkpt lat="45.16538" lon="5.77207">
        <ele>301.1</ele>
        <time>2021-05-26T17:02:32.000Z</time>
      </trkpt>
      <trkpt lat="45.16539" lon="5.77207">
        <ele>301.2</ele>
        <time>2021-05-26T17:02:33.000Z</time>
      </trkpt>
      <trkpt lat="45.1654" lon="5.77207">
        <ele>301.4</ele>
        <time>2021-05-26T17:02:35.000Z</time>
      </trkpt>
      <trkpt lat="45.1654" lon="5.77207">
        <ele>301.6</ele>
        <time>2021-05-26T17:02:36.000Z</time>
      </trkpt>
      <trkpt lat="45.16541" lon="5.77207">
        <ele>301.8</ele>
        <time>2021-05-26T17:02:37.000Z</time>
      </trkpt>
      <trkpt lat="45.16541" lon="5.77207">
        <ele>301.9</ele>
        <time>2021-05-26T17:02:38.000Z</time>
      </trkpt>
      <trkpt lat="45.16542" lon="5.77207">
        <ele>302.1</ele>
        <time>2021-05-26T17:02:39.000Z</time>
      </trkpt>
      <trkpt lat="45.16542" lon="5.77207">
        <ele>302.2</ele>
        <time>2021-05-26T17:02:40.000Z</time>
      </trkpt>
      <trkpt lat="45.16543" lon="5.77206">
        <ele>302.4</ele>
        <time>2021-05-26T17:02:41.000Z</time>
      </trkpt>
      <trkpt lat="45.16543" lon="5.77206">
        <ele>302.5</ele>
        <time>2021-05-26T17:02:42.000Z</time>
      </trkpt>
      <trkpt lat="45.16544" lon="5.77206">
        <ele>302.7</ele>
        <time>2021-05-26T17:02:43.000Z</time>
      </trkpt>
      <trkpt lat="45.16544" lon="5.77206">
        <ele>302.8</ele>
        <time>2021-05-26T17:02:44.000Z</time>
      </trkpt>
      <trkpt lat="45.16545" lon="5.77206">
        <ele>302.9</ele>
        <time>2021-05-26T17:02:45.000Z</time>
      </trkpt>
      <trkpt lat="45.16545" lon="5.77206">
        <ele>303.1</ele>
        <time>2021-05-26T17:02:47.000Z</time>
      </trkpt>
      <trkpt lat="45.16546" lon="5.77206">
        <ele>303.2</ele>
        <time>2021-05-26T17:02:48.000Z</time>
      </trkpt>
      <trkpt lat="45.16546" lon="5.77206">
        <ele>303.4</ele>
        <time>2021-05-26T17:02:49.000Z</time>
      </trkpt>
      <trkpt lat="45.16554" lon="5.77205">
        <ele>305.4</ele>
        <time>2021-05-26T17:02:50.000Z</time>
      </trkpt>
      <trkpt lat="45.16555" lon="5.77206">
        <ele>305.8</ele>
        <time>2021-05-26T17:02:51.000Z</time>
      </trkpt>
      <trkpt lat="45.16557" lon="5.77207">
        <ele>306.3</ele>
        <time>2021-05-26T17:02:52.000Z</time>
      </trkpt>
      <trkpt lat="45.16558" lon="5.77208">
        <ele>306.7</ele>
        <time>2021-05-26T17:02:54.000Z</time>
      </trkpt>
      <trkpt lat="45.1656" lon="5.77208">
        <ele>307.1</ele>
        <time>2021-05-26T17:02:55.000Z</time>
      </trkpt>
      <trkpt lat="45.16561" lon="5.77209">
        <ele>307.5</ele>
        <time>2021-05-26T17:02:57.000Z</time>
      </trkpt>
      <trkpt lat="45.16563" lon="5.7721">
        <ele>307.9</ele>
        <time>2021-05-26T17:02:58.000Z</time>
      </trkpt>
      <trkpt lat="45.16563" lon="5.7721">
        <ele>308</ele>
        <time>2021-05-26T17:02:59.000Z</time>
      </trkpt>
      <trkpt lat="45.16564" lon="5.7721">
        <ele>308.1</ele>
        <time>2021-05-26T17:03:00.000Z</time>
      </trkpt>
      <trkpt lat="45.16564" lon="5.7721">
        <ele>308.2</ele>
        <time>2021-05-26T17:03:01.000Z</time>
      </trkpt>
      <trkpt lat="45.16564" lon="5.7721">
        <ele>308.2</ele>
        <time>2021-05-26T17:03:02.000Z</time>
      </trkpt>
      <trkpt lat="45.16565" lon="5.7721">
        <ele>308.3</ele>
        <time>2021-05-26T17:03:03.000Z</time>
      </trkpt>
      <trkpt lat="45.16565" lon="5.7721">
        <ele>308.4</ele>
        <time>2021-05-26T17:03:04.000Z</time>
      </trkpt>
      <trkpt lat="45.16565" lon="5.7721">
        <ele>308.4</ele>
        <time>2021-05-26T17:03:05.000Z</time>
      </trkpt>
      <trkpt lat="45.16565" lon="5.7721">
        <ele>308.5</ele>
        <time>2021-05-26T17:03:06.000Z</time>
      </trkpt>
      <trkpt lat="45.16566" lon="5.7721">
        <ele>308.6</ele>
        <time>2021-05-26T17:03:07.000Z</time>
      </trkpt>
      <trkpt lat="45.16566" lon="5.7721">
        <ele>308.7</ele>
        <time>2021-05-26T17:03:08.000Z</time>
      </trkpt>
      <trkpt lat="45.16566" lon="5.7721">
        <ele>308.7</ele>
        <time>2021-05-26T17:03:09.000Z</time>
      </trkpt>
      <trkpt lat="45.16567" lon="5.7721">
        <ele>308.8</ele>
        <time>2021-05-26T17:03:10.000Z</time>
      </trkpt>
      <trkpt lat="45.16567" lon="5.7721">
        <ele>308.9</ele>
        <time>2021-05-26T17:03:11.000Z</time>
      </trkpt>
      <trkpt lat="45.16575" lon="5.7721">
        <ele>311</ele>
        <time>2021-05-26T17:03:13.000Z</time>
      </trkpt>
      <trkpt lat="45.16576" lon="5.7721">
        <ele>311.2</ele>
        <time>2021-05-26T17:03:14.000Z</time>
      </trkpt>
      <trkpt lat="45.16576" lon="5.7721">
        <ele>311.3</ele>
        <time>2021-05-26T17:03:16.000Z</time>
      </trkpt>
      <trkpt lat="45.16577" lon="5.7721">
        <ele>311.5</ele>
        <time>2021-05-26T17:03:17.000Z</time>
      </trkpt>
      <trkpt lat="45.16577" lon="5.7721">
        <ele>311.6</ele>
        <time>2021-05-26T17:03:18.000Z</time>
      </trkpt>
      <trkpt lat="45.16578" lon="5.7721">
        <ele>311.8</ele>
        <time>2021-05-26T17:03:19.000Z</time>
      </trkpt>
      <trkpt lat="45.16578" lon="5.7721">
        <ele>311.9</ele>
        <time>2021-05-26T17:03:20.000Z</time>
      </trkpt>
      <trkpt lat="45.16579" lon="5.7721">
        <ele>312.1</ele>
        <time>2021-05-26T17:03:21.000Z</time>
      </trkpt>
      <trkpt lat="45.16579" lon="5.7721">
        <ele>312.2</ele>
        <time>2021-05-26T17:03:22.000Z</time>
      </trkpt>
      <trkpt lat="45.1658" lon="5.77211">
        <ele>312.4</ele>
        <time>2021-05-26T17:03:23.000Z</time>
      </trkpt>
      <trkpt lat="45.1658" lon="5.77211">
        <ele>312.5</ele>
        <time>2021-05-26T17:03:24.000Z</time>
      </trkpt>
      <trkpt lat="45.16587" lon="5.77212">
        <ele>314.4</ele>
        <time>2021-05-26T17:03:25.000Z</time>
      </trkpt>
      <trkpt lat="45.16588" lon="5.77212">
        <ele>314.6</ele>
        <time>2021-05-26T17:03:26.000Z</time>
      </trkpt>
      <trkpt lat="45.16589" lon="5.77212">
        <ele>314.9</ele>
        <time>2021-05-26T17:03:27.000Z</time>
      </trkpt>
      <trkpt lat="45.16589" lon="5.77212">
        <ele>315.1</ele>
        <time>2021-05-26T17:03:28.000Z</time>
      </trkpt>
      <trkpt lat="45.1659" lon="5.77212">
        <ele>315.3</ele>
        <time>2021-05-26T17:03:29.000Z</time>
      </trkpt>
      <trkpt lat="45.16591" lon="5.77212">
        <ele>315.5</ele>
        <time>2021-05-26T17:03:30.000Z</time>
      </trkpt>
      <trkpt lat="45.16592" lon="5.77212">
        <ele>315.8</ele>
        <time>2021-05-26T17:03:32.000Z</time>
      </trkpt>
      <trkpt lat="45.16593" lon="5.77212">
        <ele>316</ele>
        <time>2021-05-26T17:03:33.000Z</time>
      </trkpt>
      <trkpt lat="45.16594" lon="5.77212">
        <ele>316.2</ele>
        <time>2021-05-26T17:03:34.000Z</time>
      </trkpt>
      <trkpt lat="45.16595" lon="5.77213">
        <ele>316.5</ele>
        <time>2021-05-26T17:03:35.000Z</time>
      </trkpt>
      <trkpt lat="45.16595" lon="5.77213">
        <ele>316.7</ele>
        <time>2021-05-26T17:03:36.000Z</time>
      </trkpt>
      <trkpt lat="45.16596" lon="5.77213">
        <ele>316.9</ele>
        <time>2021-05-26T17:03:37.000Z</time>
      </trkpt>
      <trkpt lat="45.16597" lon="5.77213">
        <ele>317.1</ele>
        <time>2021-05-26T17:03:38.000Z</time>
      </trkpt>
      <trkpt lat="45.16598" lon="5.77213">
        <ele>317.3</ele>
        <time>2021-05-26T17:03:39.000Z</time>
      </trkpt>
      <trkpt lat="45.16599" lon="5.77212">
        <ele>317.5</ele>
        <time>2021-05-26T17:03:40.000Z</time>
      </trkpt>
      <trkpt lat="45.16599" lon="5.77211">
        <ele>317.7</ele>
        <time>2021-05-26T17:03:41.000Z</time>
      </trkpt>
      <trkpt lat="45.166" lon="5.7721">
        <ele>317.9</ele>
        <time>2021-05-26T17:03:42.000Z</time>
      </trkpt>
      <trkpt lat="45.16601" lon="5.77209">
        <ele>318.2</ele>
        <time>2021-05-26T17:03:43.000Z</time>
      </trkpt>
      <trkpt lat="45.16601" lon="5.77208">
        <ele>318.4</ele>
        <time>2021-05-26T17:03:44.000Z</time>
      </trkpt>
      <trkpt lat="45.16602" lon="5.77207">
        <ele>318.6</ele>
        <time>2021-05-26T17:03:45.000Z</time>
      </trkpt>
      <trkpt lat="45.16603" lon="5.77206">
        <ele>318.7</ele>
        <time>2021-05-26T17:03:46.000Z</time>
      </trkpt>
      <trkpt lat="45.16603" lon="5.77206">
        <ele>318.9</ele>
        <time>2021-05-26T17:03:47.000Z</time>
      </trkpt>
      <trkpt lat="45.16604" lon="5.77205">
        <ele>319.9</ele>
        <time>2021-05-26T17:03:48.000Z</time>
      </trkpt>
      <trkpt lat="45.16605" lon="5.77204">
        <ele>320</ele>
        <time>2021-05-26T17:03:49.000Z</time>
      </trkpt>
      <trkpt lat="45.16606" lon="5.77203">
        <ele>320.1</ele>
        <time>2021-05-26T17:03:50.000Z</time>
      </trkpt>
      <trkpt lat="45.16606" lon="5.77202">
        <ele>320.3</ele>
        <time>2021-05-26T17:03:51.000Z</time>
      </trkpt>
      <trkpt lat="45.16607" lon="5.77201">
        <ele>320.4</ele>
        <time>2021-05-26T17:03:52.000Z</time>
      </trkpt>
      <trkpt lat="45.16607" lon="5.772">
        <ele>320.6</ele>
        <time>2021-05-26T17:03:53.000Z</time>
      </trkpt>
      <trkpt lat="45.16608" lon="5.77199">
        <ele>320.7</ele>
        <time>2021-05-26T17:03:54.000Z</time>
      </trkpt>
      <trkpt lat="45.16608" lon="5.77198">
        <ele>320.8</ele>
        <time>2021-05-26T17:03:55.000Z</time>
      </trkpt>
      <trkpt lat="45.16609" lon="5.77197">
        <ele>321</ele>
        <time>2021-05-26T17:03:57.000Z</time>
      </trkpt>
      <trkpt lat="45.16609" lon="5.77196">
        <ele>321.1</ele>
        <time>2021-05-26T17:03:58.000Z</time>
      </trkpt>
      <trkpt lat="45.1661" lon="5.77195">
        <ele>321.2</ele>
        <time>2021-05-26T17:03:59.000Z</time>
      </trkpt>
      <trkpt lat="45.16614" lon="5.77187">
        <ele>322.2</ele>
        <time>2021-05-26T17:04:00.000Z</time>
      </trkpt>
      <trkpt lat="45.16615" lon="5.77186">
        <ele>322.3</ele>
        <time>2021-05-26T17:04:01.000Z</time>
      </trkpt>
      <trkpt lat="45.16616" lon="5.77185">
        <ele>322.5</ele>
        <time>2021-05-26T17:04:02.000Z</time>
      </trkpt>
      <trkpt lat="45.16616" lon="5.77185">
        <ele>322.6</ele>
        <time>2021-05-26T17:04:03.000Z</time>
      </trkpt>
      <trkpt lat="45.16617" lon="5.77184">
        <ele>322.7</ele>
        <time>2021-05-26T17:04:04.000Z</time>
      </trkpt>
      <trkpt lat="45.16618" lon="5.77183">
        <ele>322.9</ele>
        <time>2021-05-26T17:04:05.000Z</time>
      </trkpt>
      <trkpt lat="45.16618" lon="5.77182">
        <ele>323</ele>
        <time>2021-05-26T17:04:06.000Z</time>
      </trkpt>
      <trkpt lat="45.16624" lon="5.77176">
        <ele>324.1</ele>
        <time>2021-05-26T17:04:07.000Z</time>
      </trkpt>
      <trkpt lat="45.16625" lon="5.77176">
        <ele>324.2</ele>
        <time>2021-05-26T17:04:08.000Z</time>
      </trkpt>
      <trkpt lat="45.16625" lon="5.77176">
        <ele>324.3</ele>
        <time>2021-05-26T17:04:10.000Z</time>
      </trkpt>
      <trkpt lat="45.16626" lon="5.77175">
        <ele>324.5</ele>
        <time>2021-05-26T17:04:11.000Z</time>
      </trkpt>
      <trkpt lat="45.16627" lon="5.77175">
        <ele>324.6</ele>
        <time>2021-05-26T17:04:12.000Z</time>
      </trkpt>
      <trkpt lat="45.16628" lon="5.77175">
        <ele>324.8</ele>
        <time>2021-05-26T17:04:13.000Z</time>
      </trkpt>
      <trkpt lat="45.16629" lon="5.77175">
        <ele>324.9</ele>
        <time>2021-05-26T17:04:14.000Z</time>
      </trkpt>
      <trkpt lat="45.16635" lon="5.77174">
        <ele>326.1</ele>
        <time>2021-05-26T17:04:15.000Z</time>
      </trkpt>
      <trkpt lat="45.16636" lon="5.77175">
        <ele>326.3</ele>
        <time>2021-05-26T17:04:16.000Z</time>
      </trkpt>
      <trkpt lat="45.16637" lon="5.77175">
        <ele>326.5</ele>
        <time>2021-05-26T17:04:17.000Z</time>
      </trkpt>
      <trkpt lat="45.16638" lon="5.77176">
        <ele>326.7</ele>
        <time>2021-05-26T17:04:18.000Z</time>
      </trkpt>
      <trkpt lat="45.16639" lon="5.77176">
        <ele>326.9</ele>
        <time>2021-05-26T17:04:19.000Z</time>
      </trkpt>
      <trkpt lat="45.16639" lon="5.77177">
        <ele>327.1</ele>
        <time>2021-05-26T17:04:20.000Z</time>
      </trkpt>
      <trkpt lat="45.16644" lon="5.7718">
        <ele>328.4</ele>
        <time>2021-05-26T17:04:21.000Z</time>
      </trkpt>
      <trkpt lat="45.16644" lon="5.7718">
        <ele>328.4</ele>
        <time>2021-05-26T17:04:22.000Z</time>
      </trkpt>
      <trkpt lat="45.16644" lon="5.7718">
        <ele>328.4</ele>
        <time>2021-05-26T17:04:23.000Z</time>
      </trkpt>
      <trkpt lat="45.16644" lon="5.7718">
        <ele>328.4</ele>
        <time>2021-05-26T17:04:24.000Z</time>
      </trkpt>
      <trkpt lat="45.16644" lon="5.7718">
        <ele>328.4</ele>
        <time>2021-05-26T17:04:25.000Z</time>
      </trkpt>
      <trkpt lat="45.16644" lon="5.7718">
        <ele>328.4</ele>
        <time>2021-05-26T17:04:26.000Z</time>
      </trkpt>
      <trkpt lat="45.16644" lon="5.7718">
        <ele>328.4</ele>
        <time>2021-05-26T17:04:27.000Z</time>
      </trkpt>
      <trkpt lat="45.16644" lon="5.7718">
        <ele>328.4</ele>
        <time>2021-05-26T17:04:29.000Z</time>
      </trkpt>
      <trkpt lat="45.16655" lon="5.77184">
        <ele>331.2</ele>
        <time>2021-05-26T17:04:31.000Z</time>
      </trkpt>
      <trkpt lat="45.16655" lon="5.77184">
        <ele>331.3</ele>
        <time>2021-05-26T17:04:32.000Z</time>
      </trkpt>
      <trkpt lat="45.16656" lon="5.77185">
        <ele>331.5</ele>
        <time>2021-05-26T17:04:33.000Z</time>
      </trkpt>
      <trkpt lat="45.16656" lon="5.77185">
        <ele>331.6</ele>
        <time>2021-05-26T17:04:34.000Z</time>
      </trkpt>
      <trkpt lat="45.16657" lon="5.77186">
        <ele>331.8</ele>
        <time>2021-05-26T17:04:35.000Z</time>
      </trkpt>
      <trkpt lat="45.16657" lon="5.77186">
        <ele>331.9</ele>
        <time>2021-05-26T17:04:36.000Z</time>
      </trkpt>
      <trkpt lat="45.16658" lon="5.77186">
        <ele>332.1</ele>
        <time>2021-05-26T17:04:37.000Z</time>
      </trkpt>
      <trkpt lat="45.16658" lon="5.77187">
        <ele>332.2</ele>
        <time>2021-05-26T17:04:38.000Z</time>
      </trkpt>
      <trkpt lat="45.16659" lon="5.77187">
        <ele>332.3</ele>
        <time>2021-05-26T17:04:39.000Z</time>
      </trkpt>
      <trkpt lat="45.16659" lon="5.77188">
        <ele>332.5</ele>
        <time>2021-05-26T17:04:40.000Z</time>
      </trkpt>
      <trkpt lat="45.16659" lon="5.77188">
        <ele>332.6</ele>
        <time>2021-05-26T17:04:41.000Z</time>
      </trkpt>
      <trkpt lat="45.16664" lon="5.77193">
        <ele>334.1</ele>
        <time>2021-05-26T17:04:42.000Z</time>
      </trkpt>
      <trkpt lat="45.16665" lon="5.77194">
        <ele>334.2</ele>
        <time>2021-05-26T17:04:43.000Z</time>
      </trkpt>
      <trkpt lat="45.16665" lon="5.77195">
        <ele>334.4</ele>
        <time>2021-05-26T17:04:44.000Z</time>
      </trkpt>
      <trkpt lat="45.16665" lon="5.77195">
        <ele>334.5</ele>
        <time>2021-05-26T17:04:45.000Z</time>
      </trkpt>
      <trkpt lat="45.16665" lon="5.77196">
        <ele>334.7</ele>
        <time>2021-05-26T17:04:46.000Z</time>
      </trkpt>
      <trkpt lat="45.16666" lon="5.77197">
        <ele>334.8</ele>
        <time>2021-05-26T17:04:48.000Z</time>
      </trkpt>
      <trkpt lat="45.16666" lon="5.77198">
        <ele>334.9</ele>
        <time>2021-05-26T17:04:49.000Z</time>
      </trkpt>
      <trkpt lat="45.16666" lon="5.77198">
        <ele>335.1</ele>
        <time>2021-05-26T17:04:50.000Z</time>
      </trkpt>
      <trkpt lat="45.16666" lon="5.77199">
        <ele>335.2</ele>
        <time>2021-05-26T17:04:51.000Z</time>
      </trkpt>
      <trkpt lat="45.16667" lon="5.772">
        <ele>335.3</ele>
        <time>2021-05-26T17:04:52.000Z</time>
      </trkpt>
      <trkpt lat="45.16669" lon="5.77208">
        <ele>336.7</ele>
        <time>2021-05-26T17:04:53.000Z</time>
      </trkpt>
      <trkpt lat="45.1667" lon="5.77209">
        <ele>336.9</ele>
        <time>2021-05-26T17:04:54.000Z</time>
      </trkpt>
      <trkpt lat="45.1667" lon="5.7721">
        <ele>337</ele>
        <time>2021-05-26T17:04:55.000Z</time>
      </trkpt>
      <trkpt lat="45.1667" lon="5.7721">
        <ele>337.1</ele>
        <time>2021-05-26T17:04:56.000Z</time>
      </trkpt>
      <trkpt lat="45.1667" lon="5.77211">
        <ele>337.3</ele>
        <time>2021-05-26T17:04:57.000Z</time>
      </trkpt>
      <trkpt lat="45.1667" lon="5.77212">
        <ele>337.4</ele>
        <time>2021-05-26T17:04:58.000Z</time>
      </trkpt>
      <trkpt lat="45.16671" lon="5.77213">
        <ele>337.5</ele>
        <time>2021-05-26T17:04:59.000Z</time>
      </trkpt>
      <trkpt lat="45.16671" lon="5.77214">
        <ele>337.6</ele>
        <time>2021-05-26T17:05:00.000Z</time>
      </trkpt>
      <trkpt lat="45.16671" lon="5.77215">
        <ele>337.7</ele>
        <time>2021-05-26T17:05:01.000Z</time>
      </trkpt>
      <trkpt lat="45.16673" lon="5.77223">
        <ele>338.9</ele>
        <time>2021-05-26T17:05:02.000Z</time>
      </trkpt>
      <trkpt lat="45.16673" lon="5.77223">
        <ele>339</ele>
        <time>2021-05-26T17:05:03.000Z</time>
      </trkpt>
      <trkpt lat="45.16673" lon="5.77224">
        <ele>339.1</ele>
        <time>2021-05-26T17:05:04.000Z</time>
      </trkpt>
      <trkpt lat="45.16673" lon="5.77225">
        <ele>339.2</ele>
        <time>2021-05-26T17:05:05.000Z</time>
      </trkpt>
      <trkpt lat="45.16674" lon="5.77226">
        <ele>339.3</ele>
        <time>2021-05-26T17:05:07.000Z</time>
      </trkpt>
      <trkpt lat="45.16674" lon="5.77227">
        <ele>339.4</ele>
        <time>2021-05-26T17:05:08.000Z</time>
      </trkpt>
      <trkpt lat="45.16674" lon="5.77227">
        <ele>339.5</ele>
        <time>2021-05-26T17:05:09.000Z</time>
      </trkpt>
      <trkpt lat="45.16674" lon="5.77228">
        <ele>339.6</ele>
        <time>2021-05-26T17:05:10.000Z</time>
      </trkpt>
      <trkpt lat="45.16674" lon="5.77229">
        <ele>339.8</ele>
        <time>2021-05-26T17:05:11.000Z</time>
      </trkpt>
      <trkpt lat="45.16674" lon="5.7723">
        <ele>339.9</ele>
        <time>2021-05-26T17:05:12.000Z</time>
      </trkpt>
      <trkpt lat="45.16676" lon="5.77239">
        <ele>341.1</ele>
        <time>2021-05-26T17:05:13.000Z</time>
      </trkpt>
      <trkpt lat="45.16676" lon="5.7724">
        <ele>341.2</ele>
        <time>2021-05-26T17:05:14.000Z</time>
      </trkpt>
      <trkpt lat="45.16676" lon="5.77241">
        <ele>341.3</ele>
        <time>2021-05-26T17:05:15.000Z</time>
      </trkpt>
      <trkpt lat="45.16676" lon="5.77242">
        <ele>341.5</ele>
        <time>2021-05-26T17:05:16.000Z</time>
      </trkpt>
      <trkpt lat="45.16676" lon="5.77243">
        <ele>341.6</ele>
        <time>2021-05-26T17:05:17.000Z</time>
      </trkpt>
      <trkpt lat="45.16676" lon="5.77244">
        <ele>341.7</ele>
        <time>2021-05-26T17:05:18.000Z</time>
      </trkpt>
      <trkpt lat="45.16676" lon="5.77245">
        <ele>341.9</ele>
        <time>2021-05-26T17:05:19.000Z</time>
      </trkpt>
      <trkpt lat="45.16676" lon="5.77246">
        <ele>342</ele>
        <time>2021-05-26T17:05:20.000Z</time>
      </trkpt>
      <trkpt lat="45.16678" lon="5.77255">
        <ele>343.3</ele>
        <time>2021-05-26T17:05:21.000Z</time>
      </trkpt>
      <trkpt lat="45.16678" lon="5.77256">
        <ele>343.4</ele>
        <time>2021-05-26T17:05:22.000Z</time>
      </trkpt>
      <trkpt lat="45.16678" lon="5.77257">
        <ele>343.5</ele>
        <time>2021-05-26T17:05:23.000Z</time>
      </trkpt>
      <trkpt lat="45.16678" lon="5.77257">
        <ele>343.7</ele>
        <time>2021-05-26T17:05:24.000Z</time>
      </trkpt>
      <trkpt lat="45.16678" lon="5.77258">
        <ele>343.8</ele>
        <time>2021-05-26T17:05:26.000Z</time>
      </trkpt>
      <trkpt lat="45.16679" lon="5.77259">
        <ele>343.9</ele>
        <time>2021-05-26T17:05:28.000Z</time>
      </trkpt>
      <trkpt lat="45.16679" lon="5.7726">
        <ele>344.1</ele>
        <time>2021-05-26T17:05:29.000Z</time>
      </trkpt>
      <trkpt lat="45.16679" lon="5.77261">
        <ele>344.2</ele>
        <time>2021-05-26T17:05:30.000Z</time>
      </trkpt>
      <trkpt lat="45.16679" lon="5.77262">
        <ele>344.3</ele>
        <time>2021-05-26T17:05:31.000Z</time>
      </trkpt>
      <trkpt lat="45.16681" lon="5.7727">
        <ele>345.6</ele>
        <time>2021-05-26T17:05:32.000Z</time>
      </trkpt>
      <trkpt lat="45.16681" lon="5.7727">
        <ele>345.6</ele>
        <time>2021-05-26T17:05:33.000Z</time>
      </trkpt>
      <trkpt lat="45.16681" lon="5.77271">
        <ele>345.7</ele>
        <time>2021-05-26T17:05:34.000Z</time>
      </trkpt>
      <trkpt lat="45.16682" lon="5.77271">
        <ele>345.7</ele>
        <time>2021-05-26T17:05:35.000Z</time>
      </trkpt>
      <trkpt lat="45.16682" lon="5.77271">
        <ele>345.8</ele>
        <time>2021-05-26T17:05:36.000Z</time>
      </trkpt>
      <trkpt lat="45.16682" lon="5.77272">
        <ele>345.8</ele>
        <time>2021-05-26T17:05:37.000Z</time>
      </trkpt>
      <trkpt lat="45.16682" lon="5.77272">
        <ele>345.9</ele>
        <time>2021-05-26T17:05:38.000Z</time>
      </trkpt>
      <trkpt lat="45.16682" lon="5.77272">
        <ele>345.9</ele>
        <time>2021-05-26T17:05:39.000Z</time>
      </trkpt>
      <trkpt lat="45.16682" lon="5.77272">
        <ele>346</ele>
        <time>2021-05-26T17:05:40.000Z</time>
      </trkpt>
      <trkpt lat="45.16682" lon="5.77273">
        <ele>346</ele>
        <time>2021-05-26T17:05:41.000Z</time>
      </trkpt>
      <trkpt lat="45.16682" lon="5.77273">
        <ele>346.1</ele>
        <time>2021-05-26T17:05:42.000Z</time>
      </trkpt>
      <trkpt lat="45.16682" lon="5.77273">
        <ele>346.1</ele>
        <time>2021-05-26T17:05:43.000Z</time>
      </trkpt>
      <trkpt lat="45.16683" lon="5.77274">
        <ele>346.2</ele>
        <time>2021-05-26T17:05:45.000Z</time>
      </trkpt>
      <trkpt lat="45.16683" lon="5.77274">
        <ele>346.3</ele>
        <time>2021-05-26T17:05:46.000Z</time>
      </trkpt>
      <trkpt lat="45.16683" lon="5.77274">
        <ele>346.3</ele>
        <time>2021-05-26T17:05:47.000Z</time>
      </trkpt>
      <trkpt lat="45.16683" lon="5.77275">
        <ele>346.3</ele>
        <time>2021-05-26T17:05:48.000Z</time>
      </trkpt>
      <trkpt lat="45.16683" lon="5.77275">
        <ele>346.4</ele>
        <time>2021-05-26T17:05:49.000Z</time>
      </trkpt>
      <trkpt lat="45.16683" lon="5.77275">
        <ele>346.5</ele>
        <time>2021-05-26T17:05:50.000Z</time>
      </trkpt>
      <trkpt lat="45.16683" lon="5.77276">
        <ele>346.5</ele>
        <time>2021-05-26T17:05:51.000Z</time>
      </trkpt>
      <trkpt lat="45.16683" lon="5.77276">
        <ele>346.5</ele>
        <time>2021-05-26T17:05:52.000Z</time>
      </trkpt>
      <trkpt lat="45.16684" lon="5.77276">
        <ele>346.6</ele>
        <time>2021-05-26T17:05:53.000Z</time>
      </trkpt>
      <trkpt lat="45.16684" lon="5.77277">
        <ele>346.7</ele>
        <time>2021-05-26T17:05:54.000Z</time>
      </trkpt>
      <trkpt lat="45.16684" lon="5.77277">
        <ele>346.7</ele>
        <time>2021-05-26T17:05:55.000Z</time>
      </trkpt>
      <trkpt lat="45.16687" lon="5.77286">
        <ele>348</ele>
        <time>2021-05-26T17:05:56.000Z</time>
      </trkpt>
      <trkpt lat="45.16688" lon="5.77288">
        <ele>348.2</ele>
        <time>2021-05-26T17:05:57.000Z</time>
      </trkpt>
      <trkpt lat="45.16688" lon="5.77289">
        <ele>348.4</ele>
        <time>2021-05-26T17:05:58.000Z</time>
      </trkpt>
      <trkpt lat="45.16689" lon="5.77291">
        <ele>348.6</ele>
        <time>2021-05-26T17:05:59.000Z</time>
      </trkpt>
      <trkpt lat="45.1669" lon="5.77292">
        <ele>348.8</ele>
        <time>2021-05-26T17:06:00.000Z</time>
      </trkpt>
      <trkpt lat="45.16691" lon="5.77294">
        <ele>348.9</ele>
        <time>2021-05-26T17:06:01.000Z</time>
      </trkpt>
      <trkpt lat="45.16691" lon="5.77295">
        <ele>349.1</ele>
        <time>2021-05-26T17:06:02.000Z</time>
      </trkpt>
      <trkpt lat="45.16692" lon="5.77297">
        <ele>349.3</ele>
        <time>2021-05-26T17:06:04.000Z</time>
      </trkpt>
      <trkpt lat="45.16693" lon="5.77298">
        <ele>349.5</ele>
        <time>2021-05-26T17:06:05.000Z</time>
      </trkpt>
      <trkpt lat="45.16693" lon="5.77299">
        <ele>349.6</ele>
        <time>2021-05-26T17:06:06.000Z</time>
      </trkpt>
      <trkpt lat="45.16694" lon="5.773">
        <ele>349.7</ele>
        <time>2021-05-26T17:06:07.000Z</time>
      </trkpt>
      <trkpt lat="45.16694" lon="5.77301">
        <ele>349.9</ele>
        <time>2021-05-26T17:06:08.000Z</time>
      </trkpt>
      <trkpt lat="45.16695" lon="5.77302">
        <ele>350</ele>
        <time>2021-05-26T17:06:09.000Z</time>
      </trkpt>
      <trkpt lat="45.16695" lon="5.77303">
        <ele>350.1</ele>
        <time>2021-05-26T17:06:10.000Z</time>
      </trkpt>
      <trkpt lat="45.16696" lon="5.77304">
        <ele>350.2</ele>
        <time>2021-05-26T17:06:11.000Z</time>
      </trkpt>
      <trkpt lat="45.16696" lon="5.77305">
        <ele>350.4</ele>
        <time>2021-05-26T17:06:12.000Z</time>
      </trkpt>
      <trkpt lat="45.16701" lon="5.77312">
        <ele>351.4</ele>
        <time>2021-05-26T17:06:13.000Z</time>
      </trkpt>
      <trkpt lat="45.16701" lon="5.77313">
        <ele>351.6</ele>
        <time>2021-05-26T17:06:14.000Z</time>
      </trkpt>
      <trkpt lat="45.16702" lon="5.77314">
        <ele>351.7</ele>
        <time>2021-05-26T17:06:15.000Z</time>
      </trkpt>
      <trkpt lat="45.16702" lon="5.77315">
        <ele>351.9</ele>
        <time>2021-05-26T17:06:16.000Z</time>
      </trkpt>
      <trkpt lat="45.16703" lon="5.77316">
        <ele>352.1</ele>
        <time>2021-05-26T17:06:17.000Z</time>
      </trkpt>
      <trkpt lat="45.16703" lon="5.77317">
        <ele>352.2</ele>
        <time>2021-05-26T17:06:18.000Z</time>
      </trkpt>
      <trkpt lat="45.16706" lon="5.77324">
        <ele>353.3</ele>
        <time>2021-05-26T17:06:19.000Z</time>
      </trkpt>
      <trkpt lat="45.16706" lon="5.77324">
        <ele>353.3</ele>
        <time>2021-05-26T17:06:20.000Z</time>
      </trkpt>
      <trkpt lat="45.16706" lon="5.77324">
        <ele>353.3</ele>
        <time>2021-05-26T17:06:21.000Z</time>
      </trkpt>
      <trkpt lat="45.16706" lon="5.77324">
        <ele>353.3</ele>
        <time>2021-05-26T17:06:23.000Z</time>
      </trkpt>
      <trkpt lat="45.16712" lon="5.77339">
        <ele>355.8</ele>
        <time>2021-05-26T17:06:25.000Z</time>
      </trkpt>
      <trkpt lat="45.16712" lon="5.7734">
        <ele>356</ele>
        <time>2021-05-26T17:06:26.000Z</time>
      </trkpt>
      <trkpt lat="45.16712" lon="5.7734">
        <ele>356.1</ele>
        <time>2021-05-26T17:06:27.000Z</time>
      </trkpt>
      <trkpt lat="45.16713" lon="5.77341">
        <ele>356.2</ele>
        <time>2021-05-26T17:06:28.000Z</time>
      </trkpt>
      <trkpt lat="45.16713" lon="5.77342">
        <ele>356.3</ele>
        <time>2021-05-26T17:06:29.000Z</time>
      </trkpt>
      <trkpt lat="45.16713" lon="5.77342">
        <ele>356.4</ele>
        <time>2021-05-26T17:06:30.000Z</time>
      </trkpt>
      <trkpt lat="45.16714" lon="5.77343">
        <ele>356.6</ele>
        <time>2021-05-26T17:06:31.000Z</time>
      </trkpt>
      <trkpt lat="45.16714" lon="5.77343">
        <ele>356.7</ele>
        <time>2021-05-26T17:06:32.000Z</time>
      </trkpt>
      <trkpt lat="45.16714" lon="5.77344">
        <ele>356.8</ele>
        <time>2021-05-26T17:06:33.000Z</time>
      </trkpt>
      <trkpt lat="45.16714" lon="5.77345">
        <ele>356.9</ele>
        <time>2021-05-26T17:06:34.000Z</time>
      </trkpt>
      <trkpt lat="45.16715" lon="5.77345">
        <ele>357</ele>
        <time>2021-05-26T17:06:35.000Z</time>
      </trkpt>
      <trkpt lat="45.16718" lon="5.77352">
        <ele>358.3</ele>
        <time>2021-05-26T17:06:36.000Z</time>
      </trkpt>
      <trkpt lat="45.16718" lon="5.77353">
        <ele>358.4</ele>
        <time>2021-05-26T17:06:37.000Z</time>
      </trkpt>
      <trkpt lat="45.16719" lon="5.77353">
        <ele>358.5</ele>
        <time>2021-05-26T17:06:38.000Z</time>
      </trkpt>
      <trkpt lat="45.16719" lon="5.77354">
        <ele>358.6</ele>
        <time>2021-05-26T17:06:39.000Z</time>
      </trkpt>
      <trkpt lat="45.16719" lon="5.77355">
        <ele>358.7</ele>
        <time>2021-05-26T17:06:40.000Z</time>
      </trkpt>
      <trkpt lat="45.1672" lon="5.77355">
        <ele>358.9</ele>
        <time>2021-05-26T17:06:42.000Z</time>
      </trkpt>
      <trkpt lat="45.1672" lon="5.77356">
        <ele>359</ele>
        <time>2021-05-26T17:06:43.000Z</time>
      </trkpt>
      <trkpt lat="45.1672" lon="5.77356">
        <ele>359.1</ele>
        <time>2021-05-26T17:06:44.000Z</time>
      </trkpt>
      <trkpt lat="45.16721" lon="5.77357">
        <ele>359.2</ele>
        <time>2021-05-26T17:06:45.000Z</time>
      </trkpt>
      <trkpt lat="45.16721" lon="5.77358">
        <ele>359.3</ele>
        <time>2021-05-26T17:06:46.000Z</time>
      </trkpt>
      <trkpt lat="45.16721" lon="5.77358">
        <ele>359.4</ele>
        <time>2021-05-26T17:06:47.000Z</time>
      </trkpt>
      <trkpt lat="45.16725" lon="5.77366">
        <ele>360.8</ele>
        <time>2021-05-26T17:06:48.000Z</time>
      </trkpt>
      <trkpt lat="45.16725" lon="5.77366">
        <ele>360.9</ele>
        <time>2021-05-26T17:06:49.000Z</time>
      </trkpt>
      <trkpt lat="45.16726" lon="5.77367">
        <ele>361.1</ele>
        <time>2021-05-26T17:06:51.000Z</time>
      </trkpt>
      <trkpt lat="45.16726" lon="5.77368">
        <ele>361.2</ele>
        <time>2021-05-26T17:06:52.000Z</time>
      </trkpt>
      <trkpt lat="45.16726" lon="5.77369">
        <ele>361.3</ele>
        <time>2021-05-26T17:06:53.000Z</time>
      </trkpt>
      <trkpt lat="45.16726" lon="5.77369">
        <ele>361.4</ele>
        <time>2021-05-26T17:06:54.000Z</time>
      </trkpt>
      <trkpt lat="45.16727" lon="5.7737">
        <ele>361.6</ele>
        <time>2021-05-26T17:06:55.000Z</time>
      </trkpt>
      <trkpt lat="45.16727" lon="5.77371">
        <ele>361.7</ele>
        <time>2021-05-26T17:06:56.000Z</time>
      </trkpt>
      <trkpt lat="45.16727" lon="5.77372">
        <ele>361.8</ele>
        <time>2021-05-26T17:06:57.000Z</time>
      </trkpt>
      <trkpt lat="45.16727" lon="5.77372">
        <ele>361.9</ele>
        <time>2021-05-26T17:06:58.000Z</time>
      </trkpt>
      <trkpt lat="45.1673" lon="5.7738">
        <ele>363.4</ele>
        <time>2021-05-26T17:06:59.000Z</time>
      </trkpt>
      <trkpt lat="45.16731" lon="5.77381">
        <ele>363.5</ele>
        <time>2021-05-26T17:07:01.000Z</time>
      </trkpt>
      <trkpt lat="45.16731" lon="5.77382">
        <ele>363.7</ele>
        <time>2021-05-26T17:07:03.000Z</time>
      </trkpt>
      <trkpt lat="45.16732" lon="5.77382">
        <ele>363.8</ele>
        <time>2021-05-26T17:07:04.000Z</time>
      </trkpt>
      <trkpt lat="45.16732" lon="5.77383">
        <ele>364</ele>
        <time>2021-05-26T17:07:05.000Z</time>
      </trkpt>
      <trkpt lat="45.16733" lon="5.77384">
        <ele>364.2</ele>
        <time>2021-05-26T17:07:06.000Z</time>
      </trkpt>
      <trkpt lat="45.16733" lon="5.77385">
        <ele>364.3</ele>
        <time>2021-05-26T17:07:07.000Z</time>
      </trkpt>
      <trkpt lat="45.16734" lon="5.77385">
        <ele>364.5</ele>
        <time>2021-05-26T17:07:08.000Z</time>
      </trkpt>
      <trkpt lat="45.16738" lon="5.77391">
        <ele>365.9</ele>
        <time>2021-05-26T17:07:09.000Z</time>
      </trkpt>
      <trkpt lat="45.16738" lon="5.77392">
        <ele>366</ele>
        <time>2021-05-26T17:07:10.000Z</time>
      </trkpt>
      <trkpt lat="45.16738" lon="5.77393">
        <ele>366.1</ele>
        <time>2021-05-26T17:07:11.000Z</time>
      </trkpt>
      <trkpt lat="45.16738" lon="5.77393">
        <ele>366.2</ele>
        <time>2021-05-26T17:07:12.000Z</time>
      </trkpt>
      <trkpt lat="45.16739" lon="5.77394">
        <ele>366.3</ele>
        <time>2021-05-26T17:07:13.000Z</time>
      </trkpt>
      <trkpt lat="45.16739" lon="5.77394">
        <ele>366.4</ele>
        <time>2021-05-26T17:07:14.000Z</time>
      </trkpt>
      <trkpt lat="45.16739" lon="5.77395">
        <ele>366.6</ele>
        <time>2021-05-26T17:07:15.000Z</time>
      </trkpt>
      <trkpt lat="45.16739" lon="5.77396">
        <ele>366.7</ele>
        <time>2021-05-26T17:07:16.000Z</time>
      </trkpt>
      <trkpt lat="45.1674" lon="5.77396">
        <ele>366.8</ele>
        <time>2021-05-26T17:07:17.000Z</time>
      </trkpt>
      <trkpt lat="45.1674" lon="5.77397">
        <ele>366.9</ele>
        <time>2021-05-26T17:07:18.000Z</time>
      </trkpt>
      <trkpt lat="45.1674" lon="5.77397">
        <ele>367</ele>
        <time>2021-05-26T17:07:20.000Z</time>
      </trkpt>
      <trkpt lat="45.1674" lon="5.77398">
        <ele>367.1</ele>
        <time>2021-05-26T17:07:21.000Z</time>
      </trkpt>
      <trkpt lat="45.16744" lon="5.77406">
        <ele>368.6</ele>
        <time>2021-05-26T17:07:22.000Z</time>
      </trkpt>
      <trkpt lat="45.16744" lon="5.77406">
        <ele>368.8</ele>
        <time>2021-05-26T17:07:23.000Z</time>
      </trkpt>
      <trkpt lat="45.16744" lon="5.77407">
        <ele>368.9</ele>
        <time>2021-05-26T17:07:24.000Z</time>
      </trkpt>
      <trkpt lat="45.16744" lon="5.77408">
        <ele>369</ele>
        <time>2021-05-26T17:07:25.000Z</time>
      </trkpt>
      <trkpt lat="45.16745" lon="5.77408">
        <ele>369.2</ele>
        <time>2021-05-26T17:07:26.000Z</time>
      </trkpt>
      <trkpt lat="45.16745" lon="5.77409">
        <ele>369.3</ele>
        <time>2021-05-26T17:07:28.000Z</time>
      </trkpt>
      <trkpt lat="45.16745" lon="5.7741">
        <ele>369.4</ele>
        <time>2021-05-26T17:07:29.000Z</time>
      </trkpt>
      <trkpt lat="45.16745" lon="5.7741">
        <ele>369.5</ele>
        <time>2021-05-26T17:07:30.000Z</time>
      </trkpt>
      <trkpt lat="45.16746" lon="5.77411">
        <ele>369.7</ele>
        <time>2021-05-26T17:07:31.000Z</time>
      </trkpt>
      <trkpt lat="45.16746" lon="5.77412">
        <ele>369.8</ele>
        <time>2021-05-26T17:07:32.000Z</time>
      </trkpt>
      <trkpt lat="45.16746" lon="5.77412">
        <ele>369.9</ele>
        <time>2021-05-26T17:07:33.000Z</time>
      </trkpt>
      <trkpt lat="45.16749" lon="5.7742">
        <ele>371.4</ele>
        <time>2021-05-26T17:07:34.000Z</time>
      </trkpt>
      <trkpt lat="45.1675" lon="5.77421">
        <ele>371.5</ele>
        <time>2021-05-26T17:07:35.000Z</time>
      </trkpt>
      <trkpt lat="45.1675" lon="5.77422">
        <ele>371.7</ele>
        <time>2021-05-26T17:07:36.000Z</time>
      </trkpt>
      <trkpt lat="45.1675" lon="5.77422">
        <ele>371.8</ele>
        <time>2021-05-26T17:07:37.000Z</time>
      </trkpt>
      <trkpt lat="45.16751" lon="5.77423">
        <ele>371.9</ele>
        <time>2021-05-26T17:07:39.000Z</time>
      </trkpt>
      <trkpt lat="45.16751" lon="5.77423">
        <ele>372</ele>
        <time>2021-05-26T17:07:40.000Z</time>
      </trkpt>
      <trkpt lat="45.16751" lon="5.77424">
        <ele>372.1</ele>
        <time>2021-05-26T17:07:42.000Z</time>
      </trkpt>
      <trkpt lat="45.16751" lon="5.77424">
        <ele>372.3</ele>
        <time>2021-05-26T17:07:43.000Z</time>
      </trkpt>
      <trkpt lat="45.16752" lon="5.77425">
        <ele>372.4</ele>
        <time>2021-05-26T17:07:44.000Z</time>
      </trkpt>
      <trkpt lat="45.16752" lon="5.77426">
        <ele>372.5</ele>
        <time>2021-05-26T17:07:45.000Z</time>
      </trkpt>
      <trkpt lat="45.16752" lon="5.77426">
        <ele>372.6</ele>
        <time>2021-05-26T17:07:46.000Z</time>
      </trkpt>
      <trkpt lat="45.16756" lon="5.77434">
        <ele>373.9</ele>
        <time>2021-05-26T17:07:47.000Z</time>
      </trkpt>
      <trkpt lat="45.16757" lon="5.77435">
        <ele>374.1</ele>
        <time>2021-05-26T17:07:48.000Z</time>
      </trkpt>
      <trkpt lat="45.16758" lon="5.77436">
        <ele>374.3</ele>
        <time>2021-05-26T17:07:49.000Z</time>
      </trkpt>
      <trkpt lat="45.16758" lon="5.77437">
        <ele>374.5</ele>
        <time>2021-05-26T17:07:50.000Z</time>
      </trkpt>
      <trkpt lat="45.16759" lon="5.77439">
        <ele>374.7</ele>
        <time>2021-05-26T17:07:51.000Z</time>
      </trkpt>
      <trkpt lat="45.16759" lon="5.7744">
        <ele>374.8</ele>
        <time>2021-05-26T17:07:52.000Z</time>
      </trkpt>
      <trkpt lat="45.1676" lon="5.77441">
        <ele>375</ele>
        <time>2021-05-26T17:07:53.000Z</time>
      </trkpt>
      <trkpt lat="45.16761" lon="5.77442">
        <ele>375.2</ele>
        <time>2021-05-26T17:07:54.000Z</time>
      </trkpt>
      <trkpt lat="45.16761" lon="5.77444">
        <ele>375.3</ele>
        <time>2021-05-26T17:07:55.000Z</time>
      </trkpt>
      <trkpt lat="45.16762" lon="5.77445">
        <ele>375.5</ele>
        <time>2021-05-26T17:07:57.000Z</time>
      </trkpt>
      <trkpt lat="45.16762" lon="5.77446">
        <ele>375.7</ele>
        <time>2021-05-26T17:07:58.000Z</time>
      </trkpt>
      <trkpt lat="45.16763" lon="5.77447">
        <ele>375.8</ele>
        <time>2021-05-26T17:07:59.000Z</time>
      </trkpt>
      <trkpt lat="45.16763" lon="5.77448">
        <ele>375.9</ele>
        <time>2021-05-26T17:08:00.000Z</time>
      </trkpt>
      <trkpt lat="45.16764" lon="5.77448">
        <ele>376</ele>
        <time>2021-05-26T17:08:01.000Z</time>
      </trkpt>
      <trkpt lat="45.16765" lon="5.77449">
        <ele>376.1</ele>
        <time>2021-05-26T17:08:02.000Z</time>
      </trkpt>
      <trkpt lat="45.16765" lon="5.77449">
        <ele>376.2</ele>
        <time>2021-05-26T17:08:03.000Z</time>
      </trkpt>
      <trkpt lat="45.16766" lon="5.7745">
        <ele>376.3</ele>
        <time>2021-05-26T17:08:04.000Z</time>
      </trkpt>
      <trkpt lat="45.16766" lon="5.77451">
        <ele>376.3</ele>
        <time>2021-05-26T17:08:05.000Z</time>
      </trkpt>
      <trkpt lat="45.16767" lon="5.77451">
        <ele>376.4</ele>
        <time>2021-05-26T17:08:06.000Z</time>
      </trkpt>
      <trkpt lat="45.16768" lon="5.77452">
        <ele>376.5</ele>
        <time>2021-05-26T17:08:07.000Z</time>
      </trkpt>
      <trkpt lat="45.16773" lon="5.77457">
        <ele>377</ele>
        <time>2021-05-26T17:08:08.000Z</time>
      </trkpt>
      <trkpt lat="45.16773" lon="5.77458">
        <ele>377</ele>
        <time>2021-05-26T17:08:09.000Z</time>
      </trkpt>
      <trkpt lat="45.16774" lon="5.77458">
        <ele>377.1</ele>
        <time>2021-05-26T17:08:10.000Z</time>
      </trkpt>
      <trkpt lat="45.16775" lon="5.77459">
        <ele>377.1</ele>
        <time>2021-05-26T17:08:11.000Z</time>
      </trkpt>
      <trkpt lat="45.16775" lon="5.7746">
        <ele>377.1</ele>
        <time>2021-05-26T17:08:12.000Z</time>
      </trkpt>
      <trkpt lat="45.16776" lon="5.77461">
        <ele>377.1</ele>
        <time>2021-05-26T17:08:13.000Z</time>
      </trkpt>
      <trkpt lat="45.16776" lon="5.77462">
        <ele>377.1</ele>
        <time>2021-05-26T17:08:14.000Z</time>
      </trkpt>
      <trkpt lat="45.16781" lon="5.77468">
        <ele>377</ele>
        <time>2021-05-26T17:08:15.000Z</time>
      </trkpt>
      <trkpt lat="45.16782" lon="5.77469">
        <ele>376.9</ele>
        <time>2021-05-26T17:08:17.000Z</time>
      </trkpt>
      <trkpt lat="45.16783" lon="5.7747">
        <ele>376.9</ele>
        <time>2021-05-26T17:08:18.000Z</time>
      </trkpt>
      <trkpt lat="45.16784" lon="5.77471">
        <ele>376.8</ele>
        <time>2021-05-26T17:08:19.000Z</time>
      </trkpt>
      <trkpt lat="45.16784" lon="5.77472">
        <ele>376.7</ele>
        <time>2021-05-26T17:08:20.000Z</time>
      </trkpt>
      <trkpt lat="45.16789" lon="5.77479">
        <ele>376.2</ele>
        <time>2021-05-26T17:08:21.000Z</time>
      </trkpt>
      <trkpt lat="45.16789" lon="5.7748">
        <ele>376.2</ele>
        <time>2021-05-26T17:08:22.000Z</time>
      </trkpt>
      <trkpt lat="45.1679" lon="5.7748">
        <ele>376.1</ele>
        <time>2021-05-26T17:08:23.000Z</time>
      </trkpt>
      <trkpt lat="45.1679" lon="5.77481">
        <ele>376.1</ele>
        <time>2021-05-26T17:08:24.000Z</time>
      </trkpt>
      <trkpt lat="45.16791" lon="5.77482">
        <ele>376</ele>
        <time>2021-05-26T17:08:25.000Z</time>
      </trkpt>
      <trkpt lat="45.16791" lon="5.77483">
        <ele>376</ele>
        <time>2021-05-26T17:08:26.000Z</time>
      </trkpt>
      <trkpt lat="45.16792" lon="5.77484">
        <ele>375.9</ele>
        <time>2021-05-26T17:08:27.000Z</time>
      </trkpt>
      <trkpt lat="45.16792" lon="5.77484">
        <ele>375.9</ele>
        <time>2021-05-26T17:08:28.000Z</time>
      </trkpt>
      <trkpt lat="45.16797" lon="5.77492">
        <ele>375.6</ele>
        <time>2021-05-26T17:08:29.000Z</time>
      </trkpt>
      <trkpt lat="45.16797" lon="5.77492">
        <ele>375.6</ele>
        <time>2021-05-26T17:08:30.000Z</time>
      </trkpt>
      <trkpt lat="45.16798" lon="5.77493">
        <ele>375.6</ele>
        <time>2021-05-26T17:08:31.000Z</time>
      </trkpt>
      <trkpt lat="45.16798" lon="5.77494">
        <ele>375.6</ele>
        <time>2021-05-26T17:08:32.000Z</time>
      </trkpt>
      <trkpt lat="45.16799" lon="5.77495">
        <ele>375.6</ele>
        <time>2021-05-26T17:08:33.000Z</time>
      </trkpt>
      <trkpt lat="45.16799" lon="5.77496">
        <ele>375.6</ele>
        <time>2021-05-26T17:08:34.000Z</time>
      </trkpt>
      <trkpt lat="45.16799" lon="5.77497">
        <ele>375.5</ele>
        <time>2021-05-26T17:08:36.000Z</time>
      </trkpt>
      <trkpt lat="45.168" lon="5.77497">
        <ele>375.5</ele>
        <time>2021-05-26T17:08:37.000Z</time>
      </trkpt>
      <trkpt lat="45.16804" lon="5.77505">
        <ele>376.4</ele>
        <time>2021-05-26T17:08:38.000Z</time>
      </trkpt>
      <trkpt lat="45.16804" lon="5.77506">
        <ele>376.5</ele>
        <time>2021-05-26T17:08:39.000Z</time>
      </trkpt>
      <trkpt lat="45.16805" lon="5.77507">
        <ele>376.6</ele>
        <time>2021-05-26T17:08:40.000Z</time>
      </trkpt>
      <trkpt lat="45.16805" lon="5.77507">
        <ele>376.7</ele>
        <time>2021-05-26T17:08:41.000Z</time>
      </trkpt>
      <trkpt lat="45.16806" lon="5.77508">
        <ele>376.8</ele>
        <time>2021-05-26T17:08:42.000Z</time>
      </trkpt>
      <trkpt lat="45.16806" lon="5.77509">
        <ele>376.9</ele>
        <time>2021-05-26T17:08:43.000Z</time>
      </trkpt>
      <trkpt lat="45.16806" lon="5.7751">
        <ele>377</ele>
        <time>2021-05-26T17:08:44.000Z</time>
      </trkpt>
      <trkpt lat="45.16807" lon="5.77511">
        <ele>377.1</ele>
        <time>2021-05-26T17:08:45.000Z</time>
      </trkpt>
      <trkpt lat="45.16811" lon="5.77518">
        <ele>378.1</ele>
        <time>2021-05-26T17:08:46.000Z</time>
      </trkpt>
      <trkpt lat="45.16811" lon="5.77519">
        <ele>378.1</ele>
        <time>2021-05-26T17:08:47.000Z</time>
      </trkpt>
      <trkpt lat="45.16811" lon="5.77519">
        <ele>378.2</ele>
        <time>2021-05-26T17:08:48.000Z</time>
      </trkpt>
      <trkpt lat="45.16811" lon="5.7752">
        <ele>378.3</ele>
        <time>2021-05-26T17:08:49.000Z</time>
      </trkpt>
      <trkpt lat="45.16811" lon="5.77521">
        <ele>378.4</ele>
        <time>2021-05-26T17:08:50.000Z</time>
      </trkpt>
      <trkpt lat="45.16811" lon="5.77521">
        <ele>378.5</ele>
        <time>2021-05-26T17:08:51.000Z</time>
      </trkpt>
      <trkpt lat="45.16811" lon="5.77522">
        <ele>378.5</ele>
        <time>2021-05-26T17:08:52.000Z</time>
      </trkpt>
      <trkpt lat="45.16812" lon="5.77523">
        <ele>378.6</ele>
        <time>2021-05-26T17:08:53.000Z</time>
      </trkpt>
      <trkpt lat="45.16814" lon="5.77534">
        <ele>380.1</ele>
        <time>2021-05-26T17:08:55.000Z</time>
      </trkpt>
      <trkpt lat="45.16815" lon="5.77535">
        <ele>380.2</ele>
        <time>2021-05-26T17:08:56.000Z</time>
      </trkpt>
      <trkpt lat="45.16815" lon="5.77536">
        <ele>380.4</ele>
        <time>2021-05-26T17:08:57.000Z</time>
      </trkpt>
      <trkpt lat="45.16815" lon="5.77537">
        <ele>380.5</ele>
        <time>2021-05-26T17:08:58.000Z</time>
      </trkpt>
      <trkpt lat="45.16816" lon="5.77538">
        <ele>380.7</ele>
        <time>2021-05-26T17:08:59.000Z</time>
      </trkpt>
      <trkpt lat="45.16816" lon="5.77539">
        <ele>380.8</ele>
        <time>2021-05-26T17:09:00.000Z</time>
      </trkpt>
      <trkpt lat="45.16816" lon="5.7754">
        <ele>380.9</ele>
        <time>2021-05-26T17:09:01.000Z</time>
      </trkpt>
      <trkpt lat="45.16819" lon="5.77548">
        <ele>382</ele>
        <time>2021-05-26T17:09:02.000Z</time>
      </trkpt>
      <trkpt lat="45.16819" lon="5.77548">
        <ele>382.1</ele>
        <time>2021-05-26T17:09:03.000Z</time>
      </trkpt>
      <trkpt lat="45.16819" lon="5.77548">
        <ele>382.1</ele>
        <time>2021-05-26T17:09:04.000Z</time>
      </trkpt>
      <trkpt lat="45.1682" lon="5.77549">
        <ele>382.2</ele>
        <time>2021-05-26T17:09:05.000Z</time>
      </trkpt>
      <trkpt lat="45.1682" lon="5.77549">
        <ele>382.3</ele>
        <time>2021-05-26T17:09:06.000Z</time>
      </trkpt>
      <trkpt lat="45.1682" lon="5.77549">
        <ele>382.3</ele>
        <time>2021-05-26T17:09:07.000Z</time>
      </trkpt>
      <trkpt lat="45.16821" lon="5.7755">
        <ele>382.4</ele>
        <time>2021-05-26T17:09:08.000Z</time>
      </trkpt>
      <trkpt lat="45.16821" lon="5.7755">
        <ele>382.5</ele>
        <time>2021-05-26T17:09:09.000Z</time>
      </trkpt>
      <trkpt lat="45.16821" lon="5.7755">
        <ele>382.5</ele>
        <time>2021-05-26T17:09:10.000Z</time>
      </trkpt>
      <trkpt lat="45.16822" lon="5.7755">
        <ele>382.6</ele>
        <time>2021-05-26T17:09:11.000Z</time>
      </trkpt>
      <trkpt lat="45.16822" lon="5.77551">
        <ele>382.6</ele>
        <time>2021-05-26T17:09:12.000Z</time>
      </trkpt>
      <trkpt lat="45.16829" lon="5.77558">
        <ele>384.1</ele>
        <time>2021-05-26T17:09:14.000Z</time>
      </trkpt>
      <trkpt lat="45.1683" lon="5.77558">
        <ele>384.3</ele>
        <time>2021-05-26T17:09:15.000Z</time>
      </trkpt>
      <trkpt lat="45.16831" lon="5.77559">
        <ele>384.4</ele>
        <time>2021-05-26T17:09:16.000Z</time>
      </trkpt>
      <trkpt lat="45.16831" lon="5.77559">
        <ele>384.6</ele>
        <time>2021-05-26T17:09:17.000Z</time>
      </trkpt>
      <trkpt lat="45.16832" lon="5.7756">
        <ele>384.7</ele>
        <time>2021-05-26T17:09:18.000Z</time>
      </trkpt>
      <trkpt lat="45.16833" lon="5.7756">
        <ele>384.9</ele>
        <time>2021-05-26T17:09:19.000Z</time>
      </trkpt>
      <trkpt lat="45.16833" lon="5.77561">
        <ele>385</ele>
        <time>2021-05-26T17:09:20.000Z</time>
      </trkpt>
      <trkpt lat="45.16839" lon="5.77566">
        <ele>386.1</ele>
        <time>2021-05-26T17:09:21.000Z</time>
      </trkpt>
      <trkpt lat="45.16839" lon="5.77567">
        <ele>386.3</ele>
        <time>2021-05-26T17:09:22.000Z</time>
      </trkpt>
      <trkpt lat="45.1684" lon="5.77568">
        <ele>386.4</ele>
        <time>2021-05-26T17:09:23.000Z</time>
      </trkpt>
      <trkpt lat="45.1684" lon="5.77568">
        <ele>386.5</ele>
        <time>2021-05-26T17:09:24.000Z</time>
      </trkpt>
      <trkpt lat="45.1684" lon="5.77569">
        <ele>386.7</ele>
        <time>2021-05-26T17:09:25.000Z</time>
      </trkpt>
      <trkpt lat="45.16841" lon="5.7757">
        <ele>386.8</ele>
        <time>2021-05-26T17:09:26.000Z</time>
      </trkpt>
      <trkpt lat="45.16841" lon="5.77571">
        <ele>386.9</ele>
        <time>2021-05-26T17:09:27.000Z</time>
      </trkpt>
      <trkpt lat="45.16842" lon="5.77572">
        <ele>387.1</ele>
        <time>2021-05-26T17:09:28.000Z</time>
      </trkpt>
      <trkpt lat="45.16846" lon="5.7758">
        <ele>388.3</ele>
        <time>2021-05-26T17:09:29.000Z</time>
      </trkpt>
      <trkpt lat="45.16847" lon="5.77581">
        <ele>388.4</ele>
        <time>2021-05-26T17:09:30.000Z</time>
      </trkpt>
      <trkpt lat="45.16847" lon="5.77582">
        <ele>388.6</ele>
        <time>2021-05-26T17:09:31.000Z</time>
      </trkpt>
      <trkpt lat="45.16848" lon="5.77583">
        <ele>388.7</ele>
        <time>2021-05-26T17:09:33.000Z</time>
      </trkpt>
      <trkpt lat="45.16849" lon="5.77584">
        <ele>388.9</ele>
        <time>2021-05-26T17:09:34.000Z</time>
      </trkpt>
      <trkpt lat="45.16849" lon="5.77585">
        <ele>389</ele>
        <time>2021-05-26T17:09:35.000Z</time>
      </trkpt>
      <trkpt lat="45.16854" lon="5.77591">
        <ele>390</ele>
        <time>2021-05-26T17:09:36.000Z</time>
      </trkpt>
      <trkpt lat="45.16854" lon="5.77592">
        <ele>390.1</ele>
        <time>2021-05-26T17:09:37.000Z</time>
      </trkpt>
      <trkpt lat="45.16855" lon="5.77593">
        <ele>390.3</ele>
        <time>2021-05-26T17:09:38.000Z</time>
      </trkpt>
      <trkpt lat="45.16855" lon="5.77594">
        <ele>390.4</ele>
        <time>2021-05-26T17:09:39.000Z</time>
      </trkpt>
      <trkpt lat="45.16856" lon="5.77595">
        <ele>390.5</ele>
        <time>2021-05-26T17:09:40.000Z</time>
      </trkpt>
      <trkpt lat="45.16856" lon="5.77596">
        <ele>390.7</ele>
        <time>2021-05-26T17:09:41.000Z</time>
      </trkpt>
      <trkpt lat="45.16857" lon="5.77597">
        <ele>390.8</ele>
        <time>2021-05-26T17:09:42.000Z</time>
      </trkpt>
      <trkpt lat="45.16861" lon="5.77604">
        <ele>391.8</ele>
        <time>2021-05-26T17:09:43.000Z</time>
      </trkpt>
      <trkpt lat="45.16862" lon="5.77605">
        <ele>391.9</ele>
        <time>2021-05-26T17:09:44.000Z</time>
      </trkpt>
      <trkpt lat="45.16862" lon="5.77605">
        <ele>392</ele>
        <time>2021-05-26T17:09:45.000Z</time>
      </trkpt>
      <trkpt lat="45.16863" lon="5.77606">
        <ele>392.1</ele>
        <time>2021-05-26T17:09:46.000Z</time>
      </trkpt>
      <trkpt lat="45.16863" lon="5.77607">
        <ele>392.2</ele>
        <time>2021-05-26T17:09:47.000Z</time>
      </trkpt>
      <trkpt lat="45.16864" lon="5.77608">
        <ele>392.4</ele>
        <time>2021-05-26T17:09:48.000Z</time>
      </trkpt>
      <trkpt lat="45.16864" lon="5.77609">
        <ele>392.5</ele>
        <time>2021-05-26T17:09:49.000Z</time>
      </trkpt>
      <trkpt lat="45.16868" lon="5.77616">
        <ele>393.5</ele>
        <time>2021-05-26T17:09:50.000Z</time>
      </trkpt>
      <trkpt lat="45.16869" lon="5.77617">
        <ele>393.6</ele>
        <time>2021-05-26T17:09:52.000Z</time>
      </trkpt>
      <trkpt lat="45.16869" lon="5.77618">
        <ele>393.7</ele>
        <time>2021-05-26T17:09:53.000Z</time>
      </trkpt>
      <trkpt lat="45.1687" lon="5.77619">
        <ele>393.8</ele>
        <time>2021-05-26T17:09:54.000Z</time>
      </trkpt>
      <trkpt lat="45.16871" lon="5.7762">
        <ele>394</ele>
        <time>2021-05-26T17:09:55.000Z</time>
      </trkpt>
      <trkpt lat="45.16871" lon="5.77621">
        <ele>394.1</ele>
        <time>2021-05-26T17:09:56.000Z</time>
      </trkpt>
      <trkpt lat="45.16872" lon="5.77621">
        <ele>394.2</ele>
        <time>2021-05-26T17:09:57.000Z</time>
      </trkpt>
      <trkpt lat="45.16875" lon="5.77628">
        <ele>395.2</ele>
        <time>2021-05-26T17:09:58.000Z</time>
      </trkpt>
      <trkpt lat="45.16875" lon="5.77629">
        <ele>395.3</ele>
        <time>2021-05-26T17:09:59.000Z</time>
      </trkpt>
      <trkpt lat="45.16876" lon="5.77629">
        <ele>395.3</ele>
        <time>2021-05-26T17:10:00.000Z</time>
      </trkpt>
      <trkpt lat="45.16876" lon="5.7763">
        <ele>395.4</ele>
        <time>2021-05-26T17:10:01.000Z</time>
      </trkpt>
      <trkpt lat="45.16876" lon="5.7763">
        <ele>395.5</ele>
        <time>2021-05-26T17:10:02.000Z</time>
      </trkpt>
      <trkpt lat="45.16876" lon="5.77631">
        <ele>395.5</ele>
        <time>2021-05-26T17:10:03.000Z</time>
      </trkpt>
      <trkpt lat="45.16876" lon="5.77631">
        <ele>395.6</ele>
        <time>2021-05-26T17:10:04.000Z</time>
      </trkpt>
      <trkpt lat="45.16876" lon="5.77632">
        <ele>395.7</ele>
        <time>2021-05-26T17:10:05.000Z</time>
      </trkpt>
      <trkpt lat="45.16876" lon="5.77632">
        <ele>395.7</ele>
        <time>2021-05-26T17:10:06.000Z</time>
      </trkpt>
      <trkpt lat="45.16879" lon="5.77643">
        <ele>397.1</ele>
        <time>2021-05-26T17:10:08.000Z</time>
      </trkpt>
      <trkpt lat="45.1688" lon="5.77644">
        <ele>397.2</ele>
        <time>2021-05-26T17:10:09.000Z</time>
      </trkpt>
      <trkpt lat="45.1688" lon="5.77646">
        <ele>397.4</ele>
        <time>2021-05-26T17:10:11.000Z</time>
      </trkpt>
      <trkpt lat="45.1688" lon="5.77647">
        <ele>397.5</ele>
        <time>2021-05-26T17:10:12.000Z</time>
      </trkpt>
      <trkpt lat="45.1688" lon="5.77648">
        <ele>397.7</ele>
        <time>2021-05-26T17:10:13.000Z</time>
      </trkpt>
      <trkpt lat="45.16881" lon="5.77649">
        <ele>397.8</ele>
        <time>2021-05-26T17:10:14.000Z</time>
      </trkpt>
      <trkpt lat="45.16882" lon="5.77658">
        <ele>398.8</ele>
        <time>2021-05-26T17:10:15.000Z</time>
      </trkpt>
      <trkpt lat="45.16883" lon="5.77659">
        <ele>398.9</ele>
        <time>2021-05-26T17:10:16.000Z</time>
      </trkpt>
      <trkpt lat="45.16883" lon="5.7766">
        <ele>399</ele>
        <time>2021-05-26T17:10:17.000Z</time>
      </trkpt>
      <trkpt lat="45.16883" lon="5.77661">
        <ele>399.1</ele>
        <time>2021-05-26T17:10:18.000Z</time>
      </trkpt>
      <trkpt lat="45.16883" lon="5.77661">
        <ele>399.2</ele>
        <time>2021-05-26T17:10:19.000Z</time>
      </trkpt>
      <trkpt lat="45.16883" lon="5.77662">
        <ele>399.3</ele>
        <time>2021-05-26T17:10:20.000Z</time>
      </trkpt>
      <trkpt lat="45.16883" lon="5.77663">
        <ele>399.4</ele>
        <time>2021-05-26T17:10:21.000Z</time>
      </trkpt>
      <trkpt lat="45.16883" lon="5.77664">
        <ele>399.5</ele>
        <time>2021-05-26T17:10:22.000Z</time>
      </trkpt>
      <trkpt lat="45.16883" lon="5.77665">
        <ele>399.6</ele>
        <time>2021-05-26T17:10:23.000Z</time>
      </trkpt>
      <trkpt lat="45.16885" lon="5.77673">
        <ele>400.5</ele>
        <time>2021-05-26T17:10:24.000Z</time>
      </trkpt>
      <trkpt lat="45.16885" lon="5.77675">
        <ele>400.6</ele>
        <time>2021-05-26T17:10:25.000Z</time>
      </trkpt>
      <trkpt lat="45.16885" lon="5.77676">
        <ele>400.8</ele>
        <time>2021-05-26T17:10:26.000Z</time>
      </trkpt>
      <trkpt lat="45.16885" lon="5.77677">
        <ele>400.9</ele>
        <time>2021-05-26T17:10:27.000Z</time>
      </trkpt>
      <trkpt lat="45.16885" lon="5.77678">
        <ele>401</ele>
        <time>2021-05-26T17:10:28.000Z</time>
      </trkpt>
      <trkpt lat="45.16885" lon="5.77679">
        <ele>401.1</ele>
        <time>2021-05-26T17:10:30.000Z</time>
      </trkpt>
      <trkpt lat="45.16886" lon="5.7768">
        <ele>401.2</ele>
        <time>2021-05-26T17:10:31.000Z</time>
      </trkpt>
      <trkpt lat="45.16887" lon="5.77688">
        <ele>402.2</ele>
        <time>2021-05-26T17:10:32.000Z</time>
      </trkpt>
      <trkpt lat="45.16887" lon="5.77689">
        <ele>402.3</ele>
        <time>2021-05-26T17:10:33.000Z</time>
      </trkpt>
      <trkpt lat="45.16887" lon="5.7769">
        <ele>402.4</ele>
        <time>2021-05-26T17:10:34.000Z</time>
      </trkpt>
      <trkpt lat="45.16888" lon="5.77691">
        <ele>402.5</ele>
        <time>2021-05-26T17:10:35.000Z</time>
      </trkpt>
      <trkpt lat="45.16888" lon="5.77692">
        <ele>402.6</ele>
        <time>2021-05-26T17:10:36.000Z</time>
      </trkpt>
      <trkpt lat="45.16888" lon="5.77693">
        <ele>402.7</ele>
        <time>2021-05-26T17:10:37.000Z</time>
      </trkpt>
      <trkpt lat="45.16889" lon="5.77694">
        <ele>402.8</ele>
        <time>2021-05-26T17:10:38.000Z</time>
      </trkpt>
      <trkpt lat="45.16889" lon="5.77694">
        <ele>402.9</ele>
        <time>2021-05-26T17:10:39.000Z</time>
      </trkpt>
      <trkpt lat="45.16889" lon="5.77695">
        <ele>403</ele>
        <time>2021-05-26T17:10:40.000Z</time>
      </trkpt>
      <trkpt lat="45.16891" lon="5.77704">
        <ele>404</ele>
        <time>2021-05-26T17:10:41.000Z</time>
      </trkpt>
      <trkpt lat="45.16891" lon="5.77705">
        <ele>404.1</ele>
        <time>2021-05-26T17:10:42.000Z</time>
      </trkpt>
      <trkpt lat="45.16891" lon="5.77706">
        <ele>404.2</ele>
        <time>2021-05-26T17:10:43.000Z</time>
      </trkpt>
      <trkpt lat="45.16891" lon="5.77707">
        <ele>404.3</ele>
        <time>2021-05-26T17:10:44.000Z</time>
      </trkpt>
      <trkpt lat="45.16891" lon="5.77707">
        <ele>404.4</ele>
        <time>2021-05-26T17:10:45.000Z</time>
      </trkpt>
      <trkpt lat="45.16891" lon="5.77708">
        <ele>404.5</ele>
        <time>2021-05-26T17:10:46.000Z</time>
      </trkpt>
      <trkpt lat="45.16891" lon="5.77709">
        <ele>404.6</ele>
        <time>2021-05-26T17:10:47.000Z</time>
      </trkpt>
      <trkpt lat="45.16891" lon="5.7771">
        <ele>404.7</ele>
        <time>2021-05-26T17:10:49.000Z</time>
      </trkpt>
      <trkpt lat="45.16891" lon="5.77711">
        <ele>404.8</ele>
        <time>2021-05-26T17:10:50.000Z</time>
      </trkpt>
      <trkpt lat="45.16892" lon="5.7772">
        <ele>405.7</ele>
        <time>2021-05-26T17:10:51.000Z</time>
      </trkpt>
      <trkpt lat="45.16892" lon="5.7772">
        <ele>405.8</ele>
        <time>2021-05-26T17:10:52.000Z</time>
      </trkpt>
      <trkpt lat="45.16892" lon="5.77721">
        <ele>405.9</ele>
        <time>2021-05-26T17:10:53.000Z</time>
      </trkpt>
      <trkpt lat="45.16893" lon="5.77722">
        <ele>406</ele>
        <time>2021-05-26T17:10:54.000Z</time>
      </trkpt>
      <trkpt lat="45.16893" lon="5.77723">
        <ele>406.1</ele>
        <time>2021-05-26T17:10:55.000Z</time>
      </trkpt>
      <trkpt lat="45.16894" lon="5.77723">
        <ele>406.2</ele>
        <time>2021-05-26T17:10:56.000Z</time>
      </trkpt>
      <trkpt lat="45.16894" lon="5.77724">
        <ele>406.3</ele>
        <time>2021-05-26T17:10:57.000Z</time>
      </trkpt>
      <trkpt lat="45.16894" lon="5.77725">
        <ele>406.4</ele>
        <time>2021-05-26T17:10:58.000Z</time>
      </trkpt>
      <trkpt lat="45.16895" lon="5.77725">
        <ele>406.5</ele>
        <time>2021-05-26T17:10:59.000Z</time>
      </trkpt>
      <trkpt lat="45.16898" lon="5.77734">
        <ele>407.7</ele>
        <time>2021-05-26T17:11:00.000Z</time>
      </trkpt>
      <trkpt lat="45.16899" lon="5.77735">
        <ele>407.9</ele>
        <time>2021-05-26T17:11:01.000Z</time>
      </trkpt>
      <trkpt lat="45.16899" lon="5.77737">
        <ele>408.1</ele>
        <time>2021-05-26T17:11:02.000Z</time>
      </trkpt>
      <trkpt lat="45.169" lon="5.77739">
        <ele>408.3</ele>
        <time>2021-05-26T17:11:03.000Z</time>
      </trkpt>
      <trkpt lat="45.16901" lon="5.7774">
        <ele>408.5</ele>
        <time>2021-05-26T17:11:04.000Z</time>
      </trkpt>
      <trkpt lat="45.16901" lon="5.77742">
        <ele>408.7</ele>
        <time>2021-05-26T17:11:05.000Z</time>
      </trkpt>
      <trkpt lat="45.16902" lon="5.77744">
        <ele>408.9</ele>
        <time>2021-05-26T17:11:06.000Z</time>
      </trkpt>
      <trkpt lat="45.16902" lon="5.77745">
        <ele>409.1</ele>
        <time>2021-05-26T17:11:07.000Z</time>
      </trkpt>
      <trkpt lat="45.16903" lon="5.77747">
        <ele>409.3</ele>
        <time>2021-05-26T17:11:08.000Z</time>
      </trkpt>
      <trkpt lat="45.16903" lon="5.77748">
        <ele>409.4</ele>
        <time>2021-05-26T17:11:09.000Z</time>
      </trkpt>
      <trkpt lat="45.16903" lon="5.77749">
        <ele>409.5</ele>
        <time>2021-05-26T17:11:10.000Z</time>
      </trkpt>
      <trkpt lat="45.16903" lon="5.7775">
        <ele>409.6</ele>
        <time>2021-05-26T17:11:11.000Z</time>
      </trkpt>
      <trkpt lat="45.16903" lon="5.77751">
        <ele>409.7</ele>
        <time>2021-05-26T17:11:12.000Z</time>
      </trkpt>
      <trkpt lat="45.16903" lon="5.77751">
        <ele>409.8</ele>
        <time>2021-05-26T17:11:13.000Z</time>
      </trkpt>
      <trkpt lat="45.16904" lon="5.77752">
        <ele>409.9</ele>
        <time>2021-05-26T17:11:14.000Z</time>
      </trkpt>
      <trkpt lat="45.16904" lon="5.77753">
        <ele>410</ele>
        <time>2021-05-26T17:11:15.000Z</time>
      </trkpt>
      <trkpt lat="45.16904" lon="5.77754">
        <ele>410.1</ele>
        <time>2021-05-26T17:11:16.000Z</time>
      </trkpt>
      <trkpt lat="45.16905" lon="5.77763">
        <ele>411</ele>
        <time>2021-05-26T17:11:17.000Z</time>
      </trkpt>
      <trkpt lat="45.16906" lon="5.77763">
        <ele>411.1</ele>
        <time>2021-05-26T17:11:18.000Z</time>
      </trkpt>
      <trkpt lat="45.16906" lon="5.77764">
        <ele>411.2</ele>
        <time>2021-05-26T17:11:19.000Z</time>
      </trkpt>
      <trkpt lat="45.16906" lon="5.77765">
        <ele>411.3</ele>
        <time>2021-05-26T17:11:20.000Z</time>
      </trkpt>
      <trkpt lat="45.16907" lon="5.77765">
        <ele>411.3</ele>
        <time>2021-05-26T17:11:21.000Z</time>
      </trkpt>
      <trkpt lat="45.16907" lon="5.77766">
        <ele>411.4</ele>
        <time>2021-05-26T17:11:22.000Z</time>
      </trkpt>
      <trkpt lat="45.16907" lon="5.77767">
        <ele>411.5</ele>
        <time>2021-05-26T17:11:23.000Z</time>
      </trkpt>
      <trkpt lat="45.16908" lon="5.77767">
        <ele>411.6</ele>
        <time>2021-05-26T17:11:24.000Z</time>
      </trkpt>
      <trkpt lat="45.16908" lon="5.77768">
        <ele>411.6</ele>
        <time>2021-05-26T17:11:25.000Z</time>
      </trkpt>
      <trkpt lat="45.16908" lon="5.77768">
        <ele>411.7</ele>
        <time>2021-05-26T17:11:27.000Z</time>
      </trkpt>
      <trkpt lat="45.16909" lon="5.77769">
        <ele>411.8</ele>
        <time>2021-05-26T17:11:28.000Z</time>
      </trkpt>
      <trkpt lat="45.16913" lon="5.77777">
        <ele>412.7</ele>
        <time>2021-05-26T17:11:29.000Z</time>
      </trkpt>
      <trkpt lat="45.16913" lon="5.77778">
        <ele>412.8</ele>
        <time>2021-05-26T17:11:30.000Z</time>
      </trkpt>
      <trkpt lat="45.16914" lon="5.77778">
        <ele>412.9</ele>
        <time>2021-05-26T17:11:31.000Z</time>
      </trkpt>
      <trkpt lat="45.16914" lon="5.77779">
        <ele>413</ele>
        <time>2021-05-26T17:11:32.000Z</time>
      </trkpt>
      <trkpt lat="45.16915" lon="5.7778">
        <ele>413</ele>
        <time>2021-05-26T17:11:33.000Z</time>
      </trkpt>
      <trkpt lat="45.16915" lon="5.77781">
        <ele>413.1</ele>
        <time>2021-05-26T17:11:35.000Z</time>
      </trkpt>
      <trkpt lat="45.16915" lon="5.77781">
        <ele>413.2</ele>
        <time>2021-05-26T17:11:36.000Z</time>
      </trkpt>
      <trkpt lat="45.16916" lon="5.77782">
        <ele>413.3</ele>
        <time>2021-05-26T17:11:37.000Z</time>
      </trkpt>
      <trkpt lat="45.1692" lon="5.7779">
        <ele>414</ele>
        <time>2021-05-26T17:11:38.000Z</time>
      </trkpt>
      <trkpt lat="45.16921" lon="5.77791">
        <ele>414.1</ele>
        <time>2021-05-26T17:11:39.000Z</time>
      </trkpt>
      <trkpt lat="45.16922" lon="5.77793">
        <ele>414.3</ele>
        <time>2021-05-26T17:11:40.000Z</time>
      </trkpt>
      <trkpt lat="45.16922" lon="5.77794">
        <ele>414.4</ele>
        <time>2021-05-26T17:11:41.000Z</time>
      </trkpt>
      <trkpt lat="45.16923" lon="5.77796">
        <ele>414.5</ele>
        <time>2021-05-26T17:11:42.000Z</time>
      </trkpt>
      <trkpt lat="45.16924" lon="5.77797">
        <ele>414.6</ele>
        <time>2021-05-26T17:11:43.000Z</time>
      </trkpt>
      <trkpt lat="45.16925" lon="5.77798">
        <ele>414.7</ele>
        <time>2021-05-26T17:11:44.000Z</time>
      </trkpt>
      <trkpt lat="45.16925" lon="5.778">
        <ele>414.8</ele>
        <time>2021-05-26T17:11:45.000Z</time>
      </trkpt>
      <trkpt lat="45.16926" lon="5.77801">
        <ele>414.9</ele>
        <time>2021-05-26T17:11:46.000Z</time>
      </trkpt>
      <trkpt lat="45.16927" lon="5.77803">
        <ele>415</ele>
        <time>2021-05-26T17:11:47.000Z</time>
      </trkpt>
      <trkpt lat="45.16928" lon="5.77804">
        <ele>415.1</ele>
        <time>2021-05-26T17:11:48.000Z</time>
      </trkpt>
      <trkpt lat="45.16928" lon="5.77805">
        <ele>415.2</ele>
        <time>2021-05-26T17:11:49.000Z</time>
      </trkpt>
      <trkpt lat="45.16929" lon="5.77806">
        <ele>415.2</ele>
        <time>2021-05-26T17:11:50.000Z</time>
      </trkpt>
      <trkpt lat="45.1693" lon="5.77807">
        <ele>415.3</ele>
        <time>2021-05-26T17:11:51.000Z</time>
      </trkpt>
      <trkpt lat="45.16934" lon="5.77814">
        <ele>415.7</ele>
        <time>2021-05-26T17:11:52.000Z</time>
      </trkpt>
      <trkpt lat="45.16935" lon="5.77815">
        <ele>415.8</ele>
        <time>2021-05-26T17:11:54.000Z</time>
      </trkpt>
      <trkpt lat="45.16936" lon="5.77816">
        <ele>415.9</ele>
        <time>2021-05-26T17:11:55.000Z</time>
      </trkpt>
      <trkpt lat="45.16937" lon="5.77818">
        <ele>415.9</ele>
        <time>2021-05-26T17:11:56.000Z</time>
      </trkpt>
      <trkpt lat="45.16937" lon="5.77819">
        <ele>416</ele>
        <time>2021-05-26T17:11:57.000Z</time>
      </trkpt>
      <trkpt lat="45.16942" lon="5.77825">
        <ele>416.3</ele>
        <time>2021-05-26T17:11:58.000Z</time>
      </trkpt>
      <trkpt lat="45.16942" lon="5.77826">
        <ele>416.4</ele>
        <time>2021-05-26T17:11:59.000Z</time>
      </trkpt>
      <trkpt lat="45.16943" lon="5.77826">
        <ele>416.4</ele>
        <time>2021-05-26T17:12:00.000Z</time>
      </trkpt>
      <trkpt lat="45.16943" lon="5.77827">
        <ele>416.4</ele>
        <time>2021-05-26T17:12:01.000Z</time>
      </trkpt>
      <trkpt lat="45.16944" lon="5.77827">
        <ele>416.5</ele>
        <time>2021-05-26T17:12:02.000Z</time>
      </trkpt>
      <trkpt lat="45.16944" lon="5.77828">
        <ele>416.5</ele>
        <time>2021-05-26T17:12:03.000Z</time>
      </trkpt>
      <trkpt lat="45.16952" lon="5.77836">
        <ele>417</ele>
        <time>2021-05-26T17:12:05.000Z</time>
      </trkpt>
      <trkpt lat="45.16953" lon="5.77837">
        <ele>417.1</ele>
        <time>2021-05-26T17:12:06.000Z</time>
      </trkpt>
      <trkpt lat="45.16954" lon="5.77838">
        <ele>417.2</ele>
        <time>2021-05-26T17:12:07.000Z</time>
      </trkpt>
      <trkpt lat="45.16955" lon="5.7784">
        <ele>417.3</ele>
        <time>2021-05-26T17:12:08.000Z</time>
      </trkpt>
      <trkpt lat="45.16961" lon="5.77845">
        <ele>417.6</ele>
        <time>2021-05-26T17:12:09.000Z</time>
      </trkpt>
      <trkpt lat="45.16962" lon="5.77846">
        <ele>417.7</ele>
        <time>2021-05-26T17:12:10.000Z</time>
      </trkpt>
      <trkpt lat="45.16963" lon="5.77847">
        <ele>417.7</ele>
        <time>2021-05-26T17:12:11.000Z</time>
      </trkpt>
      <trkpt lat="45.16964" lon="5.77848">
        <ele>417.8</ele>
        <time>2021-05-26T17:12:12.000Z</time>
      </trkpt>
      <trkpt lat="45.16964" lon="5.77849">
        <ele>417.9</ele>
        <time>2021-05-26T17:12:13.000Z</time>
      </trkpt>
      <trkpt lat="45.1697" lon="5.77855">
        <ele>418.2</ele>
        <time>2021-05-26T17:12:14.000Z</time>
      </trkpt>
      <trkpt lat="45.16971" lon="5.77856">
        <ele>418.3</ele>
        <time>2021-05-26T17:12:15.000Z</time>
      </trkpt>
      <trkpt lat="45.16972" lon="5.77857">
        <ele>418.4</ele>
        <time>2021-05-26T17:12:16.000Z</time>
      </trkpt>
      <trkpt lat="45.16973" lon="5.77858">
        <ele>418.4</ele>
        <time>2021-05-26T17:12:17.000Z</time>
      </trkpt>
      <trkpt lat="45.16974" lon="5.7786">
        <ele>418.5</ele>
        <time>2021-05-26T17:12:18.000Z</time>
      </trkpt>
      <trkpt lat="45.16979" lon="5.77865">
        <ele>418.9</ele>
        <time>2021-05-26T17:12:19.000Z</time>
      </trkpt>
      <trkpt lat="45.16978" lon="5.77865">
        <ele>418.9</ele>
        <time>2021-05-26T17:12:20.000Z</time>
      </trkpt>
      <trkpt lat="45.16978" lon="5.77865">
        <ele>418.9</ele>
        <time>2021-05-26T17:12:21.000Z</time>
      </trkpt>
      <trkpt lat="45.16977" lon="5.77865">
        <ele>418.9</ele>
        <time>2021-05-26T17:12:22.000Z</time>
      </trkpt>
      <trkpt lat="45.16977" lon="5.77865">
        <ele>419</ele>
        <time>2021-05-26T17:12:24.000Z</time>
      </trkpt>
      <trkpt lat="45.16977" lon="5.77865">
        <ele>419</ele>
        <time>2021-05-26T17:12:25.000Z</time>
      </trkpt>
      <trkpt lat="45.16976" lon="5.77865">
        <ele>419</ele>
        <time>2021-05-26T17:12:26.000Z</time>
      </trkpt>
      <trkpt lat="45.16976" lon="5.77865">
        <ele>419</ele>
        <time>2021-05-26T17:12:27.000Z</time>
      </trkpt>
      <trkpt lat="45.16976" lon="5.77865">
        <ele>419</ele>
        <time>2021-05-26T17:12:28.000Z</time>
      </trkpt>
      <trkpt lat="45.16975" lon="5.77865">
        <ele>419.1</ele>
        <time>2021-05-26T17:12:29.000Z</time>
      </trkpt>
      <trkpt lat="45.16975" lon="5.77865">
        <ele>419.1</ele>
        <time>2021-05-26T17:12:30.000Z</time>
      </trkpt>
      <trkpt lat="45.16975" lon="5.77865">
        <ele>419.1</ele>
        <time>2021-05-26T17:12:31.000Z</time>
      </trkpt>
      <trkpt lat="45.16974" lon="5.77865">
        <ele>419.1</ele>
        <time>2021-05-26T17:12:32.000Z</time>
      </trkpt>
      <trkpt lat="45.16974" lon="5.77865">
        <ele>421.7</ele>
        <time>2021-05-26T17:12:33.000Z</time>
      </trkpt>
      <trkpt lat="45.16974" lon="5.77865">
        <ele>421.7</ele>
        <time>2021-05-26T17:12:34.000Z</time>
      </trkpt>
      <trkpt lat="45.16973" lon="5.77865">
        <ele>421.7</ele>
        <time>2021-05-26T17:12:35.000Z</time>
      </trkpt>
      <trkpt lat="45.16966" lon="5.77863">
        <ele>422.3</ele>
        <time>2021-05-26T17:12:36.000Z</time>
      </trkpt>
      <trkpt lat="45.16965" lon="5.77862">
        <ele>422.4</ele>
        <time>2021-05-26T17:12:37.000Z</time>
      </trkpt>
      <trkpt lat="45.16963" lon="5.77861">
        <ele>422.5</ele>
        <time>2021-05-26T17:12:38.000Z</time>
      </trkpt>
      <trkpt lat="45.16962" lon="5.7786">
        <ele>422.6</ele>
        <time>2021-05-26T17:12:39.000Z</time>
      </trkpt>
      <trkpt lat="45.1696" lon="5.7786">
        <ele>422.7</ele>
        <time>2021-05-26T17:12:40.000Z</time>
      </trkpt>
      <trkpt lat="45.16959" lon="5.77859">
        <ele>422.9</ele>
        <time>2021-05-26T17:12:41.000Z</time>
      </trkpt>
      <trkpt lat="45.16957" lon="5.77858">
        <ele>423</ele>
        <time>2021-05-26T17:12:42.000Z</time>
      </trkpt>
      <trkpt lat="45.16956" lon="5.77857">
        <ele>423.1</ele>
        <time>2021-05-26T17:12:43.000Z</time>
      </trkpt>
      <trkpt lat="45.16955" lon="5.77856">
        <ele>423.2</ele>
        <time>2021-05-26T17:12:44.000Z</time>
      </trkpt>
      <trkpt lat="45.16953" lon="5.77855">
        <ele>423.3</ele>
        <time>2021-05-26T17:12:45.000Z</time>
      </trkpt>
      <trkpt lat="45.16952" lon="5.77854">
        <ele>423.4</ele>
        <time>2021-05-26T17:12:46.000Z</time>
      </trkpt>
      <trkpt lat="45.1695" lon="5.77853">
        <ele>423.5</ele>
        <time>2021-05-26T17:12:47.000Z</time>
      </trkpt>
      <trkpt lat="45.16944" lon="5.77848">
        <ele>424.1</ele>
        <time>2021-05-26T17:12:48.000Z</time>
      </trkpt>
      <trkpt lat="45.16943" lon="5.77847">
        <ele>424.1</ele>
        <time>2021-05-26T17:12:49.000Z</time>
      </trkpt>
      <trkpt lat="45.16942" lon="5.77846">
        <ele>424.2</ele>
        <time>2021-05-26T17:12:50.000Z</time>
      </trkpt>
      <trkpt lat="45.16941" lon="5.77846">
        <ele>424.3</ele>
        <time>2021-05-26T17:12:51.000Z</time>
      </trkpt>
      <trkpt lat="45.16941" lon="5.77845">
        <ele>424.4</ele>
        <time>2021-05-26T17:12:52.000Z</time>
      </trkpt>
      <trkpt lat="45.1694" lon="5.77845">
        <ele>424.4</ele>
        <time>2021-05-26T17:12:53.000Z</time>
      </trkpt>
      <trkpt lat="45.16933" lon="5.77841">
        <ele>424.9</ele>
        <time>2021-05-26T17:12:54.000Z</time>
      </trkpt>
      <trkpt lat="45.16932" lon="5.7784">
        <ele>425</ele>
        <time>2021-05-26T17:12:55.000Z</time>
      </trkpt>
      <trkpt lat="45.16931" lon="5.7784">
        <ele>425.1</ele>
        <time>2021-05-26T17:12:56.000Z</time>
      </trkpt>
      <trkpt lat="45.1693" lon="5.77839">
        <ele>425.2</ele>
        <time>2021-05-26T17:12:58.000Z</time>
      </trkpt>
      <trkpt lat="45.16929" lon="5.77838">
        <ele>425.3</ele>
        <time>2021-05-26T17:12:59.000Z</time>
      </trkpt>
      <trkpt lat="45.16923" lon="5.77834">
        <ele>425.8</ele>
        <time>2021-05-26T17:13:00.000Z</time>
      </trkpt>
      <trkpt lat="45.16921" lon="5.77832">
        <ele>426</ele>
        <time>2021-05-26T17:13:02.000Z</time>
      </trkpt>
      <trkpt lat="45.1692" lon="5.77831">
        <ele>426.1</ele>
        <time>2021-05-26T17:13:03.000Z</time>
      </trkpt>
      <trkpt lat="45.16915" lon="5.77827">
        <ele>426.6</ele>
        <time>2021-05-26T17:13:04.000Z</time>
      </trkpt>
      <trkpt lat="45.16912" lon="5.77824">
        <ele>426.9</ele>
        <time>2021-05-26T17:13:05.000Z</time>
      </trkpt>
      <trkpt lat="45.16911" lon="5.77823">
        <ele>427</ele>
        <time>2021-05-26T17:13:06.000Z</time>
      </trkpt>
      <trkpt lat="45.16911" lon="5.77822">
        <ele>427.1</ele>
        <time>2021-05-26T17:13:07.000Z</time>
      </trkpt>
      <trkpt lat="45.1691" lon="5.77821">
        <ele>427.2</ele>
        <time>2021-05-26T17:13:08.000Z</time>
      </trkpt>
      <trkpt lat="45.16909" lon="5.77821">
        <ele>427.3</ele>
        <time>2021-05-26T17:13:09.000Z</time>
      </trkpt>
      <trkpt lat="45.16908" lon="5.7782">
        <ele>427.4</ele>
        <time>2021-05-26T17:13:10.000Z</time>
      </trkpt>
      <trkpt lat="45.16908" lon="5.77819">
        <ele>427.4</ele>
        <time>2021-05-26T17:13:11.000Z</time>
      </trkpt>
      <trkpt lat="45.16907" lon="5.77818">
        <ele>427.5</ele>
        <time>2021-05-26T17:13:12.000Z</time>
      </trkpt>
      <trkpt lat="45.16901" lon="5.77811">
        <ele>428.2</ele>
        <time>2021-05-26T17:13:13.000Z</time>
      </trkpt>
      <trkpt lat="45.16901" lon="5.7781">
        <ele>428.3</ele>
        <time>2021-05-26T17:13:14.000Z</time>
      </trkpt>
      <trkpt lat="45.169" lon="5.77809">
        <ele>428.4</ele>
        <time>2021-05-26T17:13:15.000Z</time>
      </trkpt>
      <trkpt lat="45.16899" lon="5.77808">
        <ele>428.5</ele>
        <time>2021-05-26T17:13:16.000Z</time>
      </trkpt>
      <trkpt lat="45.16898" lon="5.77807">
        <ele>428.6</ele>
        <time>2021-05-26T17:13:17.000Z</time>
      </trkpt>
      <trkpt lat="45.16898" lon="5.77806">
        <ele>428.7</ele>
        <time>2021-05-26T17:13:18.000Z</time>
      </trkpt>
      <trkpt lat="45.16893" lon="5.77798">
        <ele>429.5</ele>
        <time>2021-05-26T17:13:19.000Z</time>
      </trkpt>
      <trkpt lat="45.16892" lon="5.77797">
        <ele>429.6</ele>
        <time>2021-05-26T17:13:21.000Z</time>
      </trkpt>
      <trkpt lat="45.16891" lon="5.77796">
        <ele>429.7</ele>
        <time>2021-05-26T17:13:22.000Z</time>
      </trkpt>
      <trkpt lat="45.1689" lon="5.77795">
        <ele>429.8</ele>
        <time>2021-05-26T17:13:23.000Z</time>
      </trkpt>
      <trkpt lat="45.1689" lon="5.77794">
        <ele>429.9</ele>
        <time>2021-05-26T17:13:24.000Z</time>
      </trkpt>
      <trkpt lat="45.16889" lon="5.77793">
        <ele>430</ele>
        <time>2021-05-26T17:13:25.000Z</time>
      </trkpt>
      <trkpt lat="45.16884" lon="5.77786">
        <ele>430.7</ele>
        <time>2021-05-26T17:13:26.000Z</time>
      </trkpt>
      <trkpt lat="45.16883" lon="5.77785">
        <ele>430.8</ele>
        <time>2021-05-26T17:13:27.000Z</time>
      </trkpt>
      <trkpt lat="45.16883" lon="5.77784">
        <ele>430.9</ele>
        <time>2021-05-26T17:13:28.000Z</time>
      </trkpt>
      <trkpt lat="45.16882" lon="5.77783">
        <ele>431</ele>
        <time>2021-05-26T17:13:29.000Z</time>
      </trkpt>
      <trkpt lat="45.16881" lon="5.77781">
        <ele>431.1</ele>
        <time>2021-05-26T17:13:30.000Z</time>
      </trkpt>
      <trkpt lat="45.16881" lon="5.7778">
        <ele>431.2</ele>
        <time>2021-05-26T17:13:31.000Z</time>
      </trkpt>
      <trkpt lat="45.16876" lon="5.77772">
        <ele>432</ele>
        <time>2021-05-26T17:13:32.000Z</time>
      </trkpt>
      <trkpt lat="45.16875" lon="5.77771">
        <ele>432.1</ele>
        <time>2021-05-26T17:13:33.000Z</time>
      </trkpt>
      <trkpt lat="45.16875" lon="5.7777">
        <ele>432.2</ele>
        <time>2021-05-26T17:13:34.000Z</time>
      </trkpt>
      <trkpt lat="45.16874" lon="5.77769">
        <ele>432.4</ele>
        <time>2021-05-26T17:13:35.000Z</time>
      </trkpt>
      <trkpt lat="45.16873" lon="5.77768">
        <ele>432.5</ele>
        <time>2021-05-26T17:13:36.000Z</time>
      </trkpt>
      <trkpt lat="45.16873" lon="5.77767">
        <ele>432.6</ele>
        <time>2021-05-26T17:13:37.000Z</time>
      </trkpt>
      <trkpt lat="45.16868" lon="5.77761">
        <ele>433.4</ele>
        <time>2021-05-26T17:13:38.000Z</time>
      </trkpt>
      <trkpt lat="45.16867" lon="5.77761">
        <ele>433.5</ele>
        <time>2021-05-26T17:13:40.000Z</time>
      </trkpt>
      <trkpt lat="45.16867" lon="5.7776">
        <ele>433.6</ele>
        <time>2021-05-26T17:13:41.000Z</time>
      </trkpt>
      <trkpt lat="45.16866" lon="5.77759">
        <ele>433.7</ele>
        <time>2021-05-26T17:13:42.000Z</time>
      </trkpt>
      <trkpt lat="45.16866" lon="5.77759">
        <ele>433.7</ele>
        <time>2021-05-26T17:13:43.000Z</time>
      </trkpt>
      <trkpt lat="45.16865" lon="5.77758">
        <ele>433.8</ele>
        <time>2021-05-26T17:13:44.000Z</time>
      </trkpt>
      <trkpt lat="45.16865" lon="5.77758">
        <ele>433.9</ele>
        <time>2021-05-26T17:13:45.000Z</time>
      </trkpt>
      <trkpt lat="45.16864" lon="5.77757">
        <ele>434</ele>
        <time>2021-05-26T17:13:46.000Z</time>
      </trkpt>
      <trkpt lat="45.16858" lon="5.77753">
        <ele>434.9</ele>
        <time>2021-05-26T17:13:47.000Z</time>
      </trkpt>
      <trkpt lat="45.16856" lon="5.77753">
        <ele>435.1</ele>
        <time>2021-05-26T17:13:48.000Z</time>
      </trkpt>
      <trkpt lat="45.16855" lon="5.77753">
        <ele>435.3</ele>
        <time>2021-05-26T17:13:49.000Z</time>
      </trkpt>
      <trkpt lat="45.16853" lon="5.77753">
        <ele>435.5</ele>
        <time>2021-05-26T17:13:50.000Z</time>
      </trkpt>
      <trkpt lat="45.16852" lon="5.77754">
        <ele>435.6</ele>
        <time>2021-05-26T17:13:51.000Z</time>
      </trkpt>
      <trkpt lat="45.16851" lon="5.77755">
        <ele>435.8</ele>
        <time>2021-05-26T17:13:52.000Z</time>
      </trkpt>
      <trkpt lat="45.16849" lon="5.77755">
        <ele>436</ele>
        <time>2021-05-26T17:13:53.000Z</time>
      </trkpt>
      <trkpt lat="45.16848" lon="5.77756">
        <ele>436.1</ele>
        <time>2021-05-26T17:13:54.000Z</time>
      </trkpt>
      <trkpt lat="45.16847" lon="5.77757">
        <ele>436.3</ele>
        <time>2021-05-26T17:13:55.000Z</time>
      </trkpt>
      <trkpt lat="45.16846" lon="5.77759">
        <ele>436.4</ele>
        <time>2021-05-26T17:13:56.000Z</time>
      </trkpt>
      <trkpt lat="45.16846" lon="5.77759">
        <ele>436.4</ele>
        <time>2021-05-26T17:13:57.000Z</time>
      </trkpt>
      <trkpt lat="45.16843" lon="5.77761">
        <ele>436.8</ele>
        <time>2021-05-26T17:13:59.000Z</time>
      </trkpt>
      <trkpt lat="45.16843" lon="5.77761">
        <ele>436.8</ele>
        <time>2021-05-26T17:14:00.000Z</time>
      </trkpt>
      <trkpt lat="45.16843" lon="5.77761">
        <ele>436.8</ele>
        <time>2021-05-26T17:14:01.000Z</time>
      </trkpt>
      <trkpt lat="45.16839" lon="5.77761">
        <ele>437.2</ele>
        <time>2021-05-26T17:14:02.000Z</time>
      </trkpt>
      <trkpt lat="45.16839" lon="5.77761">
        <ele>437.2</ele>
        <time>2021-05-26T17:14:03.000Z</time>
      </trkpt>
      <trkpt lat="45.16839" lon="5.77761">
        <ele>437.2</ele>
        <time>2021-05-26T17:14:04.000Z</time>
      </trkpt>
      <trkpt lat="45.16835" lon="5.77763">
        <ele>437.6</ele>
        <time>2021-05-26T17:14:06.000Z</time>
      </trkpt>
      <trkpt lat="45.16833" lon="5.77764">
        <ele>437.7</ele>
        <time>2021-05-26T17:14:07.000Z</time>
      </trkpt>
      <trkpt lat="45.16832" lon="5.77764">
        <ele>437.9</ele>
        <time>2021-05-26T17:14:08.000Z</time>
      </trkpt>
      <trkpt lat="45.1683" lon="5.77765">
        <ele>438</ele>
        <time>2021-05-26T17:14:09.000Z</time>
      </trkpt>
      <trkpt lat="45.16829" lon="5.77765">
        <ele>438.1</ele>
        <time>2021-05-26T17:14:10.000Z</time>
      </trkpt>
      <trkpt lat="45.16827" lon="5.77766">
        <ele>438.3</ele>
        <time>2021-05-26T17:14:11.000Z</time>
      </trkpt>
      <trkpt lat="45.16825" lon="5.77767">
        <ele>438.4</ele>
        <time>2021-05-26T17:14:12.000Z</time>
      </trkpt>
      <trkpt lat="45.16824" lon="5.77767">
        <ele>438.6</ele>
        <time>2021-05-26T17:14:13.000Z</time>
      </trkpt>
      <trkpt lat="45.16822" lon="5.77768">
        <ele>438.7</ele>
        <time>2021-05-26T17:14:14.000Z</time>
      </trkpt>
      <trkpt lat="45.1682" lon="5.77768">
        <ele>438.8</ele>
        <time>2021-05-26T17:14:15.000Z</time>
      </trkpt>
      <trkpt lat="45.16819" lon="5.77769">
        <ele>438.9</ele>
        <time>2021-05-26T17:14:16.000Z</time>
      </trkpt>
      <trkpt lat="45.16817" lon="5.77769">
        <ele>439</ele>
        <time>2021-05-26T17:14:18.000Z</time>
      </trkpt>
      <trkpt lat="45.16816" lon="5.77769">
        <ele>439.2</ele>
        <time>2021-05-26T17:14:19.000Z</time>
      </trkpt>
      <trkpt lat="45.16814" lon="5.7777">
        <ele>439.3</ele>
        <time>2021-05-26T17:14:20.000Z</time>
      </trkpt>
      <trkpt lat="45.16813" lon="5.7777">
        <ele>439.4</ele>
        <time>2021-05-26T17:14:21.000Z</time>
      </trkpt>
      <trkpt lat="45.16812" lon="5.7777">
        <ele>439.5</ele>
        <time>2021-05-26T17:14:22.000Z</time>
      </trkpt>
      <trkpt lat="45.1681" lon="5.7777">
        <ele>439.6</ele>
        <time>2021-05-26T17:14:23.000Z</time>
      </trkpt>
      <trkpt lat="45.16809" lon="5.7777">
        <ele>439.7</ele>
        <time>2021-05-26T17:14:24.000Z</time>
      </trkpt>
      <trkpt lat="45.16808" lon="5.7777">
        <ele>439.8</ele>
        <time>2021-05-26T17:14:25.000Z</time>
      </trkpt>
      <trkpt lat="45.16806" lon="5.7777">
        <ele>439.9</ele>
        <time>2021-05-26T17:14:26.000Z</time>
      </trkpt>
      <trkpt lat="45.16805" lon="5.7777">
        <ele>440</ele>
        <time>2021-05-26T17:14:27.000Z</time>
      </trkpt>
      <trkpt lat="45.16804" lon="5.7777">
        <ele>440.1</ele>
        <time>2021-05-26T17:14:28.000Z</time>
      </trkpt>
      <trkpt lat="45.16802" lon="5.7777">
        <ele>440.2</ele>
        <time>2021-05-26T17:14:29.000Z</time>
      </trkpt>
      <trkpt lat="45.16801" lon="5.7777">
        <ele>440.3</ele>
        <time>2021-05-26T17:14:30.000Z</time>
      </trkpt>
      <trkpt lat="45.168" lon="5.7777">
        <ele>440.4</ele>
        <time>2021-05-26T17:14:31.000Z</time>
      </trkpt>
      <trkpt lat="45.16799" lon="5.7777">
        <ele>440.5</ele>
        <time>2021-05-26T17:14:32.000Z</time>
      </trkpt>
      <trkpt lat="45.1679" lon="5.77769">
        <ele>441.1</ele>
        <time>2021-05-26T17:14:33.000Z</time>
      </trkpt>
      <trkpt lat="45.16788" lon="5.77769">
        <ele>441.3</ele>
        <time>2021-05-26T17:14:34.000Z</time>
      </trkpt>
      <trkpt lat="45.16785" lon="5.7777">
        <ele>441.4</ele>
        <time>2021-05-26T17:14:35.000Z</time>
      </trkpt>
      <trkpt lat="45.16783" lon="5.7777">
        <ele>441.6</ele>
        <time>2021-05-26T17:14:37.000Z</time>
      </trkpt>
      <trkpt lat="45.16781" lon="5.7777">
        <ele>441.8</ele>
        <time>2021-05-26T17:14:38.000Z</time>
      </trkpt>
      <trkpt lat="45.16779" lon="5.7777">
        <ele>441.9</ele>
        <time>2021-05-26T17:14:39.000Z</time>
      </trkpt>
      <trkpt lat="45.16778" lon="5.7777">
        <ele>442</ele>
        <time>2021-05-26T17:14:40.000Z</time>
      </trkpt>
      <trkpt lat="45.16776" lon="5.7777">
        <ele>442.1</ele>
        <time>2021-05-26T17:14:42.000Z</time>
      </trkpt>
      <trkpt lat="45.16775" lon="5.7777">
        <ele>442.2</ele>
        <time>2021-05-26T17:14:43.000Z</time>
      </trkpt>
      <trkpt lat="45.16768" lon="5.77769">
        <ele>442.7</ele>
        <time>2021-05-26T17:14:44.000Z</time>
      </trkpt>
      <trkpt lat="45.16766" lon="5.77769">
        <ele>442.8</ele>
        <time>2021-05-26T17:14:45.000Z</time>
      </trkpt>
      <trkpt lat="45.16765" lon="5.77768">
        <ele>442.8</ele>
        <time>2021-05-26T17:14:46.000Z</time>
      </trkpt>
      <trkpt lat="45.16764" lon="5.77768">
        <ele>442.9</ele>
        <time>2021-05-26T17:14:47.000Z</time>
      </trkpt>
      <trkpt lat="45.16763" lon="5.77768">
        <ele>443</ele>
        <time>2021-05-26T17:14:48.000Z</time>
      </trkpt>
      <trkpt lat="45.16756" lon="5.77767">
        <ele>443.5</ele>
        <time>2021-05-26T17:14:49.000Z</time>
      </trkpt>
      <trkpt lat="45.16756" lon="5.77767">
        <ele>443.5</ele>
        <time>2021-05-26T17:14:50.000Z</time>
      </trkpt>
      <trkpt lat="45.16755" lon="5.77767">
        <ele>443.6</ele>
        <time>2021-05-26T17:14:51.000Z</time>
      </trkpt>
      <trkpt lat="45.16754" lon="5.77767">
        <ele>443.6</ele>
        <time>2021-05-26T17:14:52.000Z</time>
      </trkpt>
      <trkpt lat="45.16754" lon="5.77767">
        <ele>443.7</ele>
        <time>2021-05-26T17:14:53.000Z</time>
      </trkpt>
      <trkpt lat="45.16753" lon="5.77767">
        <ele>443.7</ele>
        <time>2021-05-26T17:14:54.000Z</time>
      </trkpt>
      <trkpt lat="45.16743" lon="5.77766">
        <ele>444.4</ele>
        <time>2021-05-26T17:14:56.000Z</time>
      </trkpt>
      <trkpt lat="45.16742" lon="5.77766">
        <ele>444.6</ele>
        <time>2021-05-26T17:14:58.000Z</time>
      </trkpt>
      <trkpt lat="45.1674" lon="5.77766">
        <ele>444.7</ele>
        <time>2021-05-26T17:14:59.000Z</time>
      </trkpt>
      <trkpt lat="45.16739" lon="5.77766">
        <ele>444.8</ele>
        <time>2021-05-26T17:15:00.000Z</time>
      </trkpt>
      <trkpt lat="45.16731" lon="5.77766">
        <ele>445.6</ele>
        <time>2021-05-26T17:15:01.000Z</time>
      </trkpt>
      <trkpt lat="45.16729" lon="5.77766">
        <ele>445.8</ele>
        <time>2021-05-26T17:15:02.000Z</time>
      </trkpt>
      <trkpt lat="45.16729" lon="5.77766">
        <ele>445.8</ele>
        <time>2021-05-26T17:15:03.000Z</time>
      </trkpt>
      <trkpt lat="45.16725" lon="5.77766">
        <ele>446.1</ele>
        <time>2021-05-26T17:15:04.000Z</time>
      </trkpt>
      <trkpt lat="45.16723" lon="5.77767">
        <ele>446.3</ele>
        <time>2021-05-26T17:15:05.000Z</time>
      </trkpt>
      <trkpt lat="45.16722" lon="5.77768">
        <ele>446.4</ele>
        <time>2021-05-26T17:15:06.000Z</time>
      </trkpt>
      <trkpt lat="45.1672" lon="5.77768">
        <ele>446.5</ele>
        <time>2021-05-26T17:15:07.000Z</time>
      </trkpt>
      <trkpt lat="45.16719" lon="5.77768">
        <ele>446.7</ele>
        <time>2021-05-26T17:15:08.000Z</time>
      </trkpt>
      <trkpt lat="45.16717" lon="5.77769">
        <ele>446.8</ele>
        <time>2021-05-26T17:15:09.000Z</time>
      </trkpt>
      <trkpt lat="45.16716" lon="5.77769">
        <ele>447</ele>
        <time>2021-05-26T17:15:10.000Z</time>
      </trkpt>
      <trkpt lat="45.16714" lon="5.77768">
        <ele>447.2</ele>
        <time>2021-05-26T17:15:11.000Z</time>
      </trkpt>
      <trkpt lat="45.16711" lon="5.77768">
        <ele>447.4</ele>
        <time>2021-05-26T17:15:12.000Z</time>
      </trkpt>
      <trkpt lat="45.1671" lon="5.77768">
        <ele>447.5</ele>
        <time>2021-05-26T17:15:13.000Z</time>
      </trkpt>
      <trkpt lat="45.16709" lon="5.77767">
        <ele>447.6</ele>
        <time>2021-05-26T17:15:14.000Z</time>
      </trkpt>
      <trkpt lat="45.16707" lon="5.77767">
        <ele>447.7</ele>
        <time>2021-05-26T17:15:15.000Z</time>
      </trkpt>
      <trkpt lat="45.16704" lon="5.77767">
        <ele>448</ele>
        <time>2021-05-26T17:15:16.000Z</time>
      </trkpt>
      <trkpt lat="45.16702" lon="5.77767">
        <ele>448.2</ele>
        <time>2021-05-26T17:15:17.000Z</time>
      </trkpt>
      <trkpt lat="45.167" lon="5.77767">
        <ele>448.3</ele>
        <time>2021-05-26T17:15:18.000Z</time>
      </trkpt>
      <trkpt lat="45.16698" lon="5.77767">
        <ele>448.4</ele>
        <time>2021-05-26T17:15:19.000Z</time>
      </trkpt>
      <trkpt lat="45.16696" lon="5.77767">
        <ele>448.6</ele>
        <time>2021-05-26T17:15:20.000Z</time>
      </trkpt>
      <trkpt lat="45.16693" lon="5.77767">
        <ele>448.7</ele>
        <time>2021-05-26T17:15:21.000Z</time>
      </trkpt>
      <trkpt lat="45.1669" lon="5.77767">
        <ele>448.9</ele>
        <time>2021-05-26T17:15:22.000Z</time>
      </trkpt>
      <trkpt lat="45.16688" lon="5.77767">
        <ele>449</ele>
        <time>2021-05-26T17:15:23.000Z</time>
      </trkpt>
      <trkpt lat="45.16686" lon="5.77767">
        <ele>449.1</ele>
        <time>2021-05-26T17:15:24.000Z</time>
      </trkpt>
      <trkpt lat="45.16684" lon="5.77768">
        <ele>449.2</ele>
        <time>2021-05-26T17:15:25.000Z</time>
      </trkpt>
      <trkpt lat="45.16683" lon="5.77768">
        <ele>449.2</ele>
        <time>2021-05-26T17:15:26.000Z</time>
      </trkpt>
      <trkpt lat="45.16682" lon="5.77768">
        <ele>449.3</ele>
        <time>2021-05-26T17:15:27.000Z</time>
      </trkpt>
      <trkpt lat="45.16681" lon="5.77768">
        <ele>449.3</ele>
        <time>2021-05-26T17:15:28.000Z</time>
      </trkpt>
      <trkpt lat="45.1668" lon="5.77768">
        <ele>449.3</ele>
        <time>2021-05-26T17:15:29.000Z</time>
      </trkpt>
      <trkpt lat="45.16672" lon="5.7777">
        <ele>449.4</ele>
        <time>2021-05-26T17:15:30.000Z</time>
      </trkpt>
      <trkpt lat="45.16669" lon="5.7777">
        <ele>449.4</ele>
        <time>2021-05-26T17:15:31.000Z</time>
      </trkpt>
      <trkpt lat="45.16667" lon="5.77771">
        <ele>449.4</ele>
        <time>2021-05-26T17:15:32.000Z</time>
      </trkpt>
      <trkpt lat="45.16661" lon="5.77772">
        <ele>449.3</ele>
        <time>2021-05-26T17:15:34.000Z</time>
      </trkpt>
      <trkpt lat="45.16659" lon="5.77773">
        <ele>449.2</ele>
        <time>2021-05-26T17:15:35.000Z</time>
      </trkpt>
      <trkpt lat="45.16656" lon="5.77773">
        <ele>449.1</ele>
        <time>2021-05-26T17:15:36.000Z</time>
      </trkpt>
      <trkpt lat="45.16654" lon="5.77774">
        <ele>449</ele>
        <time>2021-05-26T17:15:37.000Z</time>
      </trkpt>
      <trkpt lat="45.16651" lon="5.77775">
        <ele>448.9</ele>
        <time>2021-05-26T17:15:38.000Z</time>
      </trkpt>
      <trkpt lat="45.16649" lon="5.77775">
        <ele>448.8</ele>
        <time>2021-05-26T17:15:39.000Z</time>
      </trkpt>
      <trkpt lat="45.16646" lon="5.77776">
        <ele>448.7</ele>
        <time>2021-05-26T17:15:40.000Z</time>
      </trkpt>
      <trkpt lat="45.16645" lon="5.77777">
        <ele>448.6</ele>
        <time>2021-05-26T17:15:41.000Z</time>
      </trkpt>
      <trkpt lat="45.16644" lon="5.77777">
        <ele>448.5</ele>
        <time>2021-05-26T17:15:42.000Z</time>
      </trkpt>
      <trkpt lat="45.16643" lon="5.77778">
        <ele>448.5</ele>
        <time>2021-05-26T17:15:43.000Z</time>
      </trkpt>
      <trkpt lat="45.16642" lon="5.77779">
        <ele>448.4</ele>
        <time>2021-05-26T17:15:44.000Z</time>
      </trkpt>
      <trkpt lat="45.16641" lon="5.7778">
        <ele>448.3</ele>
        <time>2021-05-26T17:15:45.000Z</time>
      </trkpt>
      <trkpt lat="45.16633" lon="5.77785">
        <ele>447.9</ele>
        <time>2021-05-26T17:15:46.000Z</time>
      </trkpt>
      <trkpt lat="45.16632" lon="5.77786">
        <ele>447.8</ele>
        <time>2021-05-26T17:15:47.000Z</time>
      </trkpt>
      <trkpt lat="45.16631" lon="5.77787">
        <ele>447.7</ele>
        <time>2021-05-26T17:15:48.000Z</time>
      </trkpt>
      <trkpt lat="45.1663" lon="5.77788">
        <ele>447.6</ele>
        <time>2021-05-26T17:15:49.000Z</time>
      </trkpt>
      <trkpt lat="45.16625" lon="5.77792">
        <ele>447.2</ele>
        <time>2021-05-26T17:15:50.000Z</time>
      </trkpt>
      <trkpt lat="45.16625" lon="5.77792">
        <ele>447.2</ele>
        <time>2021-05-26T17:15:51.000Z</time>
      </trkpt>
      <trkpt lat="45.16613" lon="5.77801">
        <ele>446.1</ele>
        <time>2021-05-26T17:15:53.000Z</time>
      </trkpt>
      <trkpt lat="45.1661" lon="5.77803">
        <ele>445.8</ele>
        <time>2021-05-26T17:15:54.000Z</time>
      </trkpt>
      <trkpt lat="45.16607" lon="5.77805">
        <ele>445.6</ele>
        <time>2021-05-26T17:15:55.000Z</time>
      </trkpt>
      <trkpt lat="45.16605" lon="5.77806">
        <ele>445.4</ele>
        <time>2021-05-26T17:15:56.000Z</time>
      </trkpt>
      <trkpt lat="45.16604" lon="5.77806">
        <ele>445.3</ele>
        <time>2021-05-26T17:15:57.000Z</time>
      </trkpt>
      <trkpt lat="45.16602" lon="5.77807">
        <ele>445.1</ele>
        <time>2021-05-26T17:15:58.000Z</time>
      </trkpt>
      <trkpt lat="45.16601" lon="5.77808">
        <ele>445</ele>
        <time>2021-05-26T17:15:59.000Z</time>
      </trkpt>
      <trkpt lat="45.16593" lon="5.77812">
        <ele>444.2</ele>
        <time>2021-05-26T17:16:00.000Z</time>
      </trkpt>
      <trkpt lat="45.16592" lon="5.77813">
        <ele>444.1</ele>
        <time>2021-05-26T17:16:01.000Z</time>
      </trkpt>
      <trkpt lat="45.1659" lon="5.77814">
        <ele>443.9</ele>
        <time>2021-05-26T17:16:02.000Z</time>
      </trkpt>
      <trkpt lat="45.16589" lon="5.77815">
        <ele>443.8</ele>
        <time>2021-05-26T17:16:03.000Z</time>
      </trkpt>
      <trkpt lat="45.16582" lon="5.77819">
        <ele>443</ele>
        <time>2021-05-26T17:16:04.000Z</time>
      </trkpt>
      <trkpt lat="45.16581" lon="5.77819">
        <ele>442.8</ele>
        <time>2021-05-26T17:16:05.000Z</time>
      </trkpt>
      <trkpt lat="45.16579" lon="5.7782">
        <ele>442.7</ele>
        <time>2021-05-26T17:16:06.000Z</time>
      </trkpt>
      <trkpt lat="45.16578" lon="5.77821">
        <ele>442.5</ele>
        <time>2021-05-26T17:16:07.000Z</time>
      </trkpt>
      <trkpt lat="45.16572" lon="5.77823">
        <ele>441.9</ele>
        <time>2021-05-26T17:16:08.000Z</time>
      </trkpt>
      <trkpt lat="45.16572" lon="5.77823">
        <ele>441.9</ele>
        <time>2021-05-26T17:16:09.000Z</time>
      </trkpt>
      <trkpt lat="45.16572" lon="5.77823">
        <ele>441.9</ele>
        <time>2021-05-26T17:16:10.000Z</time>
      </trkpt>
      <trkpt lat="45.16561" lon="5.7783">
        <ele>440.6</ele>
        <time>2021-05-26T17:16:12.000Z</time>
      </trkpt>
      <trkpt lat="45.1656" lon="5.7783">
        <ele>440.5</ele>
        <time>2021-05-26T17:16:13.000Z</time>
      </trkpt>
      <trkpt lat="45.16559" lon="5.7783">
        <ele>440.4</ele>
        <time>2021-05-26T17:16:14.000Z</time>
      </trkpt>
      <trkpt lat="45.16557" lon="5.77831">
        <ele>440.2</ele>
        <time>2021-05-26T17:16:15.000Z</time>
      </trkpt>
      <trkpt lat="45.16556" lon="5.77831">
        <ele>440.1</ele>
        <time>2021-05-26T17:16:16.000Z</time>
      </trkpt>
      <trkpt lat="45.16555" lon="5.77831">
        <ele>440</ele>
        <time>2021-05-26T17:16:17.000Z</time>
      </trkpt>
      <trkpt lat="45.16548" lon="5.77833">
        <ele>439.1</ele>
        <time>2021-05-26T17:16:18.000Z</time>
      </trkpt>
      <trkpt lat="45.16548" lon="5.77834">
        <ele>439.1</ele>
        <time>2021-05-26T17:16:19.000Z</time>
      </trkpt>
      <trkpt lat="45.16547" lon="5.77835">
        <ele>439</ele>
        <time>2021-05-26T17:16:20.000Z</time>
      </trkpt>
      <trkpt lat="45.16546" lon="5.77835">
        <ele>438.9</ele>
        <time>2021-05-26T17:16:21.000Z</time>
      </trkpt>
      <trkpt lat="45.16546" lon="5.77836">
        <ele>438.8</ele>
        <time>2021-05-26T17:16:22.000Z</time>
      </trkpt>
      <trkpt lat="45.16545" lon="5.77836">
        <ele>438.7</ele>
        <time>2021-05-26T17:16:23.000Z</time>
      </trkpt>
      <trkpt lat="45.16544" lon="5.77837">
        <ele>438.6</ele>
        <time>2021-05-26T17:16:24.000Z</time>
      </trkpt>
      <trkpt lat="45.16539" lon="5.77842">
        <ele>437.1</ele>
        <time>2021-05-26T17:16:25.000Z</time>
      </trkpt>
      <trkpt lat="45.16538" lon="5.77842">
        <ele>437</ele>
        <time>2021-05-26T17:16:26.000Z</time>
      </trkpt>
      <trkpt lat="45.16538" lon="5.77843">
        <ele>436.9</ele>
        <time>2021-05-26T17:16:27.000Z</time>
      </trkpt>
      <trkpt lat="45.16537" lon="5.77844">
        <ele>436.9</ele>
        <time>2021-05-26T17:16:28.000Z</time>
      </trkpt>
      <trkpt lat="45.16536" lon="5.77844">
        <ele>436.8</ele>
        <time>2021-05-26T17:16:29.000Z</time>
      </trkpt>
      <trkpt lat="45.16529" lon="5.77852">
        <ele>436.1</ele>
        <time>2021-05-26T17:16:31.000Z</time>
      </trkpt>
      <trkpt lat="45.16527" lon="5.77854">
        <ele>435.9</ele>
        <time>2021-05-26T17:16:33.000Z</time>
      </trkpt>
      <trkpt lat="45.16526" lon="5.77856">
        <ele>435.8</ele>
        <time>2021-05-26T17:16:34.000Z</time>
      </trkpt>
      <trkpt lat="45.16521" lon="5.77862">
        <ele>435.5</ele>
        <time>2021-05-26T17:16:35.000Z</time>
      </trkpt>
      <trkpt lat="45.1652" lon="5.77863">
        <ele>435.5</ele>
        <time>2021-05-26T17:16:36.000Z</time>
      </trkpt>
      <trkpt lat="45.16519" lon="5.77864">
        <ele>435.4</ele>
        <time>2021-05-26T17:16:37.000Z</time>
      </trkpt>
      <trkpt lat="45.16518" lon="5.77865">
        <ele>435.4</ele>
        <time>2021-05-26T17:16:38.000Z</time>
      </trkpt>
      <trkpt lat="45.16517" lon="5.77865">
        <ele>435.3</ele>
        <time>2021-05-26T17:16:39.000Z</time>
      </trkpt>
      <trkpt lat="45.16511" lon="5.7787">
        <ele>435.2</ele>
        <time>2021-05-26T17:16:40.000Z</time>
      </trkpt>
      <trkpt lat="45.1651" lon="5.77871">
        <ele>435.1</ele>
        <time>2021-05-26T17:16:41.000Z</time>
      </trkpt>
      <trkpt lat="45.16509" lon="5.77871">
        <ele>435.1</ele>
        <time>2021-05-26T17:16:42.000Z</time>
      </trkpt>
      <trkpt lat="45.16508" lon="5.77872">
        <ele>435.1</ele>
        <time>2021-05-26T17:16:43.000Z</time>
      </trkpt>
      <trkpt lat="45.16507" lon="5.77872">
        <ele>435.1</ele>
        <time>2021-05-26T17:16:44.000Z</time>
      </trkpt>
      <trkpt lat="45.16506" lon="5.77873">
        <ele>435</ele>
        <time>2021-05-26T17:16:45.000Z</time>
      </trkpt>
      <trkpt lat="45.16498" lon="5.77876">
        <ele>435</ele>
        <time>2021-05-26T17:16:46.000Z</time>
      </trkpt>
      <trkpt lat="45.16497" lon="5.77876">
        <ele>434.9</ele>
        <time>2021-05-26T17:16:47.000Z</time>
      </trkpt>
      <trkpt lat="45.16496" lon="5.77876">
        <ele>434.9</ele>
        <time>2021-05-26T17:16:48.000Z</time>
      </trkpt>
      <trkpt lat="45.16495" lon="5.77877">
        <ele>434.9</ele>
        <time>2021-05-26T17:16:50.000Z</time>
      </trkpt>
      <trkpt lat="45.16493" lon="5.77877">
        <ele>434.9</ele>
        <time>2021-05-26T17:16:51.000Z</time>
      </trkpt>
      <trkpt lat="45.16486" lon="5.77879">
        <ele>434.8</ele>
        <time>2021-05-26T17:16:52.000Z</time>
      </trkpt>
      <trkpt lat="45.16485" lon="5.77879">
        <ele>434.8</ele>
        <time>2021-05-26T17:16:53.000Z</time>
      </trkpt>
      <trkpt lat="45.16484" lon="5.7788">
        <ele>434.8</ele>
        <time>2021-05-26T17:16:54.000Z</time>
      </trkpt>
      <trkpt lat="45.16483" lon="5.7788">
        <ele>434.8</ele>
        <time>2021-05-26T17:16:55.000Z</time>
      </trkpt>
      <trkpt lat="45.16482" lon="5.7788">
        <ele>434.7</ele>
        <time>2021-05-26T17:16:56.000Z</time>
      </trkpt>
      <trkpt lat="45.16475" lon="5.77883">
        <ele>434.5</ele>
        <time>2021-05-26T17:16:57.000Z</time>
      </trkpt>
      <trkpt lat="45.16474" lon="5.77884">
        <ele>434.5</ele>
        <time>2021-05-26T17:16:58.000Z</time>
      </trkpt>
      <trkpt lat="45.16473" lon="5.77885">
        <ele>434.5</ele>
        <time>2021-05-26T17:16:59.000Z</time>
      </trkpt>
      <trkpt lat="45.16472" lon="5.77886">
        <ele>434.4</ele>
        <time>2021-05-26T17:17:00.000Z</time>
      </trkpt>
      <trkpt lat="45.16471" lon="5.77887">
        <ele>434.4</ele>
        <time>2021-05-26T17:17:01.000Z</time>
      </trkpt>
      <trkpt lat="45.16466" lon="5.77893">
        <ele>434.1</ele>
        <time>2021-05-26T17:17:02.000Z</time>
      </trkpt>
      <trkpt lat="45.16464" lon="5.77893">
        <ele>434</ele>
        <time>2021-05-26T17:17:03.000Z</time>
      </trkpt>
      <trkpt lat="45.16463" lon="5.77894">
        <ele>433.9</ele>
        <time>2021-05-26T17:17:04.000Z</time>
      </trkpt>
      <trkpt lat="45.16462" lon="5.77895">
        <ele>433.9</ele>
        <time>2021-05-26T17:17:05.000Z</time>
      </trkpt>
      <trkpt lat="45.16461" lon="5.77896">
        <ele>433.8</ele>
        <time>2021-05-26T17:17:06.000Z</time>
      </trkpt>
      <trkpt lat="45.16454" lon="5.779">
        <ele>433.3</ele>
        <time>2021-05-26T17:17:07.000Z</time>
      </trkpt>
      <trkpt lat="45.16453" lon="5.779">
        <ele>433.2</ele>
        <time>2021-05-26T17:17:09.000Z</time>
      </trkpt>
      <trkpt lat="45.16453" lon="5.77901">
        <ele>433.2</ele>
        <time>2021-05-26T17:17:10.000Z</time>
      </trkpt>
      <trkpt lat="45.16452" lon="5.77901">
        <ele>433.1</ele>
        <time>2021-05-26T17:17:11.000Z</time>
      </trkpt>
      <trkpt lat="45.16451" lon="5.77902">
        <ele>433</ele>
        <time>2021-05-26T17:17:12.000Z</time>
      </trkpt>
      <trkpt lat="45.1645" lon="5.77902">
        <ele>432.9</ele>
        <time>2021-05-26T17:17:13.000Z</time>
      </trkpt>
      <trkpt lat="45.16444" lon="5.77906">
        <ele>432.3</ele>
        <time>2021-05-26T17:17:14.000Z</time>
      </trkpt>
      <trkpt lat="45.16443" lon="5.77907">
        <ele>432.2</ele>
        <time>2021-05-26T17:17:15.000Z</time>
      </trkpt>
      <trkpt lat="45.16443" lon="5.77908">
        <ele>432.1</ele>
        <time>2021-05-26T17:17:16.000Z</time>
      </trkpt>
      <trkpt lat="45.16442" lon="5.77909">
        <ele>432</ele>
        <time>2021-05-26T17:17:17.000Z</time>
      </trkpt>
      <trkpt lat="45.16441" lon="5.77909">
        <ele>431.9</ele>
        <time>2021-05-26T17:17:18.000Z</time>
      </trkpt>
      <trkpt lat="45.16441" lon="5.7791">
        <ele>431.9</ele>
        <time>2021-05-26T17:17:19.000Z</time>
      </trkpt>
      <trkpt lat="45.1644" lon="5.77911">
        <ele>431.8</ele>
        <time>2021-05-26T17:17:20.000Z</time>
      </trkpt>
      <trkpt lat="45.16435" lon="5.77917">
        <ele>431.2</ele>
        <time>2021-05-26T17:17:21.000Z</time>
      </trkpt>
      <trkpt lat="45.16434" lon="5.77917">
        <ele>431.2</ele>
        <time>2021-05-26T17:17:22.000Z</time>
      </trkpt>
      <trkpt lat="45.16434" lon="5.77917">
        <ele>431.1</ele>
        <time>2021-05-26T17:17:23.000Z</time>
      </trkpt>
      <trkpt lat="45.16433" lon="5.77918">
        <ele>431.1</ele>
        <time>2021-05-26T17:17:24.000Z</time>
      </trkpt>
      <trkpt lat="45.16432" lon="5.77918">
        <ele>431</ele>
        <time>2021-05-26T17:17:25.000Z</time>
      </trkpt>
      <trkpt lat="45.16432" lon="5.77919">
        <ele>431</ele>
        <time>2021-05-26T17:17:26.000Z</time>
      </trkpt>
      <trkpt lat="45.16431" lon="5.77919">
        <ele>431</ele>
        <time>2021-05-26T17:17:28.000Z</time>
      </trkpt>
      <trkpt lat="45.1643" lon="5.7792">
        <ele>430.9</ele>
        <time>2021-05-26T17:17:29.000Z</time>
      </trkpt>
      <trkpt lat="45.16424" lon="5.77923">
        <ele>430.4</ele>
        <time>2021-05-26T17:17:30.000Z</time>
      </trkpt>
      <trkpt lat="45.16424" lon="5.77922">
        <ele>430.4</ele>
        <time>2021-05-26T17:17:31.000Z</time>
      </trkpt>
      <trkpt lat="45.16423" lon="5.77922">
        <ele>430.4</ele>
        <time>2021-05-26T17:17:32.000Z</time>
      </trkpt>
      <trkpt lat="45.16422" lon="5.77922">
        <ele>430.4</ele>
        <time>2021-05-26T17:17:33.000Z</time>
      </trkpt>
      <trkpt lat="45.16421" lon="5.77921">
        <ele>430.5</ele>
        <time>2021-05-26T17:17:34.000Z</time>
      </trkpt>
      <trkpt lat="45.16413" lon="5.77917">
        <ele>430.6</ele>
        <time>2021-05-26T17:17:36.000Z</time>
      </trkpt>
      <trkpt lat="45.16412" lon="5.77915">
        <ele>430.6</ele>
        <time>2021-05-26T17:17:37.000Z</time>
      </trkpt>
      <trkpt lat="45.16411" lon="5.77914">
        <ele>430.6</ele>
        <time>2021-05-26T17:17:38.000Z</time>
      </trkpt>
      <trkpt lat="45.1641" lon="5.77913">
        <ele>430.6</ele>
        <time>2021-05-26T17:17:39.000Z</time>
      </trkpt>
      <trkpt lat="45.1641" lon="5.77912">
        <ele>430.7</ele>
        <time>2021-05-26T17:17:40.000Z</time>
      </trkpt>
      <trkpt lat="45.16404" lon="5.77904">
        <ele>431</ele>
        <time>2021-05-26T17:17:41.000Z</time>
      </trkpt>
      <trkpt lat="45.16404" lon="5.77902">
        <ele>431</ele>
        <time>2021-05-26T17:17:42.000Z</time>
      </trkpt>
      <trkpt lat="45.16403" lon="5.779">
        <ele>431.1</ele>
        <time>2021-05-26T17:17:43.000Z</time>
      </trkpt>
      <trkpt lat="45.16402" lon="5.77898">
        <ele>431.2</ele>
        <time>2021-05-26T17:17:44.000Z</time>
      </trkpt>
      <trkpt lat="45.16401" lon="5.77895">
        <ele>431.4</ele>
        <time>2021-05-26T17:17:45.000Z</time>
      </trkpt>
      <trkpt lat="45.164" lon="5.77893">
        <ele>431.7</ele>
        <time>2021-05-26T17:17:46.000Z</time>
      </trkpt>
      <trkpt lat="45.16399" lon="5.77891">
        <ele>432</ele>
        <time>2021-05-26T17:17:47.000Z</time>
      </trkpt>
      <trkpt lat="45.16398" lon="5.7789">
        <ele>432.2</ele>
        <time>2021-05-26T17:17:48.000Z</time>
      </trkpt>
      <trkpt lat="45.16397" lon="5.77889">
        <ele>432.4</ele>
        <time>2021-05-26T17:17:49.000Z</time>
      </trkpt>
      <trkpt lat="45.16397" lon="5.77888">
        <ele>432.5</ele>
        <time>2021-05-26T17:17:50.000Z</time>
      </trkpt>
      <trkpt lat="45.16396" lon="5.77886">
        <ele>432.7</ele>
        <time>2021-05-26T17:17:51.000Z</time>
      </trkpt>
      <trkpt lat="45.16395" lon="5.77885">
        <ele>432.9</ele>
        <time>2021-05-26T17:17:52.000Z</time>
      </trkpt>
      <trkpt lat="45.16391" lon="5.77878">
        <ele>434.1</ele>
        <time>2021-05-26T17:17:53.000Z</time>
      </trkpt>
      <trkpt lat="45.1639" lon="5.77876">
        <ele>434.4</ele>
        <time>2021-05-26T17:17:54.000Z</time>
      </trkpt>
      <trkpt lat="45.16389" lon="5.77874">
        <ele>434.7</ele>
        <time>2021-05-26T17:17:55.000Z</time>
      </trkpt>
      <trkpt lat="45.16388" lon="5.77872">
        <ele>435</ele>
        <time>2021-05-26T17:17:56.000Z</time>
      </trkpt>
      <trkpt lat="45.16387" lon="5.7787">
        <ele>435.3</ele>
        <time>2021-05-26T17:17:57.000Z</time>
      </trkpt>
      <trkpt lat="45.16386" lon="5.77868">
        <ele>435.6</ele>
        <time>2021-05-26T17:17:59.000Z</time>
      </trkpt>
      <trkpt lat="45.16386" lon="5.77867">
        <ele>436</ele>
        <time>2021-05-26T17:18:00.000Z</time>
      </trkpt>
      <trkpt lat="45.16385" lon="5.77866">
        <ele>436.1</ele>
        <time>2021-05-26T17:18:01.000Z</time>
      </trkpt>
      <trkpt lat="45.16385" lon="5.77866">
        <ele>436.2</ele>
        <time>2021-05-26T17:18:02.000Z</time>
      </trkpt>
      <trkpt lat="45.16384" lon="5.77865">
        <ele>436.3</ele>
        <time>2021-05-26T17:18:03.000Z</time>
      </trkpt>
      <trkpt lat="45.16384" lon="5.77865">
        <ele>436.4</ele>
        <time>2021-05-26T17:18:04.000Z</time>
      </trkpt>
      <trkpt lat="45.16384" lon="5.77864">
        <ele>436.5</ele>
        <time>2021-05-26T17:18:06.000Z</time>
      </trkpt>
      <trkpt lat="45.16383" lon="5.77864">
        <ele>436.6</ele>
        <time>2021-05-26T17:18:07.000Z</time>
      </trkpt>
      <trkpt lat="45.16383" lon="5.77863">
        <ele>436.7</ele>
        <time>2021-05-26T17:18:08.000Z</time>
      </trkpt>
      <trkpt lat="45.16383" lon="5.77863">
        <ele>436.8</ele>
        <time>2021-05-26T17:18:09.000Z</time>
      </trkpt>
      <trkpt lat="45.16382" lon="5.77862">
        <ele>436.9</ele>
        <time>2021-05-26T17:18:10.000Z</time>
      </trkpt>
      <trkpt lat="45.16382" lon="5.77862">
        <ele>437</ele>
        <time>2021-05-26T17:18:11.000Z</time>
      </trkpt>
      <trkpt lat="45.16382" lon="5.77861">
        <ele>437.1</ele>
        <time>2021-05-26T17:18:12.000Z</time>
      </trkpt>
      <trkpt lat="45.16377" lon="5.77855">
        <ele>438.3</ele>
        <time>2021-05-26T17:18:13.000Z</time>
      </trkpt>
      <trkpt lat="45.16377" lon="5.77855">
        <ele>438.4</ele>
        <time>2021-05-26T17:18:14.000Z</time>
      </trkpt>
      <trkpt lat="45.16376" lon="5.77854">
        <ele>438.6</ele>
        <time>2021-05-26T17:18:15.000Z</time>
      </trkpt>
      <trkpt lat="45.16376" lon="5.77853">
        <ele>438.7</ele>
        <time>2021-05-26T17:18:16.000Z</time>
      </trkpt>
      <trkpt lat="45.16375" lon="5.77853">
        <ele>438.8</ele>
        <time>2021-05-26T17:18:17.000Z</time>
      </trkpt>
      <trkpt lat="45.16375" lon="5.77852">
        <ele>439</ele>
        <time>2021-05-26T17:18:18.000Z</time>
      </trkpt>
      <trkpt lat="45.16374" lon="5.77852">
        <ele>439.1</ele>
        <time>2021-05-26T17:18:19.000Z</time>
      </trkpt>
      <trkpt lat="45.16374" lon="5.77851">
        <ele>439.2</ele>
        <time>2021-05-26T17:18:20.000Z</time>
      </trkpt>
      <trkpt lat="45.16373" lon="5.7785">
        <ele>439.3</ele>
        <time>2021-05-26T17:18:21.000Z</time>
      </trkpt>
      <trkpt lat="45.16368" lon="5.77844">
        <ele>440.6</ele>
        <time>2021-05-26T17:18:22.000Z</time>
      </trkpt>
      <trkpt lat="45.16368" lon="5.77844">
        <ele>440.8</ele>
        <time>2021-05-26T17:18:23.000Z</time>
      </trkpt>
      <trkpt lat="45.16367" lon="5.77843">
        <ele>440.9</ele>
        <time>2021-05-26T17:18:25.000Z</time>
      </trkpt>
      <trkpt lat="45.16367" lon="5.77842">
        <ele>441</ele>
        <time>2021-05-26T17:18:26.000Z</time>
      </trkpt>
      <trkpt lat="45.16366" lon="5.77841">
        <ele>441.2</ele>
        <time>2021-05-26T17:18:27.000Z</time>
      </trkpt>
      <trkpt lat="45.16366" lon="5.7784">
        <ele>441.3</ele>
        <time>2021-05-26T17:18:28.000Z</time>
      </trkpt>
      <trkpt lat="45.16365" lon="5.77839">
        <ele>441.5</ele>
        <time>2021-05-26T17:18:29.000Z</time>
      </trkpt>
      <trkpt lat="45.16365" lon="5.77839">
        <ele>441.6</ele>
        <time>2021-05-26T17:18:30.000Z</time>
      </trkpt>
      <trkpt lat="45.1636" lon="5.77831">
        <ele>442.8</ele>
        <time>2021-05-26T17:18:31.000Z</time>
      </trkpt>
      <trkpt lat="45.1636" lon="5.7783">
        <ele>442.9</ele>
        <time>2021-05-26T17:18:32.000Z</time>
      </trkpt>
      <trkpt lat="45.1636" lon="5.77829">
        <ele>443.1</ele>
        <time>2021-05-26T17:18:33.000Z</time>
      </trkpt>
      <trkpt lat="45.16359" lon="5.77828">
        <ele>443.2</ele>
        <time>2021-05-26T17:18:34.000Z</time>
      </trkpt>
      <trkpt lat="45.16359" lon="5.77827">
        <ele>443.4</ele>
        <time>2021-05-26T17:18:35.000Z</time>
      </trkpt>
      <trkpt lat="45.16359" lon="5.77826">
        <ele>443.5</ele>
        <time>2021-05-26T17:18:36.000Z</time>
      </trkpt>
      <trkpt lat="45.16358" lon="5.77825">
        <ele>443.6</ele>
        <time>2021-05-26T17:18:37.000Z</time>
      </trkpt>
      <trkpt lat="45.16356" lon="5.77818">
        <ele>444.7</ele>
        <time>2021-05-26T17:18:38.000Z</time>
      </trkpt>
      <trkpt lat="45.16355" lon="5.77817">
        <ele>444.8</ele>
        <time>2021-05-26T17:18:39.000Z</time>
      </trkpt>
      <trkpt lat="45.16355" lon="5.77816">
        <ele>444.9</ele>
        <time>2021-05-26T17:18:40.000Z</time>
      </trkpt>
      <trkpt lat="45.16355" lon="5.77815">
        <ele>445</ele>
        <time>2021-05-26T17:18:41.000Z</time>
      </trkpt>
      <trkpt lat="45.16355" lon="5.77815">
        <ele>445.1</ele>
        <time>2021-05-26T17:18:42.000Z</time>
      </trkpt>
      <trkpt lat="45.16354" lon="5.77814">
        <ele>445.2</ele>
        <time>2021-05-26T17:18:44.000Z</time>
      </trkpt>
      <trkpt lat="45.16354" lon="5.77813">
        <ele>445.3</ele>
        <time>2021-05-26T17:18:45.000Z</time>
      </trkpt>
      <trkpt lat="45.16354" lon="5.77812">
        <ele>445.4</ele>
        <time>2021-05-26T17:18:46.000Z</time>
      </trkpt>
      <trkpt lat="45.16354" lon="5.77812">
        <ele>445.5</ele>
        <time>2021-05-26T17:18:47.000Z</time>
      </trkpt>
      <trkpt lat="45.16353" lon="5.77811">
        <ele>445.6</ele>
        <time>2021-05-26T17:18:48.000Z</time>
      </trkpt>
      <trkpt lat="45.1635" lon="5.77803">
        <ele>446.8</ele>
        <time>2021-05-26T17:18:49.000Z</time>
      </trkpt>
      <trkpt lat="45.1635" lon="5.77802">
        <ele>446.9</ele>
        <time>2021-05-26T17:18:50.000Z</time>
      </trkpt>
      <trkpt lat="45.16349" lon="5.77802">
        <ele>447</ele>
        <time>2021-05-26T17:18:51.000Z</time>
      </trkpt>
      <trkpt lat="45.16349" lon="5.77801">
        <ele>447.1</ele>
        <time>2021-05-26T17:18:52.000Z</time>
      </trkpt>
      <trkpt lat="45.16349" lon="5.77801">
        <ele>447.2</ele>
        <time>2021-05-26T17:18:53.000Z</time>
      </trkpt>
      <trkpt lat="45.16348" lon="5.778">
        <ele>447.3</ele>
        <time>2021-05-26T17:18:54.000Z</time>
      </trkpt>
      <trkpt lat="45.16348" lon="5.778">
        <ele>447.4</ele>
        <time>2021-05-26T17:18:55.000Z</time>
      </trkpt>
      <trkpt lat="45.16347" lon="5.77799">
        <ele>447.5</ele>
        <time>2021-05-26T17:18:56.000Z</time>
      </trkpt>
      <trkpt lat="45.16347" lon="5.77799">
        <ele>447.6</ele>
        <time>2021-05-26T17:18:57.000Z</time>
      </trkpt>
      <trkpt lat="45.16347" lon="5.77798">
        <ele>447.7</ele>
        <time>2021-05-26T17:18:58.000Z</time>
      </trkpt>
      <trkpt lat="45.16342" lon="5.77792">
        <ele>448.9</ele>
        <time>2021-05-26T17:18:59.000Z</time>
      </trkpt>
      <trkpt lat="45.16342" lon="5.77792">
        <ele>449.1</ele>
        <time>2021-05-26T17:19:00.000Z</time>
      </trkpt>
      <trkpt lat="45.16341" lon="5.77792">
        <ele>449.1</ele>
        <time>2021-05-26T17:19:01.000Z</time>
      </trkpt>
      <trkpt lat="45.16341" lon="5.77791">
        <ele>449.2</ele>
        <time>2021-05-26T17:19:03.000Z</time>
      </trkpt>
      <trkpt lat="45.1634" lon="5.77791">
        <ele>449.3</ele>
        <time>2021-05-26T17:19:04.000Z</time>
      </trkpt>
      <trkpt lat="45.1634" lon="5.77791">
        <ele>449.4</ele>
        <time>2021-05-26T17:19:05.000Z</time>
      </trkpt>
      <trkpt lat="45.16339" lon="5.77791">
        <ele>449.5</ele>
        <time>2021-05-26T17:19:06.000Z</time>
      </trkpt>
      <trkpt lat="45.16339" lon="5.7779">
        <ele>449.6</ele>
        <time>2021-05-26T17:19:07.000Z</time>
      </trkpt>
      <trkpt lat="45.16338" lon="5.7779">
        <ele>449.7</ele>
        <time>2021-05-26T17:19:08.000Z</time>
      </trkpt>
      <trkpt lat="45.16338" lon="5.7779">
        <ele>449.8</ele>
        <time>2021-05-26T17:19:09.000Z</time>
      </trkpt>
      <trkpt lat="45.16338" lon="5.77789">
        <ele>449.9</ele>
        <time>2021-05-26T17:19:10.000Z</time>
      </trkpt>
      <trkpt lat="45.16337" lon="5.77789">
        <ele>450</ele>
        <time>2021-05-26T17:19:11.000Z</time>
      </trkpt>
      <trkpt lat="45.16332" lon="5.77786">
        <ele>451.3</ele>
        <time>2021-05-26T17:19:12.000Z</time>
      </trkpt>
      <trkpt lat="45.16332" lon="5.77786">
        <ele>451.3</ele>
        <time>2021-05-26T17:19:13.000Z</time>
      </trkpt>
      <trkpt lat="45.16332" lon="5.77786">
        <ele>451.3</ele>
        <time>2021-05-26T17:19:14.000Z</time>
      </trkpt>
      <trkpt lat="45.16332" lon="5.77786">
        <ele>451.3</ele>
        <time>2021-05-26T17:19:15.000Z</time>
      </trkpt>
      <trkpt lat="45.16332" lon="5.77786">
        <ele>451.3</ele>
        <time>2021-05-26T17:19:16.000Z</time>
      </trkpt>
      <trkpt lat="45.16332" lon="5.77786">
        <ele>451.3</ele>
        <time>2021-05-26T17:19:17.000Z</time>
      </trkpt>
      <trkpt lat="45.16332" lon="5.77786">
        <ele>451.3</ele>
        <time>2021-05-26T17:19:18.000Z</time>
      </trkpt>
      <trkpt lat="45.16332" lon="5.77786">
        <ele>451.3</ele>
        <time>2021-05-26T17:19:19.000Z</time>
      </trkpt>
      <trkpt lat="45.16332" lon="5.77786">
        <ele>451.3</ele>
        <time>2021-05-26T17:19:20.000Z</time>
      </trkpt>
      <trkpt lat="45.1632" lon="5.77786">
        <ele>454</ele>
        <time>2021-05-26T17:19:22.000Z</time>
      </trkpt>
      <trkpt lat="45.16319" lon="5.77786">
        <ele>454.2</ele>
        <time>2021-05-26T17:19:23.000Z</time>
      </trkpt>
      <trkpt lat="45.16318" lon="5.77786">
        <ele>454.3</ele>
        <time>2021-05-26T17:19:24.000Z</time>
      </trkpt>
      <trkpt lat="45.16317" lon="5.77786">
        <ele>454.5</ele>
        <time>2021-05-26T17:19:25.000Z</time>
      </trkpt>
      <trkpt lat="45.16317" lon="5.77786">
        <ele>454.7</ele>
        <time>2021-05-26T17:19:26.000Z</time>
      </trkpt>
      <trkpt lat="45.16316" lon="5.77786">
        <ele>454.8</ele>
        <time>2021-05-26T17:19:27.000Z</time>
      </trkpt>
      <trkpt lat="45.16315" lon="5.77786">
        <ele>455</ele>
        <time>2021-05-26T17:19:28.000Z</time>
      </trkpt>
      <trkpt lat="45.16315" lon="5.77786">
        <ele>455.2</ele>
        <time>2021-05-26T17:19:29.000Z</time>
      </trkpt>
      <trkpt lat="45.16314" lon="5.77786">
        <ele>455.3</ele>
        <time>2021-05-26T17:19:30.000Z</time>
      </trkpt>
      <trkpt lat="45.16308" lon="5.77786">
        <ele>456.8</ele>
        <time>2021-05-26T17:19:31.000Z</time>
      </trkpt>
      <trkpt lat="45.16307" lon="5.77785">
        <ele>456.9</ele>
        <time>2021-05-26T17:19:32.000Z</time>
      </trkpt>
      <trkpt lat="45.16307" lon="5.77785">
        <ele>457.1</ele>
        <time>2021-05-26T17:19:33.000Z</time>
      </trkpt>
      <trkpt lat="45.16306" lon="5.77785">
        <ele>457.2</ele>
        <time>2021-05-26T17:19:34.000Z</time>
      </trkpt>
      <trkpt lat="45.16306" lon="5.77785">
        <ele>457.3</ele>
        <time>2021-05-26T17:19:35.000Z</time>
      </trkpt>
      <trkpt lat="45.16305" lon="5.77785">
        <ele>457.4</ele>
        <time>2021-05-26T17:19:36.000Z</time>
      </trkpt>
      <trkpt lat="45.16305" lon="5.77785">
        <ele>457.5</ele>
        <time>2021-05-26T17:19:37.000Z</time>
      </trkpt>
      <trkpt lat="45.16304" lon="5.77785">
        <ele>457.6</ele>
        <time>2021-05-26T17:19:38.000Z</time>
      </trkpt>
      <trkpt lat="45.16304" lon="5.77785">
        <ele>457.7</ele>
        <time>2021-05-26T17:19:39.000Z</time>
      </trkpt>
      <trkpt lat="45.16303" lon="5.77785">
        <ele>457.9</ele>
        <time>2021-05-26T17:19:41.000Z</time>
      </trkpt>
      <trkpt lat="45.16303" lon="5.77785">
        <ele>458</ele>
        <time>2021-05-26T17:19:42.000Z</time>
      </trkpt>
      <trkpt lat="45.16297" lon="5.77784">
        <ele>459.3</ele>
        <time>2021-05-26T17:19:43.000Z</time>
      </trkpt>
      <trkpt lat="45.16296" lon="5.77784">
        <ele>459.4</ele>
        <time>2021-05-26T17:19:44.000Z</time>
      </trkpt>
      <trkpt lat="45.16296" lon="5.77784">
        <ele>459.5</ele>
        <time>2021-05-26T17:19:45.000Z</time>
      </trkpt>
      <trkpt lat="45.16295" lon="5.77784">
        <ele>459.6</ele>
        <time>2021-05-26T17:19:46.000Z</time>
      </trkpt>
      <trkpt lat="45.16295" lon="5.77784">
        <ele>459.7</ele>
        <time>2021-05-26T17:19:47.000Z</time>
      </trkpt>
      <trkpt lat="45.16295" lon="5.77785">
        <ele>459.8</ele>
        <time>2021-05-26T17:19:48.000Z</time>
      </trkpt>
      <trkpt lat="45.16294" lon="5.77785">
        <ele>459.9</ele>
        <time>2021-05-26T17:19:49.000Z</time>
      </trkpt>
      <trkpt lat="45.16294" lon="5.77785">
        <ele>460</ele>
        <time>2021-05-26T17:19:50.000Z</time>
      </trkpt>
      <trkpt lat="45.16293" lon="5.77785">
        <ele>460.1</ele>
        <time>2021-05-26T17:19:51.000Z</time>
      </trkpt>
      <trkpt lat="45.16293" lon="5.77785">
        <ele>460.2</ele>
        <time>2021-05-26T17:19:52.000Z</time>
      </trkpt>
      <trkpt lat="45.16292" lon="5.77786">
        <ele>460.3</ele>
        <time>2021-05-26T17:19:53.000Z</time>
      </trkpt>
      <trkpt lat="45.16292" lon="5.77786">
        <ele>460.4</ele>
        <time>2021-05-26T17:19:54.000Z</time>
      </trkpt>
      <trkpt lat="45.16292" lon="5.77786">
        <ele>460.4</ele>
        <time>2021-05-26T17:19:55.000Z</time>
      </trkpt>
      <trkpt lat="45.16285" lon="5.77789">
        <ele>461.7</ele>
        <time>2021-05-26T17:19:56.000Z</time>
      </trkpt>
      <trkpt lat="45.16285" lon="5.77789">
        <ele>461.8</ele>
        <time>2021-05-26T17:19:57.000Z</time>
      </trkpt>
      <trkpt lat="45.16284" lon="5.7779">
        <ele>462</ele>
        <time>2021-05-26T17:19:58.000Z</time>
      </trkpt>
      <trkpt lat="45.16283" lon="5.7779">
        <ele>462.1</ele>
        <time>2021-05-26T17:20:00.000Z</time>
      </trkpt>
      <trkpt lat="45.16282" lon="5.77791">
        <ele>462.3</ele>
        <time>2021-05-26T17:20:01.000Z</time>
      </trkpt>
      <trkpt lat="45.16281" lon="5.77792">
        <ele>462.4</ele>
        <time>2021-05-26T17:20:02.000Z</time>
      </trkpt>
      <trkpt lat="45.16276" lon="5.77796">
        <ele>463.4</ele>
        <time>2021-05-26T17:20:03.000Z</time>
      </trkpt>
      <trkpt lat="45.16276" lon="5.77797">
        <ele>463.5</ele>
        <time>2021-05-26T17:20:04.000Z</time>
      </trkpt>
      <trkpt lat="45.16275" lon="5.77798">
        <ele>463.6</ele>
        <time>2021-05-26T17:20:05.000Z</time>
      </trkpt>
      <trkpt lat="45.16274" lon="5.77799">
        <ele>463.8</ele>
        <time>2021-05-26T17:20:06.000Z</time>
      </trkpt>
      <trkpt lat="45.16274" lon="5.778">
        <ele>463.9</ele>
        <time>2021-05-26T17:20:07.000Z</time>
      </trkpt>
      <trkpt lat="45.16273" lon="5.77801">
        <ele>464</ele>
        <time>2021-05-26T17:20:08.000Z</time>
      </trkpt>
      <trkpt lat="45.16273" lon="5.77801">
        <ele>464.2</ele>
        <time>2021-05-26T17:20:09.000Z</time>
      </trkpt>
      <trkpt lat="45.16269" lon="5.77808">
        <ele>464.4</ele>
        <time>2021-05-26T17:20:10.000Z</time>
      </trkpt>
      <trkpt lat="45.16269" lon="5.77809">
        <ele>464.4</ele>
        <time>2021-05-26T17:20:11.000Z</time>
      </trkpt>
      <trkpt lat="45.16269" lon="5.77809">
        <ele>464.5</ele>
        <time>2021-05-26T17:20:12.000Z</time>
      </trkpt>
      <trkpt lat="45.16268" lon="5.7781">
        <ele>464.5</ele>
        <time>2021-05-26T17:20:13.000Z</time>
      </trkpt>
      <trkpt lat="45.16268" lon="5.77811">
        <ele>464.6</ele>
        <time>2021-05-26T17:20:14.000Z</time>
      </trkpt>
      <trkpt lat="45.16268" lon="5.77811">
        <ele>464.7</ele>
        <time>2021-05-26T17:20:15.000Z</time>
      </trkpt>
      <trkpt lat="45.16268" lon="5.77812">
        <ele>464.7</ele>
        <time>2021-05-26T17:20:16.000Z</time>
      </trkpt>
      <trkpt lat="45.16268" lon="5.77812">
        <ele>464.8</ele>
        <time>2021-05-26T17:20:17.000Z</time>
      </trkpt>
      <trkpt lat="45.16263" lon="5.77823">
        <ele>466</ele>
        <time>2021-05-26T17:20:19.000Z</time>
      </trkpt>
      <trkpt lat="45.16262" lon="5.77825">
        <ele>466.3</ele>
        <time>2021-05-26T17:20:20.000Z</time>
      </trkpt>
      <trkpt lat="45.16262" lon="5.77827">
        <ele>466.5</ele>
        <time>2021-05-26T17:20:21.000Z</time>
      </trkpt>
      <trkpt lat="45.16261" lon="5.77829">
        <ele>466.8</ele>
        <time>2021-05-26T17:20:22.000Z</time>
      </trkpt>
      <trkpt lat="45.1626" lon="5.7783">
        <ele>466.9</ele>
        <time>2021-05-26T17:20:23.000Z</time>
      </trkpt>
      <trkpt lat="45.1626" lon="5.77832">
        <ele>467.1</ele>
        <time>2021-05-26T17:20:24.000Z</time>
      </trkpt>
      <trkpt lat="45.16259" lon="5.77833">
        <ele>467.3</ele>
        <time>2021-05-26T17:20:25.000Z</time>
      </trkpt>
      <trkpt lat="45.16259" lon="5.77835">
        <ele>467.4</ele>
        <time>2021-05-26T17:20:26.000Z</time>
      </trkpt>
      <trkpt lat="45.16258" lon="5.77836">
        <ele>467.6</ele>
        <time>2021-05-26T17:20:27.000Z</time>
      </trkpt>
      <trkpt lat="45.16258" lon="5.77837">
        <ele>467.8</ele>
        <time>2021-05-26T17:20:28.000Z</time>
      </trkpt>
      <trkpt lat="45.16258" lon="5.77838">
        <ele>467.9</ele>
        <time>2021-05-26T17:20:29.000Z</time>
      </trkpt>
      <trkpt lat="45.16257" lon="5.77838">
        <ele>467.9</ele>
        <time>2021-05-26T17:20:30.000Z</time>
      </trkpt>
      <trkpt lat="45.16257" lon="5.77839">
        <ele>468</ele>
        <time>2021-05-26T17:20:31.000Z</time>
      </trkpt>
      <trkpt lat="45.16257" lon="5.77839">
        <ele>468.1</ele>
        <time>2021-05-26T17:20:32.000Z</time>
      </trkpt>
      <trkpt lat="45.16256" lon="5.7784">
        <ele>468.2</ele>
        <time>2021-05-26T17:20:33.000Z</time>
      </trkpt>
      <trkpt lat="45.16256" lon="5.7784">
        <ele>468.2</ele>
        <time>2021-05-26T17:20:34.000Z</time>
      </trkpt>
      <trkpt lat="45.16256" lon="5.77841">
        <ele>468.3</ele>
        <time>2021-05-26T17:20:35.000Z</time>
      </trkpt>
      <trkpt lat="45.16256" lon="5.77841">
        <ele>468.4</ele>
        <time>2021-05-26T17:20:36.000Z</time>
      </trkpt>
      <trkpt lat="45.16251" lon="5.7785">
        <ele>469.8</ele>
        <time>2021-05-26T17:20:38.000Z</time>
      </trkpt>
      <trkpt lat="45.1625" lon="5.7785">
        <ele>469.9</ele>
        <time>2021-05-26T17:20:39.000Z</time>
      </trkpt>
      <trkpt lat="45.1625" lon="5.7785">
        <ele>470</ele>
        <time>2021-05-26T17:20:40.000Z</time>
      </trkpt>
      <trkpt lat="45.1625" lon="5.77851">
        <ele>470.1</ele>
        <time>2021-05-26T17:20:41.000Z</time>
      </trkpt>
      <trkpt lat="45.16249" lon="5.77851">
        <ele>470.2</ele>
        <time>2021-05-26T17:20:42.000Z</time>
      </trkpt>
      <trkpt lat="45.16249" lon="5.77851">
        <ele>470.3</ele>
        <time>2021-05-26T17:20:43.000Z</time>
      </trkpt>
      <trkpt lat="45.16248" lon="5.77852">
        <ele>470.4</ele>
        <time>2021-05-26T17:20:44.000Z</time>
      </trkpt>
      <trkpt lat="45.16248" lon="5.77852">
        <ele>470.5</ele>
        <time>2021-05-26T17:20:45.000Z</time>
      </trkpt>
      <trkpt lat="45.16248" lon="5.77852">
        <ele>470.6</ele>
        <time>2021-05-26T17:20:46.000Z</time>
      </trkpt>
      <trkpt lat="45.16247" lon="5.77853">
        <ele>470.7</ele>
        <time>2021-05-26T17:20:47.000Z</time>
      </trkpt>
      <trkpt lat="45.16247" lon="5.77853">
        <ele>470.7</ele>
        <time>2021-05-26T17:20:48.000Z</time>
      </trkpt>
      <trkpt lat="45.16246" lon="5.77853">
        <ele>470.8</ele>
        <time>2021-05-26T17:20:49.000Z</time>
      </trkpt>
      <trkpt lat="45.16241" lon="5.77856">
        <ele>472</ele>
        <time>2021-05-26T17:20:50.000Z</time>
      </trkpt>
      <trkpt lat="45.16241" lon="5.77855">
        <ele>473.1</ele>
        <time>2021-05-26T17:20:51.000Z</time>
      </trkpt>
      <trkpt lat="45.1624" lon="5.77854">
        <ele>473.2</ele>
        <time>2021-05-26T17:20:52.000Z</time>
      </trkpt>
      <trkpt lat="45.1624" lon="5.77853">
        <ele>473.4</ele>
        <time>2021-05-26T17:20:53.000Z</time>
      </trkpt>
      <trkpt lat="45.16239" lon="5.77852">
        <ele>473.5</ele>
        <time>2021-05-26T17:20:54.000Z</time>
      </trkpt>
      <trkpt lat="45.16239" lon="5.77852">
        <ele>473.6</ele>
        <time>2021-05-26T17:20:56.000Z</time>
      </trkpt>
      <trkpt lat="45.16238" lon="5.77851">
        <ele>473.7</ele>
        <time>2021-05-26T17:20:57.000Z</time>
      </trkpt>
      <trkpt lat="45.16238" lon="5.7785">
        <ele>473.8</ele>
        <time>2021-05-26T17:20:58.000Z</time>
      </trkpt>
      <trkpt lat="45.16233" lon="5.77842">
        <ele>474.9</ele>
        <time>2021-05-26T17:20:59.000Z</time>
      </trkpt>
      <trkpt lat="45.16233" lon="5.77842">
        <ele>475</ele>
        <time>2021-05-26T17:21:00.000Z</time>
      </trkpt>
      <trkpt lat="45.16232" lon="5.77841">
        <ele>475.1</ele>
        <time>2021-05-26T17:21:01.000Z</time>
      </trkpt>
      <trkpt lat="45.16232" lon="5.77841">
        <ele>475.2</ele>
        <time>2021-05-26T17:21:02.000Z</time>
      </trkpt>
      <trkpt lat="45.16231" lon="5.7784">
        <ele>475.3</ele>
        <time>2021-05-26T17:21:03.000Z</time>
      </trkpt>
      <trkpt lat="45.16231" lon="5.77839">
        <ele>475.4</ele>
        <time>2021-05-26T17:21:04.000Z</time>
      </trkpt>
      <trkpt lat="45.1623" lon="5.77839">
        <ele>475.6</ele>
        <time>2021-05-26T17:21:05.000Z</time>
      </trkpt>
      <trkpt lat="45.1623" lon="5.77838">
        <ele>475.7</ele>
        <time>2021-05-26T17:21:06.000Z</time>
      </trkpt>
      <trkpt lat="45.16229" lon="5.77838">
        <ele>475.8</ele>
        <time>2021-05-26T17:21:07.000Z</time>
      </trkpt>
      <trkpt lat="45.16224" lon="5.77832">
        <ele>477</ele>
        <time>2021-05-26T17:21:08.000Z</time>
      </trkpt>
      <trkpt lat="45.16224" lon="5.77831">
        <ele>477.1</ele>
        <time>2021-05-26T17:21:09.000Z</time>
      </trkpt>
      <trkpt lat="45.16224" lon="5.7783">
        <ele>477.2</ele>
        <time>2021-05-26T17:21:10.000Z</time>
      </trkpt>
      <trkpt lat="45.16223" lon="5.7783">
        <ele>477.3</ele>
        <time>2021-05-26T17:21:11.000Z</time>
      </trkpt>
      <trkpt lat="45.16223" lon="5.77829">
        <ele>477.4</ele>
        <time>2021-05-26T17:21:12.000Z</time>
      </trkpt>
      <trkpt lat="45.16223" lon="5.77829">
        <ele>477.6</ele>
        <time>2021-05-26T17:21:13.000Z</time>
      </trkpt>
      <trkpt lat="45.16222" lon="5.77828">
        <ele>477.7</ele>
        <time>2021-05-26T17:21:14.000Z</time>
      </trkpt>
      <trkpt lat="45.16222" lon="5.77827">
        <ele>477.8</ele>
        <time>2021-05-26T17:21:16.000Z</time>
      </trkpt>
      <trkpt lat="45.16221" lon="5.77827">
        <ele>477.9</ele>
        <time>2021-05-26T17:21:17.000Z</time>
      </trkpt>
      <trkpt lat="45.16221" lon="5.77826">
        <ele>478</ele>
        <time>2021-05-26T17:21:18.000Z</time>
      </trkpt>
      <trkpt lat="45.16221" lon="5.77826">
        <ele>478.2</ele>
        <time>2021-05-26T17:21:19.000Z</time>
      </trkpt>
      <trkpt lat="45.16216" lon="5.77818">
        <ele>479.7</ele>
        <time>2021-05-26T17:21:20.000Z</time>
      </trkpt>
      <trkpt lat="45.16216" lon="5.77818">
        <ele>479.8</ele>
        <time>2021-05-26T17:21:21.000Z</time>
      </trkpt>
      <trkpt lat="45.16215" lon="5.77818">
        <ele>479.9</ele>
        <time>2021-05-26T17:21:22.000Z</time>
      </trkpt>
      <trkpt lat="45.16215" lon="5.77817">
        <ele>480</ele>
        <time>2021-05-26T17:21:23.000Z</time>
      </trkpt>
      <trkpt lat="45.16215" lon="5.77817">
        <ele>480.1</ele>
        <time>2021-05-26T17:21:24.000Z</time>
      </trkpt>
      <trkpt lat="45.16214" lon="5.77816">
        <ele>480.2</ele>
        <time>2021-05-26T17:21:25.000Z</time>
      </trkpt>
      <trkpt lat="45.16214" lon="5.77816">
        <ele>480.3</ele>
        <time>2021-05-26T17:21:26.000Z</time>
      </trkpt>
      <trkpt lat="45.16214" lon="5.77815">
        <ele>480.4</ele>
        <time>2021-05-26T17:21:27.000Z</time>
      </trkpt>
      <trkpt lat="45.16213" lon="5.77815">
        <ele>480.5</ele>
        <time>2021-05-26T17:21:28.000Z</time>
      </trkpt>
      <trkpt lat="45.16213" lon="5.77814">
        <ele>480.7</ele>
        <time>2021-05-26T17:21:29.000Z</time>
      </trkpt>
      <trkpt lat="45.16213" lon="5.77814">
        <ele>480.7</ele>
        <time>2021-05-26T17:21:30.000Z</time>
      </trkpt>
      <trkpt lat="45.16212" lon="5.77813">
        <ele>480.9</ele>
        <time>2021-05-26T17:21:31.000Z</time>
      </trkpt>
      <trkpt lat="45.16207" lon="5.77808">
        <ele>482.4</ele>
        <time>2021-05-26T17:21:32.000Z</time>
      </trkpt>
      <trkpt lat="45.16207" lon="5.77807">
        <ele>482.5</ele>
        <time>2021-05-26T17:21:33.000Z</time>
      </trkpt>
      <trkpt lat="45.16207" lon="5.77806">
        <ele>482.7</ele>
        <time>2021-05-26T17:21:35.000Z</time>
      </trkpt>
      <trkpt lat="45.16206" lon="5.77806">
        <ele>482.8</ele>
        <time>2021-05-26T17:21:36.000Z</time>
      </trkpt>
      <trkpt lat="45.16206" lon="5.77805">
        <ele>482.9</ele>
        <time>2021-05-26T17:21:37.000Z</time>
      </trkpt>
      <trkpt lat="45.16205" lon="5.77805">
        <ele>483.1</ele>
        <time>2021-05-26T17:21:38.000Z</time>
      </trkpt>
      <trkpt lat="45.16205" lon="5.77804">
        <ele>483.2</ele>
        <time>2021-05-26T17:21:39.000Z</time>
      </trkpt>
      <trkpt lat="45.16204" lon="5.77804">
        <ele>483.4</ele>
        <time>2021-05-26T17:21:40.000Z</time>
      </trkpt>
      <trkpt lat="45.16204" lon="5.77803">
        <ele>483.5</ele>
        <time>2021-05-26T17:21:41.000Z</time>
      </trkpt>
      <trkpt lat="45.16203" lon="5.77803">
        <ele>483.6</ele>
        <time>2021-05-26T17:21:42.000Z</time>
      </trkpt>
      <trkpt lat="45.16198" lon="5.77797">
        <ele>485.2</ele>
        <time>2021-05-26T17:21:43.000Z</time>
      </trkpt>
      <trkpt lat="45.16198" lon="5.77797">
        <ele>485.3</ele>
        <time>2021-05-26T17:21:44.000Z</time>
      </trkpt>
      <trkpt lat="45.16197" lon="5.77796">
        <ele>485.5</ele>
        <time>2021-05-26T17:21:45.000Z</time>
      </trkpt>
      <trkpt lat="45.16197" lon="5.77796">
        <ele>485.6</ele>
        <time>2021-05-26T17:21:46.000Z</time>
      </trkpt>
      <trkpt lat="45.16196" lon="5.77795">
        <ele>485.8</ele>
        <time>2021-05-26T17:21:47.000Z</time>
      </trkpt>
      <trkpt lat="45.16196" lon="5.77795">
        <ele>485.9</ele>
        <time>2021-05-26T17:21:48.000Z</time>
      </trkpt>
      <trkpt lat="45.16195" lon="5.77794">
        <ele>486</ele>
        <time>2021-05-26T17:21:49.000Z</time>
      </trkpt>
      <trkpt lat="45.16195" lon="5.77794">
        <ele>486.2</ele>
        <time>2021-05-26T17:21:50.000Z</time>
      </trkpt>
      <trkpt lat="45.16194" lon="5.77793">
        <ele>486.3</ele>
        <time>2021-05-26T17:21:51.000Z</time>
      </trkpt>
      <trkpt lat="45.1619" lon="5.77788">
        <ele>487.7</ele>
        <time>2021-05-26T17:21:52.000Z</time>
      </trkpt>
      <trkpt lat="45.16189" lon="5.77787">
        <ele>487.8</ele>
        <time>2021-05-26T17:21:54.000Z</time>
      </trkpt>
      <trkpt lat="45.16189" lon="5.77787">
        <ele>488</ele>
        <time>2021-05-26T17:21:55.000Z</time>
      </trkpt>
      <trkpt lat="45.16188" lon="5.77786">
        <ele>488.1</ele>
        <time>2021-05-26T17:21:56.000Z</time>
      </trkpt>
      <trkpt lat="45.16188" lon="5.77786">
        <ele>488.3</ele>
        <time>2021-05-26T17:21:57.000Z</time>
      </trkpt>
      <trkpt lat="45.16187" lon="5.77785">
        <ele>488.4</ele>
        <time>2021-05-26T17:21:58.000Z</time>
      </trkpt>
      <trkpt lat="45.16187" lon="5.77784">
        <ele>488.5</ele>
        <time>2021-05-26T17:21:59.000Z</time>
      </trkpt>
      <trkpt lat="45.16186" lon="5.77784">
        <ele>488.6</ele>
        <time>2021-05-26T17:22:00.000Z</time>
      </trkpt>
      <trkpt lat="45.16186" lon="5.77783">
        <ele>488.8</ele>
        <time>2021-05-26T17:22:01.000Z</time>
      </trkpt>
      <trkpt lat="45.16182" lon="5.77778">
        <ele>489.9</ele>
        <time>2021-05-26T17:22:02.000Z</time>
      </trkpt>
      <trkpt lat="45.16182" lon="5.77778">
        <ele>489.9</ele>
        <time>2021-05-26T17:22:03.000Z</time>
      </trkpt>
      <trkpt lat="45.16182" lon="5.77778">
        <ele>489.9</ele>
        <time>2021-05-26T17:22:04.000Z</time>
      </trkpt>
      <trkpt lat="45.16182" lon="5.77778">
        <ele>489.9</ele>
        <time>2021-05-26T17:22:05.000Z</time>
      </trkpt>
      <trkpt lat="45.16182" lon="5.77778">
        <ele>489.9</ele>
        <time>2021-05-26T17:22:06.000Z</time>
      </trkpt>
      <trkpt lat="45.16182" lon="5.77778">
        <ele>489.9</ele>
        <time>2021-05-26T17:22:07.000Z</time>
      </trkpt>
      <trkpt lat="45.16182" lon="5.77778">
        <ele>489.9</ele>
        <time>2021-05-26T17:22:08.000Z</time>
      </trkpt>
      <trkpt lat="45.16182" lon="5.77778">
        <ele>489.9</ele>
        <time>2021-05-26T17:22:09.000Z</time>
      </trkpt>
      <trkpt lat="45.16182" lon="5.77778">
        <ele>489.9</ele>
        <time>2021-05-26T17:22:10.000Z</time>
      </trkpt>
      <trkpt lat="45.16182" lon="5.77778">
        <ele>489.9</ele>
        <time>2021-05-26T17:22:11.000Z</time>
      </trkpt>
      <trkpt lat="45.16182" lon="5.77778">
        <ele>489.9</ele>
        <time>2021-05-26T17:22:13.000Z</time>
      </trkpt>
      <trkpt lat="45.16174" lon="5.77767">
        <ele>491.8</ele>
        <time>2021-05-26T17:22:15.000Z</time>
      </trkpt>
      <trkpt lat="45.16174" lon="5.77766">
        <ele>492</ele>
        <time>2021-05-26T17:22:16.000Z</time>
      </trkpt>
      <trkpt lat="45.16173" lon="5.77765">
        <ele>492.1</ele>
        <time>2021-05-26T17:22:17.000Z</time>
      </trkpt>
      <trkpt lat="45.16173" lon="5.77764">
        <ele>492.3</ele>
        <time>2021-05-26T17:22:19.000Z</time>
      </trkpt>
      <trkpt lat="45.16172" lon="5.77763">
        <ele>492.4</ele>
        <time>2021-05-26T17:22:20.000Z</time>
      </trkpt>
      <trkpt lat="45.16172" lon="5.77762">
        <ele>492.6</ele>
        <time>2021-05-26T17:22:21.000Z</time>
      </trkpt>
      <trkpt lat="45.16171" lon="5.77761">
        <ele>492.7</ele>
        <time>2021-05-26T17:22:22.000Z</time>
      </trkpt>
      <trkpt lat="45.1617" lon="5.7776">
        <ele>492.8</ele>
        <time>2021-05-26T17:22:23.000Z</time>
      </trkpt>
      <trkpt lat="45.1617" lon="5.77759">
        <ele>493</ele>
        <time>2021-05-26T17:22:24.000Z</time>
      </trkpt>
      <trkpt lat="45.16169" lon="5.77758">
        <ele>493.1</ele>
        <time>2021-05-26T17:22:25.000Z</time>
      </trkpt>
      <trkpt lat="45.16169" lon="5.77757">
        <ele>493.3</ele>
        <time>2021-05-26T17:22:26.000Z</time>
      </trkpt>
      <trkpt lat="45.16168" lon="5.77756">
        <ele>493.4</ele>
        <time>2021-05-26T17:22:27.000Z</time>
      </trkpt>
      <trkpt lat="45.16168" lon="5.77755">
        <ele>493.5</ele>
        <time>2021-05-26T17:22:28.000Z</time>
      </trkpt>
      <trkpt lat="45.16167" lon="5.77754">
        <ele>493.7</ele>
        <time>2021-05-26T17:22:29.000Z</time>
      </trkpt>
      <trkpt lat="45.16166" lon="5.77752">
        <ele>493.9</ele>
        <time>2021-05-26T17:22:30.000Z</time>
      </trkpt>
      <trkpt lat="45.16165" lon="5.77751">
        <ele>494.1</ele>
        <time>2021-05-26T17:22:32.000Z</time>
      </trkpt>
      <trkpt lat="45.16164" lon="5.7775">
        <ele>494.3</ele>
        <time>2021-05-26T17:22:33.000Z</time>
      </trkpt>
      <trkpt lat="45.16164" lon="5.77748">
        <ele>494.4</ele>
        <time>2021-05-26T17:22:34.000Z</time>
      </trkpt>
      <trkpt lat="45.16159" lon="5.77741">
        <ele>495.4</ele>
        <time>2021-05-26T17:22:35.000Z</time>
      </trkpt>
      <trkpt lat="45.16158" lon="5.77739">
        <ele>495.6</ele>
        <time>2021-05-26T17:22:36.000Z</time>
      </trkpt>
      <trkpt lat="45.16158" lon="5.77738">
        <ele>495.7</ele>
        <time>2021-05-26T17:22:37.000Z</time>
      </trkpt>
      <trkpt lat="45.16157" lon="5.77737">
        <ele>495.9</ele>
        <time>2021-05-26T17:22:38.000Z</time>
      </trkpt>
      <trkpt lat="45.16156" lon="5.77736">
        <ele>496</ele>
        <time>2021-05-26T17:22:39.000Z</time>
      </trkpt>
      <trkpt lat="45.16156" lon="5.77734">
        <ele>496.1</ele>
        <time>2021-05-26T17:22:40.000Z</time>
      </trkpt>
      <trkpt lat="45.16152" lon="5.77727">
        <ele>496.8</ele>
        <time>2021-05-26T17:22:41.000Z</time>
      </trkpt>
      <trkpt lat="45.16152" lon="5.77727">
        <ele>496.8</ele>
        <time>2021-05-26T17:22:42.000Z</time>
      </trkpt>
      <trkpt lat="45.16145" lon="5.77712">
        <ele>497.7</ele>
        <time>2021-05-26T17:22:44.000Z</time>
      </trkpt>
      <trkpt lat="45.16144" lon="5.7771">
        <ele>497.8</ele>
        <time>2021-05-26T17:22:45.000Z</time>
      </trkpt>
      <trkpt lat="45.16143" lon="5.77708">
        <ele>497.8</ele>
        <time>2021-05-26T17:22:46.000Z</time>
      </trkpt>
      <trkpt lat="45.16142" lon="5.77706">
        <ele>497.9</ele>
        <time>2021-05-26T17:22:47.000Z</time>
      </trkpt>
      <trkpt lat="45.16142" lon="5.77704">
        <ele>497.9</ele>
        <time>2021-05-26T17:22:48.000Z</time>
      </trkpt>
      <trkpt lat="45.16141" lon="5.77702">
        <ele>497.9</ele>
        <time>2021-05-26T17:22:49.000Z</time>
      </trkpt>
      <trkpt lat="45.1614" lon="5.77701">
        <ele>498</ele>
        <time>2021-05-26T17:22:50.000Z</time>
      </trkpt>
      <trkpt lat="45.16139" lon="5.77699">
        <ele>498</ele>
        <time>2021-05-26T17:22:51.000Z</time>
      </trkpt>
      <trkpt lat="45.16138" lon="5.77697">
        <ele>498</ele>
        <time>2021-05-26T17:22:52.000Z</time>
      </trkpt>
      <trkpt lat="45.16137" lon="5.77695">
        <ele>498</ele>
        <time>2021-05-26T17:22:53.000Z</time>
      </trkpt>
      <trkpt lat="45.16136" lon="5.77693">
        <ele>498</ele>
        <time>2021-05-26T17:22:54.000Z</time>
      </trkpt>
      <trkpt lat="45.16135" lon="5.77692">
        <ele>498</ele>
        <time>2021-05-26T17:22:55.000Z</time>
      </trkpt>
      <trkpt lat="45.16132" lon="5.77684">
        <ele>497.9</ele>
        <time>2021-05-26T17:22:56.000Z</time>
      </trkpt>
      <trkpt lat="45.16132" lon="5.77684">
        <ele>497.9</ele>
        <time>2021-05-26T17:22:57.000Z</time>
      </trkpt>
      <trkpt lat="45.16132" lon="5.77684">
        <ele>497.9</ele>
        <time>2021-05-26T17:22:58.000Z</time>
      </trkpt>
      <trkpt lat="45.16126" lon="5.77669">
        <ele>497.7</ele>
        <time>2021-05-26T17:23:00.000Z</time>
      </trkpt>
      <trkpt lat="45.16126" lon="5.77668">
        <ele>497.7</ele>
        <time>2021-05-26T17:23:01.000Z</time>
      </trkpt>
      <trkpt lat="45.16125" lon="5.77667">
        <ele>497.7</ele>
        <time>2021-05-26T17:23:02.000Z</time>
      </trkpt>
      <trkpt lat="45.16125" lon="5.77666">
        <ele>497.7</ele>
        <time>2021-05-26T17:23:03.000Z</time>
      </trkpt>
      <trkpt lat="45.16124" lon="5.77665">
        <ele>497.7</ele>
        <time>2021-05-26T17:23:04.000Z</time>
      </trkpt>
      <trkpt lat="45.16124" lon="5.77663">
        <ele>497.7</ele>
        <time>2021-05-26T17:23:05.000Z</time>
      </trkpt>
      <trkpt lat="45.16123" lon="5.77662">
        <ele>497.7</ele>
        <time>2021-05-26T17:23:06.000Z</time>
      </trkpt>
      <trkpt lat="45.16119" lon="5.77654">
        <ele>497.7</ele>
        <time>2021-05-26T17:23:07.000Z</time>
      </trkpt>
      <trkpt lat="45.16118" lon="5.77653">
        <ele>497.7</ele>
        <time>2021-05-26T17:23:08.000Z</time>
      </trkpt>
      <trkpt lat="45.16117" lon="5.77652">
        <ele>497.7</ele>
        <time>2021-05-26T17:23:10.000Z</time>
      </trkpt>
      <trkpt lat="45.16116" lon="5.7765">
        <ele>497.7</ele>
        <time>2021-05-26T17:23:11.000Z</time>
      </trkpt>
      <trkpt lat="45.16116" lon="5.77649">
        <ele>497.7</ele>
        <time>2021-05-26T17:23:12.000Z</time>
      </trkpt>
      <trkpt lat="45.16111" lon="5.77642">
        <ele>497.8</ele>
        <time>2021-05-26T17:23:13.000Z</time>
      </trkpt>
      <trkpt lat="45.1611" lon="5.77641">
        <ele>497.8</ele>
        <time>2021-05-26T17:23:14.000Z</time>
      </trkpt>
      <trkpt lat="45.1611" lon="5.77641">
        <ele>497.8</ele>
        <time>2021-05-26T17:23:15.000Z</time>
      </trkpt>
      <trkpt lat="45.16109" lon="5.7764">
        <ele>497.8</ele>
        <time>2021-05-26T17:23:16.000Z</time>
      </trkpt>
      <trkpt lat="45.16108" lon="5.77639">
        <ele>497.8</ele>
        <time>2021-05-26T17:23:17.000Z</time>
      </trkpt>
      <trkpt lat="45.16108" lon="5.77639">
        <ele>497.9</ele>
        <time>2021-05-26T17:23:18.000Z</time>
      </trkpt>
      <trkpt lat="45.16107" lon="5.77638">
        <ele>497.9</ele>
        <time>2021-05-26T17:23:19.000Z</time>
      </trkpt>
      <trkpt lat="45.16101" lon="5.77633">
        <ele>498.1</ele>
        <time>2021-05-26T17:23:20.000Z</time>
      </trkpt>
      <trkpt lat="45.161" lon="5.77632">
        <ele>498.1</ele>
        <time>2021-05-26T17:23:21.000Z</time>
      </trkpt>
      <trkpt lat="45.16099" lon="5.77632">
        <ele>498.1</ele>
        <time>2021-05-26T17:23:22.000Z</time>
      </trkpt>
      <trkpt lat="45.16099" lon="5.77631">
        <ele>498.2</ele>
        <time>2021-05-26T17:23:23.000Z</time>
      </trkpt>
      <trkpt lat="45.16098" lon="5.7763">
        <ele>498.2</ele>
        <time>2021-05-26T17:23:24.000Z</time>
      </trkpt>
      <trkpt lat="45.16097" lon="5.7763">
        <ele>498.2</ele>
        <time>2021-05-26T17:23:25.000Z</time>
      </trkpt>
      <trkpt lat="45.1609" lon="5.77624">
        <ele>498.6</ele>
        <time>2021-05-26T17:23:26.000Z</time>
      </trkpt>
      <trkpt lat="45.16089" lon="5.77623">
        <ele>498.7</ele>
        <time>2021-05-26T17:23:27.000Z</time>
      </trkpt>
      <trkpt lat="45.16088" lon="5.77622">
        <ele>498.8</ele>
        <time>2021-05-26T17:23:29.000Z</time>
      </trkpt>
      <trkpt lat="45.16086" lon="5.7762">
        <ele>498.9</ele>
        <time>2021-05-26T17:23:30.000Z</time>
      </trkpt>
      <trkpt lat="45.16079" lon="5.77615">
        <ele>499.5</ele>
        <time>2021-05-26T17:23:31.000Z</time>
      </trkpt>
      <trkpt lat="45.16078" lon="5.77614">
        <ele>499.6</ele>
        <time>2021-05-26T17:23:32.000Z</time>
      </trkpt>
      <trkpt lat="45.16077" lon="5.77614">
        <ele>499.7</ele>
        <time>2021-05-26T17:23:33.000Z</time>
      </trkpt>
      <trkpt lat="45.16076" lon="5.77613">
        <ele>499.8</ele>
        <time>2021-05-26T17:23:34.000Z</time>
      </trkpt>
      <trkpt lat="45.16075" lon="5.77613">
        <ele>499.9</ele>
        <time>2021-05-26T17:23:35.000Z</time>
      </trkpt>
      <trkpt lat="45.16068" lon="5.77611">
        <ele>500.5</ele>
        <time>2021-05-26T17:23:36.000Z</time>
      </trkpt>
      <trkpt lat="45.16067" lon="5.77611">
        <ele>500.6</ele>
        <time>2021-05-26T17:23:37.000Z</time>
      </trkpt>
      <trkpt lat="45.16066" lon="5.77611">
        <ele>500.7</ele>
        <time>2021-05-26T17:23:38.000Z</time>
      </trkpt>
      <trkpt lat="45.16065" lon="5.77611">
        <ele>500.8</ele>
        <time>2021-05-26T17:23:39.000Z</time>
      </trkpt>
      <trkpt lat="45.16064" lon="5.77611">
        <ele>500.9</ele>
        <time>2021-05-26T17:23:40.000Z</time>
      </trkpt>
      <trkpt lat="45.16063" lon="5.77611">
        <ele>501</ele>
        <time>2021-05-26T17:23:41.000Z</time>
      </trkpt>
      <trkpt lat="45.16056" lon="5.77611">
        <ele>501.7</ele>
        <time>2021-05-26T17:23:42.000Z</time>
      </trkpt>
      <trkpt lat="45.16054" lon="5.77611">
        <ele>501.8</ele>
        <time>2021-05-26T17:23:43.000Z</time>
      </trkpt>
      <trkpt lat="45.16053" lon="5.77612">
        <ele>502</ele>
        <time>2021-05-26T17:23:44.000Z</time>
      </trkpt>
      <trkpt lat="45.16051" lon="5.77612">
        <ele>502.1</ele>
        <time>2021-05-26T17:23:45.000Z</time>
      </trkpt>
      <trkpt lat="45.1605" lon="5.77613">
        <ele>502.3</ele>
        <time>2021-05-26T17:23:46.000Z</time>
      </trkpt>
      <trkpt lat="45.16048" lon="5.77613">
        <ele>502.4</ele>
        <time>2021-05-26T17:23:47.000Z</time>
      </trkpt>
      <trkpt lat="45.16047" lon="5.77614">
        <ele>502.6</ele>
        <time>2021-05-26T17:23:48.000Z</time>
      </trkpt>
      <trkpt lat="45.16046" lon="5.77613">
        <ele>502.7</ele>
        <time>2021-05-26T17:23:49.000Z</time>
      </trkpt>
      <trkpt lat="45.16045" lon="5.77613">
        <ele>502.8</ele>
        <time>2021-05-26T17:23:50.000Z</time>
      </trkpt>
      <trkpt lat="45.16044" lon="5.77613">
        <ele>502.8</ele>
        <time>2021-05-26T17:23:51.000Z</time>
      </trkpt>
      <trkpt lat="45.16043" lon="5.77613">
        <ele>502.9</ele>
        <time>2021-05-26T17:23:52.000Z</time>
      </trkpt>
      <trkpt lat="45.16042" lon="5.77613">
        <ele>503</ele>
        <time>2021-05-26T17:23:53.000Z</time>
      </trkpt>
      <trkpt lat="45.16041" lon="5.77613">
        <ele>503.1</ele>
        <time>2021-05-26T17:23:54.000Z</time>
      </trkpt>
      <trkpt lat="45.16034" lon="5.77612">
        <ele>503.7</ele>
        <time>2021-05-26T17:23:55.000Z</time>
      </trkpt>
      <trkpt lat="45.16033" lon="5.77611">
        <ele>503.8</ele>
        <time>2021-05-26T17:23:56.000Z</time>
      </trkpt>
      <trkpt lat="45.16033" lon="5.77611">
        <ele>503.9</ele>
        <time>2021-05-26T17:23:57.000Z</time>
      </trkpt>
      <trkpt lat="45.16032" lon="5.77611">
        <ele>504</ele>
        <time>2021-05-26T17:23:58.000Z</time>
      </trkpt>
      <trkpt lat="45.16031" lon="5.77611">
        <ele>504.1</ele>
        <time>2021-05-26T17:23:59.000Z</time>
      </trkpt>
      <trkpt lat="45.1603" lon="5.77611">
        <ele>504.2</ele>
        <time>2021-05-26T17:24:00.000Z</time>
      </trkpt>
      <trkpt lat="45.16022" lon="5.77609">
        <ele>504.9</ele>
        <time>2021-05-26T17:24:01.000Z</time>
      </trkpt>
      <trkpt lat="45.16021" lon="5.77609">
        <ele>505.1</ele>
        <time>2021-05-26T17:24:02.000Z</time>
      </trkpt>
      <trkpt lat="45.16019" lon="5.77608">
        <ele>505.3</ele>
        <time>2021-05-26T17:24:03.000Z</time>
      </trkpt>
      <trkpt lat="45.16018" lon="5.77607">
        <ele>505.5</ele>
        <time>2021-05-26T17:24:04.000Z</time>
      </trkpt>
      <trkpt lat="45.16016" lon="5.77607">
        <ele>505.6</ele>
        <time>2021-05-26T17:24:05.000Z</time>
      </trkpt>
      <trkpt lat="45.16015" lon="5.77606">
        <ele>505.8</ele>
        <time>2021-05-26T17:24:06.000Z</time>
      </trkpt>
      <trkpt lat="45.16013" lon="5.77605">
        <ele>506</ele>
        <time>2021-05-26T17:24:07.000Z</time>
      </trkpt>
      <trkpt lat="45.16012" lon="5.77605">
        <ele>506.1</ele>
        <time>2021-05-26T17:24:08.000Z</time>
      </trkpt>
      <trkpt lat="45.16011" lon="5.77604">
        <ele>506.3</ele>
        <time>2021-05-26T17:24:09.000Z</time>
      </trkpt>
      <trkpt lat="45.1601" lon="5.77604">
        <ele>506.4</ele>
        <time>2021-05-26T17:24:10.000Z</time>
      </trkpt>
      <trkpt lat="45.16009" lon="5.77603">
        <ele>506.5</ele>
        <time>2021-05-26T17:24:11.000Z</time>
      </trkpt>
      <trkpt lat="45.16008" lon="5.77603">
        <ele>506.6</ele>
        <time>2021-05-26T17:24:12.000Z</time>
      </trkpt>
      <trkpt lat="45.16002" lon="5.77599">
        <ele>507.4</ele>
        <time>2021-05-26T17:24:13.000Z</time>
      </trkpt>
      <trkpt lat="45.16001" lon="5.77599">
        <ele>507.5</ele>
        <time>2021-05-26T17:24:14.000Z</time>
      </trkpt>
      <trkpt lat="45.16" lon="5.77598">
        <ele>507.7</ele>
        <time>2021-05-26T17:24:15.000Z</time>
      </trkpt>
      <trkpt lat="45.15999" lon="5.77597">
        <ele>507.8</ele>
        <time>2021-05-26T17:24:16.000Z</time>
      </trkpt>
      <trkpt lat="45.15999" lon="5.77597">
        <ele>507.9</ele>
        <time>2021-05-26T17:24:17.000Z</time>
      </trkpt>
      <trkpt lat="45.15998" lon="5.77596">
        <ele>508</ele>
        <time>2021-05-26T17:24:18.000Z</time>
      </trkpt>
      <trkpt lat="45.15991" lon="5.77591">
        <ele>509</ele>
        <time>2021-05-26T17:24:19.000Z</time>
      </trkpt>
      <trkpt lat="45.1599" lon="5.77591">
        <ele>509.2</ele>
        <time>2021-05-26T17:24:20.000Z</time>
      </trkpt>
      <trkpt lat="45.15988" lon="5.7759">
        <ele>509.3</ele>
        <time>2021-05-26T17:24:21.000Z</time>
      </trkpt>
      <trkpt lat="45.15987" lon="5.77589">
        <ele>509.5</ele>
        <time>2021-05-26T17:24:22.000Z</time>
      </trkpt>
      <trkpt lat="45.15986" lon="5.77588">
        <ele>509.7</ele>
        <time>2021-05-26T17:24:23.000Z</time>
      </trkpt>
      <trkpt lat="45.15984" lon="5.77588">
        <ele>509.9</ele>
        <time>2021-05-26T17:24:24.000Z</time>
      </trkpt>
      <trkpt lat="45.15983" lon="5.77587">
        <ele>510.1</ele>
        <time>2021-05-26T17:24:25.000Z</time>
      </trkpt>
      <trkpt lat="45.15982" lon="5.77586">
        <ele>510.3</ele>
        <time>2021-05-26T17:24:26.000Z</time>
      </trkpt>
      <trkpt lat="45.15981" lon="5.77585">
        <ele>510.4</ele>
        <time>2021-05-26T17:24:27.000Z</time>
      </trkpt>
      <trkpt lat="45.1598" lon="5.77585">
        <ele>510.6</ele>
        <time>2021-05-26T17:24:28.000Z</time>
      </trkpt>
      <trkpt lat="45.15979" lon="5.77584">
        <ele>510.7</ele>
        <time>2021-05-26T17:24:29.000Z</time>
      </trkpt>
      <trkpt lat="45.15978" lon="5.77583">
        <ele>510.8</ele>
        <time>2021-05-26T17:24:30.000Z</time>
      </trkpt>
      <trkpt lat="45.15977" lon="5.77582">
        <ele>511</ele>
        <time>2021-05-26T17:24:31.000Z</time>
      </trkpt>
      <trkpt lat="45.15977" lon="5.77582">
        <ele>511.1</ele>
        <time>2021-05-26T17:24:32.000Z</time>
      </trkpt>
      <trkpt lat="45.15971" lon="5.77577">
        <ele>512</ele>
        <time>2021-05-26T17:24:33.000Z</time>
      </trkpt>
      <trkpt lat="45.1597" lon="5.77577">
        <ele>512.1</ele>
        <time>2021-05-26T17:24:34.000Z</time>
      </trkpt>
      <trkpt lat="45.1597" lon="5.77577">
        <ele>512.2</ele>
        <time>2021-05-26T17:24:35.000Z</time>
      </trkpt>
      <trkpt lat="45.15969" lon="5.77577">
        <ele>512.3</ele>
        <time>2021-05-26T17:24:36.000Z</time>
      </trkpt>
      <trkpt lat="45.15969" lon="5.77577">
        <ele>512.3</ele>
        <time>2021-05-26T17:24:37.000Z</time>
      </trkpt>
      <trkpt lat="45.15969" lon="5.77577">
        <ele>512.4</ele>
        <time>2021-05-26T17:24:38.000Z</time>
      </trkpt>
      <trkpt lat="45.15968" lon="5.77576">
        <ele>512.5</ele>
        <time>2021-05-26T17:24:39.000Z</time>
      </trkpt>
      <trkpt lat="45.15968" lon="5.77576">
        <ele>512.6</ele>
        <time>2021-05-26T17:24:40.000Z</time>
      </trkpt>
      <trkpt lat="45.15967" lon="5.77576">
        <ele>512.6</ele>
        <time>2021-05-26T17:24:42.000Z</time>
      </trkpt>
      <trkpt lat="45.15967" lon="5.77576">
        <ele>512.7</ele>
        <time>2021-05-26T17:24:43.000Z</time>
      </trkpt>
      <trkpt lat="45.15966" lon="5.77576">
        <ele>512.8</ele>
        <time>2021-05-26T17:24:45.000Z</time>
      </trkpt>
      <trkpt lat="45.15966" lon="5.77576">
        <ele>512.9</ele>
        <time>2021-05-26T17:24:46.000Z</time>
      </trkpt>
      <trkpt lat="45.15959" lon="5.77575">
        <ele>514.6</ele>
        <time>2021-05-26T17:24:47.000Z</time>
      </trkpt>
      <trkpt lat="45.15959" lon="5.77575">
        <ele>514.7</ele>
        <time>2021-05-26T17:24:48.000Z</time>
      </trkpt>
      <trkpt lat="45.15958" lon="5.77575">
        <ele>514.8</ele>
        <time>2021-05-26T17:24:49.000Z</time>
      </trkpt>
      <trkpt lat="45.15958" lon="5.77575">
        <ele>514.9</ele>
        <time>2021-05-26T17:24:50.000Z</time>
      </trkpt>
      <trkpt lat="45.15957" lon="5.77574">
        <ele>515</ele>
        <time>2021-05-26T17:24:51.000Z</time>
      </trkpt>
      <trkpt lat="45.15957" lon="5.77574">
        <ele>515.1</ele>
        <time>2021-05-26T17:24:52.000Z</time>
      </trkpt>
      <trkpt lat="45.15956" lon="5.77574">
        <ele>515.2</ele>
        <time>2021-05-26T17:24:53.000Z</time>
      </trkpt>
      <trkpt lat="45.15956" lon="5.77574">
        <ele>515.4</ele>
        <time>2021-05-26T17:24:54.000Z</time>
      </trkpt>
      <trkpt lat="45.15955" lon="5.77574">
        <ele>515.5</ele>
        <time>2021-05-26T17:24:55.000Z</time>
      </trkpt>
      <trkpt lat="45.15955" lon="5.77574">
        <ele>515.6</ele>
        <time>2021-05-26T17:24:56.000Z</time>
      </trkpt>
      <trkpt lat="45.15954" lon="5.77574">
        <ele>515.7</ele>
        <time>2021-05-26T17:24:57.000Z</time>
      </trkpt>
      <trkpt lat="45.15954" lon="5.77574">
        <ele>515.8</ele>
        <time>2021-05-26T17:24:58.000Z</time>
      </trkpt>
      <trkpt lat="45.15948" lon="5.77572">
        <ele>517.2</ele>
        <time>2021-05-26T17:24:59.000Z</time>
      </trkpt>
      <trkpt lat="45.15947" lon="5.77572">
        <ele>517.2</ele>
        <time>2021-05-26T17:25:00.000Z</time>
      </trkpt>
      <trkpt lat="45.15947" lon="5.77572">
        <ele>517.3</ele>
        <time>2021-05-26T17:25:01.000Z</time>
      </trkpt>
      <trkpt lat="45.15947" lon="5.77572">
        <ele>517.4</ele>
        <time>2021-05-26T17:25:02.000Z</time>
      </trkpt>
      <trkpt lat="45.15946" lon="5.77571">
        <ele>517.5</ele>
        <time>2021-05-26T17:25:04.000Z</time>
      </trkpt>
      <trkpt lat="45.15946" lon="5.77571">
        <ele>517.6</ele>
        <time>2021-05-26T17:25:05.000Z</time>
      </trkpt>
      <trkpt lat="45.15946" lon="5.77571">
        <ele>517.6</ele>
        <time>2021-05-26T17:25:06.000Z</time>
      </trkpt>
      <trkpt lat="45.15945" lon="5.77571">
        <ele>517.7</ele>
        <time>2021-05-26T17:25:07.000Z</time>
      </trkpt>
      <trkpt lat="45.15945" lon="5.77571">
        <ele>517.8</ele>
        <time>2021-05-26T17:25:08.000Z</time>
      </trkpt>
      <trkpt lat="45.15945" lon="5.77571">
        <ele>517.9</ele>
        <time>2021-05-26T17:25:09.000Z</time>
      </trkpt>
      <trkpt lat="45.15936" lon="5.77569">
        <ele>519.7</ele>
        <time>2021-05-26T17:25:11.000Z</time>
      </trkpt>
      <trkpt lat="45.15935" lon="5.77569">
        <ele>519.9</ele>
        <time>2021-05-26T17:25:12.000Z</time>
      </trkpt>
      <trkpt lat="45.15934" lon="5.77569">
        <ele>520.1</ele>
        <time>2021-05-26T17:25:13.000Z</time>
      </trkpt>
      <trkpt lat="45.15933" lon="5.77568">
        <ele>520.3</ele>
        <time>2021-05-26T17:25:14.000Z</time>
      </trkpt>
      <trkpt lat="45.15932" lon="5.77568">
        <ele>520.5</ele>
        <time>2021-05-26T17:25:16.000Z</time>
      </trkpt>
      <trkpt lat="45.15932" lon="5.77568">
        <ele>520.7</ele>
        <time>2021-05-26T17:25:17.000Z</time>
      </trkpt>
      <trkpt lat="45.15931" lon="5.77568">
        <ele>520.9</ele>
        <time>2021-05-26T17:25:18.000Z</time>
      </trkpt>
      <trkpt lat="45.1593" lon="5.77568">
        <ele>521.1</ele>
        <time>2021-05-26T17:25:19.000Z</time>
      </trkpt>
      <trkpt lat="45.15929" lon="5.77567">
        <ele>521.3</ele>
        <time>2021-05-26T17:25:20.000Z</time>
      </trkpt>
      <trkpt lat="45.15928" lon="5.77567">
        <ele>521.5</ele>
        <time>2021-05-26T17:25:21.000Z</time>
      </trkpt>
      <trkpt lat="45.15927" lon="5.77567">
        <ele>521.7</ele>
        <time>2021-05-26T17:25:22.000Z</time>
      </trkpt>
      <trkpt lat="45.15926" lon="5.77567">
        <ele>521.9</ele>
        <time>2021-05-26T17:25:23.000Z</time>
      </trkpt>
      <trkpt lat="45.15925" lon="5.77567">
        <ele>522</ele>
        <time>2021-05-26T17:25:24.000Z</time>
      </trkpt>
      <trkpt lat="45.15924" lon="5.77566">
        <ele>522.1</ele>
        <time>2021-05-26T17:25:25.000Z</time>
      </trkpt>
      <trkpt lat="45.15924" lon="5.77566">
        <ele>522.3</ele>
        <time>2021-05-26T17:25:26.000Z</time>
      </trkpt>
      <trkpt lat="45.15923" lon="5.77566">
        <ele>522.4</ele>
        <time>2021-05-26T17:25:27.000Z</time>
      </trkpt>
      <trkpt lat="45.15922" lon="5.77566">
        <ele>522.5</ele>
        <time>2021-05-26T17:25:28.000Z</time>
      </trkpt>
      <trkpt lat="45.15922" lon="5.77566">
        <ele>522.7</ele>
        <time>2021-05-26T17:25:29.000Z</time>
      </trkpt>
      <trkpt lat="45.15921" lon="5.77565">
        <ele>522.8</ele>
        <time>2021-05-26T17:25:30.000Z</time>
      </trkpt>
      <trkpt lat="45.1592" lon="5.77565">
        <ele>522.9</ele>
        <time>2021-05-26T17:25:31.000Z</time>
      </trkpt>
      <trkpt lat="45.15914" lon="5.77564">
        <ele>524</ele>
        <time>2021-05-26T17:25:32.000Z</time>
      </trkpt>
      <trkpt lat="45.15914" lon="5.77563">
        <ele>524.1</ele>
        <time>2021-05-26T17:25:33.000Z</time>
      </trkpt>
      <trkpt lat="45.15913" lon="5.77563">
        <ele>524.2</ele>
        <time>2021-05-26T17:25:34.000Z</time>
      </trkpt>
      <trkpt lat="45.15913" lon="5.77563">
        <ele>524.3</ele>
        <time>2021-05-26T17:25:35.000Z</time>
      </trkpt>
      <trkpt lat="45.15912" lon="5.77563">
        <ele>524.4</ele>
        <time>2021-05-26T17:25:36.000Z</time>
      </trkpt>
      <trkpt lat="45.15912" lon="5.77563">
        <ele>524.4</ele>
        <time>2021-05-26T17:25:37.000Z</time>
      </trkpt>
      <trkpt lat="45.15911" lon="5.77563">
        <ele>524.4</ele>
        <time>2021-05-26T17:25:38.000Z</time>
      </trkpt>
      <trkpt lat="45.15911" lon="5.77563">
        <ele>524.4</ele>
        <time>2021-05-26T17:25:39.000Z</time>
      </trkpt>
      <trkpt lat="45.1591" lon="5.77563">
        <ele>524.4</ele>
        <time>2021-05-26T17:25:41.000Z</time>
      </trkpt>
      <trkpt lat="45.1591" lon="5.77563">
        <ele>524.4</ele>
        <time>2021-05-26T17:25:42.000Z</time>
      </trkpt>
      <trkpt lat="45.15909" lon="5.77563">
        <ele>524.4</ele>
        <time>2021-05-26T17:25:43.000Z</time>
      </trkpt>
      <trkpt lat="45.15909" lon="5.77563">
        <ele>524.4</ele>
        <time>2021-05-26T17:25:44.000Z</time>
      </trkpt>
      <trkpt lat="45.15903" lon="5.77563">
        <ele>524.9</ele>
        <time>2021-05-26T17:25:45.000Z</time>
      </trkpt>
      <trkpt lat="45.15902" lon="5.77562">
        <ele>525</ele>
        <time>2021-05-26T17:25:46.000Z</time>
      </trkpt>
      <trkpt lat="45.15902" lon="5.77562">
        <ele>525</ele>
        <time>2021-05-26T17:25:47.000Z</time>
      </trkpt>
      <trkpt lat="45.15901" lon="5.77562">
        <ele>525.1</ele>
        <time>2021-05-26T17:25:48.000Z</time>
      </trkpt>
      <trkpt lat="45.15901" lon="5.77561">
        <ele>525.1</ele>
        <time>2021-05-26T17:25:49.000Z</time>
      </trkpt>
      <trkpt lat="45.159" lon="5.77561">
        <ele>525.2</ele>
        <time>2021-05-26T17:25:50.000Z</time>
      </trkpt>
      <trkpt lat="45.159" lon="5.77561">
        <ele>525.2</ele>
        <time>2021-05-26T17:25:51.000Z</time>
      </trkpt>
      <trkpt lat="45.15899" lon="5.77561">
        <ele>525.3</ele>
        <time>2021-05-26T17:25:52.000Z</time>
      </trkpt>
      <trkpt lat="45.15899" lon="5.7756">
        <ele>525.3</ele>
        <time>2021-05-26T17:25:53.000Z</time>
      </trkpt>
      <trkpt lat="45.15898" lon="5.7756">
        <ele>525.4</ele>
        <time>2021-05-26T17:25:54.000Z</time>
      </trkpt>
      <trkpt lat="45.15898" lon="5.7756">
        <ele>525.4</ele>
        <time>2021-05-26T17:25:55.000Z</time>
      </trkpt>
      <trkpt lat="45.15898" lon="5.77559">
        <ele>525.4</ele>
        <time>2021-05-26T17:25:56.000Z</time>
      </trkpt>
      <trkpt lat="45.15891" lon="5.77556">
        <ele>526.1</ele>
        <time>2021-05-26T17:25:57.000Z</time>
      </trkpt>
      <trkpt lat="45.15891" lon="5.77555">
        <ele>526.2</ele>
        <time>2021-05-26T17:25:58.000Z</time>
      </trkpt>
      <trkpt lat="45.1589" lon="5.77555">
        <ele>526.2</ele>
        <time>2021-05-26T17:25:59.000Z</time>
      </trkpt>
      <trkpt lat="45.1589" lon="5.77555">
        <ele>526.3</ele>
        <time>2021-05-26T17:26:01.000Z</time>
      </trkpt>
      <trkpt lat="45.15889" lon="5.77554">
        <ele>526.3</ele>
        <time>2021-05-26T17:26:02.000Z</time>
      </trkpt>
      <trkpt lat="45.15889" lon="5.77554">
        <ele>526.4</ele>
        <time>2021-05-26T17:26:03.000Z</time>
      </trkpt>
      <trkpt lat="45.15888" lon="5.77554">
        <ele>526.5</ele>
        <time>2021-05-26T17:26:04.000Z</time>
      </trkpt>
      <trkpt lat="45.15887" lon="5.77553">
        <ele>526.5</ele>
        <time>2021-05-26T17:26:05.000Z</time>
      </trkpt>
      <trkpt lat="45.15887" lon="5.77553">
        <ele>526.6</ele>
        <time>2021-05-26T17:26:06.000Z</time>
      </trkpt>
      <trkpt lat="45.15881" lon="5.7755">
        <ele>527.3</ele>
        <time>2021-05-26T17:26:07.000Z</time>
      </trkpt>
      <trkpt lat="45.1588" lon="5.7755">
        <ele>527.3</ele>
        <time>2021-05-26T17:26:08.000Z</time>
      </trkpt>
      <trkpt lat="45.15879" lon="5.77549">
        <ele>527.4</ele>
        <time>2021-05-26T17:26:10.000Z</time>
      </trkpt>
      <trkpt lat="45.15878" lon="5.77549">
        <ele>527.5</ele>
        <time>2021-05-26T17:26:11.000Z</time>
      </trkpt>
      <trkpt lat="45.15878" lon="5.77549">
        <ele>527.6</ele>
        <time>2021-05-26T17:26:12.000Z</time>
      </trkpt>
      <trkpt lat="45.15877" lon="5.77548">
        <ele>527.7</ele>
        <time>2021-05-26T17:26:13.000Z</time>
      </trkpt>
      <trkpt lat="45.15876" lon="5.77548">
        <ele>527.7</ele>
        <time>2021-05-26T17:26:14.000Z</time>
      </trkpt>
      <trkpt lat="45.1587" lon="5.77546">
        <ele>528.5</ele>
        <time>2021-05-26T17:26:15.000Z</time>
      </trkpt>
      <trkpt lat="45.15869" lon="5.77546">
        <ele>528.6</ele>
        <time>2021-05-26T17:26:16.000Z</time>
      </trkpt>
      <trkpt lat="45.15868" lon="5.77546">
        <ele>528.7</ele>
        <time>2021-05-26T17:26:17.000Z</time>
      </trkpt>
      <trkpt lat="45.15867" lon="5.77545">
        <ele>528.8</ele>
        <time>2021-05-26T17:26:18.000Z</time>
      </trkpt>
      <trkpt lat="45.15866" lon="5.77545">
        <ele>528.9</ele>
        <time>2021-05-26T17:26:20.000Z</time>
      </trkpt>
      <trkpt lat="45.15865" lon="5.77545">
        <ele>529</ele>
        <time>2021-05-26T17:26:21.000Z</time>
      </trkpt>
      <trkpt lat="45.15859" lon="5.77544">
        <ele>529.8</ele>
        <time>2021-05-26T17:26:22.000Z</time>
      </trkpt>
      <trkpt lat="45.15858" lon="5.77544">
        <ele>529.9</ele>
        <time>2021-05-26T17:26:23.000Z</time>
      </trkpt>
      <trkpt lat="45.15857" lon="5.77544">
        <ele>530</ele>
        <time>2021-05-26T17:26:24.000Z</time>
      </trkpt>
      <trkpt lat="45.15857" lon="5.77544">
        <ele>530.1</ele>
        <time>2021-05-26T17:26:25.000Z</time>
      </trkpt>
      <trkpt lat="45.15856" lon="5.77543">
        <ele>530.2</ele>
        <time>2021-05-26T17:26:26.000Z</time>
      </trkpt>
      <trkpt lat="45.15855" lon="5.77543">
        <ele>530.3</ele>
        <time>2021-05-26T17:26:27.000Z</time>
      </trkpt>
      <trkpt lat="45.15854" lon="5.77543">
        <ele>530.4</ele>
        <time>2021-05-26T17:26:28.000Z</time>
      </trkpt>
      <trkpt lat="45.15848" lon="5.77542">
        <ele>531.2</ele>
        <time>2021-05-26T17:26:29.000Z</time>
      </trkpt>
      <trkpt lat="45.15847" lon="5.77542">
        <ele>531.4</ele>
        <time>2021-05-26T17:26:30.000Z</time>
      </trkpt>
      <trkpt lat="45.15846" lon="5.77541">
        <ele>531.5</ele>
        <time>2021-05-26T17:26:31.000Z</time>
      </trkpt>
      <trkpt lat="45.15845" lon="5.77541">
        <ele>531.6</ele>
        <time>2021-05-26T17:26:32.000Z</time>
      </trkpt>
      <trkpt lat="45.15844" lon="5.77541">
        <ele>531.7</ele>
        <time>2021-05-26T17:26:33.000Z</time>
      </trkpt>
      <trkpt lat="45.15843" lon="5.77541">
        <ele>531.8</ele>
        <time>2021-05-26T17:26:34.000Z</time>
      </trkpt>
      <trkpt lat="45.15838" lon="5.7754">
        <ele>532.6</ele>
        <time>2021-05-26T17:26:35.000Z</time>
      </trkpt>
      <trkpt lat="45.15838" lon="5.7754">
        <ele>532.6</ele>
        <time>2021-05-26T17:26:36.000Z</time>
      </trkpt>
      <trkpt lat="45.15838" lon="5.7754">
        <ele>532.6</ele>
        <time>2021-05-26T17:26:37.000Z</time>
      </trkpt>
      <trkpt lat="45.15838" lon="5.7754">
        <ele>532.6</ele>
        <time>2021-05-26T17:26:39.000Z</time>
      </trkpt>
      <trkpt lat="45.15827" lon="5.77535">
        <ele>534</ele>
        <time>2021-05-26T17:26:41.000Z</time>
      </trkpt>
      <trkpt lat="45.15826" lon="5.77534">
        <ele>534.1</ele>
        <time>2021-05-26T17:26:42.000Z</time>
      </trkpt>
      <trkpt lat="45.15825" lon="5.77533">
        <ele>534.2</ele>
        <time>2021-05-26T17:26:43.000Z</time>
      </trkpt>
      <trkpt lat="45.15824" lon="5.77533">
        <ele>534.3</ele>
        <time>2021-05-26T17:26:44.000Z</time>
      </trkpt>
      <trkpt lat="45.15823" lon="5.77532">
        <ele>534.5</ele>
        <time>2021-05-26T17:26:45.000Z</time>
      </trkpt>
      <trkpt lat="45.15823" lon="5.77531">
        <ele>534.6</ele>
        <time>2021-05-26T17:26:46.000Z</time>
      </trkpt>
      <trkpt lat="45.15822" lon="5.7753">
        <ele>534.7</ele>
        <time>2021-05-26T17:26:47.000Z</time>
      </trkpt>
      <trkpt lat="45.15816" lon="5.77526">
        <ele>535.4</ele>
        <time>2021-05-26T17:26:48.000Z</time>
      </trkpt>
      <trkpt lat="45.15815" lon="5.77525">
        <ele>535.5</ele>
        <time>2021-05-26T17:26:49.000Z</time>
      </trkpt>
      <trkpt lat="45.15815" lon="5.77525">
        <ele>535.6</ele>
        <time>2021-05-26T17:26:50.000Z</time>
      </trkpt>
      <trkpt lat="45.15814" lon="5.77525">
        <ele>535.7</ele>
        <time>2021-05-26T17:26:51.000Z</time>
      </trkpt>
      <trkpt lat="45.15813" lon="5.77524">
        <ele>535.8</ele>
        <time>2021-05-26T17:26:52.000Z</time>
      </trkpt>
      <trkpt lat="45.15813" lon="5.77524">
        <ele>535.8</ele>
        <time>2021-05-26T17:26:53.000Z</time>
      </trkpt>
      <trkpt lat="45.15812" lon="5.77523">
        <ele>535.9</ele>
        <time>2021-05-26T17:26:54.000Z</time>
      </trkpt>
      <trkpt lat="45.15806" lon="5.7752">
        <ele>536.5</ele>
        <time>2021-05-26T17:26:55.000Z</time>
      </trkpt>
      <trkpt lat="45.15805" lon="5.77519">
        <ele>536.6</ele>
        <time>2021-05-26T17:26:56.000Z</time>
      </trkpt>
      <trkpt lat="45.15804" lon="5.77519">
        <ele>536.7</ele>
        <time>2021-05-26T17:26:58.000Z</time>
      </trkpt>
      <trkpt lat="45.15804" lon="5.77518">
        <ele>536.8</ele>
        <time>2021-05-26T17:26:59.000Z</time>
      </trkpt>
      <trkpt lat="45.15803" lon="5.77517">
        <ele>536.9</ele>
        <time>2021-05-26T17:27:00.000Z</time>
      </trkpt>
      <trkpt lat="45.15802" lon="5.77517">
        <ele>537</ele>
        <time>2021-05-26T17:27:01.000Z</time>
      </trkpt>
      <trkpt lat="45.15796" lon="5.77512">
        <ele>537.6</ele>
        <time>2021-05-26T17:27:02.000Z</time>
      </trkpt>
      <trkpt lat="45.15795" lon="5.77511">
        <ele>537.7</ele>
        <time>2021-05-26T17:27:03.000Z</time>
      </trkpt>
      <trkpt lat="45.15795" lon="5.77511">
        <ele>537.8</ele>
        <time>2021-05-26T17:27:04.000Z</time>
      </trkpt>
      <trkpt lat="45.15794" lon="5.7751">
        <ele>537.9</ele>
        <time>2021-05-26T17:27:05.000Z</time>
      </trkpt>
      <trkpt lat="45.15793" lon="5.77509">
        <ele>538</ele>
        <time>2021-05-26T17:27:06.000Z</time>
      </trkpt>
      <trkpt lat="45.15792" lon="5.77509">
        <ele>538.1</ele>
        <time>2021-05-26T17:27:07.000Z</time>
      </trkpt>
      <trkpt lat="45.15791" lon="5.77508">
        <ele>538.1</ele>
        <time>2021-05-26T17:27:08.000Z</time>
      </trkpt>
      <trkpt lat="45.15784" lon="5.77503">
        <ele>538.9</ele>
        <time>2021-05-26T17:27:09.000Z</time>
      </trkpt>
      <trkpt lat="45.15783" lon="5.77502">
        <ele>539</ele>
        <time>2021-05-26T17:27:10.000Z</time>
      </trkpt>
      <trkpt lat="45.15782" lon="5.77502">
        <ele>539.1</ele>
        <time>2021-05-26T17:27:11.000Z</time>
      </trkpt>
      <trkpt lat="45.15781" lon="5.77501">
        <ele>539.1</ele>
        <time>2021-05-26T17:27:12.000Z</time>
      </trkpt>
      <trkpt lat="45.1578" lon="5.775">
        <ele>539.2</ele>
        <time>2021-05-26T17:27:13.000Z</time>
      </trkpt>
      <trkpt lat="45.15774" lon="5.77497">
        <ele>539.6</ele>
        <time>2021-05-26T17:27:14.000Z</time>
      </trkpt>
      <trkpt lat="45.15773" lon="5.77496">
        <ele>539.7</ele>
        <time>2021-05-26T17:27:15.000Z</time>
      </trkpt>
      <trkpt lat="45.15772" lon="5.77496">
        <ele>539.7</ele>
        <time>2021-05-26T17:27:17.000Z</time>
      </trkpt>
      <trkpt lat="45.15771" lon="5.77495">
        <ele>539.7</ele>
        <time>2021-05-26T17:27:18.000Z</time>
      </trkpt>
      <trkpt lat="45.1577" lon="5.77494">
        <ele>539.8</ele>
        <time>2021-05-26T17:27:19.000Z</time>
      </trkpt>
      <trkpt lat="45.15763" lon="5.7749">
        <ele>539.9</ele>
        <time>2021-05-26T17:27:20.000Z</time>
      </trkpt>
      <trkpt lat="45.15763" lon="5.7749">
        <ele>539.9</ele>
        <time>2021-05-26T17:27:21.000Z</time>
      </trkpt>
      <trkpt lat="45.15762" lon="5.77489">
        <ele>539.9</ele>
        <time>2021-05-26T17:27:22.000Z</time>
      </trkpt>
      <trkpt lat="45.15761" lon="5.77489">
        <ele>539.9</ele>
        <time>2021-05-26T17:27:23.000Z</time>
      </trkpt>
      <trkpt lat="45.1576" lon="5.77488">
        <ele>539.9</ele>
        <time>2021-05-26T17:27:24.000Z</time>
      </trkpt>
      <trkpt lat="45.15759" lon="5.77488">
        <ele>539.9</ele>
        <time>2021-05-26T17:27:25.000Z</time>
      </trkpt>
      <trkpt lat="45.15753" lon="5.77484">
        <ele>540</ele>
        <time>2021-05-26T17:27:26.000Z</time>
      </trkpt>
      <trkpt lat="45.15752" lon="5.77484">
        <ele>540</ele>
        <time>2021-05-26T17:27:27.000Z</time>
      </trkpt>
      <trkpt lat="45.15751" lon="5.77483">
        <ele>540</ele>
        <time>2021-05-26T17:27:28.000Z</time>
      </trkpt>
      <trkpt lat="45.15751" lon="5.77483">
        <ele>540</ele>
        <time>2021-05-26T17:27:29.000Z</time>
      </trkpt>
      <trkpt lat="45.1575" lon="5.77482">
        <ele>540</ele>
        <time>2021-05-26T17:27:30.000Z</time>
      </trkpt>
      <trkpt lat="45.15749" lon="5.77482">
        <ele>540.1</ele>
        <time>2021-05-26T17:27:31.000Z</time>
      </trkpt>
      <trkpt lat="45.15743" lon="5.77479">
        <ele>540.2</ele>
        <time>2021-05-26T17:27:32.000Z</time>
      </trkpt>
      <trkpt lat="45.15742" lon="5.77478">
        <ele>540.3</ele>
        <time>2021-05-26T17:27:33.000Z</time>
      </trkpt>
      <trkpt lat="45.15741" lon="5.77478">
        <ele>540.3</ele>
        <time>2021-05-26T17:27:34.000Z</time>
      </trkpt>
      <trkpt lat="45.1574" lon="5.77477">
        <ele>540.4</ele>
        <time>2021-05-26T17:27:36.000Z</time>
      </trkpt>
      <trkpt lat="45.15739" lon="5.77476">
        <ele>540.4</ele>
        <time>2021-05-26T17:27:37.000Z</time>
      </trkpt>
      <trkpt lat="45.15738" lon="5.77476">
        <ele>540.5</ele>
        <time>2021-05-26T17:27:38.000Z</time>
      </trkpt>
      <trkpt lat="45.1573" lon="5.77472">
        <ele>540.9</ele>
        <time>2021-05-26T17:27:39.000Z</time>
      </trkpt>
      <trkpt lat="45.15729" lon="5.77472">
        <ele>540.9</ele>
        <time>2021-05-26T17:27:40.000Z</time>
      </trkpt>
      <trkpt lat="45.15728" lon="5.77471">
        <ele>541</ele>
        <time>2021-05-26T17:27:41.000Z</time>
      </trkpt>
      <trkpt lat="45.15727" lon="5.77471">
        <ele>541</ele>
        <time>2021-05-26T17:27:42.000Z</time>
      </trkpt>
      <trkpt lat="45.15726" lon="5.7747">
        <ele>541.1</ele>
        <time>2021-05-26T17:27:43.000Z</time>
      </trkpt>
      <trkpt lat="45.15725" lon="5.77469">
        <ele>541.1</ele>
        <time>2021-05-26T17:27:44.000Z</time>
      </trkpt>
      <trkpt lat="45.15718" lon="5.77465">
        <ele>541.5</ele>
        <time>2021-05-26T17:27:45.000Z</time>
      </trkpt>
      <trkpt lat="45.15717" lon="5.77464">
        <ele>541.6</ele>
        <time>2021-05-26T17:27:46.000Z</time>
      </trkpt>
      <trkpt lat="45.15716" lon="5.77463">
        <ele>541.7</ele>
        <time>2021-05-26T17:27:47.000Z</time>
      </trkpt>
      <trkpt lat="45.15715" lon="5.77463">
        <ele>541.7</ele>
        <time>2021-05-26T17:27:48.000Z</time>
      </trkpt>
      <trkpt lat="45.15713" lon="5.77462">
        <ele>541.8</ele>
        <time>2021-05-26T17:27:49.000Z</time>
      </trkpt>
      <trkpt lat="45.15706" lon="5.77457">
        <ele>542</ele>
        <time>2021-05-26T17:27:50.000Z</time>
      </trkpt>
      <trkpt lat="45.15704" lon="5.77457">
        <ele>542.1</ele>
        <time>2021-05-26T17:27:51.000Z</time>
      </trkpt>
      <trkpt lat="45.15702" lon="5.77456">
        <ele>542.1</ele>
        <time>2021-05-26T17:27:52.000Z</time>
      </trkpt>
      <trkpt lat="45.157" lon="5.77456">
        <ele>542</ele>
        <time>2021-05-26T17:27:53.000Z</time>
      </trkpt>
      <trkpt lat="45.15698" lon="5.77455">
        <ele>542</ele>
        <time>2021-05-26T17:27:54.000Z</time>
      </trkpt>
      <trkpt lat="45.15696" lon="5.77455">
        <ele>541.9</ele>
        <time>2021-05-26T17:27:55.000Z</time>
      </trkpt>
      <trkpt lat="45.15694" lon="5.77454">
        <ele>541.9</ele>
        <time>2021-05-26T17:27:56.000Z</time>
      </trkpt>
      <trkpt lat="45.15691" lon="5.77454">
        <ele>541.8</ele>
        <time>2021-05-26T17:27:57.000Z</time>
      </trkpt>
      <trkpt lat="45.15688" lon="5.77454">
        <ele>541.8</ele>
        <time>2021-05-26T17:27:59.000Z</time>
      </trkpt>
      <trkpt lat="45.15685" lon="5.77453">
        <ele>541.7</ele>
        <time>2021-05-26T17:28:00.000Z</time>
      </trkpt>
      <trkpt lat="45.15683" lon="5.77453">
        <ele>541.7</ele>
        <time>2021-05-26T17:28:01.000Z</time>
      </trkpt>
      <trkpt lat="45.15681" lon="5.77452">
        <ele>541.7</ele>
        <time>2021-05-26T17:28:02.000Z</time>
      </trkpt>
      <trkpt lat="45.1568" lon="5.77452">
        <ele>541.6</ele>
        <time>2021-05-26T17:28:03.000Z</time>
      </trkpt>
      <trkpt lat="45.15679" lon="5.77451">
        <ele>541.6</ele>
        <time>2021-05-26T17:28:04.000Z</time>
      </trkpt>
      <trkpt lat="45.15677" lon="5.7745">
        <ele>541.6</ele>
        <time>2021-05-26T17:28:05.000Z</time>
      </trkpt>
      <trkpt lat="45.15671" lon="5.77448">
        <ele>541.7</ele>
        <time>2021-05-26T17:28:06.000Z</time>
      </trkpt>
      <trkpt lat="45.1567" lon="5.77448">
        <ele>541.7</ele>
        <time>2021-05-26T17:28:07.000Z</time>
      </trkpt>
      <trkpt lat="45.15669" lon="5.77447">
        <ele>541.7</ele>
        <time>2021-05-26T17:28:08.000Z</time>
      </trkpt>
      <trkpt lat="45.15667" lon="5.77447">
        <ele>541.7</ele>
        <time>2021-05-26T17:28:09.000Z</time>
      </trkpt>
      <trkpt lat="45.15666" lon="5.77447">
        <ele>541.7</ele>
        <time>2021-05-26T17:28:10.000Z</time>
      </trkpt>
      <trkpt lat="45.15659" lon="5.77445">
        <ele>541.9</ele>
        <time>2021-05-26T17:28:11.000Z</time>
      </trkpt>
      <trkpt lat="45.15658" lon="5.77444">
        <ele>542</ele>
        <time>2021-05-26T17:28:12.000Z</time>
      </trkpt>
      <trkpt lat="45.15657" lon="5.77443">
        <ele>542</ele>
        <time>2021-05-26T17:28:14.000Z</time>
      </trkpt>
      <trkpt lat="45.15656" lon="5.77443">
        <ele>542.1</ele>
        <time>2021-05-26T17:28:15.000Z</time>
      </trkpt>
      <trkpt lat="45.15655" lon="5.77442">
        <ele>542.1</ele>
        <time>2021-05-26T17:28:16.000Z</time>
      </trkpt>
      <trkpt lat="45.15649" lon="5.77439">
        <ele>542.5</ele>
        <time>2021-05-26T17:28:17.000Z</time>
      </trkpt>
      <trkpt lat="45.15648" lon="5.77439">
        <ele>542.5</ele>
        <time>2021-05-26T17:28:18.000Z</time>
      </trkpt>
      <trkpt lat="45.15646" lon="5.77438">
        <ele>542.6</ele>
        <time>2021-05-26T17:28:19.000Z</time>
      </trkpt>
      <trkpt lat="45.15645" lon="5.77438">
        <ele>542.6</ele>
        <time>2021-05-26T17:28:20.000Z</time>
      </trkpt>
      <trkpt lat="45.15644" lon="5.77437">
        <ele>542.7</ele>
        <time>2021-05-26T17:28:21.000Z</time>
      </trkpt>
      <trkpt lat="45.15638" lon="5.77434">
        <ele>543.1</ele>
        <time>2021-05-26T17:28:22.000Z</time>
      </trkpt>
      <trkpt lat="45.15637" lon="5.77434">
        <ele>543.1</ele>
        <time>2021-05-26T17:28:23.000Z</time>
      </trkpt>
      <trkpt lat="45.15636" lon="5.77433">
        <ele>543.2</ele>
        <time>2021-05-26T17:28:24.000Z</time>
      </trkpt>
      <trkpt lat="45.15636" lon="5.77433">
        <ele>543.2</ele>
        <time>2021-05-26T17:28:25.000Z</time>
      </trkpt>
      <trkpt lat="45.15635" lon="5.77432">
        <ele>543.3</ele>
        <time>2021-05-26T17:28:26.000Z</time>
      </trkpt>
      <trkpt lat="45.15634" lon="5.77431">
        <ele>543.3</ele>
        <time>2021-05-26T17:28:27.000Z</time>
      </trkpt>
      <trkpt lat="45.15633" lon="5.77431">
        <ele>543.4</ele>
        <time>2021-05-26T17:28:28.000Z</time>
      </trkpt>
      <trkpt lat="45.15625" lon="5.77426">
        <ele>543.8</ele>
        <time>2021-05-26T17:28:29.000Z</time>
      </trkpt>
      <trkpt lat="45.15623" lon="5.77426">
        <ele>543.9</ele>
        <time>2021-05-26T17:28:30.000Z</time>
      </trkpt>
      <trkpt lat="45.15621" lon="5.77425">
        <ele>543.9</ele>
        <time>2021-05-26T17:28:31.000Z</time>
      </trkpt>
      <trkpt lat="45.15619" lon="5.77425">
        <ele>544</ele>
        <time>2021-05-26T17:28:33.000Z</time>
      </trkpt>
      <trkpt lat="45.15617" lon="5.77424">
        <ele>544.1</ele>
        <time>2021-05-26T17:28:34.000Z</time>
      </trkpt>
      <trkpt lat="45.15615" lon="5.77424">
        <ele>544.2</ele>
        <time>2021-05-26T17:28:35.000Z</time>
      </trkpt>
      <trkpt lat="45.15614" lon="5.77423">
        <ele>544.2</ele>
        <time>2021-05-26T17:28:36.000Z</time>
      </trkpt>
      <trkpt lat="45.15613" lon="5.77423">
        <ele>544.2</ele>
        <time>2021-05-26T17:28:37.000Z</time>
      </trkpt>
      <trkpt lat="45.15612" lon="5.77422">
        <ele>544.2</ele>
        <time>2021-05-26T17:28:38.000Z</time>
      </trkpt>
      <trkpt lat="45.15611" lon="5.77422">
        <ele>544.3</ele>
        <time>2021-05-26T17:28:39.000Z</time>
      </trkpt>
      <trkpt lat="45.15609" lon="5.77421">
        <ele>544.3</ele>
        <time>2021-05-26T17:28:40.000Z</time>
      </trkpt>
      <trkpt lat="45.15603" lon="5.77417">
        <ele>544.3</ele>
        <time>2021-05-26T17:28:41.000Z</time>
      </trkpt>
      <trkpt lat="45.15602" lon="5.77416">
        <ele>544.3</ele>
        <time>2021-05-26T17:28:42.000Z</time>
      </trkpt>
      <trkpt lat="45.156" lon="5.77415">
        <ele>544.3</ele>
        <time>2021-05-26T17:28:43.000Z</time>
      </trkpt>
      <trkpt lat="45.15599" lon="5.77414">
        <ele>544.3</ele>
        <time>2021-05-26T17:28:44.000Z</time>
      </trkpt>
      <trkpt lat="45.15598" lon="5.77413">
        <ele>544.3</ele>
        <time>2021-05-26T17:28:45.000Z</time>
      </trkpt>
      <trkpt lat="45.15592" lon="5.77408">
        <ele>544.3</ele>
        <time>2021-05-26T17:28:46.000Z</time>
      </trkpt>
      <trkpt lat="45.15591" lon="5.77408">
        <ele>544.3</ele>
        <time>2021-05-26T17:28:47.000Z</time>
      </trkpt>
      <trkpt lat="45.15591" lon="5.77407">
        <ele>544.3</ele>
        <time>2021-05-26T17:28:48.000Z</time>
      </trkpt>
      <trkpt lat="45.1559" lon="5.77407">
        <ele>544.3</ele>
        <time>2021-05-26T17:28:49.000Z</time>
      </trkpt>
      <trkpt lat="45.15589" lon="5.77406">
        <ele>544.3</ele>
        <time>2021-05-26T17:28:50.000Z</time>
      </trkpt>
      <trkpt lat="45.1558" lon="5.774">
        <ele>544.2</ele>
        <time>2021-05-26T17:28:52.000Z</time>
      </trkpt>
      <trkpt lat="45.15579" lon="5.77399">
        <ele>544.2</ele>
        <time>2021-05-26T17:28:53.000Z</time>
      </trkpt>
      <trkpt lat="45.15577" lon="5.77398">
        <ele>544.2</ele>
        <time>2021-05-26T17:28:54.000Z</time>
      </trkpt>
      <trkpt lat="45.15576" lon="5.77397">
        <ele>544.2</ele>
        <time>2021-05-26T17:28:55.000Z</time>
      </trkpt>
      <trkpt lat="45.15569" lon="5.77391">
        <ele>544</ele>
        <time>2021-05-26T17:28:56.000Z</time>
      </trkpt>
      <trkpt lat="45.15568" lon="5.7739">
        <ele>543.9</ele>
        <time>2021-05-26T17:28:57.000Z</time>
      </trkpt>
      <trkpt lat="45.15567" lon="5.77388">
        <ele>543.8</ele>
        <time>2021-05-26T17:28:59.000Z</time>
      </trkpt>
      <trkpt lat="45.15565" lon="5.77387">
        <ele>543.8</ele>
        <time>2021-05-26T17:29:00.000Z</time>
      </trkpt>
      <trkpt lat="45.15559" lon="5.7738">
        <ele>543.4</ele>
        <time>2021-05-26T17:29:01.000Z</time>
      </trkpt>
      <trkpt lat="45.15558" lon="5.77379">
        <ele>543.3</ele>
        <time>2021-05-26T17:29:02.000Z</time>
      </trkpt>
      <trkpt lat="45.15557" lon="5.77378">
        <ele>543.3</ele>
        <time>2021-05-26T17:29:03.000Z</time>
      </trkpt>
      <trkpt lat="45.15556" lon="5.77377">
        <ele>543.2</ele>
        <time>2021-05-26T17:29:04.000Z</time>
      </trkpt>
      <trkpt lat="45.15551" lon="5.77372">
        <ele>542.9</ele>
        <time>2021-05-26T17:29:05.000Z</time>
      </trkpt>
      <trkpt lat="45.1555" lon="5.77371">
        <ele>542.9</ele>
        <time>2021-05-26T17:29:06.000Z</time>
      </trkpt>
      <trkpt lat="45.1555" lon="5.77371">
        <ele>542.8</ele>
        <time>2021-05-26T17:29:07.000Z</time>
      </trkpt>
      <trkpt lat="45.15549" lon="5.7737">
        <ele>542.8</ele>
        <time>2021-05-26T17:29:08.000Z</time>
      </trkpt>
      <trkpt lat="45.15548" lon="5.77369">
        <ele>542.8</ele>
        <time>2021-05-26T17:29:09.000Z</time>
      </trkpt>
      <trkpt lat="45.1554" lon="5.77362">
        <ele>542.3</ele>
        <time>2021-05-26T17:29:11.000Z</time>
      </trkpt>
      <trkpt lat="45.15539" lon="5.7736">
        <ele>542.2</ele>
        <time>2021-05-26T17:29:12.000Z</time>
      </trkpt>
      <trkpt lat="45.15537" lon="5.77359">
        <ele>542.1</ele>
        <time>2021-05-26T17:29:13.000Z</time>
      </trkpt>
      <trkpt lat="45.15531" lon="5.77354">
        <ele>541.8</ele>
        <time>2021-05-26T17:29:14.000Z</time>
      </trkpt>
      <trkpt lat="45.1553" lon="5.77353">
        <ele>541.7</ele>
        <time>2021-05-26T17:29:15.000Z</time>
      </trkpt>
      <trkpt lat="45.15529" lon="5.77353">
        <ele>541.7</ele>
        <time>2021-05-26T17:29:16.000Z</time>
      </trkpt>
      <trkpt lat="45.15528" lon="5.77352">
        <ele>541.6</ele>
        <time>2021-05-26T17:29:17.000Z</time>
      </trkpt>
      <trkpt lat="45.15527" lon="5.77352">
        <ele>541.6</ele>
        <time>2021-05-26T17:29:18.000Z</time>
      </trkpt>
      <trkpt lat="45.15526" lon="5.77352">
        <ele>541.6</ele>
        <time>2021-05-26T17:29:19.000Z</time>
      </trkpt>
      <trkpt lat="45.1552" lon="5.77349">
        <ele>541.3</ele>
        <time>2021-05-26T17:29:20.000Z</time>
      </trkpt>
      <trkpt lat="45.15519" lon="5.77348">
        <ele>541.3</ele>
        <time>2021-05-26T17:29:21.000Z</time>
      </trkpt>
      <trkpt lat="45.15519" lon="5.77348">
        <ele>541.3</ele>
        <time>2021-05-26T17:29:22.000Z</time>
      </trkpt>
      <trkpt lat="45.15519" lon="5.77347">
        <ele>541.3</ele>
        <time>2021-05-26T17:29:23.000Z</time>
      </trkpt>
      <trkpt lat="45.15518" lon="5.77347">
        <ele>541.3</ele>
        <time>2021-05-26T17:29:24.000Z</time>
      </trkpt>
      <trkpt lat="45.15518" lon="5.77346">
        <ele>541.3</ele>
        <time>2021-05-26T17:29:25.000Z</time>
      </trkpt>
      <trkpt lat="45.15517" lon="5.77346">
        <ele>541.2</ele>
        <time>2021-05-26T17:29:26.000Z</time>
      </trkpt>
      <trkpt lat="45.15517" lon="5.77346">
        <ele>541.2</ele>
        <time>2021-05-26T17:29:27.000Z</time>
      </trkpt>
      <trkpt lat="45.15517" lon="5.77345">
        <ele>541.2</ele>
        <time>2021-05-26T17:29:28.000Z</time>
      </trkpt>
      <trkpt lat="45.15516" lon="5.77345">
        <ele>541.2</ele>
        <time>2021-05-26T17:29:30.000Z</time>
      </trkpt>
      <trkpt lat="45.15516" lon="5.77344">
        <ele>541.2</ele>
        <time>2021-05-26T17:29:31.000Z</time>
      </trkpt>
      <trkpt lat="45.15511" lon="5.77338">
        <ele>541.2</ele>
        <time>2021-05-26T17:29:32.000Z</time>
      </trkpt>
      <trkpt lat="45.1551" lon="5.77338">
        <ele>541.2</ele>
        <time>2021-05-26T17:29:33.000Z</time>
      </trkpt>
      <trkpt lat="45.15509" lon="5.77337">
        <ele>541.2</ele>
        <time>2021-05-26T17:29:34.000Z</time>
      </trkpt>
      <trkpt lat="45.15509" lon="5.77337">
        <ele>541.2</ele>
        <time>2021-05-26T17:29:35.000Z</time>
      </trkpt>
      <trkpt lat="45.15508" lon="5.77336">
        <ele>541.2</ele>
        <time>2021-05-26T17:29:36.000Z</time>
      </trkpt>
      <trkpt lat="45.15507" lon="5.77336">
        <ele>541.2</ele>
        <time>2021-05-26T17:29:37.000Z</time>
      </trkpt>
      <trkpt lat="45.15506" lon="5.77335">
        <ele>541.2</ele>
        <time>2021-05-26T17:29:38.000Z</time>
      </trkpt>
      <trkpt lat="45.15499" lon="5.7733">
        <ele>541.4</ele>
        <time>2021-05-26T17:29:39.000Z</time>
      </trkpt>
      <trkpt lat="45.15498" lon="5.7733">
        <ele>541.5</ele>
        <time>2021-05-26T17:29:41.000Z</time>
      </trkpt>
      <trkpt lat="45.15496" lon="5.77329">
        <ele>541.5</ele>
        <time>2021-05-26T17:29:42.000Z</time>
      </trkpt>
      <trkpt lat="45.15495" lon="5.77328">
        <ele>541.6</ele>
        <time>2021-05-26T17:29:43.000Z</time>
      </trkpt>
      <trkpt lat="45.15489" lon="5.77325">
        <ele>541.9</ele>
        <time>2021-05-26T17:29:44.000Z</time>
      </trkpt>
      <trkpt lat="45.15489" lon="5.77325">
        <ele>541.9</ele>
        <time>2021-05-26T17:29:45.000Z</time>
      </trkpt>
      <trkpt lat="45.15489" lon="5.77325">
        <ele>541.9</ele>
        <time>2021-05-26T17:29:46.000Z</time>
      </trkpt>
      <trkpt lat="45.15489" lon="5.77325">
        <ele>541.9</ele>
        <time>2021-05-26T17:29:47.000Z</time>
      </trkpt>
      <trkpt lat="45.15478" lon="5.77319">
        <ele>542.7</ele>
        <time>2021-05-26T17:29:49.000Z</time>
      </trkpt>
      <trkpt lat="45.15477" lon="5.77319">
        <ele>542.8</ele>
        <time>2021-05-26T17:29:50.000Z</time>
      </trkpt>
      <trkpt lat="45.15476" lon="5.77319">
        <ele>542.8</ele>
        <time>2021-05-26T17:29:51.000Z</time>
      </trkpt>
      <trkpt lat="45.15475" lon="5.77318">
        <ele>542.9</ele>
        <time>2021-05-26T17:29:52.000Z</time>
      </trkpt>
      <trkpt lat="45.15474" lon="5.77318">
        <ele>543</ele>
        <time>2021-05-26T17:29:53.000Z</time>
      </trkpt>
      <trkpt lat="45.15473" lon="5.77318">
        <ele>543.1</ele>
        <time>2021-05-26T17:29:54.000Z</time>
      </trkpt>
      <trkpt lat="45.15472" lon="5.77317">
        <ele>543.1</ele>
        <time>2021-05-26T17:29:55.000Z</time>
      </trkpt>
      <trkpt lat="45.15465" lon="5.77315">
        <ele>543.7</ele>
        <time>2021-05-26T17:29:56.000Z</time>
      </trkpt>
      <trkpt lat="45.15463" lon="5.77314">
        <ele>543.8</ele>
        <time>2021-05-26T17:29:58.000Z</time>
      </trkpt>
      <trkpt lat="45.15462" lon="5.77313">
        <ele>544</ele>
        <time>2021-05-26T17:29:59.000Z</time>
      </trkpt>
      <trkpt lat="45.1546" lon="5.77312">
        <ele>544.1</ele>
        <time>2021-05-26T17:30:00.000Z</time>
      </trkpt>
      <trkpt lat="45.15453" lon="5.77309">
        <ele>544.7</ele>
        <time>2021-05-26T17:30:01.000Z</time>
      </trkpt>
      <trkpt lat="45.15452" lon="5.77308">
        <ele>544.8</ele>
        <time>2021-05-26T17:30:02.000Z</time>
      </trkpt>
      <trkpt lat="45.15451" lon="5.77308">
        <ele>544.9</ele>
        <time>2021-05-26T17:30:03.000Z</time>
      </trkpt>
      <trkpt lat="45.1545" lon="5.77307">
        <ele>545.1</ele>
        <time>2021-05-26T17:30:04.000Z</time>
      </trkpt>
      <trkpt lat="45.15449" lon="5.77307">
        <ele>545.2</ele>
        <time>2021-05-26T17:30:05.000Z</time>
      </trkpt>
      <trkpt lat="45.15441" lon="5.77304">
        <ele>545.9</ele>
        <time>2021-05-26T17:30:06.000Z</time>
      </trkpt>
      <trkpt lat="45.1544" lon="5.77303">
        <ele>546.1</ele>
        <time>2021-05-26T17:30:08.000Z</time>
      </trkpt>
      <trkpt lat="45.15439" lon="5.77302">
        <ele>546.2</ele>
        <time>2021-05-26T17:30:09.000Z</time>
      </trkpt>
      <trkpt lat="45.15437" lon="5.77302">
        <ele>546.4</ele>
        <time>2021-05-26T17:30:10.000Z</time>
      </trkpt>
      <trkpt lat="45.15431" lon="5.77299">
        <ele>547.2</ele>
        <time>2021-05-26T17:30:11.000Z</time>
      </trkpt>
      <trkpt lat="45.1543" lon="5.77299">
        <ele>547.3</ele>
        <time>2021-05-26T17:30:12.000Z</time>
      </trkpt>
      <trkpt lat="45.15429" lon="5.77299">
        <ele>547.4</ele>
        <time>2021-05-26T17:30:13.000Z</time>
      </trkpt>
      <trkpt lat="45.15428" lon="5.77299">
        <ele>547.5</ele>
        <time>2021-05-26T17:30:14.000Z</time>
      </trkpt>
      <trkpt lat="45.15427" lon="5.77298">
        <ele>547.6</ele>
        <time>2021-05-26T17:30:15.000Z</time>
      </trkpt>
      <trkpt lat="45.15426" lon="5.77298">
        <ele>547.7</ele>
        <time>2021-05-26T17:30:16.000Z</time>
      </trkpt>
      <trkpt lat="45.15419" lon="5.77297">
        <ele>548.7</ele>
        <time>2021-05-26T17:30:17.000Z</time>
      </trkpt>
      <trkpt lat="45.15418" lon="5.77296">
        <ele>548.9</ele>
        <time>2021-05-26T17:30:18.000Z</time>
      </trkpt>
      <trkpt lat="45.15416" lon="5.77296">
        <ele>549.1</ele>
        <time>2021-05-26T17:30:19.000Z</time>
      </trkpt>
      <trkpt lat="45.15414" lon="5.77295">
        <ele>549.4</ele>
        <time>2021-05-26T17:30:20.000Z</time>
      </trkpt>
      <trkpt lat="45.15413" lon="5.77295">
        <ele>549.6</ele>
        <time>2021-05-26T17:30:21.000Z</time>
      </trkpt>
      <trkpt lat="45.15411" lon="5.77295">
        <ele>549.8</ele>
        <time>2021-05-26T17:30:22.000Z</time>
      </trkpt>
      <trkpt lat="45.1541" lon="5.77295">
        <ele>549.9</ele>
        <time>2021-05-26T17:30:24.000Z</time>
      </trkpt>
      <trkpt lat="45.15409" lon="5.77295">
        <ele>550.1</ele>
        <time>2021-05-26T17:30:25.000Z</time>
      </trkpt>
      <trkpt lat="45.15408" lon="5.77295">
        <ele>550.2</ele>
        <time>2021-05-26T17:30:27.000Z</time>
      </trkpt>
      <trkpt lat="45.15407" lon="5.77295">
        <ele>550.4</ele>
        <time>2021-05-26T17:30:28.000Z</time>
      </trkpt>
      <trkpt lat="45.154" lon="5.77296">
        <ele>551.2</ele>
        <time>2021-05-26T17:30:29.000Z</time>
      </trkpt>
      <trkpt lat="45.15399" lon="5.77296">
        <ele>551.3</ele>
        <time>2021-05-26T17:30:30.000Z</time>
      </trkpt>
      <trkpt lat="45.15399" lon="5.77296">
        <ele>551.4</ele>
        <time>2021-05-26T17:30:31.000Z</time>
      </trkpt>
      <trkpt lat="45.15398" lon="5.77296">
        <ele>551.5</ele>
        <time>2021-05-26T17:30:32.000Z</time>
      </trkpt>
      <trkpt lat="45.15397" lon="5.77297">
        <ele>551.6</ele>
        <time>2021-05-26T17:30:33.000Z</time>
      </trkpt>
      <trkpt lat="45.15396" lon="5.77297">
        <ele>551.7</ele>
        <time>2021-05-26T17:30:34.000Z</time>
      </trkpt>
      <trkpt lat="45.15396" lon="5.77297">
        <ele>551.7</ele>
        <time>2021-05-26T17:30:35.000Z</time>
      </trkpt>
      <trkpt lat="45.15395" lon="5.77297">
        <ele>551.8</ele>
        <time>2021-05-26T17:30:36.000Z</time>
      </trkpt>
      <trkpt lat="45.15387" lon="5.77299">
        <ele>552.7</ele>
        <time>2021-05-26T17:30:37.000Z</time>
      </trkpt>
      <trkpt lat="45.15385" lon="5.77299">
        <ele>552.9</ele>
        <time>2021-05-26T17:30:38.000Z</time>
      </trkpt>
      <trkpt lat="45.15384" lon="5.773">
        <ele>553</ele>
        <time>2021-05-26T17:30:39.000Z</time>
      </trkpt>
      <trkpt lat="45.15384" lon="5.773">
        <ele>553</ele>
        <time>2021-05-26T17:30:40.000Z</time>
      </trkpt>
      <trkpt lat="45.15384" lon="5.773">
        <ele>553</ele>
        <time>2021-05-26T17:30:41.000Z</time>
      </trkpt>
      <trkpt lat="45.1538" lon="5.773">
        <ele>553.4</ele>
        <time>2021-05-26T17:30:42.000Z</time>
      </trkpt>
      <trkpt lat="45.1538" lon="5.773">
        <ele>553.4</ele>
        <time>2021-05-26T17:30:43.000Z</time>
      </trkpt>
      <trkpt lat="45.15377" lon="5.77302">
        <ele>553.8</ele>
        <time>2021-05-26T17:30:45.000Z</time>
      </trkpt>
      <trkpt lat="45.15377" lon="5.77302">
        <ele>553.8</ele>
        <time>2021-05-26T17:30:46.000Z</time>
      </trkpt>
      <trkpt lat="45.15376" lon="5.77303">
        <ele>553.8</ele>
        <time>2021-05-26T17:30:48.000Z</time>
      </trkpt>
      <trkpt lat="45.15375" lon="5.77303">
        <ele>553.9</ele>
        <time>2021-05-26T17:30:49.000Z</time>
      </trkpt>
      <trkpt lat="45.15374" lon="5.77303">
        <ele>554</ele>
        <time>2021-05-26T17:30:50.000Z</time>
      </trkpt>
      <trkpt lat="45.15373" lon="5.77304">
        <ele>554.1</ele>
        <time>2021-05-26T17:30:51.000Z</time>
      </trkpt>
      <trkpt lat="45.15372" lon="5.77304">
        <ele>554.2</ele>
        <time>2021-05-26T17:30:52.000Z</time>
      </trkpt>
      <trkpt lat="45.15371" lon="5.77304">
        <ele>554.3</ele>
        <time>2021-05-26T17:30:53.000Z</time>
      </trkpt>
      <trkpt lat="45.15364" lon="5.77307">
        <ele>554.8</ele>
        <time>2021-05-26T17:30:54.000Z</time>
      </trkpt>
      <trkpt lat="45.15363" lon="5.77307">
        <ele>554.8</ele>
        <time>2021-05-26T17:30:55.000Z</time>
      </trkpt>
      <trkpt lat="45.15362" lon="5.77307">
        <ele>554.9</ele>
        <time>2021-05-26T17:30:56.000Z</time>
      </trkpt>
      <trkpt lat="45.15361" lon="5.77308">
        <ele>555</ele>
        <time>2021-05-26T17:30:57.000Z</time>
      </trkpt>
      <trkpt lat="45.1536" lon="5.77308">
        <ele>555</ele>
        <time>2021-05-26T17:30:58.000Z</time>
      </trkpt>
      <trkpt lat="45.1536" lon="5.77309">
        <ele>555.1</ele>
        <time>2021-05-26T17:30:59.000Z</time>
      </trkpt>
      <trkpt lat="45.15359" lon="5.77309">
        <ele>555.1</ele>
        <time>2021-05-26T17:31:00.000Z</time>
      </trkpt>
      <trkpt lat="45.15352" lon="5.77312">
        <ele>555.6</ele>
        <time>2021-05-26T17:31:01.000Z</time>
      </trkpt>
      <trkpt lat="45.15351" lon="5.77312">
        <ele>555.7</ele>
        <time>2021-05-26T17:31:02.000Z</time>
      </trkpt>
      <trkpt lat="45.1535" lon="5.77313">
        <ele>555.7</ele>
        <time>2021-05-26T17:31:03.000Z</time>
      </trkpt>
      <trkpt lat="45.15349" lon="5.77313">
        <ele>555.8</ele>
        <time>2021-05-26T17:31:05.000Z</time>
      </trkpt>
      <trkpt lat="45.15348" lon="5.77314">
        <ele>555.8</ele>
        <time>2021-05-26T17:31:06.000Z</time>
      </trkpt>
      <trkpt lat="45.15347" lon="5.77314">
        <ele>555.9</ele>
        <time>2021-05-26T17:31:07.000Z</time>
      </trkpt>
      <trkpt lat="45.15341" lon="5.77317">
        <ele>557</ele>
        <time>2021-05-26T17:31:08.000Z</time>
      </trkpt>
      <trkpt lat="45.15341" lon="5.77318">
        <ele>557</ele>
        <time>2021-05-26T17:31:09.000Z</time>
      </trkpt>
      <trkpt lat="45.15341" lon="5.77319">
        <ele>557</ele>
        <time>2021-05-26T17:31:10.000Z</time>
      </trkpt>
      <trkpt lat="45.15341" lon="5.7732">
        <ele>557</ele>
        <time>2021-05-26T17:31:11.000Z</time>
      </trkpt>
      <trkpt lat="45.15342" lon="5.77321">
        <ele>557</ele>
        <time>2021-05-26T17:31:12.000Z</time>
      </trkpt>
      <trkpt lat="45.15342" lon="5.77322">
        <ele>557</ele>
        <time>2021-05-26T17:31:13.000Z</time>
      </trkpt>
      <trkpt lat="45.15342" lon="5.77323">
        <ele>557</ele>
        <time>2021-05-26T17:31:14.000Z</time>
      </trkpt>
      <trkpt lat="45.15342" lon="5.77324">
        <ele>557</ele>
        <time>2021-05-26T17:31:15.000Z</time>
      </trkpt>
      <trkpt lat="45.15342" lon="5.77325">
        <ele>557</ele>
        <time>2021-05-26T17:31:16.000Z</time>
      </trkpt>
      <trkpt lat="45.15342" lon="5.77326">
        <ele>557</ele>
        <time>2021-05-26T17:31:17.000Z</time>
      </trkpt>
      <trkpt lat="45.15343" lon="5.77326">
        <ele>557</ele>
        <time>2021-05-26T17:31:18.000Z</time>
      </trkpt>
      <trkpt lat="45.15343" lon="5.77327">
        <ele>557</ele>
        <time>2021-05-26T17:31:19.000Z</time>
      </trkpt>
      <trkpt lat="45.15343" lon="5.77328">
        <ele>557</ele>
        <time>2021-05-26T17:31:20.000Z</time>
      </trkpt>
      <trkpt lat="45.15343" lon="5.77329">
        <ele>557</ele>
        <time>2021-05-26T17:31:21.000Z</time>
      </trkpt>
      <trkpt lat="45.15343" lon="5.7733">
        <ele>557</ele>
        <time>2021-05-26T17:31:22.000Z</time>
      </trkpt>
      <trkpt lat="45.15343" lon="5.77331">
        <ele>558.8</ele>
        <time>2021-05-26T17:31:23.000Z</time>
      </trkpt>
      <trkpt lat="45.15344" lon="5.77332">
        <ele>558.9</ele>
        <time>2021-05-26T17:31:24.000Z</time>
      </trkpt>
      <trkpt lat="45.15344" lon="5.77332">
        <ele>559</ele>
        <time>2021-05-26T17:31:25.000Z</time>
      </trkpt>
      <trkpt lat="45.15345" lon="5.77333">
        <ele>559.1</ele>
        <time>2021-05-26T17:31:26.000Z</time>
      </trkpt>
      <trkpt lat="45.15346" lon="5.77334">
        <ele>559.3</ele>
        <time>2021-05-26T17:31:27.000Z</time>
      </trkpt>
      <trkpt lat="45.15347" lon="5.77334">
        <ele>559.4</ele>
        <time>2021-05-26T17:31:28.000Z</time>
      </trkpt>
      <trkpt lat="45.15347" lon="5.77335">
        <ele>559.5</ele>
        <time>2021-05-26T17:31:29.000Z</time>
      </trkpt>
      <trkpt lat="45.15348" lon="5.77335">
        <ele>559.6</ele>
        <time>2021-05-26T17:31:31.000Z</time>
      </trkpt>
      <trkpt lat="45.15349" lon="5.77336">
        <ele>559.7</ele>
        <time>2021-05-26T17:31:32.000Z</time>
      </trkpt>
      <trkpt lat="45.1535" lon="5.77336">
        <ele>559.8</ele>
        <time>2021-05-26T17:31:33.000Z</time>
      </trkpt>
      <trkpt lat="45.15351" lon="5.77336">
        <ele>560</ele>
        <time>2021-05-26T17:31:34.000Z</time>
      </trkpt>
      <trkpt lat="45.15352" lon="5.77336">
        <ele>560.1</ele>
        <time>2021-05-26T17:31:35.000Z</time>
      </trkpt>
      <trkpt lat="45.15353" lon="5.77336">
        <ele>560.2</ele>
        <time>2021-05-26T17:31:36.000Z</time>
      </trkpt>
      <trkpt lat="45.15354" lon="5.77336">
        <ele>560.3</ele>
        <time>2021-05-26T17:31:37.000Z</time>
      </trkpt>
      <trkpt lat="45.15354" lon="5.77336">
        <ele>560.3</ele>
        <time>2021-05-26T17:31:38.000Z</time>
      </trkpt>
      <trkpt lat="45.15354" lon="5.77336">
        <ele>560.3</ele>
        <time>2021-05-26T17:31:39.000Z</time>
      </trkpt>
      <trkpt lat="45.15357" lon="5.77336">
        <ele>560.6</ele>
        <time>2021-05-26T17:31:40.000Z</time>
      </trkpt>
      <trkpt lat="45.15358" lon="5.77337">
        <ele>560.7</ele>
        <time>2021-05-26T17:31:41.000Z</time>
      </trkpt>
      <trkpt lat="45.1536" lon="5.77337">
        <ele>560.8</ele>
        <time>2021-05-26T17:31:43.000Z</time>
      </trkpt>
      <trkpt lat="45.15361" lon="5.77337">
        <ele>560.9</ele>
        <time>2021-05-26T17:31:44.000Z</time>
      </trkpt>
      <trkpt lat="45.15361" lon="5.77337">
        <ele>560.9</ele>
        <time>2021-05-26T17:31:45.000Z</time>
      </trkpt>
      <trkpt lat="45.15361" lon="5.77337">
        <ele>560.9</ele>
        <time>2021-05-26T17:31:46.000Z</time>
      </trkpt>
      <trkpt lat="45.15365" lon="5.77338">
        <ele>561.2</ele>
        <time>2021-05-26T17:31:47.000Z</time>
      </trkpt>
      <trkpt lat="45.15366" lon="5.77338">
        <ele>561.3</ele>
        <time>2021-05-26T17:31:48.000Z</time>
      </trkpt>
      <trkpt lat="45.15368" lon="5.77339">
        <ele>561.4</ele>
        <time>2021-05-26T17:31:49.000Z</time>
      </trkpt>
      <trkpt lat="45.15369" lon="5.77339">
        <ele>561.5</ele>
        <time>2021-05-26T17:31:50.000Z</time>
      </trkpt>
      <trkpt lat="45.1537" lon="5.7734">
        <ele>561.6</ele>
        <time>2021-05-26T17:31:51.000Z</time>
      </trkpt>
      <trkpt lat="45.15371" lon="5.77341">
        <ele>561.6</ele>
        <time>2021-05-26T17:31:52.000Z</time>
      </trkpt>
      <trkpt lat="45.15372" lon="5.77342">
        <ele>561.7</ele>
        <time>2021-05-26T17:31:53.000Z</time>
      </trkpt>
      <trkpt lat="45.15374" lon="5.77342">
        <ele>561.8</ele>
        <time>2021-05-26T17:31:54.000Z</time>
      </trkpt>
      <trkpt lat="45.15374" lon="5.77342">
        <ele>561.8</ele>
        <time>2021-05-26T17:31:55.000Z</time>
      </trkpt>
      <trkpt lat="45.15374" lon="5.77342">
        <ele>561.8</ele>
        <time>2021-05-26T17:31:56.000Z</time>
      </trkpt>
      <trkpt lat="45.15374" lon="5.77342">
        <ele>561.8</ele>
        <time>2021-05-26T17:31:57.000Z</time>
      </trkpt>
      <trkpt lat="45.15377" lon="5.77343">
        <ele>562.1</ele>
        <time>2021-05-26T17:31:58.000Z</time>
      </trkpt>
      <trkpt lat="45.15377" lon="5.77343">
        <ele>562.1</ele>
        <time>2021-05-26T17:31:59.000Z</time>
      </trkpt>
      <trkpt lat="45.15377" lon="5.77343">
        <ele>562.1</ele>
        <time>2021-05-26T17:32:00.000Z</time>
      </trkpt>
      <trkpt lat="45.15382" lon="5.77345">
        <ele>562.4</ele>
        <time>2021-05-26T17:32:02.000Z</time>
      </trkpt>
      <trkpt lat="45.15383" lon="5.77345">
        <ele>562.5</ele>
        <time>2021-05-26T17:32:03.000Z</time>
      </trkpt>
      <trkpt lat="45.15384" lon="5.77346">
        <ele>562.6</ele>
        <time>2021-05-26T17:32:04.000Z</time>
      </trkpt>
      <trkpt lat="45.15385" lon="5.77346">
        <ele>562.7</ele>
        <time>2021-05-26T17:32:05.000Z</time>
      </trkpt>
      <trkpt lat="45.15386" lon="5.77347">
        <ele>562.8</ele>
        <time>2021-05-26T17:32:06.000Z</time>
      </trkpt>
      <trkpt lat="45.15386" lon="5.77347">
        <ele>562.8</ele>
        <time>2021-05-26T17:32:07.000Z</time>
      </trkpt>
      <trkpt lat="45.15391" lon="5.77349">
        <ele>563.1</ele>
        <time>2021-05-26T17:32:09.000Z</time>
      </trkpt>
      <trkpt lat="45.15392" lon="5.7735">
        <ele>563.3</ele>
        <time>2021-05-26T17:32:10.000Z</time>
      </trkpt>
      <trkpt lat="45.15394" lon="5.7735">
        <ele>563.4</ele>
        <time>2021-05-26T17:32:11.000Z</time>
      </trkpt>
      <trkpt lat="45.15395" lon="5.7735">
        <ele>563.5</ele>
        <time>2021-05-26T17:32:12.000Z</time>
      </trkpt>
      <trkpt lat="45.15395" lon="5.7735">
        <ele>563.5</ele>
        <time>2021-05-26T17:32:13.000Z</time>
      </trkpt>
      <trkpt lat="45.15395" lon="5.7735">
        <ele>563.5</ele>
        <time>2021-05-26T17:32:14.000Z</time>
      </trkpt>
      <trkpt lat="45.15399" lon="5.77352">
        <ele>563.8</ele>
        <time>2021-05-26T17:32:15.000Z</time>
      </trkpt>
      <trkpt lat="45.15399" lon="5.77352">
        <ele>563.8</ele>
        <time>2021-05-26T17:32:16.000Z</time>
      </trkpt>
      <trkpt lat="45.15399" lon="5.77352">
        <ele>563.8</ele>
        <time>2021-05-26T17:32:17.000Z</time>
      </trkpt>
      <trkpt lat="45.15399" lon="5.77352">
        <ele>563.8</ele>
        <time>2021-05-26T17:32:18.000Z</time>
      </trkpt>
      <trkpt lat="45.15399" lon="5.77352">
        <ele>563.8</ele>
        <time>2021-05-26T17:32:19.000Z</time>
      </trkpt>
      <trkpt lat="45.15399" lon="5.77352">
        <ele>563.8</ele>
        <time>2021-05-26T17:32:21.000Z</time>
      </trkpt>
      <trkpt lat="45.15402" lon="5.77353">
        <ele>564.1</ele>
        <time>2021-05-26T17:32:22.000Z</time>
      </trkpt>
      <trkpt lat="45.15403" lon="5.77353">
        <ele>564.2</ele>
        <time>2021-05-26T17:32:23.000Z</time>
      </trkpt>
      <trkpt lat="45.15403" lon="5.77354">
        <ele>564.2</ele>
        <time>2021-05-26T17:32:24.000Z</time>
      </trkpt>
      <trkpt lat="45.15403" lon="5.77354">
        <ele>564.2</ele>
        <time>2021-05-26T17:32:25.000Z</time>
      </trkpt>
      <trkpt lat="45.15404" lon="5.77354">
        <ele>564.2</ele>
        <time>2021-05-26T17:32:26.000Z</time>
      </trkpt>
      <trkpt lat="45.15404" lon="5.77354">
        <ele>564.3</ele>
        <time>2021-05-26T17:32:27.000Z</time>
      </trkpt>
      <trkpt lat="45.15404" lon="5.77354">
        <ele>564.3</ele>
        <time>2021-05-26T17:32:28.000Z</time>
      </trkpt>
      <trkpt lat="45.15405" lon="5.77354">
        <ele>564.3</ele>
        <time>2021-05-26T17:32:29.000Z</time>
      </trkpt>
      <trkpt lat="45.15405" lon="5.77355">
        <ele>564.4</ele>
        <time>2021-05-26T17:32:30.000Z</time>
      </trkpt>
      <trkpt lat="45.15405" lon="5.77355">
        <ele>564.4</ele>
        <time>2021-05-26T17:32:31.000Z</time>
      </trkpt>
      <trkpt lat="45.15406" lon="5.77355">
        <ele>564.4</ele>
        <time>2021-05-26T17:32:32.000Z</time>
      </trkpt>
      <trkpt lat="45.15407" lon="5.77356">
        <ele>564.5</ele>
        <time>2021-05-26T17:32:33.000Z</time>
      </trkpt>
      <trkpt lat="45.15408" lon="5.77356">
        <ele>564.6</ele>
        <time>2021-05-26T17:32:34.000Z</time>
      </trkpt>
      <trkpt lat="45.15409" lon="5.77357">
        <ele>564.7</ele>
        <time>2021-05-26T17:32:35.000Z</time>
      </trkpt>
      <trkpt lat="45.1541" lon="5.77358">
        <ele>564.8</ele>
        <time>2021-05-26T17:32:36.000Z</time>
      </trkpt>
      <trkpt lat="45.15412" lon="5.77359">
        <ele>564.9</ele>
        <time>2021-05-26T17:32:37.000Z</time>
      </trkpt>
      <trkpt lat="45.15414" lon="5.7736">
        <ele>565</ele>
        <time>2021-05-26T17:32:38.000Z</time>
      </trkpt>
      <trkpt lat="45.15416" lon="5.77362">
        <ele>565.2</ele>
        <time>2021-05-26T17:32:40.000Z</time>
      </trkpt>
      <trkpt lat="45.15418" lon="5.77363">
        <ele>565.3</ele>
        <time>2021-05-26T17:32:41.000Z</time>
      </trkpt>
      <trkpt lat="45.15419" lon="5.77364">
        <ele>565.3</ele>
        <time>2021-05-26T17:32:42.000Z</time>
      </trkpt>
      <trkpt lat="45.1542" lon="5.77364">
        <ele>565.4</ele>
        <time>2021-05-26T17:32:43.000Z</time>
      </trkpt>
      <trkpt lat="45.15421" lon="5.77365">
        <ele>565.4</ele>
        <time>2021-05-26T17:32:44.000Z</time>
      </trkpt>
      <trkpt lat="45.15421" lon="5.77365">
        <ele>565.5</ele>
        <time>2021-05-26T17:32:46.000Z</time>
      </trkpt>
      <trkpt lat="45.15422" lon="5.77365">
        <ele>565.6</ele>
        <time>2021-05-26T17:32:47.000Z</time>
      </trkpt>
      <trkpt lat="45.15423" lon="5.77366">
        <ele>565.6</ele>
        <time>2021-05-26T17:32:48.000Z</time>
      </trkpt>
      <trkpt lat="45.15429" lon="5.77369">
        <ele>565.9</ele>
        <time>2021-05-26T17:32:49.000Z</time>
      </trkpt>
      <trkpt lat="45.15429" lon="5.77369">
        <ele>565.9</ele>
        <time>2021-05-26T17:32:50.000Z</time>
      </trkpt>
      <trkpt lat="45.15429" lon="5.77369">
        <ele>565.9</ele>
        <time>2021-05-26T17:32:51.000Z</time>
      </trkpt>
      <trkpt lat="45.15429" lon="5.77369">
        <ele>565.9</ele>
        <time>2021-05-26T17:32:52.000Z</time>
      </trkpt>
      <trkpt lat="45.15441" lon="5.77371">
        <ele>566.3</ele>
        <time>2021-05-26T17:32:54.000Z</time>
      </trkpt>
      <trkpt lat="45.15441" lon="5.77371">
        <ele>566.3</ele>
        <time>2021-05-26T17:32:55.000Z</time>
      </trkpt>
      <trkpt lat="45.15441" lon="5.77371">
        <ele>566.3</ele>
        <time>2021-05-26T17:32:56.000Z</time>
      </trkpt>
      <trkpt lat="45.15441" lon="5.77371">
        <ele>566.3</ele>
        <time>2021-05-26T17:32:57.000Z</time>
      </trkpt>
      <trkpt lat="45.15454" lon="5.77374">
        <ele>566.6</ele>
        <time>2021-05-26T17:32:59.000Z</time>
      </trkpt>
      <trkpt lat="45.15454" lon="5.77374">
        <ele>566.6</ele>
        <time>2021-05-26T17:33:01.000Z</time>
      </trkpt>
      <trkpt lat="45.15456" lon="5.77375">
        <ele>566.7</ele>
        <time>2021-05-26T17:33:02.000Z</time>
      </trkpt>
      <trkpt lat="45.15458" lon="5.77375">
        <ele>566.8</ele>
        <time>2021-05-26T17:33:03.000Z</time>
      </trkpt>
      <trkpt lat="45.1546" lon="5.77376">
        <ele>566.8</ele>
        <time>2021-05-26T17:33:04.000Z</time>
      </trkpt>
      <trkpt lat="45.15466" lon="5.7738">
        <ele>567</ele>
        <time>2021-05-26T17:33:05.000Z</time>
      </trkpt>
      <trkpt lat="45.15468" lon="5.77382">
        <ele>567</ele>
        <time>2021-05-26T17:33:06.000Z</time>
      </trkpt>
      <trkpt lat="45.15469" lon="5.77383">
        <ele>567.1</ele>
        <time>2021-05-26T17:33:07.000Z</time>
      </trkpt>
      <trkpt lat="45.1547" lon="5.77384">
        <ele>567.1</ele>
        <time>2021-05-26T17:33:08.000Z</time>
      </trkpt>
      <trkpt lat="45.15475" lon="5.77389">
        <ele>567.3</ele>
        <time>2021-05-26T17:33:09.000Z</time>
      </trkpt>
      <trkpt lat="45.15476" lon="5.7739">
        <ele>567.3</ele>
        <time>2021-05-26T17:33:10.000Z</time>
      </trkpt>
      <trkpt lat="45.15476" lon="5.7739">
        <ele>567.3</ele>
        <time>2021-05-26T17:33:11.000Z</time>
      </trkpt>
      <trkpt lat="45.15477" lon="5.77391">
        <ele>567.3</ele>
        <time>2021-05-26T17:33:12.000Z</time>
      </trkpt>
      <trkpt lat="45.15478" lon="5.77392">
        <ele>567.4</ele>
        <time>2021-05-26T17:33:13.000Z</time>
      </trkpt>
      <trkpt lat="45.15478" lon="5.77392">
        <ele>567.4</ele>
        <time>2021-05-26T17:33:14.000Z</time>
      </trkpt>
      <trkpt lat="45.15479" lon="5.77393">
        <ele>567.4</ele>
        <time>2021-05-26T17:33:15.000Z</time>
      </trkpt>
      <trkpt lat="45.15484" lon="5.77398">
        <ele>567.6</ele>
        <time>2021-05-26T17:33:16.000Z</time>
      </trkpt>
      <trkpt lat="45.15485" lon="5.77399">
        <ele>567.7</ele>
        <time>2021-05-26T17:33:17.000Z</time>
      </trkpt>
      <trkpt lat="45.15486" lon="5.774">
        <ele>567.7</ele>
        <time>2021-05-26T17:33:19.000Z</time>
      </trkpt>
      <trkpt lat="45.15487" lon="5.774">
        <ele>567.7</ele>
        <time>2021-05-26T17:33:20.000Z</time>
      </trkpt>
      <trkpt lat="45.15487" lon="5.77401">
        <ele>567.8</ele>
        <time>2021-05-26T17:33:21.000Z</time>
      </trkpt>
      <trkpt lat="45.15488" lon="5.77401">
        <ele>567.8</ele>
        <time>2021-05-26T17:33:22.000Z</time>
      </trkpt>
      <trkpt lat="45.15489" lon="5.77402">
        <ele>567.8</ele>
        <time>2021-05-26T17:33:23.000Z</time>
      </trkpt>
      <trkpt lat="45.15495" lon="5.77407">
        <ele>568.1</ele>
        <time>2021-05-26T17:33:24.000Z</time>
      </trkpt>
      <trkpt lat="45.15496" lon="5.77408">
        <ele>568.1</ele>
        <time>2021-05-26T17:33:25.000Z</time>
      </trkpt>
      <trkpt lat="45.15497" lon="5.77408">
        <ele>568.1</ele>
        <time>2021-05-26T17:33:26.000Z</time>
      </trkpt>
      <trkpt lat="45.15498" lon="5.77409">
        <ele>568.2</ele>
        <time>2021-05-26T17:33:27.000Z</time>
      </trkpt>
      <trkpt lat="45.15499" lon="5.77409">
        <ele>568.2</ele>
        <time>2021-05-26T17:33:28.000Z</time>
      </trkpt>
      <trkpt lat="45.155" lon="5.7741">
        <ele>568.2</ele>
        <time>2021-05-26T17:33:29.000Z</time>
      </trkpt>
      <trkpt lat="45.15506" lon="5.77414">
        <ele>568.5</ele>
        <time>2021-05-26T17:33:30.000Z</time>
      </trkpt>
      <trkpt lat="45.15507" lon="5.77415">
        <ele>568.5</ele>
        <time>2021-05-26T17:33:31.000Z</time>
      </trkpt>
      <trkpt lat="45.15508" lon="5.77416">
        <ele>568.6</ele>
        <time>2021-05-26T17:33:32.000Z</time>
      </trkpt>
      <trkpt lat="45.15509" lon="5.77417">
        <ele>568.6</ele>
        <time>2021-05-26T17:33:33.000Z</time>
      </trkpt>
      <trkpt lat="45.1551" lon="5.77417">
        <ele>568.6</ele>
        <time>2021-05-26T17:33:34.000Z</time>
      </trkpt>
      <trkpt lat="45.15517" lon="5.77422">
        <ele>569</ele>
        <time>2021-05-26T17:33:35.000Z</time>
      </trkpt>
      <trkpt lat="45.15518" lon="5.77423">
        <ele>569</ele>
        <time>2021-05-26T17:33:36.000Z</time>
      </trkpt>
      <trkpt lat="45.15519" lon="5.77424">
        <ele>569.1</ele>
        <time>2021-05-26T17:33:38.000Z</time>
      </trkpt>
      <trkpt lat="45.15521" lon="5.77425">
        <ele>569.2</ele>
        <time>2021-05-26T17:33:39.000Z</time>
      </trkpt>
      <trkpt lat="45.15522" lon="5.77426">
        <ele>569.3</ele>
        <time>2021-05-26T17:33:40.000Z</time>
      </trkpt>
      <trkpt lat="45.15529" lon="5.77431">
        <ele>569.8</ele>
        <time>2021-05-26T17:33:41.000Z</time>
      </trkpt>
      <trkpt lat="45.15531" lon="5.77431">
        <ele>569.8</ele>
        <time>2021-05-26T17:33:42.000Z</time>
      </trkpt>
      <trkpt lat="45.15532" lon="5.77432">
        <ele>569.9</ele>
        <time>2021-05-26T17:33:43.000Z</time>
      </trkpt>
      <trkpt lat="45.15533" lon="5.77433">
        <ele>570</ele>
        <time>2021-05-26T17:33:44.000Z</time>
      </trkpt>
      <trkpt lat="45.15534" lon="5.77433">
        <ele>570.1</ele>
        <time>2021-05-26T17:33:45.000Z</time>
      </trkpt>
      <trkpt lat="45.1554" lon="5.77437">
        <ele>570.6</ele>
        <time>2021-05-26T17:33:46.000Z</time>
      </trkpt>
      <trkpt lat="45.15541" lon="5.77438">
        <ele>570.7</ele>
        <time>2021-05-26T17:33:47.000Z</time>
      </trkpt>
      <trkpt lat="45.15541" lon="5.77438">
        <ele>570.8</ele>
        <time>2021-05-26T17:33:48.000Z</time>
      </trkpt>
      <trkpt lat="45.15542" lon="5.77439">
        <ele>570.8</ele>
        <time>2021-05-26T17:33:49.000Z</time>
      </trkpt>
      <trkpt lat="45.15543" lon="5.77439">
        <ele>570.9</ele>
        <time>2021-05-26T17:33:50.000Z</time>
      </trkpt>
      <trkpt lat="45.15543" lon="5.7744">
        <ele>570.9</ele>
        <time>2021-05-26T17:33:51.000Z</time>
      </trkpt>
      <trkpt lat="45.15544" lon="5.7744">
        <ele>571</ele>
        <time>2021-05-26T17:33:52.000Z</time>
      </trkpt>
      <trkpt lat="45.15544" lon="5.77441">
        <ele>571.1</ele>
        <time>2021-05-26T17:33:53.000Z</time>
      </trkpt>
      <trkpt lat="45.1555" lon="5.77446">
        <ele>571.6</ele>
        <time>2021-05-26T17:33:54.000Z</time>
      </trkpt>
      <trkpt lat="45.15551" lon="5.77447">
        <ele>571.7</ele>
        <time>2021-05-26T17:33:55.000Z</time>
      </trkpt>
      <trkpt lat="45.15552" lon="5.77447">
        <ele>571.8</ele>
        <time>2021-05-26T17:33:57.000Z</time>
      </trkpt>
      <trkpt lat="45.15553" lon="5.77448">
        <ele>571.9</ele>
        <time>2021-05-26T17:33:58.000Z</time>
      </trkpt>
      <trkpt lat="45.15553" lon="5.77448">
        <ele>571.9</ele>
        <time>2021-05-26T17:33:59.000Z</time>
      </trkpt>
      <trkpt lat="45.15554" lon="5.77448">
        <ele>572</ele>
        <time>2021-05-26T17:34:00.000Z</time>
      </trkpt>
      <trkpt lat="45.15555" lon="5.77449">
        <ele>572.1</ele>
        <time>2021-05-26T17:34:01.000Z</time>
      </trkpt>
      <trkpt lat="45.15562" lon="5.77452">
        <ele>572.7</ele>
        <time>2021-05-26T17:34:02.000Z</time>
      </trkpt>
      <trkpt lat="45.15562" lon="5.77453">
        <ele>572.8</ele>
        <time>2021-05-26T17:34:03.000Z</time>
      </trkpt>
      <trkpt lat="45.15563" lon="5.77453">
        <ele>572.9</ele>
        <time>2021-05-26T17:34:04.000Z</time>
      </trkpt>
      <trkpt lat="45.15564" lon="5.77454">
        <ele>572.9</ele>
        <time>2021-05-26T17:34:05.000Z</time>
      </trkpt>
      <trkpt lat="45.15565" lon="5.77454">
        <ele>573</ele>
        <time>2021-05-26T17:34:06.000Z</time>
      </trkpt>
      <trkpt lat="45.15565" lon="5.77454">
        <ele>573.1</ele>
        <time>2021-05-26T17:34:07.000Z</time>
      </trkpt>
      <trkpt lat="45.15566" lon="5.77455">
        <ele>573.2</ele>
        <time>2021-05-26T17:34:08.000Z</time>
      </trkpt>
      <trkpt lat="45.15572" lon="5.77458">
        <ele>573.8</ele>
        <time>2021-05-26T17:34:09.000Z</time>
      </trkpt>
      <trkpt lat="45.15572" lon="5.77459">
        <ele>573.8</ele>
        <time>2021-05-26T17:34:10.000Z</time>
      </trkpt>
      <trkpt lat="45.15573" lon="5.77459">
        <ele>573.9</ele>
        <time>2021-05-26T17:34:11.000Z</time>
      </trkpt>
      <trkpt lat="45.15574" lon="5.7746">
        <ele>574</ele>
        <time>2021-05-26T17:34:12.000Z</time>
      </trkpt>
      <trkpt lat="45.15574" lon="5.7746">
        <ele>574</ele>
        <time>2021-05-26T17:34:13.000Z</time>
      </trkpt>
      <trkpt lat="45.15575" lon="5.77461">
        <ele>574.1</ele>
        <time>2021-05-26T17:34:14.000Z</time>
      </trkpt>
      <trkpt lat="45.15583" lon="5.77468">
        <ele>575</ele>
        <time>2021-05-26T17:34:16.000Z</time>
      </trkpt>
      <trkpt lat="45.15584" lon="5.77468">
        <ele>575.1</ele>
        <time>2021-05-26T17:34:17.000Z</time>
      </trkpt>
      <trkpt lat="45.15585" lon="5.77469">
        <ele>575.1</ele>
        <time>2021-05-26T17:34:18.000Z</time>
      </trkpt>
      <trkpt lat="45.15586" lon="5.77469">
        <ele>575.2</ele>
        <time>2021-05-26T17:34:19.000Z</time>
      </trkpt>
      <trkpt lat="45.15586" lon="5.7747">
        <ele>575.3</ele>
        <time>2021-05-26T17:34:20.000Z</time>
      </trkpt>
      <trkpt lat="45.15587" lon="5.7747">
        <ele>575.4</ele>
        <time>2021-05-26T17:34:21.000Z</time>
      </trkpt>
      <trkpt lat="45.15593" lon="5.77474">
        <ele>575.9</ele>
        <time>2021-05-26T17:34:22.000Z</time>
      </trkpt>
      <trkpt lat="45.15594" lon="5.77475">
        <ele>576</ele>
        <time>2021-05-26T17:34:23.000Z</time>
      </trkpt>
      <trkpt lat="45.15595" lon="5.77475">
        <ele>576.1</ele>
        <time>2021-05-26T17:34:24.000Z</time>
      </trkpt>
      <trkpt lat="45.15596" lon="5.77476">
        <ele>576.1</ele>
        <time>2021-05-26T17:34:25.000Z</time>
      </trkpt>
      <trkpt lat="45.15597" lon="5.77476">
        <ele>576.2</ele>
        <time>2021-05-26T17:34:26.000Z</time>
      </trkpt>
      <trkpt lat="45.15598" lon="5.77477">
        <ele>576.3</ele>
        <time>2021-05-26T17:34:27.000Z</time>
      </trkpt>
      <trkpt lat="45.15604" lon="5.77481">
        <ele>576.8</ele>
        <time>2021-05-26T17:34:28.000Z</time>
      </trkpt>
      <trkpt lat="45.15605" lon="5.77482">
        <ele>576.9</ele>
        <time>2021-05-26T17:34:29.000Z</time>
      </trkpt>
      <trkpt lat="45.15606" lon="5.77483">
        <ele>577</ele>
        <time>2021-05-26T17:34:30.000Z</time>
      </trkpt>
      <trkpt lat="45.15608" lon="5.77484">
        <ele>577.1</ele>
        <time>2021-05-26T17:34:31.000Z</time>
      </trkpt>
      <trkpt lat="45.15609" lon="5.77485">
        <ele>577.2</ele>
        <time>2021-05-26T17:34:32.000Z</time>
      </trkpt>
      <trkpt lat="45.1561" lon="5.77486">
        <ele>577.3</ele>
        <time>2021-05-26T17:34:33.000Z</time>
      </trkpt>
      <trkpt lat="45.15611" lon="5.77487">
        <ele>577.4</ele>
        <time>2021-05-26T17:34:34.000Z</time>
      </trkpt>
      <trkpt lat="45.15613" lon="5.77488">
        <ele>577.5</ele>
        <time>2021-05-26T17:34:35.000Z</time>
      </trkpt>
      <trkpt lat="45.15614" lon="5.77489">
        <ele>577.5</ele>
        <time>2021-05-26T17:34:36.000Z</time>
      </trkpt>
      <trkpt lat="45.15615" lon="5.7749">
        <ele>577.6</ele>
        <time>2021-05-26T17:34:37.000Z</time>
      </trkpt>
      <trkpt lat="45.15616" lon="5.7749">
        <ele>577.7</ele>
        <time>2021-05-26T17:34:38.000Z</time>
      </trkpt>
      <trkpt lat="45.15617" lon="5.77491">
        <ele>577.8</ele>
        <time>2021-05-26T17:34:39.000Z</time>
      </trkpt>
      <trkpt lat="45.15618" lon="5.77492">
        <ele>577.9</ele>
        <time>2021-05-26T17:34:40.000Z</time>
      </trkpt>
      <trkpt lat="45.15624" lon="5.77496">
        <ele>578.4</ele>
        <time>2021-05-26T17:34:41.000Z</time>
      </trkpt>
      <trkpt lat="45.15625" lon="5.77497">
        <ele>578.5</ele>
        <time>2021-05-26T17:34:42.000Z</time>
      </trkpt>
      <trkpt lat="45.15626" lon="5.77497">
        <ele>578.6</ele>
        <time>2021-05-26T17:34:43.000Z</time>
      </trkpt>
      <trkpt lat="45.15627" lon="5.77498">
        <ele>578.6</ele>
        <time>2021-05-26T17:34:44.000Z</time>
      </trkpt>
      <trkpt lat="45.15628" lon="5.77498">
        <ele>578.7</ele>
        <time>2021-05-26T17:34:45.000Z</time>
      </trkpt>
      <trkpt lat="45.15628" lon="5.77498">
        <ele>578.8</ele>
        <time>2021-05-26T17:34:46.000Z</time>
      </trkpt>
      <trkpt lat="45.15629" lon="5.77499">
        <ele>578.8</ele>
        <time>2021-05-26T17:34:47.000Z</time>
      </trkpt>
      <trkpt lat="45.15636" lon="5.77503">
        <ele>579.5</ele>
        <time>2021-05-26T17:34:48.000Z</time>
      </trkpt>
      <trkpt lat="45.15638" lon="5.77504">
        <ele>579.7</ele>
        <time>2021-05-26T17:34:49.000Z</time>
      </trkpt>
      <trkpt lat="45.15639" lon="5.77506">
        <ele>579.9</ele>
        <time>2021-05-26T17:34:50.000Z</time>
      </trkpt>
      <trkpt lat="45.1564" lon="5.77507">
        <ele>580</ele>
        <time>2021-05-26T17:34:51.000Z</time>
      </trkpt>
      <trkpt lat="45.15642" lon="5.77508">
        <ele>580.2</ele>
        <time>2021-05-26T17:34:52.000Z</time>
      </trkpt>
      <trkpt lat="45.15643" lon="5.77509">
        <ele>580.4</ele>
        <time>2021-05-26T17:34:53.000Z</time>
      </trkpt>
      <trkpt lat="45.15645" lon="5.7751">
        <ele>580.5</ele>
        <time>2021-05-26T17:34:54.000Z</time>
      </trkpt>
      <trkpt lat="45.15646" lon="5.77511">
        <ele>580.7</ele>
        <time>2021-05-26T17:34:55.000Z</time>
      </trkpt>
      <trkpt lat="45.15647" lon="5.77511">
        <ele>580.8</ele>
        <time>2021-05-26T17:34:56.000Z</time>
      </trkpt>
      <trkpt lat="45.15649" lon="5.77512">
        <ele>580.9</ele>
        <time>2021-05-26T17:34:57.000Z</time>
      </trkpt>
      <trkpt lat="45.1565" lon="5.77512">
        <ele>581</ele>
        <time>2021-05-26T17:34:58.000Z</time>
      </trkpt>
      <trkpt lat="45.15651" lon="5.77513">
        <ele>581.1</ele>
        <time>2021-05-26T17:34:59.000Z</time>
      </trkpt>
      <trkpt lat="45.15658" lon="5.77517">
        <ele>581.8</ele>
        <time>2021-05-26T17:35:00.000Z</time>
      </trkpt>
      <trkpt lat="45.15659" lon="5.77518">
        <ele>581.9</ele>
        <time>2021-05-26T17:35:01.000Z</time>
      </trkpt>
      <trkpt lat="45.15659" lon="5.77519">
        <ele>582</ele>
        <time>2021-05-26T17:35:02.000Z</time>
      </trkpt>
      <trkpt lat="45.1566" lon="5.77519">
        <ele>582.1</ele>
        <time>2021-05-26T17:35:03.000Z</time>
      </trkpt>
      <trkpt lat="45.15661" lon="5.7752">
        <ele>582.2</ele>
        <time>2021-05-26T17:35:04.000Z</time>
      </trkpt>
      <trkpt lat="45.15662" lon="5.77521">
        <ele>582.3</ele>
        <time>2021-05-26T17:35:05.000Z</time>
      </trkpt>
      <trkpt lat="45.15667" lon="5.77528">
        <ele>583</ele>
        <time>2021-05-26T17:35:06.000Z</time>
      </trkpt>
      <trkpt lat="45.15667" lon="5.77528">
        <ele>583</ele>
        <time>2021-05-26T17:35:07.000Z</time>
      </trkpt>
      <trkpt lat="45.15668" lon="5.77529">
        <ele>583.1</ele>
        <time>2021-05-26T17:35:08.000Z</time>
      </trkpt>
      <trkpt lat="45.15668" lon="5.7753">
        <ele>583.2</ele>
        <time>2021-05-26T17:35:09.000Z</time>
      </trkpt>
      <trkpt lat="45.15668" lon="5.7753">
        <ele>583.2</ele>
        <time>2021-05-26T17:35:10.000Z</time>
      </trkpt>
      <trkpt lat="45.15669" lon="5.77531">
        <ele>583.3</ele>
        <time>2021-05-26T17:35:11.000Z</time>
      </trkpt>
      <trkpt lat="45.15674" lon="5.7754">
        <ele>584.2</ele>
        <time>2021-05-26T17:35:13.000Z</time>
      </trkpt>
      <trkpt lat="45.15675" lon="5.7754">
        <ele>584.2</ele>
        <time>2021-05-26T17:35:14.000Z</time>
      </trkpt>
      <trkpt lat="45.15675" lon="5.77541">
        <ele>584.3</ele>
        <time>2021-05-26T17:35:15.000Z</time>
      </trkpt>
      <trkpt lat="45.15676" lon="5.77542">
        <ele>584.4</ele>
        <time>2021-05-26T17:35:16.000Z</time>
      </trkpt>
      <trkpt lat="45.15676" lon="5.77542">
        <ele>584.5</ele>
        <time>2021-05-26T17:35:17.000Z</time>
      </trkpt>
      <trkpt lat="45.15677" lon="5.77543">
        <ele>584.5</ele>
        <time>2021-05-26T17:35:18.000Z</time>
      </trkpt>
      <trkpt lat="45.15677" lon="5.77544">
        <ele>584.6</ele>
        <time>2021-05-26T17:35:19.000Z</time>
      </trkpt>
      <trkpt lat="45.15678" lon="5.77544">
        <ele>584.7</ele>
        <time>2021-05-26T17:35:20.000Z</time>
      </trkpt>
      <trkpt lat="45.15682" lon="5.7755">
        <ele>585.4</ele>
        <time>2021-05-26T17:35:21.000Z</time>
      </trkpt>
      <trkpt lat="45.15683" lon="5.77551">
        <ele>585.4</ele>
        <time>2021-05-26T17:35:22.000Z</time>
      </trkpt>
      <trkpt lat="45.15683" lon="5.77551">
        <ele>585.5</ele>
        <time>2021-05-26T17:35:24.000Z</time>
      </trkpt>
      <trkpt lat="45.15683" lon="5.77552">
        <ele>585.5</ele>
        <time>2021-05-26T17:35:25.000Z</time>
      </trkpt>
      <trkpt lat="45.15683" lon="5.77552">
        <ele>585.6</ele>
        <time>2021-05-26T17:35:26.000Z</time>
      </trkpt>
      <trkpt lat="45.15684" lon="5.77553">
        <ele>585.6</ele>
        <time>2021-05-26T17:35:27.000Z</time>
      </trkpt>
      <trkpt lat="45.15684" lon="5.77553">
        <ele>585.7</ele>
        <time>2021-05-26T17:35:28.000Z</time>
      </trkpt>
      <trkpt lat="45.15684" lon="5.77554">
        <ele>585.7</ele>
        <time>2021-05-26T17:35:29.000Z</time>
      </trkpt>
      <trkpt lat="45.15684" lon="5.77554">
        <ele>585.8</ele>
        <time>2021-05-26T17:35:30.000Z</time>
      </trkpt>
      <trkpt lat="45.15688" lon="5.77563">
        <ele>586.6</ele>
        <time>2021-05-26T17:35:32.000Z</time>
      </trkpt>
      <trkpt lat="45.15688" lon="5.77563">
        <ele>586.6</ele>
        <time>2021-05-26T17:35:33.000Z</time>
      </trkpt>
      <trkpt lat="45.15688" lon="5.77563">
        <ele>586.7</ele>
        <time>2021-05-26T17:35:34.000Z</time>
      </trkpt>
      <trkpt lat="45.15687" lon="5.77563">
        <ele>586.7</ele>
        <time>2021-05-26T17:35:35.000Z</time>
      </trkpt>
      <trkpt lat="45.15687" lon="5.77563">
        <ele>586.8</ele>
        <time>2021-05-26T17:35:36.000Z</time>
      </trkpt>
      <trkpt lat="45.15686" lon="5.77563">
        <ele>586.8</ele>
        <time>2021-05-26T17:35:37.000Z</time>
      </trkpt>
      <trkpt lat="45.15686" lon="5.77563">
        <ele>586.8</ele>
        <time>2021-05-26T17:35:38.000Z</time>
      </trkpt>
      <trkpt lat="45.15686" lon="5.77563">
        <ele>586.9</ele>
        <time>2021-05-26T17:35:39.000Z</time>
      </trkpt>
      <trkpt lat="45.15685" lon="5.77562">
        <ele>586.9</ele>
        <time>2021-05-26T17:35:40.000Z</time>
      </trkpt>
      <trkpt lat="45.15685" lon="5.77562">
        <ele>587</ele>
        <time>2021-05-26T17:35:42.000Z</time>
      </trkpt>
      <trkpt lat="45.15684" lon="5.77562">
        <ele>587</ele>
        <time>2021-05-26T17:35:43.000Z</time>
      </trkpt>
      <trkpt lat="45.15684" lon="5.77562">
        <ele>587.1</ele>
        <time>2021-05-26T17:35:44.000Z</time>
      </trkpt>
      <trkpt lat="45.15683" lon="5.77562">
        <ele>587.1</ele>
        <time>2021-05-26T17:35:45.000Z</time>
      </trkpt>
      <trkpt lat="45.15677" lon="5.77561">
        <ele>587.8</ele>
        <time>2021-05-26T17:35:46.000Z</time>
      </trkpt>
      <trkpt lat="45.15676" lon="5.7756">
        <ele>587.9</ele>
        <time>2021-05-26T17:35:47.000Z</time>
      </trkpt>
      <trkpt lat="45.15676" lon="5.7756">
        <ele>588</ele>
        <time>2021-05-26T17:35:48.000Z</time>
      </trkpt>
      <trkpt lat="45.15675" lon="5.77559">
        <ele>588.1</ele>
        <time>2021-05-26T17:35:49.000Z</time>
      </trkpt>
      <trkpt lat="45.15674" lon="5.77559">
        <ele>588.2</ele>
        <time>2021-05-26T17:35:51.000Z</time>
      </trkpt>
      <trkpt lat="45.15673" lon="5.77558">
        <ele>588.3</ele>
        <time>2021-05-26T17:35:53.000Z</time>
      </trkpt>
      <trkpt lat="45.15672" lon="5.77558">
        <ele>588.4</ele>
        <time>2021-05-26T17:35:54.000Z</time>
      </trkpt>
      <trkpt lat="45.15666" lon="5.77554">
        <ele>589.1</ele>
        <time>2021-05-26T17:35:55.000Z</time>
      </trkpt>
      <trkpt lat="45.15665" lon="5.77554">
        <ele>589.2</ele>
        <time>2021-05-26T17:35:56.000Z</time>
      </trkpt>
      <trkpt lat="45.15665" lon="5.77554">
        <ele>589.2</ele>
        <time>2021-05-26T17:35:57.000Z</time>
      </trkpt>
      <trkpt lat="45.15664" lon="5.77554">
        <ele>589.3</ele>
        <time>2021-05-26T17:35:58.000Z</time>
      </trkpt>
      <trkpt lat="45.15663" lon="5.77553">
        <ele>589.4</ele>
        <time>2021-05-26T17:35:59.000Z</time>
      </trkpt>
      <trkpt lat="45.15663" lon="5.77553">
        <ele>589.5</ele>
        <time>2021-05-26T17:36:00.000Z</time>
      </trkpt>
      <trkpt lat="45.15662" lon="5.77553">
        <ele>589.6</ele>
        <time>2021-05-26T17:36:01.000Z</time>
      </trkpt>
      <trkpt lat="45.15661" lon="5.77553">
        <ele>589.6</ele>
        <time>2021-05-26T17:36:02.000Z</time>
      </trkpt>
      <trkpt lat="45.15654" lon="5.77551">
        <ele>590.4</ele>
        <time>2021-05-26T17:36:03.000Z</time>
      </trkpt>
      <trkpt lat="45.15652" lon="5.77551">
        <ele>590.6</ele>
        <time>2021-05-26T17:36:04.000Z</time>
      </trkpt>
      <trkpt lat="45.15651" lon="5.77551">
        <ele>590.7</ele>
        <time>2021-05-26T17:36:05.000Z</time>
      </trkpt>
      <trkpt lat="45.15649" lon="5.77551">
        <ele>590.9</ele>
        <time>2021-05-26T17:36:06.000Z</time>
      </trkpt>
      <trkpt lat="45.15648" lon="5.7755">
        <ele>591</ele>
        <time>2021-05-26T17:36:07.000Z</time>
      </trkpt>
      <trkpt lat="45.15646" lon="5.7755">
        <ele>591.2</ele>
        <time>2021-05-26T17:36:08.000Z</time>
      </trkpt>
      <trkpt lat="45.15645" lon="5.7755">
        <ele>591.3</ele>
        <time>2021-05-26T17:36:09.000Z</time>
      </trkpt>
      <trkpt lat="45.15643" lon="5.77549">
        <ele>591.5</ele>
        <time>2021-05-26T17:36:10.000Z</time>
      </trkpt>
      <trkpt lat="45.15642" lon="5.77549">
        <ele>591.6</ele>
        <time>2021-05-26T17:36:11.000Z</time>
      </trkpt>
      <trkpt lat="45.15641" lon="5.77549">
        <ele>591.7</ele>
        <time>2021-05-26T17:36:12.000Z</time>
      </trkpt>
      <trkpt lat="45.1564" lon="5.77549">
        <ele>591.8</ele>
        <time>2021-05-26T17:36:13.000Z</time>
      </trkpt>
      <trkpt lat="45.15639" lon="5.77549">
        <ele>591.9</ele>
        <time>2021-05-26T17:36:14.000Z</time>
      </trkpt>
      <trkpt lat="45.15638" lon="5.77549">
        <ele>592</ele>
        <time>2021-05-26T17:36:15.000Z</time>
      </trkpt>
      <trkpt lat="45.15637" lon="5.77549">
        <ele>592.1</ele>
        <time>2021-05-26T17:36:16.000Z</time>
      </trkpt>
      <trkpt lat="45.15631" lon="5.77549">
        <ele>592.7</ele>
        <time>2021-05-26T17:36:17.000Z</time>
      </trkpt>
      <trkpt lat="45.1563" lon="5.77548">
        <ele>592.8</ele>
        <time>2021-05-26T17:36:18.000Z</time>
      </trkpt>
      <trkpt lat="45.15629" lon="5.77548">
        <ele>592.8</ele>
        <time>2021-05-26T17:36:19.000Z</time>
      </trkpt>
      <trkpt lat="45.15629" lon="5.77548">
        <ele>592.9</ele>
        <time>2021-05-26T17:36:20.000Z</time>
      </trkpt>
      <trkpt lat="45.15628" lon="5.77548">
        <ele>592.9</ele>
        <time>2021-05-26T17:36:21.000Z</time>
      </trkpt>
      <trkpt lat="45.15628" lon="5.77548">
        <ele>593</ele>
        <time>2021-05-26T17:36:22.000Z</time>
      </trkpt>
      <trkpt lat="45.15619" lon="5.77546">
        <ele>594</ele>
        <time>2021-05-26T17:36:24.000Z</time>
      </trkpt>
      <trkpt lat="45.15617" lon="5.77545">
        <ele>594.2</ele>
        <time>2021-05-26T17:36:25.000Z</time>
      </trkpt>
      <trkpt lat="45.15615" lon="5.77545">
        <ele>594.4</ele>
        <time>2021-05-26T17:36:26.000Z</time>
      </trkpt>
      <trkpt lat="45.15613" lon="5.77544">
        <ele>594.6</ele>
        <time>2021-05-26T17:36:27.000Z</time>
      </trkpt>
      <trkpt lat="45.15611" lon="5.77544">
        <ele>594.8</ele>
        <time>2021-05-26T17:36:28.000Z</time>
      </trkpt>
      <trkpt lat="45.15609" lon="5.77543">
        <ele>595</ele>
        <time>2021-05-26T17:36:29.000Z</time>
      </trkpt>
      <trkpt lat="45.15608" lon="5.77543">
        <ele>595.1</ele>
        <time>2021-05-26T17:36:30.000Z</time>
      </trkpt>
      <trkpt lat="45.15607" lon="5.77543">
        <ele>595.2</ele>
        <time>2021-05-26T17:36:31.000Z</time>
      </trkpt>
      <trkpt lat="45.15606" lon="5.77543">
        <ele>595.3</ele>
        <time>2021-05-26T17:36:32.000Z</time>
      </trkpt>
      <trkpt lat="45.15605" lon="5.77542">
        <ele>595.4</ele>
        <time>2021-05-26T17:36:33.000Z</time>
      </trkpt>
      <trkpt lat="45.15604" lon="5.77542">
        <ele>595.5</ele>
        <time>2021-05-26T17:36:34.000Z</time>
      </trkpt>
      <trkpt lat="45.15603" lon="5.77542">
        <ele>595.6</ele>
        <time>2021-05-26T17:36:35.000Z</time>
      </trkpt>
      <trkpt lat="45.15597" lon="5.77541">
        <ele>596.3</ele>
        <time>2021-05-26T17:36:36.000Z</time>
      </trkpt>
      <trkpt lat="45.15596" lon="5.77541">
        <ele>596.4</ele>
        <time>2021-05-26T17:36:37.000Z</time>
      </trkpt>
      <trkpt lat="45.15596" lon="5.77541">
        <ele>596.4</ele>
        <time>2021-05-26T17:36:38.000Z</time>
      </trkpt>
      <trkpt lat="45.15595" lon="5.77541">
        <ele>596.5</ele>
        <time>2021-05-26T17:36:39.000Z</time>
      </trkpt>
      <trkpt lat="45.15595" lon="5.77541">
        <ele>596.6</ele>
        <time>2021-05-26T17:36:40.000Z</time>
      </trkpt>
      <trkpt lat="45.15594" lon="5.77541">
        <ele>596.6</ele>
        <time>2021-05-26T17:36:41.000Z</time>
      </trkpt>
      <trkpt lat="45.15593" lon="5.77541">
        <ele>596.7</ele>
        <time>2021-05-26T17:36:42.000Z</time>
      </trkpt>
      <trkpt lat="45.15593" lon="5.77541">
        <ele>596.8</ele>
        <time>2021-05-26T17:36:43.000Z</time>
      </trkpt>
      <trkpt lat="45.15592" lon="5.77541">
        <ele>596.8</ele>
        <time>2021-05-26T17:36:44.000Z</time>
      </trkpt>
      <trkpt lat="45.15592" lon="5.77541">
        <ele>596.9</ele>
        <time>2021-05-26T17:36:45.000Z</time>
      </trkpt>
      <trkpt lat="45.15585" lon="5.77542">
        <ele>597.6</ele>
        <time>2021-05-26T17:36:46.000Z</time>
      </trkpt>
      <trkpt lat="45.15584" lon="5.77542">
        <ele>597.7</ele>
        <time>2021-05-26T17:36:48.000Z</time>
      </trkpt>
      <trkpt lat="45.15583" lon="5.77542">
        <ele>597.8</ele>
        <time>2021-05-26T17:36:49.000Z</time>
      </trkpt>
      <trkpt lat="45.15582" lon="5.77542">
        <ele>597.9</ele>
        <time>2021-05-26T17:36:50.000Z</time>
      </trkpt>
      <trkpt lat="45.15581" lon="5.77542">
        <ele>598</ele>
        <time>2021-05-26T17:36:51.000Z</time>
      </trkpt>
      <trkpt lat="45.1558" lon="5.77542">
        <ele>598.1</ele>
        <time>2021-05-26T17:36:52.000Z</time>
      </trkpt>
      <trkpt lat="45.15573" lon="5.77543">
        <ele>598.8</ele>
        <time>2021-05-26T17:36:53.000Z</time>
      </trkpt>
      <trkpt lat="45.15572" lon="5.77543">
        <ele>598.9</ele>
        <time>2021-05-26T17:36:54.000Z</time>
      </trkpt>
      <trkpt lat="45.15571" lon="5.77543">
        <ele>598.9</ele>
        <time>2021-05-26T17:36:55.000Z</time>
      </trkpt>
      <trkpt lat="45.15571" lon="5.77543">
        <ele>599</ele>
        <time>2021-05-26T17:36:56.000Z</time>
      </trkpt>
      <trkpt lat="45.1557" lon="5.77543">
        <ele>599.1</ele>
        <time>2021-05-26T17:36:57.000Z</time>
      </trkpt>
      <trkpt lat="45.1557" lon="5.77543">
        <ele>599.1</ele>
        <time>2021-05-26T17:36:58.000Z</time>
      </trkpt>
      <trkpt lat="45.1556" lon="5.77541">
        <ele>600</ele>
        <time>2021-05-26T17:37:00.000Z</time>
      </trkpt>
      <trkpt lat="45.15559" lon="5.77541">
        <ele>600.2</ele>
        <time>2021-05-26T17:37:01.000Z</time>
      </trkpt>
      <trkpt lat="45.15558" lon="5.77541">
        <ele>600.3</ele>
        <time>2021-05-26T17:37:02.000Z</time>
      </trkpt>
      <trkpt lat="45.15556" lon="5.77541">
        <ele>600.4</ele>
        <time>2021-05-26T17:37:03.000Z</time>
      </trkpt>
      <trkpt lat="45.15555" lon="5.7754">
        <ele>600.6</ele>
        <time>2021-05-26T17:37:04.000Z</time>
      </trkpt>
      <trkpt lat="45.15554" lon="5.7754">
        <ele>600.7</ele>
        <time>2021-05-26T17:37:05.000Z</time>
      </trkpt>
      <trkpt lat="45.15552" lon="5.7754">
        <ele>600.9</ele>
        <time>2021-05-26T17:37:06.000Z</time>
      </trkpt>
      <trkpt lat="45.15551" lon="5.7754">
        <ele>601</ele>
        <time>2021-05-26T17:37:07.000Z</time>
      </trkpt>
      <trkpt lat="45.1555" lon="5.77539">
        <ele>601.1</ele>
        <time>2021-05-26T17:37:08.000Z</time>
      </trkpt>
      <trkpt lat="45.15549" lon="5.77539">
        <ele>601.2</ele>
        <time>2021-05-26T17:37:09.000Z</time>
      </trkpt>
      <trkpt lat="45.15548" lon="5.77539">
        <ele>601.3</ele>
        <time>2021-05-26T17:37:10.000Z</time>
      </trkpt>
      <trkpt lat="45.15547" lon="5.77538">
        <ele>601.4</ele>
        <time>2021-05-26T17:37:11.000Z</time>
      </trkpt>
      <trkpt lat="45.15546" lon="5.77538">
        <ele>601.5</ele>
        <time>2021-05-26T17:37:12.000Z</time>
      </trkpt>
      <trkpt lat="45.15539" lon="5.77535">
        <ele>602.2</ele>
        <time>2021-05-26T17:37:13.000Z</time>
      </trkpt>
      <trkpt lat="45.15538" lon="5.77535">
        <ele>602.3</ele>
        <time>2021-05-26T17:37:14.000Z</time>
      </trkpt>
      <trkpt lat="45.15538" lon="5.77535">
        <ele>602.3</ele>
        <time>2021-05-26T17:37:15.000Z</time>
      </trkpt>
      <trkpt lat="45.15537" lon="5.77535">
        <ele>602.4</ele>
        <time>2021-05-26T17:37:16.000Z</time>
      </trkpt>
      <trkpt lat="45.15536" lon="5.77535">
        <ele>602.5</ele>
        <time>2021-05-26T17:37:17.000Z</time>
      </trkpt>
      <trkpt lat="45.15535" lon="5.77535">
        <ele>602.6</ele>
        <time>2021-05-26T17:37:18.000Z</time>
      </trkpt>
      <trkpt lat="45.15529" lon="5.77533">
        <ele>603.2</ele>
        <time>2021-05-26T17:37:19.000Z</time>
      </trkpt>
      <trkpt lat="45.15528" lon="5.77533">
        <ele>603.3</ele>
        <time>2021-05-26T17:37:20.000Z</time>
      </trkpt>
      <trkpt lat="45.15527" lon="5.77533">
        <ele>603.4</ele>
        <time>2021-05-26T17:37:21.000Z</time>
      </trkpt>
      <trkpt lat="45.15527" lon="5.77532">
        <ele>603.4</ele>
        <time>2021-05-26T17:37:22.000Z</time>
      </trkpt>
      <trkpt lat="45.15526" lon="5.77532">
        <ele>603.5</ele>
        <time>2021-05-26T17:37:23.000Z</time>
      </trkpt>
      <trkpt lat="45.15525" lon="5.77532">
        <ele>603.6</ele>
        <time>2021-05-26T17:37:24.000Z</time>
      </trkpt>
      <trkpt lat="45.15517" lon="5.77528">
        <ele>604.5</ele>
        <time>2021-05-26T17:37:26.000Z</time>
      </trkpt>
      <trkpt lat="45.15516" lon="5.77527">
        <ele>604.6</ele>
        <time>2021-05-26T17:37:27.000Z</time>
      </trkpt>
      <trkpt lat="45.15515" lon="5.77527">
        <ele>604.7</ele>
        <time>2021-05-26T17:37:29.000Z</time>
      </trkpt>
      <trkpt lat="45.15514" lon="5.77526">
        <ele>604.8</ele>
        <time>2021-05-26T17:37:30.000Z</time>
      </trkpt>
      <trkpt lat="45.15513" lon="5.77526">
        <ele>604.9</ele>
        <time>2021-05-26T17:37:31.000Z</time>
      </trkpt>
      <trkpt lat="45.15506" lon="5.77524">
        <ele>605.6</ele>
        <time>2021-05-26T17:37:32.000Z</time>
      </trkpt>
      <trkpt lat="45.15505" lon="5.77524">
        <ele>605.7</ele>
        <time>2021-05-26T17:37:33.000Z</time>
      </trkpt>
      <trkpt lat="45.15505" lon="5.77524">
        <ele>605.8</ele>
        <time>2021-05-26T17:37:34.000Z</time>
      </trkpt>
      <trkpt lat="45.15504" lon="5.77523">
        <ele>605.8</ele>
        <time>2021-05-26T17:37:35.000Z</time>
      </trkpt>
      <trkpt lat="45.15503" lon="5.77523">
        <ele>605.9</ele>
        <time>2021-05-26T17:37:36.000Z</time>
      </trkpt>
      <trkpt lat="45.15502" lon="5.77523">
        <ele>606</ele>
        <time>2021-05-26T17:37:37.000Z</time>
      </trkpt>
      <trkpt lat="45.15501" lon="5.77523">
        <ele>606.1</ele>
        <time>2021-05-26T17:37:38.000Z</time>
      </trkpt>
      <trkpt lat="45.15495" lon="5.77522">
        <ele>606.8</ele>
        <time>2021-05-26T17:37:39.000Z</time>
      </trkpt>
      <trkpt lat="45.15494" lon="5.77522">
        <ele>606.9</ele>
        <time>2021-05-26T17:37:40.000Z</time>
      </trkpt>
      <trkpt lat="45.15493" lon="5.77522">
        <ele>607</ele>
        <time>2021-05-26T17:37:41.000Z</time>
      </trkpt>
      <trkpt lat="45.15492" lon="5.77522">
        <ele>607.1</ele>
        <time>2021-05-26T17:37:42.000Z</time>
      </trkpt>
      <trkpt lat="45.15491" lon="5.77522">
        <ele>607.2</ele>
        <time>2021-05-26T17:37:43.000Z</time>
      </trkpt>
      <trkpt lat="45.1549" lon="5.77522">
        <ele>607.3</ele>
        <time>2021-05-26T17:37:45.000Z</time>
      </trkpt>
      <trkpt lat="45.15489" lon="5.77522">
        <ele>607.3</ele>
        <time>2021-05-26T17:37:46.000Z</time>
      </trkpt>
      <trkpt lat="45.15482" lon="5.77522">
        <ele>608</ele>
        <time>2021-05-26T17:37:47.000Z</time>
      </trkpt>
      <trkpt lat="45.15481" lon="5.77522">
        <ele>608.1</ele>
        <time>2021-05-26T17:37:48.000Z</time>
      </trkpt>
      <trkpt lat="45.15481" lon="5.77522">
        <ele>608.2</ele>
        <time>2021-05-26T17:37:49.000Z</time>
      </trkpt>
      <trkpt lat="45.1548" lon="5.77522">
        <ele>608.3</ele>
        <time>2021-05-26T17:37:50.000Z</time>
      </trkpt>
      <trkpt lat="45.15479" lon="5.77522">
        <ele>608.4</ele>
        <time>2021-05-26T17:37:51.000Z</time>
      </trkpt>
      <trkpt lat="45.15478" lon="5.77522">
        <ele>608.5</ele>
        <time>2021-05-26T17:37:52.000Z</time>
      </trkpt>
      <trkpt lat="45.15471" lon="5.77522">
        <ele>609.1</ele>
        <time>2021-05-26T17:37:53.000Z</time>
      </trkpt>
      <trkpt lat="45.1547" lon="5.77522">
        <ele>609.2</ele>
        <time>2021-05-26T17:37:55.000Z</time>
      </trkpt>
      <trkpt lat="45.15469" lon="5.77522">
        <ele>609.3</ele>
        <time>2021-05-26T17:37:56.000Z</time>
      </trkpt>
      <trkpt lat="45.15468" lon="5.77522">
        <ele>609.4</ele>
        <time>2021-05-26T17:37:57.000Z</time>
      </trkpt>
      <trkpt lat="45.15466" lon="5.77522">
        <ele>609.5</ele>
        <time>2021-05-26T17:37:58.000Z</time>
      </trkpt>
      <trkpt lat="45.15459" lon="5.77521">
        <ele>610.2</ele>
        <time>2021-05-26T17:37:59.000Z</time>
      </trkpt>
      <trkpt lat="45.15457" lon="5.77521">
        <ele>610.4</ele>
        <time>2021-05-26T17:38:00.000Z</time>
      </trkpt>
      <trkpt lat="45.15455" lon="5.77521">
        <ele>610.6</ele>
        <time>2021-05-26T17:38:02.000Z</time>
      </trkpt>
      <trkpt lat="45.15453" lon="5.77521">
        <ele>610.8</ele>
        <time>2021-05-26T17:38:04.000Z</time>
      </trkpt>
      <trkpt lat="45.1545" lon="5.77521">
        <ele>611</ele>
        <time>2021-05-26T17:38:05.000Z</time>
      </trkpt>
      <trkpt lat="45.15448" lon="5.77521">
        <ele>611.2</ele>
        <time>2021-05-26T17:38:06.000Z</time>
      </trkpt>
      <trkpt lat="45.15447" lon="5.7752">
        <ele>611.4</ele>
        <time>2021-05-26T17:38:07.000Z</time>
      </trkpt>
      <trkpt lat="45.15445" lon="5.77519">
        <ele>611.5</ele>
        <time>2021-05-26T17:38:08.000Z</time>
      </trkpt>
      <trkpt lat="45.15443" lon="5.77518">
        <ele>611.7</ele>
        <time>2021-05-26T17:38:09.000Z</time>
      </trkpt>
      <trkpt lat="45.15437" lon="5.77514">
        <ele>612.4</ele>
        <time>2021-05-26T17:38:10.000Z</time>
      </trkpt>
      <trkpt lat="45.15436" lon="5.77514">
        <ele>612.5</ele>
        <time>2021-05-26T17:38:11.000Z</time>
      </trkpt>
      <trkpt lat="45.15435" lon="5.77513">
        <ele>612.6</ele>
        <time>2021-05-26T17:38:12.000Z</time>
      </trkpt>
      <trkpt lat="45.15434" lon="5.77513">
        <ele>612.7</ele>
        <time>2021-05-26T17:38:13.000Z</time>
      </trkpt>
      <trkpt lat="45.15432" lon="5.77513">
        <ele>612.8</ele>
        <time>2021-05-26T17:38:14.000Z</time>
      </trkpt>
      <trkpt lat="45.15426" lon="5.7751">
        <ele>613.4</ele>
        <time>2021-05-26T17:38:15.000Z</time>
      </trkpt>
      <trkpt lat="45.15425" lon="5.7751">
        <ele>613.5</ele>
        <time>2021-05-26T17:38:16.000Z</time>
      </trkpt>
      <trkpt lat="45.15424" lon="5.77511">
        <ele>613.6</ele>
        <time>2021-05-26T17:38:17.000Z</time>
      </trkpt>
      <trkpt lat="45.15423" lon="5.77511">
        <ele>613.7</ele>
        <time>2021-05-26T17:38:18.000Z</time>
      </trkpt>
      <trkpt lat="45.15422" lon="5.77511">
        <ele>613.8</ele>
        <time>2021-05-26T17:38:19.000Z</time>
      </trkpt>
      <trkpt lat="45.15422" lon="5.77511">
        <ele>613.9</ele>
        <time>2021-05-26T17:38:20.000Z</time>
      </trkpt>
      <trkpt lat="45.15415" lon="5.77512">
        <ele>614.5</ele>
        <time>2021-05-26T17:38:21.000Z</time>
      </trkpt>
      <trkpt lat="45.15415" lon="5.77512">
        <ele>614.5</ele>
        <time>2021-05-26T17:38:23.000Z</time>
      </trkpt>
      <trkpt lat="45.15414" lon="5.77513">
        <ele>614.6</ele>
        <time>2021-05-26T17:38:24.000Z</time>
      </trkpt>
      <trkpt lat="45.15413" lon="5.77513">
        <ele>614.7</ele>
        <time>2021-05-26T17:38:25.000Z</time>
      </trkpt>
      <trkpt lat="45.15412" lon="5.77513">
        <ele>614.8</ele>
        <time>2021-05-26T17:38:26.000Z</time>
      </trkpt>
      <trkpt lat="45.15411" lon="5.77514">
        <ele>614.9</ele>
        <time>2021-05-26T17:38:27.000Z</time>
      </trkpt>
      <trkpt lat="45.15411" lon="5.77514">
        <ele>614.9</ele>
        <time>2021-05-26T17:38:28.000Z</time>
      </trkpt>
      <trkpt lat="45.15404" lon="5.77517">
        <ele>615.6</ele>
        <time>2021-05-26T17:38:29.000Z</time>
      </trkpt>
      <trkpt lat="45.15403" lon="5.77517">
        <ele>615.7</ele>
        <time>2021-05-26T17:38:30.000Z</time>
      </trkpt>
      <trkpt lat="45.15402" lon="5.77517">
        <ele>615.8</ele>
        <time>2021-05-26T17:38:31.000Z</time>
      </trkpt>
      <trkpt lat="45.15401" lon="5.77518">
        <ele>615.9</ele>
        <time>2021-05-26T17:38:32.000Z</time>
      </trkpt>
      <trkpt lat="45.154" lon="5.77518">
        <ele>616</ele>
        <time>2021-05-26T17:38:33.000Z</time>
      </trkpt>
      <trkpt lat="45.15399" lon="5.77518">
        <ele>616.1</ele>
        <time>2021-05-26T17:38:34.000Z</time>
      </trkpt>
      <trkpt lat="45.15393" lon="5.77519">
        <ele>616.7</ele>
        <time>2021-05-26T17:38:35.000Z</time>
      </trkpt>
      <trkpt lat="45.15392" lon="5.7752">
        <ele>616.8</ele>
        <time>2021-05-26T17:38:36.000Z</time>
      </trkpt>
      <trkpt lat="45.15392" lon="5.7752">
        <ele>616.9</ele>
        <time>2021-05-26T17:38:37.000Z</time>
      </trkpt>
      <trkpt lat="45.15391" lon="5.7752">
        <ele>616.9</ele>
        <time>2021-05-26T17:38:38.000Z</time>
      </trkpt>
      <trkpt lat="45.15391" lon="5.7752">
        <ele>617</ele>
        <time>2021-05-26T17:38:39.000Z</time>
      </trkpt>
      <trkpt lat="45.1539" lon="5.77521">
        <ele>617.1</ele>
        <time>2021-05-26T17:38:40.000Z</time>
      </trkpt>
      <trkpt lat="45.15381" lon="5.77524">
        <ele>617.9</ele>
        <time>2021-05-26T17:38:42.000Z</time>
      </trkpt>
      <trkpt lat="45.15381" lon="5.77525">
        <ele>618</ele>
        <time>2021-05-26T17:38:43.000Z</time>
      </trkpt>
      <trkpt lat="45.1538" lon="5.77526">
        <ele>618.2</ele>
        <time>2021-05-26T17:38:44.000Z</time>
      </trkpt>
      <trkpt lat="45.15379" lon="5.77527">
        <ele>618.3</ele>
        <time>2021-05-26T17:38:45.000Z</time>
      </trkpt>
      <trkpt lat="45.15378" lon="5.77527">
        <ele>618.4</ele>
        <time>2021-05-26T17:38:46.000Z</time>
      </trkpt>
      <trkpt lat="45.15372" lon="5.77532">
        <ele>619</ele>
        <time>2021-05-26T17:38:47.000Z</time>
      </trkpt>
      <trkpt lat="45.15371" lon="5.77533">
        <ele>619.1</ele>
        <time>2021-05-26T17:38:48.000Z</time>
      </trkpt>
      <trkpt lat="45.15371" lon="5.77534">
        <ele>619.2</ele>
        <time>2021-05-26T17:38:49.000Z</time>
      </trkpt>
      <trkpt lat="45.1537" lon="5.77535">
        <ele>619.3</ele>
        <time>2021-05-26T17:38:50.000Z</time>
      </trkpt>
      <trkpt lat="45.15369" lon="5.77535">
        <ele>619.4</ele>
        <time>2021-05-26T17:38:51.000Z</time>
      </trkpt>
      <trkpt lat="45.15369" lon="5.77536">
        <ele>619.5</ele>
        <time>2021-05-26T17:38:52.000Z</time>
      </trkpt>
      <trkpt lat="45.15368" lon="5.77537">
        <ele>619.6</ele>
        <time>2021-05-26T17:38:53.000Z</time>
      </trkpt>
      <trkpt lat="45.15362" lon="5.77544">
        <ele>620.3</ele>
        <time>2021-05-26T17:38:54.000Z</time>
      </trkpt>
      <trkpt lat="45.15361" lon="5.77545">
        <ele>620.5</ele>
        <time>2021-05-26T17:38:55.000Z</time>
      </trkpt>
      <trkpt lat="45.15359" lon="5.77546">
        <ele>620.7</ele>
        <time>2021-05-26T17:38:56.000Z</time>
      </trkpt>
      <trkpt lat="45.15358" lon="5.77548">
        <ele>620.8</ele>
        <time>2021-05-26T17:38:58.000Z</time>
      </trkpt>
      <trkpt lat="45.15357" lon="5.77549">
        <ele>621</ele>
        <time>2021-05-26T17:38:59.000Z</time>
      </trkpt>
      <trkpt lat="45.15355" lon="5.7755">
        <ele>621.2</ele>
        <time>2021-05-26T17:39:00.000Z</time>
      </trkpt>
      <trkpt lat="45.15354" lon="5.77552">
        <ele>621.4</ele>
        <time>2021-05-26T17:39:01.000Z</time>
      </trkpt>
      <trkpt lat="45.15353" lon="5.77553">
        <ele>621.5</ele>
        <time>2021-05-26T17:39:02.000Z</time>
      </trkpt>
      <trkpt lat="45.15352" lon="5.77554">
        <ele>621.6</ele>
        <time>2021-05-26T17:39:03.000Z</time>
      </trkpt>
      <trkpt lat="45.15351" lon="5.77555">
        <ele>621.7</ele>
        <time>2021-05-26T17:39:04.000Z</time>
      </trkpt>
      <trkpt lat="45.1535" lon="5.77556">
        <ele>621.8</ele>
        <time>2021-05-26T17:39:05.000Z</time>
      </trkpt>
      <trkpt lat="45.15349" lon="5.77556">
        <ele>621.9</ele>
        <time>2021-05-26T17:39:06.000Z</time>
      </trkpt>
      <trkpt lat="45.15345" lon="5.77562">
        <ele>622.6</ele>
        <time>2021-05-26T17:39:07.000Z</time>
      </trkpt>
      <trkpt lat="45.15344" lon="5.77563">
        <ele>622.7</ele>
        <time>2021-05-26T17:39:08.000Z</time>
      </trkpt>
      <trkpt lat="45.15343" lon="5.77563">
        <ele>622.8</ele>
        <time>2021-05-26T17:39:09.000Z</time>
      </trkpt>
      <trkpt lat="45.15343" lon="5.77564">
        <ele>622.8</ele>
        <time>2021-05-26T17:39:10.000Z</time>
      </trkpt>
      <trkpt lat="45.15342" lon="5.77565">
        <ele>622.9</ele>
        <time>2021-05-26T17:39:11.000Z</time>
      </trkpt>
      <trkpt lat="45.15342" lon="5.77566">
        <ele>623</ele>
        <time>2021-05-26T17:39:12.000Z</time>
      </trkpt>
      <trkpt lat="45.15341" lon="5.77566">
        <ele>623.1</ele>
        <time>2021-05-26T17:39:13.000Z</time>
      </trkpt>
      <trkpt lat="45.15336" lon="5.77573">
        <ele>623.8</ele>
        <time>2021-05-26T17:39:14.000Z</time>
      </trkpt>
      <trkpt lat="45.15334" lon="5.77574">
        <ele>624</ele>
        <time>2021-05-26T17:39:15.000Z</time>
      </trkpt>
      <trkpt lat="45.15333" lon="5.77575">
        <ele>624.1</ele>
        <time>2021-05-26T17:39:16.000Z</time>
      </trkpt>
      <trkpt lat="45.15331" lon="5.77577">
        <ele>624.3</ele>
        <time>2021-05-26T17:39:17.000Z</time>
      </trkpt>
      <trkpt lat="45.1533" lon="5.77578">
        <ele>624.5</ele>
        <time>2021-05-26T17:39:18.000Z</time>
      </trkpt>
      <trkpt lat="45.15328" lon="5.77579">
        <ele>624.7</ele>
        <time>2021-05-26T17:39:20.000Z</time>
      </trkpt>
      <trkpt lat="45.15327" lon="5.7758">
        <ele>624.8</ele>
        <time>2021-05-26T17:39:21.000Z</time>
      </trkpt>
      <trkpt lat="45.15326" lon="5.77581">
        <ele>624.9</ele>
        <time>2021-05-26T17:39:22.000Z</time>
      </trkpt>
      <trkpt lat="45.15325" lon="5.77581">
        <ele>625</ele>
        <time>2021-05-26T17:39:23.000Z</time>
      </trkpt>
      <trkpt lat="45.15325" lon="5.77582">
        <ele>625.1</ele>
        <time>2021-05-26T17:39:25.000Z</time>
      </trkpt>
      <trkpt lat="45.15324" lon="5.77583">
        <ele>625.2</ele>
        <time>2021-05-26T17:39:26.000Z</time>
      </trkpt>
      <trkpt lat="45.15324" lon="5.77583">
        <ele>625.2</ele>
        <time>2021-05-26T17:39:27.000Z</time>
      </trkpt>
      <trkpt lat="45.15323" lon="5.77584">
        <ele>625.3</ele>
        <time>2021-05-26T17:39:29.000Z</time>
      </trkpt>
      <trkpt lat="45.15322" lon="5.77585">
        <ele>625.4</ele>
        <time>2021-05-26T17:39:30.000Z</time>
      </trkpt>
      <trkpt lat="45.15318" lon="5.7759">
        <ele>626</ele>
        <time>2021-05-26T17:39:31.000Z</time>
      </trkpt>
      <trkpt lat="45.15318" lon="5.77591">
        <ele>626.1</ele>
        <time>2021-05-26T17:39:32.000Z</time>
      </trkpt>
      <trkpt lat="45.15317" lon="5.77592">
        <ele>626.2</ele>
        <time>2021-05-26T17:39:33.000Z</time>
      </trkpt>
      <trkpt lat="45.15317" lon="5.77593">
        <ele>626.2</ele>
        <time>2021-05-26T17:39:34.000Z</time>
      </trkpt>
      <trkpt lat="45.15317" lon="5.77594">
        <ele>626.3</ele>
        <time>2021-05-26T17:39:35.000Z</time>
      </trkpt>
      <trkpt lat="45.15317" lon="5.77595">
        <ele>626.4</ele>
        <time>2021-05-26T17:39:36.000Z</time>
      </trkpt>
      <trkpt lat="45.15316" lon="5.77596">
        <ele>626.4</ele>
        <time>2021-05-26T17:39:37.000Z</time>
      </trkpt>
      <trkpt lat="45.15316" lon="5.77597">
        <ele>626.4</ele>
        <time>2021-05-26T17:39:38.000Z</time>
      </trkpt>
      <trkpt lat="45.15315" lon="5.77598">
        <ele>626.3</ele>
        <time>2021-05-26T17:39:39.000Z</time>
      </trkpt>
      <trkpt lat="45.15315" lon="5.77599">
        <ele>626.3</ele>
        <time>2021-05-26T17:39:40.000Z</time>
      </trkpt>
      <trkpt lat="45.15314" lon="5.776">
        <ele>626.3</ele>
        <time>2021-05-26T17:39:41.000Z</time>
      </trkpt>
      <trkpt lat="45.15314" lon="5.776">
        <ele>626.3</ele>
        <time>2021-05-26T17:39:42.000Z</time>
      </trkpt>
      <trkpt lat="45.15314" lon="5.776">
        <ele>626.3</ele>
        <time>2021-05-26T17:39:43.000Z</time>
      </trkpt>
      <trkpt lat="45.15314" lon="5.776">
        <ele>626.3</ele>
        <time>2021-05-26T17:39:44.000Z</time>
      </trkpt>
      <trkpt lat="45.15314" lon="5.776">
        <ele>626.3</ele>
        <time>2021-05-26T17:39:45.000Z</time>
      </trkpt>
      <trkpt lat="45.15314" lon="5.776">
        <ele>626.3</ele>
        <time>2021-05-26T17:39:46.000Z</time>
      </trkpt>
      <trkpt lat="45.15314" lon="5.776">
        <ele>626.3</ele>
        <time>2021-05-26T17:39:47.000Z</time>
      </trkpt>
      <trkpt lat="45.15314" lon="5.776">
        <ele>626.3</ele>
        <time>2021-05-26T17:39:48.000Z</time>
      </trkpt>
      <trkpt lat="45.15314" lon="5.776">
        <ele>626.3</ele>
        <time>2021-05-26T17:39:49.000Z</time>
      </trkpt>
      <trkpt lat="45.15314" lon="5.776">
        <ele>626.3</ele>
        <time>2021-05-26T17:39:50.000Z</time>
      </trkpt>
      <trkpt lat="45.15314" lon="5.776">
        <ele>626.3</ele>
        <time>2021-05-26T17:39:51.000Z</time>
      </trkpt>
      <trkpt lat="45.15314" lon="5.776">
        <ele>626.3</ele>
        <time>2021-05-26T17:39:52.000Z</time>
      </trkpt>
      <trkpt lat="45.15314" lon="5.776">
        <ele>626.3</ele>
        <time>2021-05-26T17:39:53.000Z</time>
      </trkpt>
      <trkpt lat="45.15314" lon="5.776">
        <ele>626.3</ele>
        <time>2021-05-26T17:39:55.000Z</time>
      </trkpt>
      <trkpt lat="45.15314" lon="5.776">
        <ele>626.3</ele>
        <time>2021-05-26T17:39:57.000Z</time>
      </trkpt>
      <trkpt lat="45.15314" lon="5.776">
        <ele>626.3</ele>
        <time>2021-05-26T17:39:58.000Z</time>
      </trkpt>
      <trkpt lat="45.15314" lon="5.776">
        <ele>626.3</ele>
        <time>2021-05-26T17:39:59.000Z</time>
      </trkpt>
      <trkpt lat="45.15314" lon="5.776">
        <ele>626.3</ele>
        <time>2021-05-26T17:40:00.000Z</time>
      </trkpt>
      <trkpt lat="45.15314" lon="5.776">
        <ele>626.3</ele>
        <time>2021-05-26T17:40:01.000Z</time>
      </trkpt>
      <trkpt lat="45.15314" lon="5.776">
        <ele>626.3</ele>
        <time>2021-05-26T17:40:02.000Z</time>
      </trkpt>
      <trkpt lat="45.15314" lon="5.776">
        <ele>626.3</ele>
        <time>2021-05-26T17:40:04.000Z</time>
      </trkpt>
      <trkpt lat="45.15314" lon="5.776">
        <ele>626.3</ele>
        <time>2021-05-26T17:40:05.000Z</time>
      </trkpt>
      <trkpt lat="45.15314" lon="5.776">
        <ele>626.3</ele>
        <time>2021-05-26T17:40:06.000Z</time>
      </trkpt>
      <trkpt lat="45.15314" lon="5.776">
        <ele>626.3</ele>
        <time>2021-05-26T17:40:07.000Z</time>
      </trkpt>
      <trkpt lat="45.15314" lon="5.776">
        <ele>626.3</ele>
        <time>2021-05-26T17:40:08.000Z</time>
      </trkpt>
      <trkpt lat="45.15314" lon="5.776">
        <ele>626.3</ele>
        <time>2021-05-26T17:40:09.000Z</time>
      </trkpt>
      <trkpt lat="45.15314" lon="5.776">
        <ele>626.3</ele>
        <time>2021-05-26T17:40:10.000Z</time>
      </trkpt>
      <trkpt lat="45.15314" lon="5.776">
        <ele>626.3</ele>
        <time>2021-05-26T17:40:11.000Z</time>
      </trkpt>
      <trkpt lat="45.15314" lon="5.776">
        <ele>626.3</ele>
        <time>2021-05-26T17:40:12.000Z</time>
      </trkpt>
      <trkpt lat="45.15314" lon="5.776">
        <ele>626.3</ele>
        <time>2021-05-26T17:40:13.000Z</time>
      </trkpt>
      <trkpt lat="45.15314" lon="5.776">
        <ele>626.3</ele>
        <time>2021-05-26T17:40:14.000Z</time>
      </trkpt>
      <trkpt lat="45.15314" lon="5.776">
        <ele>626.3</ele>
        <time>2021-05-26T17:40:15.000Z</time>
      </trkpt>
      <trkpt lat="45.15314" lon="5.776">
        <ele>626.3</ele>
        <time>2021-05-26T17:40:17.000Z</time>
      </trkpt>
      <trkpt lat="45.15311" lon="5.77603">
        <ele>626.5</ele>
        <time>2021-05-26T17:40:18.000Z</time>
      </trkpt>
      <trkpt lat="45.15311" lon="5.77603">
        <ele>626.5</ele>
        <time>2021-05-26T17:40:19.000Z</time>
      </trkpt>
      <trkpt lat="45.15311" lon="5.77603">
        <ele>626.5</ele>
        <time>2021-05-26T17:40:20.000Z</time>
      </trkpt>
      <trkpt lat="45.15311" lon="5.77603">
        <ele>626.5</ele>
        <time>2021-05-26T17:40:21.000Z</time>
      </trkpt>
      <trkpt lat="45.15311" lon="5.77603">
        <ele>626.5</ele>
        <time>2021-05-26T17:40:22.000Z</time>
      </trkpt>
      <trkpt lat="45.15311" lon="5.77603">
        <ele>626.5</ele>
        <time>2021-05-26T17:40:23.000Z</time>
      </trkpt>
      <trkpt lat="45.15311" lon="5.77603">
        <ele>626.5</ele>
        <time>2021-05-26T17:40:24.000Z</time>
      </trkpt>
      <trkpt lat="45.15311" lon="5.77603">
        <ele>626.5</ele>
        <time>2021-05-26T17:40:25.000Z</time>
      </trkpt>
      <trkpt lat="45.15311" lon="5.77603">
        <ele>626.5</ele>
        <time>2021-05-26T17:40:26.000Z</time>
      </trkpt>
      <trkpt lat="45.15311" lon="5.77603">
        <ele>626.5</ele>
        <time>2021-05-26T17:40:27.000Z</time>
      </trkpt>
      <trkpt lat="45.15311" lon="5.77603">
        <ele>626.5</ele>
        <time>2021-05-26T17:40:28.000Z</time>
      </trkpt>
      <trkpt lat="45.15311" lon="5.77603">
        <ele>626.5</ele>
        <time>2021-05-26T17:40:29.000Z</time>
      </trkpt>
      <trkpt lat="45.15311" lon="5.77603">
        <ele>626.5</ele>
        <time>2021-05-26T17:40:30.000Z</time>
      </trkpt>
      <trkpt lat="45.15311" lon="5.77603">
        <ele>626.5</ele>
        <time>2021-05-26T17:40:31.000Z</time>
      </trkpt>
      <trkpt lat="45.15311" lon="5.77603">
        <ele>626.5</ele>
        <time>2021-05-26T17:40:32.000Z</time>
      </trkpt>
      <trkpt lat="45.15311" lon="5.77603">
        <ele>626.5</ele>
        <time>2021-05-26T17:40:33.000Z</time>
      </trkpt>
      <trkpt lat="45.15311" lon="5.77603">
        <ele>626.5</ele>
        <time>2021-05-26T17:40:34.000Z</time>
      </trkpt>
      <trkpt lat="45.15311" lon="5.77603">
        <ele>626.5</ele>
        <time>2021-05-26T17:40:36.000Z</time>
      </trkpt>
      <trkpt lat="45.15311" lon="5.77603">
        <ele>626.5</ele>
        <time>2021-05-26T17:40:37.000Z</time>
      </trkpt>
      <trkpt lat="45.15311" lon="5.77603">
        <ele>626.5</ele>
        <time>2021-05-26T17:40:38.000Z</time>
      </trkpt>
      <trkpt lat="45.15311" lon="5.77603">
        <ele>626.5</ele>
        <time>2021-05-26T17:40:39.000Z</time>
      </trkpt>
      <trkpt lat="45.15311" lon="5.77603">
        <ele>626.5</ele>
        <time>2021-05-26T17:40:40.000Z</time>
      </trkpt>
      <trkpt lat="45.15311" lon="5.77603">
        <ele>626.5</ele>
        <time>2021-05-26T17:40:41.000Z</time>
      </trkpt>
      <trkpt lat="45.15311" lon="5.77603">
        <ele>626.5</ele>
        <time>2021-05-26T17:40:42.000Z</time>
      </trkpt>
      <trkpt lat="45.15311" lon="5.77603">
        <ele>626.5</ele>
        <time>2021-05-26T17:40:43.000Z</time>
      </trkpt>
      <trkpt lat="45.15311" lon="5.77603">
        <ele>626.5</ele>
        <time>2021-05-26T17:40:45.000Z</time>
      </trkpt>
      <trkpt lat="45.15311" lon="5.77603">
        <ele>626.5</ele>
        <time>2021-05-26T17:40:46.000Z</time>
      </trkpt>
      <trkpt lat="45.15311" lon="5.77603">
        <ele>626.5</ele>
        <time>2021-05-26T17:40:47.000Z</time>
      </trkpt>
      <trkpt lat="45.15311" lon="5.77603">
        <ele>626.5</ele>
        <time>2021-05-26T17:40:49.000Z</time>
      </trkpt>
      <trkpt lat="45.15311" lon="5.77603">
        <ele>626.5</ele>
        <time>2021-05-26T17:40:50.000Z</time>
      </trkpt>
      <trkpt lat="45.15311" lon="5.77603">
        <ele>626.5</ele>
        <time>2021-05-26T17:40:51.000Z</time>
      </trkpt>
      <trkpt lat="45.15311" lon="5.77603">
        <ele>626.5</ele>
        <time>2021-05-26T17:40:53.000Z</time>
      </trkpt>
      <trkpt lat="45.15311" lon="5.77603">
        <ele>626.5</ele>
        <time>2021-05-26T17:40:55.000Z</time>
      </trkpt>
      <trkpt lat="45.15311" lon="5.77603">
        <ele>626.5</ele>
        <time>2021-05-26T17:40:56.000Z</time>
      </trkpt>
      <trkpt lat="45.15311" lon="5.77603">
        <ele>626.5</ele>
        <time>2021-05-26T17:40:57.000Z</time>
      </trkpt>
      <trkpt lat="45.15311" lon="5.77603">
        <ele>626.5</ele>
        <time>2021-05-26T17:40:58.000Z</time>
      </trkpt>
      <trkpt lat="45.15311" lon="5.77603">
        <ele>626.5</ele>
        <time>2021-05-26T17:40:59.000Z</time>
      </trkpt>
      <trkpt lat="45.15311" lon="5.77603">
        <ele>626.5</ele>
        <time>2021-05-26T17:41:00.000Z</time>
      </trkpt>
      <trkpt lat="45.15311" lon="5.77603">
        <ele>626.5</ele>
        <time>2021-05-26T17:41:01.000Z</time>
      </trkpt>
      <trkpt lat="45.15311" lon="5.77603">
        <ele>626.5</ele>
        <time>2021-05-26T17:41:02.000Z</time>
      </trkpt>
      <trkpt lat="45.15311" lon="5.77603">
        <ele>626.5</ele>
        <time>2021-05-26T17:41:03.000Z</time>
      </trkpt>
      <trkpt lat="45.15311" lon="5.77603">
        <ele>626.5</ele>
        <time>2021-05-26T17:41:04.000Z</time>
      </trkpt>
      <trkpt lat="45.15311" lon="5.77603">
        <ele>626.5</ele>
        <time>2021-05-26T17:41:06.000Z</time>
      </trkpt>
      <trkpt lat="45.15311" lon="5.77603">
        <ele>626.5</ele>
        <time>2021-05-26T17:41:07.000Z</time>
      </trkpt>
      <trkpt lat="45.15311" lon="5.77603">
        <ele>626.5</ele>
        <time>2021-05-26T17:41:08.000Z</time>
      </trkpt>
      <trkpt lat="45.15311" lon="5.77603">
        <ele>626.5</ele>
        <time>2021-05-26T17:41:09.000Z</time>
      </trkpt>
      <trkpt lat="45.15311" lon="5.77603">
        <ele>626.5</ele>
        <time>2021-05-26T17:41:10.000Z</time>
      </trkpt>
      <trkpt lat="45.15311" lon="5.77603">
        <ele>626.5</ele>
        <time>2021-05-26T17:41:12.000Z</time>
      </trkpt>
      <trkpt lat="45.15311" lon="5.77603">
        <ele>626.5</ele>
        <time>2021-05-26T17:41:14.000Z</time>
      </trkpt>
      <trkpt lat="45.15311" lon="5.77603">
        <ele>626.5</ele>
        <time>2021-05-26T17:41:15.000Z</time>
      </trkpt>
      <trkpt lat="45.15311" lon="5.77603">
        <ele>626.5</ele>
        <time>2021-05-26T17:41:16.000Z</time>
      </trkpt>
      <trkpt lat="45.15311" lon="5.77603">
        <ele>626.5</ele>
        <time>2021-05-26T17:41:17.000Z</time>
      </trkpt>
      <trkpt lat="45.15311" lon="5.77603">
        <ele>626.5</ele>
        <time>2021-05-26T17:41:18.000Z</time>
      </trkpt>
      <trkpt lat="45.15311" lon="5.77603">
        <ele>626.5</ele>
        <time>2021-05-26T17:41:19.000Z</time>
      </trkpt>
      <trkpt lat="45.15311" lon="5.77603">
        <ele>626.5</ele>
        <time>2021-05-26T17:41:20.000Z</time>
      </trkpt>
      <trkpt lat="45.15311" lon="5.77603">
        <ele>626.5</ele>
        <time>2021-05-26T17:41:21.000Z</time>
      </trkpt>
      <trkpt lat="45.15311" lon="5.77603">
        <ele>626.5</ele>
        <time>2021-05-26T17:41:22.000Z</time>
      </trkpt>
      <trkpt lat="45.15311" lon="5.77603">
        <ele>626.5</ele>
        <time>2021-05-26T17:41:23.000Z</time>
      </trkpt>
      <trkpt lat="45.15311" lon="5.77608">
        <ele>626.7</ele>
        <time>2021-05-26T17:41:24.000Z</time>
      </trkpt>
      <trkpt lat="45.15311" lon="5.77608">
        <ele>626.7</ele>
        <time>2021-05-26T17:41:25.000Z</time>
      </trkpt>
      <trkpt lat="45.15311" lon="5.77608">
        <ele>626.7</ele>
        <time>2021-05-26T17:41:26.000Z</time>
      </trkpt>
      <trkpt lat="45.1531" lon="5.77613">
        <ele>626.9</ele>
        <time>2021-05-26T17:41:27.000Z</time>
      </trkpt>
      <trkpt lat="45.1531" lon="5.77613">
        <ele>626.9</ele>
        <time>2021-05-26T17:41:28.000Z</time>
      </trkpt>
      <trkpt lat="45.1531" lon="5.77613">
        <ele>626.9</ele>
        <time>2021-05-26T17:41:29.000Z</time>
      </trkpt>
      <trkpt lat="45.1531" lon="5.77613">
        <ele>626.9</ele>
        <time>2021-05-26T17:41:30.000Z</time>
      </trkpt>
      <trkpt lat="45.1531" lon="5.77613">
        <ele>626.9</ele>
        <time>2021-05-26T17:41:31.000Z</time>
      </trkpt>
      <trkpt lat="45.15308" lon="5.77621">
        <ele>627.3</ele>
        <time>2021-05-26T17:41:33.000Z</time>
      </trkpt>
      <trkpt lat="45.15308" lon="5.77621">
        <ele>627.3</ele>
        <time>2021-05-26T17:41:34.000Z</time>
      </trkpt>
      <trkpt lat="45.15307" lon="5.77622">
        <ele>627.3</ele>
        <time>2021-05-26T17:41:35.000Z</time>
      </trkpt>
      <trkpt lat="45.15307" lon="5.77623">
        <ele>627.4</ele>
        <time>2021-05-26T17:41:36.000Z</time>
      </trkpt>
      <trkpt lat="45.15307" lon="5.77623">
        <ele>627.4</ele>
        <time>2021-05-26T17:41:37.000Z</time>
      </trkpt>
      <trkpt lat="45.15307" lon="5.77624">
        <ele>627.4</ele>
        <time>2021-05-26T17:41:38.000Z</time>
      </trkpt>
      <trkpt lat="45.15307" lon="5.77624">
        <ele>627.5</ele>
        <time>2021-05-26T17:41:39.000Z</time>
      </trkpt>
      <trkpt lat="45.15307" lon="5.77625">
        <ele>627.5</ele>
        <time>2021-05-26T17:41:40.000Z</time>
      </trkpt>
      <trkpt lat="45.15306" lon="5.77626">
        <ele>627.5</ele>
        <time>2021-05-26T17:41:41.000Z</time>
      </trkpt>
      <trkpt lat="45.15306" lon="5.77626">
        <ele>627.5</ele>
        <time>2021-05-26T17:41:42.000Z</time>
      </trkpt>
      <trkpt lat="45.15306" lon="5.77627">
        <ele>627.6</ele>
        <time>2021-05-26T17:41:43.000Z</time>
      </trkpt>
      <trkpt lat="45.15306" lon="5.77628">
        <ele>627.6</ele>
        <time>2021-05-26T17:41:44.000Z</time>
      </trkpt>
      <trkpt lat="45.15306" lon="5.77628">
        <ele>627.6</ele>
        <time>2021-05-26T17:41:45.000Z</time>
      </trkpt>
      <trkpt lat="45.15304" lon="5.77636">
        <ele>628</ele>
        <time>2021-05-26T17:41:46.000Z</time>
      </trkpt>
      <trkpt lat="45.15304" lon="5.77637">
        <ele>628.1</ele>
        <time>2021-05-26T17:41:47.000Z</time>
      </trkpt>
      <trkpt lat="45.15303" lon="5.77638">
        <ele>628.1</ele>
        <time>2021-05-26T17:41:48.000Z</time>
      </trkpt>
      <trkpt lat="45.15303" lon="5.77639">
        <ele>628.1</ele>
        <time>2021-05-26T17:41:49.000Z</time>
      </trkpt>
      <trkpt lat="45.15303" lon="5.77639">
        <ele>628.2</ele>
        <time>2021-05-26T17:41:50.000Z</time>
      </trkpt>
      <trkpt lat="45.15303" lon="5.7764">
        <ele>628.2</ele>
        <time>2021-05-26T17:41:52.000Z</time>
      </trkpt>
      <trkpt lat="45.15303" lon="5.77641">
        <ele>628.2</ele>
        <time>2021-05-26T17:41:53.000Z</time>
      </trkpt>
      <trkpt lat="45.15303" lon="5.77641">
        <ele>628.3</ele>
        <time>2021-05-26T17:41:54.000Z</time>
      </trkpt>
      <trkpt lat="45.15303" lon="5.77642">
        <ele>628.3</ele>
        <time>2021-05-26T17:41:55.000Z</time>
      </trkpt>
      <trkpt lat="45.15303" lon="5.77643">
        <ele>628.3</ele>
        <time>2021-05-26T17:41:56.000Z</time>
      </trkpt>
      <trkpt lat="45.15301" lon="5.7765">
        <ele>631.1</ele>
        <time>2021-05-26T17:41:57.000Z</time>
      </trkpt>
      <trkpt lat="45.15301" lon="5.7765">
        <ele>631.1</ele>
        <time>2021-05-26T17:41:58.000Z</time>
      </trkpt>
      <trkpt lat="45.15301" lon="5.7765">
        <ele>631.1</ele>
        <time>2021-05-26T17:41:59.000Z</time>
      </trkpt>
      <trkpt lat="45.15301" lon="5.7765">
        <ele>631.1</ele>
        <time>2021-05-26T17:42:00.000Z</time>
      </trkpt>
      <trkpt lat="45.15301" lon="5.7765">
        <ele>631.1</ele>
        <time>2021-05-26T17:42:01.000Z</time>
      </trkpt>
      <trkpt lat="45.15301" lon="5.7765">
        <ele>631.1</ele>
        <time>2021-05-26T17:42:02.000Z</time>
      </trkpt>
      <trkpt lat="45.15301" lon="5.7765">
        <ele>631.1</ele>
        <time>2021-05-26T17:42:03.000Z</time>
      </trkpt>
      <trkpt lat="45.15301" lon="5.7765">
        <ele>631.1</ele>
        <time>2021-05-26T17:42:04.000Z</time>
      </trkpt>
      <trkpt lat="45.15301" lon="5.7765">
        <ele>631.1</ele>
        <time>2021-05-26T17:42:05.000Z</time>
      </trkpt>
      <trkpt lat="45.15301" lon="5.7765">
        <ele>631.1</ele>
        <time>2021-05-26T17:42:06.000Z</time>
      </trkpt>
      <trkpt lat="45.15301" lon="5.7765">
        <ele>631.1</ele>
        <time>2021-05-26T17:42:07.000Z</time>
      </trkpt>
      <trkpt lat="45.15301" lon="5.7765">
        <ele>631.1</ele>
        <time>2021-05-26T17:42:08.000Z</time>
      </trkpt>
      <trkpt lat="45.15301" lon="5.7765">
        <ele>631.1</ele>
        <time>2021-05-26T17:42:09.000Z</time>
      </trkpt>
      <trkpt lat="45.15301" lon="5.7765">
        <ele>631.1</ele>
        <time>2021-05-26T17:42:11.000Z</time>
      </trkpt>
      <trkpt lat="45.15301" lon="5.7765">
        <ele>631.1</ele>
        <time>2021-05-26T17:42:12.000Z</time>
      </trkpt>
      <trkpt lat="45.15301" lon="5.7765">
        <ele>631.1</ele>
        <time>2021-05-26T17:42:13.000Z</time>
      </trkpt>
      <trkpt lat="45.153" lon="5.77656">
        <ele>632.8</ele>
        <time>2021-05-26T17:42:14.000Z</time>
      </trkpt>
      <trkpt lat="45.153" lon="5.77656">
        <ele>633</ele>
        <time>2021-05-26T17:42:15.000Z</time>
      </trkpt>
      <trkpt lat="45.153" lon="5.77657">
        <ele>633.1</ele>
        <time>2021-05-26T17:42:16.000Z</time>
      </trkpt>
      <trkpt lat="45.153" lon="5.77658">
        <ele>633.4</ele>
        <time>2021-05-26T17:42:17.000Z</time>
      </trkpt>
      <trkpt lat="45.153" lon="5.77658">
        <ele>633.5</ele>
        <time>2021-05-26T17:42:18.000Z</time>
      </trkpt>
      <trkpt lat="45.153" lon="5.77659">
        <ele>633.7</ele>
        <time>2021-05-26T17:42:19.000Z</time>
      </trkpt>
      <trkpt lat="45.153" lon="5.7766">
        <ele>633.9</ele>
        <time>2021-05-26T17:42:20.000Z</time>
      </trkpt>
      <trkpt lat="45.153" lon="5.7766">
        <ele>634.1</ele>
        <time>2021-05-26T17:42:21.000Z</time>
      </trkpt>
      <trkpt lat="45.15299" lon="5.77661">
        <ele>634.3</ele>
        <time>2021-05-26T17:42:22.000Z</time>
      </trkpt>
      <trkpt lat="45.15299" lon="5.77662">
        <ele>634.5</ele>
        <time>2021-05-26T17:42:23.000Z</time>
      </trkpt>
      <trkpt lat="45.15299" lon="5.77662">
        <ele>634.7</ele>
        <time>2021-05-26T17:42:24.000Z</time>
      </trkpt>
      <trkpt lat="45.15299" lon="5.77663">
        <ele>634.9</ele>
        <time>2021-05-26T17:42:25.000Z</time>
      </trkpt>
      <trkpt lat="45.15299" lon="5.77663">
        <ele>635.1</ele>
        <time>2021-05-26T17:42:26.000Z</time>
      </trkpt>
      <trkpt lat="45.15299" lon="5.77664">
        <ele>635.3</ele>
        <time>2021-05-26T17:42:27.000Z</time>
      </trkpt>
      <trkpt lat="45.15298" lon="5.77674">
        <ele>638.2</ele>
        <time>2021-05-26T17:42:28.000Z</time>
      </trkpt>
      <trkpt lat="45.15298" lon="5.77675">
        <ele>638.6</ele>
        <time>2021-05-26T17:42:30.000Z</time>
      </trkpt>
      <trkpt lat="45.15297" lon="5.77676">
        <ele>639</ele>
        <time>2021-05-26T17:42:31.000Z</time>
      </trkpt>
      <trkpt lat="45.15297" lon="5.77677">
        <ele>642</ele>
        <time>2021-05-26T17:42:32.000Z</time>
      </trkpt>
      <trkpt lat="45.15296" lon="5.77679">
        <ele>642.3</ele>
        <time>2021-05-26T17:42:33.000Z</time>
      </trkpt>
      <trkpt lat="45.15296" lon="5.7768">
        <ele>642.5</ele>
        <time>2021-05-26T17:42:34.000Z</time>
      </trkpt>
      <trkpt lat="45.15294" lon="5.77687">
        <ele>644</ele>
        <time>2021-05-26T17:42:35.000Z</time>
      </trkpt>
      <trkpt lat="45.15294" lon="5.77687">
        <ele>644</ele>
        <time>2021-05-26T17:42:36.000Z</time>
      </trkpt>
      <trkpt lat="45.15294" lon="5.77687">
        <ele>644</ele>
        <time>2021-05-26T17:42:37.000Z</time>
      </trkpt>
      <trkpt lat="45.15294" lon="5.77687">
        <ele>644</ele>
        <time>2021-05-26T17:42:38.000Z</time>
      </trkpt>
      <trkpt lat="45.15294" lon="5.77687">
        <ele>644</ele>
        <time>2021-05-26T17:42:39.000Z</time>
      </trkpt>
      <trkpt lat="45.15294" lon="5.77687">
        <ele>644</ele>
        <time>2021-05-26T17:42:40.000Z</time>
      </trkpt>
      <trkpt lat="45.15294" lon="5.77687">
        <ele>644</ele>
        <time>2021-05-26T17:42:41.000Z</time>
      </trkpt>
      <trkpt lat="45.15294" lon="5.77687">
        <ele>644</ele>
        <time>2021-05-26T17:42:42.000Z</time>
      </trkpt>
      <trkpt lat="45.15294" lon="5.77687">
        <ele>644</ele>
        <time>2021-05-26T17:42:43.000Z</time>
      </trkpt>
      <trkpt lat="45.15294" lon="5.77687">
        <ele>644</ele>
        <time>2021-05-26T17:42:44.000Z</time>
      </trkpt>
      <trkpt lat="45.15294" lon="5.77687">
        <ele>644</ele>
        <time>2021-05-26T17:42:45.000Z</time>
      </trkpt>
      <trkpt lat="45.15294" lon="5.77687">
        <ele>644</ele>
        <time>2021-05-26T17:42:46.000Z</time>
      </trkpt>
      <trkpt lat="45.15294" lon="5.77687">
        <ele>644</ele>
        <time>2021-05-26T17:42:47.000Z</time>
      </trkpt>
      <trkpt lat="45.15298" lon="5.7769">
        <ele>645.3</ele>
        <time>2021-05-26T17:42:49.000Z</time>
      </trkpt>
      <trkpt lat="45.15299" lon="5.7769">
        <ele>645.5</ele>
        <time>2021-05-26T17:42:50.000Z</time>
      </trkpt>
      <trkpt lat="45.153" lon="5.7769">
        <ele>645.8</ele>
        <time>2021-05-26T17:42:51.000Z</time>
      </trkpt>
      <trkpt lat="45.15301" lon="5.77689">
        <ele>646</ele>
        <time>2021-05-26T17:42:52.000Z</time>
      </trkpt>
      <trkpt lat="45.15302" lon="5.77689">
        <ele>646.3</ele>
        <time>2021-05-26T17:42:53.000Z</time>
      </trkpt>
      <trkpt lat="45.15303" lon="5.77688">
        <ele>646.5</ele>
        <time>2021-05-26T17:42:54.000Z</time>
      </trkpt>
      <trkpt lat="45.15304" lon="5.77688">
        <ele>646.8</ele>
        <time>2021-05-26T17:42:55.000Z</time>
      </trkpt>
      <trkpt lat="45.15305" lon="5.77687">
        <ele>647.1</ele>
        <time>2021-05-26T17:42:56.000Z</time>
      </trkpt>
      <trkpt lat="45.15307" lon="5.77686">
        <ele>647.3</ele>
        <time>2021-05-26T17:42:57.000Z</time>
      </trkpt>
      <trkpt lat="45.15307" lon="5.77686">
        <ele>647.3</ele>
        <time>2021-05-26T17:42:58.000Z</time>
      </trkpt>
      <trkpt lat="45.15307" lon="5.77686">
        <ele>647.3</ele>
        <time>2021-05-26T17:42:59.000Z</time>
      </trkpt>
      <trkpt lat="45.1531" lon="5.77682">
        <ele>649.6</ele>
        <time>2021-05-26T17:43:01.000Z</time>
      </trkpt>
      <trkpt lat="45.1531" lon="5.77682">
        <ele>649.6</ele>
        <time>2021-05-26T17:43:03.000Z</time>
      </trkpt>
      <trkpt lat="45.1531" lon="5.77682">
        <ele>649.6</ele>
        <time>2021-05-26T17:43:04.000Z</time>
      </trkpt>
      <trkpt lat="45.1531" lon="5.77682">
        <ele>649.6</ele>
        <time>2021-05-26T17:43:05.000Z</time>
      </trkpt>
      <trkpt lat="45.15313" lon="5.77679">
        <ele>650.6</ele>
        <time>2021-05-26T17:43:06.000Z</time>
      </trkpt>
      <trkpt lat="45.15313" lon="5.77679">
        <ele>650.6</ele>
        <time>2021-05-26T17:43:08.000Z</time>
      </trkpt>
      <trkpt lat="45.15313" lon="5.77679">
        <ele>650.6</ele>
        <time>2021-05-26T17:43:09.000Z</time>
      </trkpt>
      <trkpt lat="45.15313" lon="5.77679">
        <ele>650.6</ele>
        <time>2021-05-26T17:43:10.000Z</time>
      </trkpt>
      <trkpt lat="45.15316" lon="5.77676">
        <ele>651.6</ele>
        <time>2021-05-26T17:43:11.000Z</time>
      </trkpt>
      <trkpt lat="45.15316" lon="5.77675">
        <ele>651.8</ele>
        <time>2021-05-26T17:43:12.000Z</time>
      </trkpt>
      <trkpt lat="45.15317" lon="5.77674">
        <ele>652</ele>
        <time>2021-05-26T17:43:13.000Z</time>
      </trkpt>
      <trkpt lat="45.15318" lon="5.77674">
        <ele>652.2</ele>
        <time>2021-05-26T17:43:14.000Z</time>
      </trkpt>
      <trkpt lat="45.15318" lon="5.77673">
        <ele>652.5</ele>
        <time>2021-05-26T17:43:15.000Z</time>
      </trkpt>
      <trkpt lat="45.15319" lon="5.77673">
        <ele>652.7</ele>
        <time>2021-05-26T17:43:16.000Z</time>
      </trkpt>
      <trkpt lat="45.1532" lon="5.77671">
        <ele>653</ele>
        <time>2021-05-26T17:43:17.000Z</time>
      </trkpt>
      <trkpt lat="45.15321" lon="5.7767">
        <ele>653.3</ele>
        <time>2021-05-26T17:43:18.000Z</time>
      </trkpt>
      <trkpt lat="45.15321" lon="5.77669">
        <ele>653.5</ele>
        <time>2021-05-26T17:43:19.000Z</time>
      </trkpt>
      <trkpt lat="45.15322" lon="5.77668">
        <ele>653.8</ele>
        <time>2021-05-26T17:43:20.000Z</time>
      </trkpt>
      <trkpt lat="45.15322" lon="5.77667">
        <ele>654.1</ele>
        <time>2021-05-26T17:43:21.000Z</time>
      </trkpt>
      <trkpt lat="45.15323" lon="5.77666">
        <ele>654.3</ele>
        <time>2021-05-26T17:43:22.000Z</time>
      </trkpt>
      <trkpt lat="45.15324" lon="5.77665">
        <ele>654.6</ele>
        <time>2021-05-26T17:43:23.000Z</time>
      </trkpt>
      <trkpt lat="45.15324" lon="5.77664">
        <ele>654.9</ele>
        <time>2021-05-26T17:43:24.000Z</time>
      </trkpt>
      <trkpt lat="45.15325" lon="5.77663">
        <ele>655.1</ele>
        <time>2021-05-26T17:43:25.000Z</time>
      </trkpt>
      <trkpt lat="45.15325" lon="5.77663">
        <ele>655.1</ele>
        <time>2021-05-26T17:43:27.000Z</time>
      </trkpt>
      <trkpt lat="45.15325" lon="5.77663">
        <ele>655.1</ele>
        <time>2021-05-26T17:43:28.000Z</time>
      </trkpt>
      <trkpt lat="45.15328" lon="5.77661">
        <ele>656.3</ele>
        <time>2021-05-26T17:43:29.000Z</time>
      </trkpt>
      <trkpt lat="45.15328" lon="5.77661">
        <ele>656.3</ele>
        <time>2021-05-26T17:43:30.000Z</time>
      </trkpt>
      <trkpt lat="45.15328" lon="5.77661">
        <ele>656.3</ele>
        <time>2021-05-26T17:43:31.000Z</time>
      </trkpt>
      <trkpt lat="45.15328" lon="5.77661">
        <ele>656.3</ele>
        <time>2021-05-26T17:43:32.000Z</time>
      </trkpt>
      <trkpt lat="45.15328" lon="5.77661">
        <ele>656.3</ele>
        <time>2021-05-26T17:43:33.000Z</time>
      </trkpt>
      <trkpt lat="45.15328" lon="5.77661">
        <ele>656.3</ele>
        <time>2021-05-26T17:43:34.000Z</time>
      </trkpt>
      <trkpt lat="45.15328" lon="5.77661">
        <ele>656.3</ele>
        <time>2021-05-26T17:43:35.000Z</time>
      </trkpt>
      <trkpt lat="45.15332" lon="5.7766">
        <ele>657.6</ele>
        <time>2021-05-26T17:43:36.000Z</time>
      </trkpt>
      <trkpt lat="45.15332" lon="5.77661">
        <ele>657.8</ele>
        <time>2021-05-26T17:43:37.000Z</time>
      </trkpt>
      <trkpt lat="45.15333" lon="5.77661">
        <ele>658</ele>
        <time>2021-05-26T17:43:38.000Z</time>
      </trkpt>
      <trkpt lat="45.15333" lon="5.77662">
        <ele>658.2</ele>
        <time>2021-05-26T17:43:39.000Z</time>
      </trkpt>
      <trkpt lat="45.15334" lon="5.77662">
        <ele>658.4</ele>
        <time>2021-05-26T17:43:40.000Z</time>
      </trkpt>
      <trkpt lat="45.15334" lon="5.77663">
        <ele>658.6</ele>
        <time>2021-05-26T17:43:41.000Z</time>
      </trkpt>
      <trkpt lat="45.15335" lon="5.77663">
        <ele>658.8</ele>
        <time>2021-05-26T17:43:42.000Z</time>
      </trkpt>
      <trkpt lat="45.15335" lon="5.77664">
        <ele>659.1</ele>
        <time>2021-05-26T17:43:43.000Z</time>
      </trkpt>
      <trkpt lat="45.15335" lon="5.77664">
        <ele>659.1</ele>
        <time>2021-05-26T17:43:44.000Z</time>
      </trkpt>
      <trkpt lat="45.15335" lon="5.77664">
        <ele>659.1</ele>
        <time>2021-05-26T17:43:46.000Z</time>
      </trkpt>
      <trkpt lat="45.15335" lon="5.77664">
        <ele>659.1</ele>
        <time>2021-05-26T17:43:47.000Z</time>
      </trkpt>
      <trkpt lat="45.15335" lon="5.77664">
        <ele>659.1</ele>
        <time>2021-05-26T17:43:48.000Z</time>
      </trkpt>
      <trkpt lat="45.15335" lon="5.77664">
        <ele>659.1</ele>
        <time>2021-05-26T17:43:49.000Z</time>
      </trkpt>
      <trkpt lat="45.15335" lon="5.77664">
        <ele>659.1</ele>
        <time>2021-05-26T17:43:50.000Z</time>
      </trkpt>
      <trkpt lat="45.15335" lon="5.77664">
        <ele>659.1</ele>
        <time>2021-05-26T17:43:51.000Z</time>
      </trkpt>
      <trkpt lat="45.15335" lon="5.77664">
        <ele>659.1</ele>
        <time>2021-05-26T17:43:52.000Z</time>
      </trkpt>
      <trkpt lat="45.15337" lon="5.77659">
        <ele>660.4</ele>
        <time>2021-05-26T17:43:54.000Z</time>
      </trkpt>
      <trkpt lat="45.15337" lon="5.77659">
        <ele>660.4</ele>
        <time>2021-05-26T17:43:55.000Z</time>
      </trkpt>
      <trkpt lat="45.15337" lon="5.77659">
        <ele>660.4</ele>
        <time>2021-05-26T17:43:56.000Z</time>
      </trkpt>
      <trkpt lat="45.15337" lon="5.77659">
        <ele>660.4</ele>
        <time>2021-05-26T17:43:57.000Z</time>
      </trkpt>
      <trkpt lat="45.15337" lon="5.77659">
        <ele>660.4</ele>
        <time>2021-05-26T17:43:58.000Z</time>
      </trkpt>
      <trkpt lat="45.1534" lon="5.77655">
        <ele>661.8</ele>
        <time>2021-05-26T17:43:59.000Z</time>
      </trkpt>
      <trkpt lat="45.1534" lon="5.77655">
        <ele>662</ele>
        <time>2021-05-26T17:44:00.000Z</time>
      </trkpt>
      <trkpt lat="45.15341" lon="5.77654">
        <ele>662.3</ele>
        <time>2021-05-26T17:44:01.000Z</time>
      </trkpt>
      <trkpt lat="45.15342" lon="5.77654">
        <ele>662.5</ele>
        <time>2021-05-26T17:44:02.000Z</time>
      </trkpt>
      <trkpt lat="45.15342" lon="5.77653">
        <ele>662.8</ele>
        <time>2021-05-26T17:44:03.000Z</time>
      </trkpt>
      <trkpt lat="45.15343" lon="5.77653">
        <ele>663.1</ele>
        <time>2021-05-26T17:44:04.000Z</time>
      </trkpt>
      <trkpt lat="45.15344" lon="5.77653">
        <ele>663.3</ele>
        <time>2021-05-26T17:44:05.000Z</time>
      </trkpt>
      <trkpt lat="45.15345" lon="5.77652">
        <ele>663.7</ele>
        <time>2021-05-26T17:44:06.000Z</time>
      </trkpt>
      <trkpt lat="45.15346" lon="5.77652">
        <ele>664.1</ele>
        <time>2021-05-26T17:44:07.000Z</time>
      </trkpt>
      <trkpt lat="45.15347" lon="5.77651">
        <ele>664.5</ele>
        <time>2021-05-26T17:44:08.000Z</time>
      </trkpt>
      <trkpt lat="45.15348" lon="5.77651">
        <ele>664.9</ele>
        <time>2021-05-26T17:44:09.000Z</time>
      </trkpt>
      <trkpt lat="45.15348" lon="5.77651">
        <ele>664.9</ele>
        <time>2021-05-26T17:44:10.000Z</time>
      </trkpt>
      <trkpt lat="45.15348" lon="5.77651">
        <ele>664.9</ele>
        <time>2021-05-26T17:44:11.000Z</time>
      </trkpt>
      <trkpt lat="45.15348" lon="5.77651">
        <ele>664.9</ele>
        <time>2021-05-26T17:44:12.000Z</time>
      </trkpt>
      <trkpt lat="45.15351" lon="5.77651">
        <ele>666.4</ele>
        <time>2021-05-26T17:44:13.000Z</time>
      </trkpt>
      <trkpt lat="45.15351" lon="5.77651">
        <ele>666.4</ele>
        <time>2021-05-26T17:44:14.000Z</time>
      </trkpt>
      <trkpt lat="45.15351" lon="5.77651">
        <ele>666.4</ele>
        <time>2021-05-26T17:44:15.000Z</time>
      </trkpt>
      <trkpt lat="45.15351" lon="5.77651">
        <ele>666.4</ele>
        <time>2021-05-26T17:44:16.000Z</time>
      </trkpt>
      <trkpt lat="45.15351" lon="5.77651">
        <ele>666.4</ele>
        <time>2021-05-26T17:44:17.000Z</time>
      </trkpt>
      <trkpt lat="45.15351" lon="5.77651">
        <ele>666.4</ele>
        <time>2021-05-26T17:44:18.000Z</time>
      </trkpt>
      <trkpt lat="45.15356" lon="5.77653">
        <ele>668.2</ele>
        <time>2021-05-26T17:44:19.000Z</time>
      </trkpt>
      <trkpt lat="45.15356" lon="5.77653">
        <ele>668.5</ele>
        <time>2021-05-26T17:44:20.000Z</time>
      </trkpt>
      <trkpt lat="45.15357" lon="5.77654">
        <ele>668.7</ele>
        <time>2021-05-26T17:44:21.000Z</time>
      </trkpt>
      <trkpt lat="45.15357" lon="5.77654">
        <ele>669</ele>
        <time>2021-05-26T17:44:22.000Z</time>
      </trkpt>
      <trkpt lat="45.15358" lon="5.77654">
        <ele>669.2</ele>
        <time>2021-05-26T17:44:24.000Z</time>
      </trkpt>
      <trkpt lat="45.15358" lon="5.77655">
        <ele>669.5</ele>
        <time>2021-05-26T17:44:25.000Z</time>
      </trkpt>
      <trkpt lat="45.15359" lon="5.77655">
        <ele>669.7</ele>
        <time>2021-05-26T17:44:26.000Z</time>
      </trkpt>
      <trkpt lat="45.15359" lon="5.77656">
        <ele>670</ele>
        <time>2021-05-26T17:44:27.000Z</time>
      </trkpt>
      <trkpt lat="45.1536" lon="5.77657">
        <ele>670.4</ele>
        <time>2021-05-26T17:44:29.000Z</time>
      </trkpt>
      <trkpt lat="45.15361" lon="5.77657">
        <ele>670.9</ele>
        <time>2021-05-26T17:44:30.000Z</time>
      </trkpt>
      <trkpt lat="45.15362" lon="5.77658">
        <ele>671.3</ele>
        <time>2021-05-26T17:44:31.000Z</time>
      </trkpt>
      <trkpt lat="45.15363" lon="5.77658">
        <ele>671.7</ele>
        <time>2021-05-26T17:44:32.000Z</time>
      </trkpt>
      <trkpt lat="45.15363" lon="5.77658">
        <ele>671.7</ele>
        <time>2021-05-26T17:44:33.000Z</time>
      </trkpt>
      <trkpt lat="45.15363" lon="5.77658">
        <ele>671.7</ele>
        <time>2021-05-26T17:44:34.000Z</time>
      </trkpt>
      <trkpt lat="45.15363" lon="5.77658">
        <ele>671.7</ele>
        <time>2021-05-26T17:44:35.000Z</time>
      </trkpt>
      <trkpt lat="45.15363" lon="5.77658">
        <ele>671.7</ele>
        <time>2021-05-26T17:44:36.000Z</time>
      </trkpt>
      <trkpt lat="45.15367" lon="5.77659">
        <ele>673.3</ele>
        <time>2021-05-26T17:44:37.000Z</time>
      </trkpt>
      <trkpt lat="45.15367" lon="5.77659">
        <ele>673.3</ele>
        <time>2021-05-26T17:44:38.000Z</time>
      </trkpt>
      <trkpt lat="45.15367" lon="5.77659">
        <ele>673.3</ele>
        <time>2021-05-26T17:44:39.000Z</time>
      </trkpt>
      <trkpt lat="45.15367" lon="5.77659">
        <ele>673.3</ele>
        <time>2021-05-26T17:44:40.000Z</time>
      </trkpt>
      <trkpt lat="45.15367" lon="5.77659">
        <ele>673.3</ele>
        <time>2021-05-26T17:44:41.000Z</time>
      </trkpt>
      <trkpt lat="45.15367" lon="5.77659">
        <ele>673.3</ele>
        <time>2021-05-26T17:44:43.000Z</time>
      </trkpt>
      <trkpt lat="45.15367" lon="5.77659">
        <ele>673.3</ele>
        <time>2021-05-26T17:44:44.000Z</time>
      </trkpt>
      <trkpt lat="45.15367" lon="5.77659">
        <ele>673.3</ele>
        <time>2021-05-26T17:44:45.000Z</time>
      </trkpt>
      <trkpt lat="45.15367" lon="5.77659">
        <ele>673.3</ele>
        <time>2021-05-26T17:44:46.000Z</time>
      </trkpt>
      <trkpt lat="45.15367" lon="5.77659">
        <ele>673.3</ele>
        <time>2021-05-26T17:44:47.000Z</time>
      </trkpt>
      <trkpt lat="45.15367" lon="5.77659">
        <ele>673.3</ele>
        <time>2021-05-26T17:44:48.000Z</time>
      </trkpt>
      <trkpt lat="45.15367" lon="5.77659">
        <ele>673.3</ele>
        <time>2021-05-26T17:44:49.000Z</time>
      </trkpt>
      <trkpt lat="45.15367" lon="5.77659">
        <ele>673.3</ele>
        <time>2021-05-26T17:44:50.000Z</time>
      </trkpt>
      <trkpt lat="45.15367" lon="5.77659">
        <ele>673.3</ele>
        <time>2021-05-26T17:44:51.000Z</time>
      </trkpt>
      <trkpt lat="45.15367" lon="5.77659">
        <ele>673.3</ele>
        <time>2021-05-26T17:44:52.000Z</time>
      </trkpt>
      <trkpt lat="45.15367" lon="5.77659">
        <ele>673.3</ele>
        <time>2021-05-26T17:44:53.000Z</time>
      </trkpt>
      <trkpt lat="45.15367" lon="5.77659">
        <ele>673.3</ele>
        <time>2021-05-26T17:44:54.000Z</time>
      </trkpt>
      <trkpt lat="45.15367" lon="5.77659">
        <ele>673.3</ele>
        <time>2021-05-26T17:44:55.000Z</time>
      </trkpt>
      <trkpt lat="45.15367" lon="5.77659">
        <ele>673.3</ele>
        <time>2021-05-26T17:44:56.000Z</time>
      </trkpt>
      <trkpt lat="45.15367" lon="5.77659">
        <ele>673.3</ele>
        <time>2021-05-26T17:44:57.000Z</time>
      </trkpt>
      <trkpt lat="45.15367" lon="5.77659">
        <ele>673.3</ele>
        <time>2021-05-26T17:44:59.000Z</time>
      </trkpt>
      <trkpt lat="45.15367" lon="5.77659">
        <ele>673.3</ele>
        <time>2021-05-26T17:45:00.000Z</time>
      </trkpt>
      <trkpt lat="45.15367" lon="5.77659">
        <ele>673.3</ele>
        <time>2021-05-26T17:45:02.000Z</time>
      </trkpt>
      <trkpt lat="45.15367" lon="5.77659">
        <ele>673.3</ele>
        <time>2021-05-26T17:45:03.000Z</time>
      </trkpt>
      <trkpt lat="45.15367" lon="5.77659">
        <ele>673.3</ele>
        <time>2021-05-26T17:45:04.000Z</time>
      </trkpt>
      <trkpt lat="45.15367" lon="5.77659">
        <ele>673.3</ele>
        <time>2021-05-26T17:45:05.000Z</time>
      </trkpt>
      <trkpt lat="45.15367" lon="5.77659">
        <ele>673.3</ele>
        <time>2021-05-26T17:45:06.000Z</time>
      </trkpt>
      <trkpt lat="45.15367" lon="5.77659">
        <ele>673.3</ele>
        <time>2021-05-26T17:45:07.000Z</time>
      </trkpt>
      <trkpt lat="45.15367" lon="5.77659">
        <ele>673.3</ele>
        <time>2021-05-26T17:45:08.000Z</time>
      </trkpt>
      <trkpt lat="45.15367" lon="5.77659">
        <ele>673.3</ele>
        <time>2021-05-26T17:45:09.000Z</time>
      </trkpt>
      <trkpt lat="45.1537" lon="5.77657">
        <ele>674.8</ele>
        <time>2021-05-26T17:45:10.000Z</time>
      </trkpt>
      <trkpt lat="45.1537" lon="5.77657">
        <ele>674.9</ele>
        <time>2021-05-26T17:45:11.000Z</time>
      </trkpt>
      <trkpt lat="45.1537" lon="5.77657">
        <ele>674.9</ele>
        <time>2021-05-26T17:45:12.000Z</time>
      </trkpt>
      <trkpt lat="45.15371" lon="5.77657">
        <ele>675</ele>
        <time>2021-05-26T17:45:13.000Z</time>
      </trkpt>
      <trkpt lat="45.15371" lon="5.77657">
        <ele>675.1</ele>
        <time>2021-05-26T17:45:14.000Z</time>
      </trkpt>
      <trkpt lat="45.15371" lon="5.77657">
        <ele>675.1</ele>
        <time>2021-05-26T17:45:15.000Z</time>
      </trkpt>
      <trkpt lat="45.15371" lon="5.77657">
        <ele>675.2</ele>
        <time>2021-05-26T17:45:16.000Z</time>
      </trkpt>
      <trkpt lat="45.15371" lon="5.77657">
        <ele>675.2</ele>
        <time>2021-05-26T17:45:17.000Z</time>
      </trkpt>
      <trkpt lat="45.15371" lon="5.77657">
        <ele>675.3</ele>
        <time>2021-05-26T17:45:18.000Z</time>
      </trkpt>
      <trkpt lat="45.15372" lon="5.77657">
        <ele>675.4</ele>
        <time>2021-05-26T17:45:19.000Z</time>
      </trkpt>
      <trkpt lat="45.15372" lon="5.77657">
        <ele>675.4</ele>
        <time>2021-05-26T17:45:21.000Z</time>
      </trkpt>
      <trkpt lat="45.15372" lon="5.77657">
        <ele>675.5</ele>
        <time>2021-05-26T17:45:22.000Z</time>
      </trkpt>
      <trkpt lat="45.15372" lon="5.77657">
        <ele>675.6</ele>
        <time>2021-05-26T17:45:23.000Z</time>
      </trkpt>
      <trkpt lat="45.15372" lon="5.77657">
        <ele>675.6</ele>
        <time>2021-05-26T17:45:24.000Z</time>
      </trkpt>
      <trkpt lat="45.15372" lon="5.77657">
        <ele>675.7</ele>
        <time>2021-05-26T17:45:25.000Z</time>
      </trkpt>
      <trkpt lat="45.15372" lon="5.77657">
        <ele>675.7</ele>
        <time>2021-05-26T17:45:26.000Z</time>
      </trkpt>
      <trkpt lat="45.15373" lon="5.77657">
        <ele>675.8</ele>
        <time>2021-05-26T17:45:27.000Z</time>
      </trkpt>
      <trkpt lat="45.15373" lon="5.77657">
        <ele>675.9</ele>
        <time>2021-05-26T17:45:28.000Z</time>
      </trkpt>
      <trkpt lat="45.15373" lon="5.77657">
        <ele>676</ele>
        <time>2021-05-26T17:45:29.000Z</time>
      </trkpt>
      <trkpt lat="45.15373" lon="5.77657">
        <ele>676</ele>
        <time>2021-05-26T17:45:30.000Z</time>
      </trkpt>
      <trkpt lat="45.15373" lon="5.77657">
        <ele>676.1</ele>
        <time>2021-05-26T17:45:31.000Z</time>
      </trkpt>
      <trkpt lat="45.15373" lon="5.77657">
        <ele>676.2</ele>
        <time>2021-05-26T17:45:33.000Z</time>
      </trkpt>
      <trkpt lat="45.15374" lon="5.77657">
        <ele>676.2</ele>
        <time>2021-05-26T17:45:34.000Z</time>
      </trkpt>
      <trkpt lat="45.15374" lon="5.77657">
        <ele>676.3</ele>
        <time>2021-05-26T17:45:35.000Z</time>
      </trkpt>
      <trkpt lat="45.15374" lon="5.77657">
        <ele>676.4</ele>
        <time>2021-05-26T17:45:36.000Z</time>
      </trkpt>
      <trkpt lat="45.15374" lon="5.77657">
        <ele>676.4</ele>
        <time>2021-05-26T17:45:37.000Z</time>
      </trkpt>
      <trkpt lat="45.15374" lon="5.77657">
        <ele>676.5</ele>
        <time>2021-05-26T17:45:38.000Z</time>
      </trkpt>
      <trkpt lat="45.15374" lon="5.77657">
        <ele>676.6</ele>
        <time>2021-05-26T17:45:40.000Z</time>
      </trkpt>
      <trkpt lat="45.15375" lon="5.77657">
        <ele>676.6</ele>
        <time>2021-05-26T17:45:41.000Z</time>
      </trkpt>
      <trkpt lat="45.15375" lon="5.77657">
        <ele>676.7</ele>
        <time>2021-05-26T17:45:42.000Z</time>
      </trkpt>
      <trkpt lat="45.15375" lon="5.77657">
        <ele>676.8</ele>
        <time>2021-05-26T17:45:43.000Z</time>
      </trkpt>
      <trkpt lat="45.15375" lon="5.77657">
        <ele>676.8</ele>
        <time>2021-05-26T17:45:44.000Z</time>
      </trkpt>
      <trkpt lat="45.15375" lon="5.77657">
        <ele>676.9</ele>
        <time>2021-05-26T17:45:45.000Z</time>
      </trkpt>
      <trkpt lat="45.15381" lon="5.77658">
        <ele>679</ele>
        <time>2021-05-26T17:45:46.000Z</time>
      </trkpt>
      <trkpt lat="45.15381" lon="5.77659">
        <ele>679.4</ele>
        <time>2021-05-26T17:45:47.000Z</time>
      </trkpt>
      <trkpt lat="45.15381" lon="5.7766">
        <ele>679.7</ele>
        <time>2021-05-26T17:45:48.000Z</time>
      </trkpt>
      <trkpt lat="45.15381" lon="5.77661">
        <ele>680</ele>
        <time>2021-05-26T17:45:49.000Z</time>
      </trkpt>
      <trkpt lat="45.15381" lon="5.77662">
        <ele>680.4</ele>
        <time>2021-05-26T17:45:50.000Z</time>
      </trkpt>
      <trkpt lat="45.15381" lon="5.77663">
        <ele>680.7</ele>
        <time>2021-05-26T17:45:51.000Z</time>
      </trkpt>
      <trkpt lat="45.15381" lon="5.77664">
        <ele>681.1</ele>
        <time>2021-05-26T17:45:52.000Z</time>
      </trkpt>
      <trkpt lat="45.15381" lon="5.77666">
        <ele>681.5</ele>
        <time>2021-05-26T17:45:53.000Z</time>
      </trkpt>
      <trkpt lat="45.15381" lon="5.77667">
        <ele>681.8</ele>
        <time>2021-05-26T17:45:54.000Z</time>
      </trkpt>
      <trkpt lat="45.15381" lon="5.77668">
        <ele>682.2</ele>
        <time>2021-05-26T17:45:55.000Z</time>
      </trkpt>
      <trkpt lat="45.15381" lon="5.77669">
        <ele>682.5</ele>
        <time>2021-05-26T17:45:56.000Z</time>
      </trkpt>
      <trkpt lat="45.15381" lon="5.7767">
        <ele>682.9</ele>
        <time>2021-05-26T17:45:57.000Z</time>
      </trkpt>
      <trkpt lat="45.15381" lon="5.77671">
        <ele>683.2</ele>
        <time>2021-05-26T17:45:58.000Z</time>
      </trkpt>
      <trkpt lat="45.15382" lon="5.77673">
        <ele>683.6</ele>
        <time>2021-05-26T17:45:59.000Z</time>
      </trkpt>
      <trkpt lat="45.15381" lon="5.77673">
        <ele>683.8</ele>
        <time>2021-05-26T17:46:00.000Z</time>
      </trkpt>
      <trkpt lat="45.15381" lon="5.77674">
        <ele>683.9</ele>
        <time>2021-05-26T17:46:01.000Z</time>
      </trkpt>
      <trkpt lat="45.15381" lon="5.77674">
        <ele>684.1</ele>
        <time>2021-05-26T17:46:02.000Z</time>
      </trkpt>
      <trkpt lat="45.15381" lon="5.77675">
        <ele>684.3</ele>
        <time>2021-05-26T17:46:03.000Z</time>
      </trkpt>
      <trkpt lat="45.15381" lon="5.77675">
        <ele>684.5</ele>
        <time>2021-05-26T17:46:04.000Z</time>
      </trkpt>
      <trkpt lat="45.15381" lon="5.77676">
        <ele>684.6</ele>
        <time>2021-05-26T17:46:05.000Z</time>
      </trkpt>
      <trkpt lat="45.1538" lon="5.77676">
        <ele>684.8</ele>
        <time>2021-05-26T17:46:06.000Z</time>
      </trkpt>
      <trkpt lat="45.1538" lon="5.77676">
        <ele>684.9</ele>
        <time>2021-05-26T17:46:07.000Z</time>
      </trkpt>
      <trkpt lat="45.1538" lon="5.77677">
        <ele>685.1</ele>
        <time>2021-05-26T17:46:08.000Z</time>
      </trkpt>
      <trkpt lat="45.1538" lon="5.77677">
        <ele>685.3</ele>
        <time>2021-05-26T17:46:09.000Z</time>
      </trkpt>
      <trkpt lat="45.1538" lon="5.77678">
        <ele>685.5</ele>
        <time>2021-05-26T17:46:10.000Z</time>
      </trkpt>
      <trkpt lat="45.1538" lon="5.77678">
        <ele>685.6</ele>
        <time>2021-05-26T17:46:11.000Z</time>
      </trkpt>
      <trkpt lat="45.1538" lon="5.77679">
        <ele>685.8</ele>
        <time>2021-05-26T17:46:12.000Z</time>
      </trkpt>
      <trkpt lat="45.15379" lon="5.77679">
        <ele>686</ele>
        <time>2021-05-26T17:46:13.000Z</time>
      </trkpt>
      <trkpt lat="45.15379" lon="5.7768">
        <ele>686.2</ele>
        <time>2021-05-26T17:46:14.000Z</time>
      </trkpt>
      <trkpt lat="45.15377" lon="5.77688">
        <ele>688.9</ele>
        <time>2021-05-26T17:46:15.000Z</time>
      </trkpt>
      <trkpt lat="45.15377" lon="5.77688">
        <ele>689.1</ele>
        <time>2021-05-26T17:46:17.000Z</time>
      </trkpt>
      <trkpt lat="45.15377" lon="5.77689">
        <ele>689.3</ele>
        <time>2021-05-26T17:46:18.000Z</time>
      </trkpt>
      <trkpt lat="45.15377" lon="5.7769">
        <ele>689.4</ele>
        <time>2021-05-26T17:46:19.000Z</time>
      </trkpt>
      <trkpt lat="45.15378" lon="5.7769">
        <ele>689.6</ele>
        <time>2021-05-26T17:46:20.000Z</time>
      </trkpt>
      <trkpt lat="45.15378" lon="5.77691">
        <ele>689.8</ele>
        <time>2021-05-26T17:46:21.000Z</time>
      </trkpt>
      <trkpt lat="45.15378" lon="5.77691">
        <ele>690</ele>
        <time>2021-05-26T17:46:22.000Z</time>
      </trkpt>
      <trkpt lat="45.15378" lon="5.77692">
        <ele>690.2</ele>
        <time>2021-05-26T17:46:23.000Z</time>
      </trkpt>
      <trkpt lat="45.15378" lon="5.77692">
        <ele>690.3</ele>
        <time>2021-05-26T17:46:24.000Z</time>
      </trkpt>
      <trkpt lat="45.15378" lon="5.77693">
        <ele>690.5</ele>
        <time>2021-05-26T17:46:25.000Z</time>
      </trkpt>
      <trkpt lat="45.15378" lon="5.77693">
        <ele>690.5</ele>
        <time>2021-05-26T17:46:26.000Z</time>
      </trkpt>
      <trkpt lat="45.15378" lon="5.77693">
        <ele>690.5</ele>
        <time>2021-05-26T17:46:27.000Z</time>
      </trkpt>
      <trkpt lat="45.15378" lon="5.77693">
        <ele>690.5</ele>
        <time>2021-05-26T17:46:28.000Z</time>
      </trkpt>
      <trkpt lat="45.15378" lon="5.77693">
        <ele>690.5</ele>
        <time>2021-05-26T17:46:29.000Z</time>
      </trkpt>
      <trkpt lat="45.15378" lon="5.77693">
        <ele>690.5</ele>
        <time>2021-05-26T17:46:30.000Z</time>
      </trkpt>
      <trkpt lat="45.15378" lon="5.77693">
        <ele>690.5</ele>
        <time>2021-05-26T17:46:31.000Z</time>
      </trkpt>
      <trkpt lat="45.15378" lon="5.77693">
        <ele>690.5</ele>
        <time>2021-05-26T17:46:32.000Z</time>
      </trkpt>
      <trkpt lat="45.15378" lon="5.77693">
        <ele>690.5</ele>
        <time>2021-05-26T17:46:33.000Z</time>
      </trkpt>
      <trkpt lat="45.15378" lon="5.77693">
        <ele>690.5</ele>
        <time>2021-05-26T17:46:34.000Z</time>
      </trkpt>
      <trkpt lat="45.15378" lon="5.77693">
        <ele>690.5</ele>
        <time>2021-05-26T17:46:35.000Z</time>
      </trkpt>
      <trkpt lat="45.1538" lon="5.77697">
        <ele>692</ele>
        <time>2021-05-26T17:46:37.000Z</time>
      </trkpt>
      <trkpt lat="45.1538" lon="5.77697">
        <ele>692</ele>
        <time>2021-05-26T17:46:38.000Z</time>
      </trkpt>
      <trkpt lat="45.1538" lon="5.77697">
        <ele>692</ele>
        <time>2021-05-26T17:46:39.000Z</time>
      </trkpt>
      <trkpt lat="45.1538" lon="5.77697">
        <ele>692</ele>
        <time>2021-05-26T17:46:40.000Z</time>
      </trkpt>
      <trkpt lat="45.1538" lon="5.77697">
        <ele>692</ele>
        <time>2021-05-26T17:46:41.000Z</time>
      </trkpt>
      <trkpt lat="45.1538" lon="5.77697">
        <ele>692</ele>
        <time>2021-05-26T17:46:42.000Z</time>
      </trkpt>
      <trkpt lat="45.1538" lon="5.77697">
        <ele>692</ele>
        <time>2021-05-26T17:46:43.000Z</time>
      </trkpt>
      <trkpt lat="45.1538" lon="5.77697">
        <ele>692</ele>
        <time>2021-05-26T17:46:44.000Z</time>
      </trkpt>
      <trkpt lat="45.15384" lon="5.77696">
        <ele>693.5</ele>
        <time>2021-05-26T17:46:45.000Z</time>
      </trkpt>
      <trkpt lat="45.15384" lon="5.77696">
        <ele>693.5</ele>
        <time>2021-05-26T17:46:46.000Z</time>
      </trkpt>
      <trkpt lat="45.15384" lon="5.77696">
        <ele>693.5</ele>
        <time>2021-05-26T17:46:47.000Z</time>
      </trkpt>
      <trkpt lat="45.15384" lon="5.77696">
        <ele>693.5</ele>
        <time>2021-05-26T17:46:49.000Z</time>
      </trkpt>
      <trkpt lat="45.15388" lon="5.77697">
        <ele>694.8</ele>
        <time>2021-05-26T17:46:50.000Z</time>
      </trkpt>
      <trkpt lat="45.15388" lon="5.77697">
        <ele>694.8</ele>
        <time>2021-05-26T17:46:51.000Z</time>
      </trkpt>
      <trkpt lat="45.15388" lon="5.77697">
        <ele>694.8</ele>
        <time>2021-05-26T17:46:52.000Z</time>
      </trkpt>
      <trkpt lat="45.15388" lon="5.77697">
        <ele>694.8</ele>
        <time>2021-05-26T17:46:53.000Z</time>
      </trkpt>
      <trkpt lat="45.15388" lon="5.77697">
        <ele>694.8</ele>
        <time>2021-05-26T17:46:54.000Z</time>
      </trkpt>
      <trkpt lat="45.15391" lon="5.77696">
        <ele>696.1</ele>
        <time>2021-05-26T17:46:56.000Z</time>
      </trkpt>
      <trkpt lat="45.15391" lon="5.77696">
        <ele>696.1</ele>
        <time>2021-05-26T17:46:58.000Z</time>
      </trkpt>
      <trkpt lat="45.15393" lon="5.77697">
        <ele>696.5</ele>
        <time>2021-05-26T17:46:59.000Z</time>
      </trkpt>
      <trkpt lat="45.15394" lon="5.77697">
        <ele>696.9</ele>
        <time>2021-05-26T17:47:00.000Z</time>
      </trkpt>
      <trkpt lat="45.15395" lon="5.77697">
        <ele>697.3</ele>
        <time>2021-05-26T17:47:01.000Z</time>
      </trkpt>
      <trkpt lat="45.15396" lon="5.77698">
        <ele>697.7</ele>
        <time>2021-05-26T17:47:02.000Z</time>
      </trkpt>
      <trkpt lat="45.15396" lon="5.77698">
        <ele>697.7</ele>
        <time>2021-05-26T17:47:03.000Z</time>
      </trkpt>
      <trkpt lat="45.15396" lon="5.77698">
        <ele>697.7</ele>
        <time>2021-05-26T17:47:04.000Z</time>
      </trkpt>
      <trkpt lat="45.15396" lon="5.77698">
        <ele>697.7</ele>
        <time>2021-05-26T17:47:05.000Z</time>
      </trkpt>
      <trkpt lat="45.15396" lon="5.77698">
        <ele>697.7</ele>
        <time>2021-05-26T17:47:06.000Z</time>
      </trkpt>
      <trkpt lat="45.15396" lon="5.77698">
        <ele>697.7</ele>
        <time>2021-05-26T17:47:07.000Z</time>
      </trkpt>
      <trkpt lat="45.15396" lon="5.77698">
        <ele>697.7</ele>
        <time>2021-05-26T17:47:08.000Z</time>
      </trkpt>
      <trkpt lat="45.15396" lon="5.77698">
        <ele>697.7</ele>
        <time>2021-05-26T17:47:09.000Z</time>
      </trkpt>
      <trkpt lat="45.154" lon="5.77701">
        <ele>699.2</ele>
        <time>2021-05-26T17:47:10.000Z</time>
      </trkpt>
      <trkpt lat="45.15401" lon="5.77702">
        <ele>699.7</ele>
        <time>2021-05-26T17:47:11.000Z</time>
      </trkpt>
      <trkpt lat="45.15402" lon="5.77703">
        <ele>700.3</ele>
        <time>2021-05-26T17:47:12.000Z</time>
      </trkpt>
      <trkpt lat="45.15403" lon="5.77703">
        <ele>700.8</ele>
        <time>2021-05-26T17:47:13.000Z</time>
      </trkpt>
      <trkpt lat="45.15403" lon="5.77703">
        <ele>700.8</ele>
        <time>2021-05-26T17:47:15.000Z</time>
      </trkpt>
      <trkpt lat="45.15403" lon="5.77703">
        <ele>700.8</ele>
        <time>2021-05-26T17:47:16.000Z</time>
      </trkpt>
      <trkpt lat="45.15403" lon="5.77703">
        <ele>700.8</ele>
        <time>2021-05-26T17:47:17.000Z</time>
      </trkpt>
      <trkpt lat="45.15403" lon="5.77703">
        <ele>700.8</ele>
        <time>2021-05-26T17:47:18.000Z</time>
      </trkpt>
      <trkpt lat="45.15406" lon="5.77706">
        <ele>702.3</ele>
        <time>2021-05-26T17:47:19.000Z</time>
      </trkpt>
      <trkpt lat="45.15406" lon="5.77706">
        <ele>702.3</ele>
        <time>2021-05-26T17:47:20.000Z</time>
      </trkpt>
      <trkpt lat="45.15406" lon="5.77706">
        <ele>702.3</ele>
        <time>2021-05-26T17:47:21.000Z</time>
      </trkpt>
      <trkpt lat="45.15406" lon="5.77706">
        <ele>702.3</ele>
        <time>2021-05-26T17:47:22.000Z</time>
      </trkpt>
      <trkpt lat="45.15406" lon="5.77706">
        <ele>702.3</ele>
        <time>2021-05-26T17:47:23.000Z</time>
      </trkpt>
      <trkpt lat="45.1541" lon="5.77708">
        <ele>703.9</ele>
        <time>2021-05-26T17:47:24.000Z</time>
      </trkpt>
      <trkpt lat="45.15411" lon="5.77708">
        <ele>704.3</ele>
        <time>2021-05-26T17:47:25.000Z</time>
      </trkpt>
      <trkpt lat="45.15411" lon="5.77708">
        <ele>704.5</ele>
        <time>2021-05-26T17:47:26.000Z</time>
      </trkpt>
      <trkpt lat="45.15412" lon="5.77709">
        <ele>704.9</ele>
        <time>2021-05-26T17:47:27.000Z</time>
      </trkpt>
      <trkpt lat="45.15413" lon="5.77709">
        <ele>705.1</ele>
        <time>2021-05-26T17:47:28.000Z</time>
      </trkpt>
      <trkpt lat="45.15414" lon="5.77709">
        <ele>705.4</ele>
        <time>2021-05-26T17:47:29.000Z</time>
      </trkpt>
      <trkpt lat="45.15414" lon="5.7771">
        <ele>705.7</ele>
        <time>2021-05-26T17:47:30.000Z</time>
      </trkpt>
      <trkpt lat="45.15415" lon="5.7771">
        <ele>706</ele>
        <time>2021-05-26T17:47:31.000Z</time>
      </trkpt>
      <trkpt lat="45.15416" lon="5.7771">
        <ele>706.3</ele>
        <time>2021-05-26T17:47:32.000Z</time>
      </trkpt>
      <trkpt lat="45.15417" lon="5.77711">
        <ele>706.7</ele>
        <time>2021-05-26T17:47:34.000Z</time>
      </trkpt>
      <trkpt lat="45.15418" lon="5.77711">
        <ele>706.9</ele>
        <time>2021-05-26T17:47:35.000Z</time>
      </trkpt>
      <trkpt lat="45.15419" lon="5.77711">
        <ele>707.2</ele>
        <time>2021-05-26T17:47:36.000Z</time>
      </trkpt>
      <trkpt lat="45.15419" lon="5.77711">
        <ele>707.2</ele>
        <time>2021-05-26T17:47:37.000Z</time>
      </trkpt>
      <trkpt lat="45.15419" lon="5.77711">
        <ele>707.2</ele>
        <time>2021-05-26T17:47:38.000Z</time>
      </trkpt>
      <trkpt lat="45.15419" lon="5.77711">
        <ele>707.2</ele>
        <time>2021-05-26T17:47:39.000Z</time>
      </trkpt>
      <trkpt lat="45.15419" lon="5.77711">
        <ele>707.2</ele>
        <time>2021-05-26T17:47:40.000Z</time>
      </trkpt>
      <trkpt lat="45.15419" lon="5.77711">
        <ele>707.2</ele>
        <time>2021-05-26T17:47:41.000Z</time>
      </trkpt>
      <trkpt lat="45.15422" lon="5.77712">
        <ele>708.5</ele>
        <time>2021-05-26T17:47:42.000Z</time>
      </trkpt>
      <trkpt lat="45.15422" lon="5.77712">
        <ele>708.5</ele>
        <time>2021-05-26T17:47:43.000Z</time>
      </trkpt>
      <trkpt lat="45.15422" lon="5.77712">
        <ele>708.5</ele>
        <time>2021-05-26T17:47:44.000Z</time>
      </trkpt>
      <trkpt lat="45.15422" lon="5.77712">
        <ele>708.5</ele>
        <time>2021-05-26T17:47:45.000Z</time>
      </trkpt>
      <trkpt lat="45.15422" lon="5.77712">
        <ele>708.5</ele>
        <time>2021-05-26T17:47:46.000Z</time>
      </trkpt>
      <trkpt lat="45.15426" lon="5.77713">
        <ele>709.7</ele>
        <time>2021-05-26T17:47:47.000Z</time>
      </trkpt>
      <trkpt lat="45.15427" lon="5.77714">
        <ele>709.9</ele>
        <time>2021-05-26T17:47:48.000Z</time>
      </trkpt>
      <trkpt lat="45.15427" lon="5.77714">
        <ele>710.1</ele>
        <time>2021-05-26T17:47:49.000Z</time>
      </trkpt>
      <trkpt lat="45.15428" lon="5.77715">
        <ele>710.3</ele>
        <time>2021-05-26T17:47:50.000Z</time>
      </trkpt>
      <trkpt lat="45.15429" lon="5.77715">
        <ele>710.6</ele>
        <time>2021-05-26T17:47:52.000Z</time>
      </trkpt>
      <trkpt lat="45.15429" lon="5.77716">
        <ele>710.8</ele>
        <time>2021-05-26T17:47:53.000Z</time>
      </trkpt>
      <trkpt lat="45.15429" lon="5.77716">
        <ele>710.8</ele>
        <time>2021-05-26T17:47:54.000Z</time>
      </trkpt>
      <trkpt lat="45.15429" lon="5.77716">
        <ele>710.8</ele>
        <time>2021-05-26T17:47:55.000Z</time>
      </trkpt>
      <trkpt lat="45.15429" lon="5.77716">
        <ele>710.8</ele>
        <time>2021-05-26T17:47:56.000Z</time>
      </trkpt>
      <trkpt lat="45.15432" lon="5.7772">
        <ele>711.9</ele>
        <time>2021-05-26T17:47:57.000Z</time>
      </trkpt>
      <trkpt lat="45.15432" lon="5.7772">
        <ele>711.9</ele>
        <time>2021-05-26T17:47:58.000Z</time>
      </trkpt>
      <trkpt lat="45.15432" lon="5.7772">
        <ele>711.9</ele>
        <time>2021-05-26T17:48:00.000Z</time>
      </trkpt>
      <trkpt lat="45.15432" lon="5.7772">
        <ele>711.9</ele>
        <time>2021-05-26T17:48:01.000Z</time>
      </trkpt>
      <trkpt lat="45.15432" lon="5.7772">
        <ele>711.9</ele>
        <time>2021-05-26T17:48:02.000Z</time>
      </trkpt>
      <trkpt lat="45.15432" lon="5.77726">
        <ele>712.8</ele>
        <time>2021-05-26T17:48:03.000Z</time>
      </trkpt>
      <trkpt lat="45.15433" lon="5.77726">
        <ele>713.1</ele>
        <time>2021-05-26T17:48:04.000Z</time>
      </trkpt>
      <trkpt lat="45.15434" lon="5.77727">
        <ele>713.3</ele>
        <time>2021-05-26T17:48:05.000Z</time>
      </trkpt>
      <trkpt lat="45.15435" lon="5.77727">
        <ele>713.5</ele>
        <time>2021-05-26T17:48:06.000Z</time>
      </trkpt>
      <trkpt lat="45.15435" lon="5.77728">
        <ele>713.7</ele>
        <time>2021-05-26T17:48:07.000Z</time>
      </trkpt>
      <trkpt lat="45.15436" lon="5.77729">
        <ele>713.9</ele>
        <time>2021-05-26T17:48:08.000Z</time>
      </trkpt>
      <trkpt lat="45.15437" lon="5.77729">
        <ele>714.2</ele>
        <time>2021-05-26T17:48:09.000Z</time>
      </trkpt>
      <trkpt lat="45.15438" lon="5.7773">
        <ele>714.4</ele>
        <time>2021-05-26T17:48:10.000Z</time>
      </trkpt>
      <trkpt lat="45.15439" lon="5.7773">
        <ele>714.7</ele>
        <time>2021-05-26T17:48:12.000Z</time>
      </trkpt>
      <trkpt lat="45.1544" lon="5.77731">
        <ele>714.9</ele>
        <time>2021-05-26T17:48:13.000Z</time>
      </trkpt>
      <trkpt lat="45.1544" lon="5.77731">
        <ele>714.9</ele>
        <time>2021-05-26T17:48:14.000Z</time>
      </trkpt>
      <trkpt lat="45.1544" lon="5.77731">
        <ele>714.9</ele>
        <time>2021-05-26T17:48:15.000Z</time>
      </trkpt>
      <trkpt lat="45.1544" lon="5.77731">
        <ele>714.9</ele>
        <time>2021-05-26T17:48:16.000Z</time>
      </trkpt>
      <trkpt lat="45.1544" lon="5.77731">
        <ele>714.9</ele>
        <time>2021-05-26T17:48:17.000Z</time>
      </trkpt>
      <trkpt lat="45.1544" lon="5.77731">
        <ele>714.9</ele>
        <time>2021-05-26T17:48:18.000Z</time>
      </trkpt>
      <trkpt lat="45.15444" lon="5.77733">
        <ele>715.7</ele>
        <time>2021-05-26T17:48:19.000Z</time>
      </trkpt>
      <trkpt lat="45.15444" lon="5.77733">
        <ele>715.7</ele>
        <time>2021-05-26T17:48:20.000Z</time>
      </trkpt>
      <trkpt lat="45.15444" lon="5.77733">
        <ele>715.7</ele>
        <time>2021-05-26T17:48:21.000Z</time>
      </trkpt>
      <trkpt lat="45.15444" lon="5.77733">
        <ele>715.7</ele>
        <time>2021-05-26T17:48:22.000Z</time>
      </trkpt>
      <trkpt lat="45.15444" lon="5.77733">
        <ele>715.7</ele>
        <time>2021-05-26T17:48:23.000Z</time>
      </trkpt>
      <trkpt lat="45.15444" lon="5.77733">
        <ele>715.7</ele>
        <time>2021-05-26T17:48:24.000Z</time>
      </trkpt>
      <trkpt lat="45.15444" lon="5.77733">
        <ele>715.7</ele>
        <time>2021-05-26T17:48:25.000Z</time>
      </trkpt>
      <trkpt lat="45.15444" lon="5.77733">
        <ele>715.7</ele>
        <time>2021-05-26T17:48:26.000Z</time>
      </trkpt>
      <trkpt lat="45.15444" lon="5.77733">
        <ele>715.7</ele>
        <time>2021-05-26T17:48:27.000Z</time>
      </trkpt>
      <trkpt lat="45.15444" lon="5.77733">
        <ele>715.8</ele>
        <time>2021-05-26T17:48:29.000Z</time>
      </trkpt>
      <trkpt lat="45.15444" lon="5.77733">
        <ele>715.8</ele>
        <time>2021-05-26T17:48:31.000Z</time>
      </trkpt>
      <trkpt lat="45.15444" lon="5.77733">
        <ele>715.8</ele>
        <time>2021-05-26T17:48:32.000Z</time>
      </trkpt>
      <trkpt lat="45.15444" lon="5.77733">
        <ele>715.8</ele>
        <time>2021-05-26T17:48:33.000Z</time>
      </trkpt>
      <trkpt lat="45.15444" lon="5.77733">
        <ele>715.8</ele>
        <time>2021-05-26T17:48:34.000Z</time>
      </trkpt>
      <trkpt lat="45.15444" lon="5.77733">
        <ele>715.8</ele>
        <time>2021-05-26T17:48:35.000Z</time>
      </trkpt>
      <trkpt lat="45.15444" lon="5.77733">
        <ele>715.8</ele>
        <time>2021-05-26T17:48:36.000Z</time>
      </trkpt>
      <trkpt lat="45.15444" lon="5.77733">
        <ele>715.8</ele>
        <time>2021-05-26T17:48:37.000Z</time>
      </trkpt>
      <trkpt lat="45.15444" lon="5.77733">
        <ele>715.8</ele>
        <time>2021-05-26T17:48:39.000Z</time>
      </trkpt>
      <trkpt lat="45.15445" lon="5.77733">
        <ele>715.9</ele>
        <time>2021-05-26T17:48:40.000Z</time>
      </trkpt>
      <trkpt lat="45.15445" lon="5.77733">
        <ele>715.9</ele>
        <time>2021-05-26T17:48:41.000Z</time>
      </trkpt>
      <trkpt lat="45.15445" lon="5.77733">
        <ele>715.9</ele>
        <time>2021-05-26T17:48:42.000Z</time>
      </trkpt>
      <trkpt lat="45.15445" lon="5.77733">
        <ele>715.9</ele>
        <time>2021-05-26T17:48:43.000Z</time>
      </trkpt>
      <trkpt lat="45.15445" lon="5.77733">
        <ele>715.9</ele>
        <time>2021-05-26T17:48:44.000Z</time>
      </trkpt>
      <trkpt lat="45.15445" lon="5.77733">
        <ele>715.9</ele>
        <time>2021-05-26T17:48:45.000Z</time>
      </trkpt>
      <trkpt lat="45.15445" lon="5.77733">
        <ele>715.9</ele>
        <time>2021-05-26T17:48:46.000Z</time>
      </trkpt>
      <trkpt lat="45.15445" lon="5.77733">
        <ele>715.9</ele>
        <time>2021-05-26T17:48:47.000Z</time>
      </trkpt>
      <trkpt lat="45.15445" lon="5.77734">
        <ele>716</ele>
        <time>2021-05-26T17:48:48.000Z</time>
      </trkpt>
      <trkpt lat="45.15445" lon="5.77734">
        <ele>716</ele>
        <time>2021-05-26T17:48:50.000Z</time>
      </trkpt>
      <trkpt lat="45.15445" lon="5.77734">
        <ele>716</ele>
        <time>2021-05-26T17:48:51.000Z</time>
      </trkpt>
      <trkpt lat="45.15445" lon="5.77734">
        <ele>716</ele>
        <time>2021-05-26T17:48:52.000Z</time>
      </trkpt>
      <trkpt lat="45.15445" lon="5.77734">
        <ele>716</ele>
        <time>2021-05-26T17:48:53.000Z</time>
      </trkpt>
      <trkpt lat="45.15445" lon="5.77734">
        <ele>716</ele>
        <time>2021-05-26T17:48:54.000Z</time>
      </trkpt>
      <trkpt lat="45.15445" lon="5.77734">
        <ele>716</ele>
        <time>2021-05-26T17:48:55.000Z</time>
      </trkpt>
      <trkpt lat="45.15445" lon="5.77734">
        <ele>716</ele>
        <time>2021-05-26T17:48:56.000Z</time>
      </trkpt>
      <trkpt lat="45.15445" lon="5.77734">
        <ele>716</ele>
        <time>2021-05-26T17:48:57.000Z</time>
      </trkpt>
      <trkpt lat="45.15445" lon="5.77734">
        <ele>716.1</ele>
        <time>2021-05-26T17:48:58.000Z</time>
      </trkpt>
      <trkpt lat="45.15445" lon="5.77734">
        <ele>716.1</ele>
        <time>2021-05-26T17:48:59.000Z</time>
      </trkpt>
      <trkpt lat="45.15445" lon="5.77734">
        <ele>716.1</ele>
        <time>2021-05-26T17:49:00.000Z</time>
      </trkpt>
      <trkpt lat="45.15445" lon="5.77734">
        <ele>716.1</ele>
        <time>2021-05-26T17:49:01.000Z</time>
      </trkpt>
      <trkpt lat="45.15445" lon="5.77734">
        <ele>716.1</ele>
        <time>2021-05-26T17:49:02.000Z</time>
      </trkpt>
      <trkpt lat="45.15445" lon="5.77734">
        <ele>716.1</ele>
        <time>2021-05-26T17:49:03.000Z</time>
      </trkpt>
      <trkpt lat="45.15445" lon="5.77734">
        <ele>716.1</ele>
        <time>2021-05-26T17:49:04.000Z</time>
      </trkpt>
      <trkpt lat="45.15446" lon="5.77734">
        <ele>716.1</ele>
        <time>2021-05-26T17:49:05.000Z</time>
      </trkpt>
      <trkpt lat="45.15446" lon="5.77734">
        <ele>716.1</ele>
        <time>2021-05-26T17:49:06.000Z</time>
      </trkpt>
      <trkpt lat="45.15446" lon="5.77734">
        <ele>716.1</ele>
        <time>2021-05-26T17:49:07.000Z</time>
      </trkpt>
      <trkpt lat="45.15446" lon="5.77734">
        <ele>716.1</ele>
        <time>2021-05-26T17:49:09.000Z</time>
      </trkpt>
      <trkpt lat="45.15446" lon="5.77734">
        <ele>716.1</ele>
        <time>2021-05-26T17:49:10.000Z</time>
      </trkpt>
      <trkpt lat="45.15446" lon="5.77734">
        <ele>716.2</ele>
        <time>2021-05-26T17:49:11.000Z</time>
      </trkpt>
      <trkpt lat="45.15446" lon="5.77734">
        <ele>716.2</ele>
        <time>2021-05-26T17:49:12.000Z</time>
      </trkpt>
      <trkpt lat="45.15446" lon="5.77734">
        <ele>716.2</ele>
        <time>2021-05-26T17:49:13.000Z</time>
      </trkpt>
      <trkpt lat="45.15446" lon="5.77734">
        <ele>716.2</ele>
        <time>2021-05-26T17:49:14.000Z</time>
      </trkpt>
      <trkpt lat="45.15446" lon="5.77734">
        <ele>716.2</ele>
        <time>2021-05-26T17:49:15.000Z</time>
      </trkpt>
      <trkpt lat="45.15446" lon="5.77735">
        <ele>716.2</ele>
        <time>2021-05-26T17:49:16.000Z</time>
      </trkpt>
      <trkpt lat="45.15446" lon="5.77735">
        <ele>716.2</ele>
        <time>2021-05-26T17:49:17.000Z</time>
      </trkpt>
      <trkpt lat="45.15446" lon="5.77735">
        <ele>716.2</ele>
        <time>2021-05-26T17:49:18.000Z</time>
      </trkpt>
      <trkpt lat="45.15446" lon="5.77735">
        <ele>716.2</ele>
        <time>2021-05-26T17:49:19.000Z</time>
      </trkpt>
      <trkpt lat="45.15446" lon="5.77735">
        <ele>716.3</ele>
        <time>2021-05-26T17:49:20.000Z</time>
      </trkpt>
      <trkpt lat="45.15446" lon="5.77735">
        <ele>716.3</ele>
        <time>2021-05-26T17:49:21.000Z</time>
      </trkpt>
      <trkpt lat="45.15446" lon="5.77735">
        <ele>716.3</ele>
        <time>2021-05-26T17:49:22.000Z</time>
      </trkpt>
      <trkpt lat="45.15446" lon="5.77735">
        <ele>716.3</ele>
        <time>2021-05-26T17:49:23.000Z</time>
      </trkpt>
      <trkpt lat="45.15446" lon="5.77735">
        <ele>716.3</ele>
        <time>2021-05-26T17:49:24.000Z</time>
      </trkpt>
      <trkpt lat="45.15446" lon="5.77735">
        <ele>716.3</ele>
        <time>2021-05-26T17:49:25.000Z</time>
      </trkpt>
      <trkpt lat="45.15446" lon="5.77735">
        <ele>716.3</ele>
        <time>2021-05-26T17:49:26.000Z</time>
      </trkpt>
      <trkpt lat="45.15446" lon="5.77735">
        <ele>716.3</ele>
        <time>2021-05-26T17:49:28.000Z</time>
      </trkpt>
      <trkpt lat="45.15446" lon="5.77735">
        <ele>716.3</ele>
        <time>2021-05-26T17:49:29.000Z</time>
      </trkpt>
      <trkpt lat="45.15447" lon="5.77735">
        <ele>716.3</ele>
        <time>2021-05-26T17:49:30.000Z</time>
      </trkpt>
      <trkpt lat="45.15447" lon="5.77735">
        <ele>716.4</ele>
        <time>2021-05-26T17:49:31.000Z</time>
      </trkpt>
      <trkpt lat="45.15447" lon="5.77735">
        <ele>716.4</ele>
        <time>2021-05-26T17:49:32.000Z</time>
      </trkpt>
      <trkpt lat="45.15447" lon="5.77735">
        <ele>716.4</ele>
        <time>2021-05-26T17:49:33.000Z</time>
      </trkpt>
      <trkpt lat="45.15447" lon="5.77735">
        <ele>716.4</ele>
        <time>2021-05-26T17:49:34.000Z</time>
      </trkpt>
      <trkpt lat="45.15447" lon="5.77735">
        <ele>716.4</ele>
        <time>2021-05-26T17:49:35.000Z</time>
      </trkpt>
      <trkpt lat="45.15447" lon="5.77735">
        <ele>716.4</ele>
        <time>2021-05-26T17:49:36.000Z</time>
      </trkpt>
      <trkpt lat="45.15447" lon="5.77735">
        <ele>716.4</ele>
        <time>2021-05-26T17:49:37.000Z</time>
      </trkpt>
      <trkpt lat="45.15447" lon="5.77735">
        <ele>716.4</ele>
        <time>2021-05-26T17:49:38.000Z</time>
      </trkpt>
      <trkpt lat="45.15447" lon="5.77735">
        <ele>716.4</ele>
        <time>2021-05-26T17:49:39.000Z</time>
      </trkpt>
      <trkpt lat="45.15447" lon="5.77735">
        <ele>716.4</ele>
        <time>2021-05-26T17:49:40.000Z</time>
      </trkpt>
      <trkpt lat="45.15447" lon="5.77735">
        <ele>716.5</ele>
        <time>2021-05-26T17:49:41.000Z</time>
      </trkpt>
      <trkpt lat="45.15447" lon="5.77735">
        <ele>716.5</ele>
        <time>2021-05-26T17:49:42.000Z</time>
      </trkpt>
      <trkpt lat="45.15447" lon="5.77735">
        <ele>716.5</ele>
        <time>2021-05-26T17:49:44.000Z</time>
      </trkpt>
      <trkpt lat="45.15447" lon="5.77736">
        <ele>716.5</ele>
        <time>2021-05-26T17:49:45.000Z</time>
      </trkpt>
      <trkpt lat="45.15447" lon="5.77736">
        <ele>716.5</ele>
        <time>2021-05-26T17:49:47.000Z</time>
      </trkpt>
      <trkpt lat="45.15447" lon="5.77736">
        <ele>716.5</ele>
        <time>2021-05-26T17:49:48.000Z</time>
      </trkpt>
      <trkpt lat="45.15447" lon="5.77736">
        <ele>716.5</ele>
        <time>2021-05-26T17:49:49.000Z</time>
      </trkpt>
      <trkpt lat="45.15447" lon="5.77736">
        <ele>716.5</ele>
        <time>2021-05-26T17:49:50.000Z</time>
      </trkpt>
      <trkpt lat="45.15447" lon="5.77736">
        <ele>716.5</ele>
        <time>2021-05-26T17:49:51.000Z</time>
      </trkpt>
      <trkpt lat="45.15447" lon="5.77736">
        <ele>716.5</ele>
        <time>2021-05-26T17:49:52.000Z</time>
      </trkpt>
      <trkpt lat="45.15448" lon="5.77736">
        <ele>716.7</ele>
        <time>2021-05-26T17:49:53.000Z</time>
      </trkpt>
      <trkpt lat="45.15449" lon="5.77737">
        <ele>716.8</ele>
        <time>2021-05-26T17:49:54.000Z</time>
      </trkpt>
      <trkpt lat="45.15449" lon="5.77738">
        <ele>716.9</ele>
        <time>2021-05-26T17:49:55.000Z</time>
      </trkpt>
      <trkpt lat="45.1545" lon="5.77738">
        <ele>717</ele>
        <time>2021-05-26T17:49:56.000Z</time>
      </trkpt>
      <trkpt lat="45.15451" lon="5.77739">
        <ele>717.1</ele>
        <time>2021-05-26T17:49:57.000Z</time>
      </trkpt>
      <trkpt lat="45.15452" lon="5.7774">
        <ele>717.2</ele>
        <time>2021-05-26T17:49:58.000Z</time>
      </trkpt>
      <trkpt lat="45.15453" lon="5.7774">
        <ele>717.3</ele>
        <time>2021-05-26T17:49:59.000Z</time>
      </trkpt>
      <trkpt lat="45.15454" lon="5.77741">
        <ele>717.4</ele>
        <time>2021-05-26T17:50:00.000Z</time>
      </trkpt>
      <trkpt lat="45.15455" lon="5.77742">
        <ele>717.5</ele>
        <time>2021-05-26T17:50:01.000Z</time>
      </trkpt>
      <trkpt lat="45.15455" lon="5.77742">
        <ele>717.5</ele>
        <time>2021-05-26T17:50:02.000Z</time>
      </trkpt>
      <trkpt lat="45.15455" lon="5.77742">
        <ele>717.5</ele>
        <time>2021-05-26T17:50:03.000Z</time>
      </trkpt>
      <trkpt lat="45.15458" lon="5.77745">
        <ele>717.9</ele>
        <time>2021-05-26T17:50:04.000Z</time>
      </trkpt>
      <trkpt lat="45.15458" lon="5.77745">
        <ele>717.9</ele>
        <time>2021-05-26T17:50:06.000Z</time>
      </trkpt>
      <trkpt lat="45.15461" lon="5.77747">
        <ele>718.1</ele>
        <time>2021-05-26T17:50:07.000Z</time>
      </trkpt>
      <trkpt lat="45.15461" lon="5.77747">
        <ele>718.1</ele>
        <time>2021-05-26T17:50:08.000Z</time>
      </trkpt>
      <trkpt lat="45.15461" lon="5.77747">
        <ele>718.1</ele>
        <time>2021-05-26T17:50:09.000Z</time>
      </trkpt>
      <trkpt lat="45.15461" lon="5.77747">
        <ele>718.1</ele>
        <time>2021-05-26T17:50:10.000Z</time>
      </trkpt>
      <trkpt lat="45.15463" lon="5.77752">
        <ele>718.4</ele>
        <time>2021-05-26T17:50:11.000Z</time>
      </trkpt>
      <trkpt lat="45.15464" lon="5.77754">
        <ele>718.4</ele>
        <time>2021-05-26T17:50:12.000Z</time>
      </trkpt>
      <trkpt lat="45.15464" lon="5.77755">
        <ele>718.5</ele>
        <time>2021-05-26T17:50:13.000Z</time>
      </trkpt>
      <trkpt lat="45.15464" lon="5.77757">
        <ele>718.6</ele>
        <time>2021-05-26T17:50:14.000Z</time>
      </trkpt>
      <trkpt lat="45.15465" lon="5.77758">
        <ele>718.6</ele>
        <time>2021-05-26T17:50:15.000Z</time>
      </trkpt>
      <trkpt lat="45.15466" lon="5.7776">
        <ele>718.7</ele>
        <time>2021-05-26T17:50:16.000Z</time>
      </trkpt>
      <trkpt lat="45.15466" lon="5.77761">
        <ele>718.8</ele>
        <time>2021-05-26T17:50:17.000Z</time>
      </trkpt>
      <trkpt lat="45.15467" lon="5.77763">
        <ele>718.9</ele>
        <time>2021-05-26T17:50:18.000Z</time>
      </trkpt>
      <trkpt lat="45.15468" lon="5.77764">
        <ele>718.9</ele>
        <time>2021-05-26T17:50:19.000Z</time>
      </trkpt>
      <trkpt lat="45.15469" lon="5.77766">
        <ele>719</ele>
        <time>2021-05-26T17:50:20.000Z</time>
      </trkpt>
      <trkpt lat="45.1547" lon="5.77768">
        <ele>719</ele>
        <time>2021-05-26T17:50:21.000Z</time>
      </trkpt>
      <trkpt lat="45.15471" lon="5.7777">
        <ele>719.1</ele>
        <time>2021-05-26T17:50:22.000Z</time>
      </trkpt>
      <trkpt lat="45.15472" lon="5.77771">
        <ele>719.1</ele>
        <time>2021-05-26T17:50:23.000Z</time>
      </trkpt>
      <trkpt lat="45.15473" lon="5.77772">
        <ele>719.1</ele>
        <time>2021-05-26T17:50:25.000Z</time>
      </trkpt>
      <trkpt lat="45.15474" lon="5.77772">
        <ele>719.1</ele>
        <time>2021-05-26T17:50:26.000Z</time>
      </trkpt>
      <trkpt lat="45.15475" lon="5.77773">
        <ele>719.1</ele>
        <time>2021-05-26T17:50:27.000Z</time>
      </trkpt>
      <trkpt lat="45.15476" lon="5.77774">
        <ele>719.2</ele>
        <time>2021-05-26T17:50:28.000Z</time>
      </trkpt>
      <trkpt lat="45.15482" lon="5.77778">
        <ele>719.3</ele>
        <time>2021-05-26T17:50:29.000Z</time>
      </trkpt>
      <trkpt lat="45.15482" lon="5.77779">
        <ele>719.3</ele>
        <time>2021-05-26T17:50:30.000Z</time>
      </trkpt>
      <trkpt lat="45.15483" lon="5.7778">
        <ele>719.3</ele>
        <time>2021-05-26T17:50:31.000Z</time>
      </trkpt>
      <trkpt lat="45.15484" lon="5.7778">
        <ele>719.3</ele>
        <time>2021-05-26T17:50:32.000Z</time>
      </trkpt>
      <trkpt lat="45.15485" lon="5.77781">
        <ele>719.3</ele>
        <time>2021-05-26T17:50:33.000Z</time>
      </trkpt>
      <trkpt lat="45.15486" lon="5.77781">
        <ele>719.3</ele>
        <time>2021-05-26T17:50:34.000Z</time>
      </trkpt>
      <trkpt lat="45.15492" lon="5.77786">
        <ele>719.4</ele>
        <time>2021-05-26T17:50:35.000Z</time>
      </trkpt>
      <trkpt lat="45.15494" lon="5.77786">
        <ele>719.5</ele>
        <time>2021-05-26T17:50:36.000Z</time>
      </trkpt>
      <trkpt lat="45.15495" lon="5.77786">
        <ele>719.5</ele>
        <time>2021-05-26T17:50:37.000Z</time>
      </trkpt>
      <trkpt lat="45.15496" lon="5.77787">
        <ele>719.5</ele>
        <time>2021-05-26T17:50:38.000Z</time>
      </trkpt>
      <trkpt lat="45.15497" lon="5.77787">
        <ele>719.6</ele>
        <time>2021-05-26T17:50:39.000Z</time>
      </trkpt>
      <trkpt lat="45.15506" lon="5.7779">
        <ele>719.8</ele>
        <time>2021-05-26T17:50:40.000Z</time>
      </trkpt>
      <trkpt lat="45.15509" lon="5.77791">
        <ele>719.9</ele>
        <time>2021-05-26T17:50:41.000Z</time>
      </trkpt>
      <trkpt lat="45.15511" lon="5.77792">
        <ele>720</ele>
        <time>2021-05-26T17:50:42.000Z</time>
      </trkpt>
      <trkpt lat="45.15514" lon="5.77793">
        <ele>720.1</ele>
        <time>2021-05-26T17:50:44.000Z</time>
      </trkpt>
      <trkpt lat="45.15516" lon="5.77794">
        <ele>720.1</ele>
        <time>2021-05-26T17:50:45.000Z</time>
      </trkpt>
      <trkpt lat="45.15518" lon="5.77795">
        <ele>720.2</ele>
        <time>2021-05-26T17:50:46.000Z</time>
      </trkpt>
      <trkpt lat="45.1552" lon="5.77796">
        <ele>720.2</ele>
        <time>2021-05-26T17:50:47.000Z</time>
      </trkpt>
      <trkpt lat="45.15521" lon="5.77797">
        <ele>720.2</ele>
        <time>2021-05-26T17:50:48.000Z</time>
      </trkpt>
      <trkpt lat="45.15527" lon="5.77801">
        <ele>720.3</ele>
        <time>2021-05-26T17:50:49.000Z</time>
      </trkpt>
      <trkpt lat="45.15527" lon="5.77802">
        <ele>720.3</ele>
        <time>2021-05-26T17:50:50.000Z</time>
      </trkpt>
      <trkpt lat="45.15528" lon="5.77803">
        <ele>720.3</ele>
        <time>2021-05-26T17:50:51.000Z</time>
      </trkpt>
      <trkpt lat="45.15528" lon="5.77804">
        <ele>720.3</ele>
        <time>2021-05-26T17:50:52.000Z</time>
      </trkpt>
      <trkpt lat="45.15529" lon="5.77805">
        <ele>720.3</ele>
        <time>2021-05-26T17:50:53.000Z</time>
      </trkpt>
      <trkpt lat="45.1553" lon="5.77806">
        <ele>720.3</ele>
        <time>2021-05-26T17:50:54.000Z</time>
      </trkpt>
      <trkpt lat="45.1553" lon="5.77807">
        <ele>720.3</ele>
        <time>2021-05-26T17:50:55.000Z</time>
      </trkpt>
      <trkpt lat="45.15534" lon="5.77814">
        <ele>720.2</ele>
        <time>2021-05-26T17:50:56.000Z</time>
      </trkpt>
      <trkpt lat="45.15534" lon="5.77815">
        <ele>720.2</ele>
        <time>2021-05-26T17:50:57.000Z</time>
      </trkpt>
      <trkpt lat="45.15534" lon="5.77816">
        <ele>720.2</ele>
        <time>2021-05-26T17:50:58.000Z</time>
      </trkpt>
      <trkpt lat="45.15534" lon="5.77817">
        <ele>720.2</ele>
        <time>2021-05-26T17:50:59.000Z</time>
      </trkpt>
      <trkpt lat="45.15534" lon="5.77818">
        <ele>720.2</ele>
        <time>2021-05-26T17:51:00.000Z</time>
      </trkpt>
      <trkpt lat="45.15534" lon="5.77819">
        <ele>720.2</ele>
        <time>2021-05-26T17:51:01.000Z</time>
      </trkpt>
      <trkpt lat="45.15534" lon="5.7782">
        <ele>720.2</ele>
        <time>2021-05-26T17:51:03.000Z</time>
      </trkpt>
      <trkpt lat="45.15535" lon="5.77821">
        <ele>720.2</ele>
        <time>2021-05-26T17:51:04.000Z</time>
      </trkpt>
      <trkpt lat="45.15536" lon="5.7783">
        <ele>720.2</ele>
        <time>2021-05-26T17:51:05.000Z</time>
      </trkpt>
      <trkpt lat="45.15536" lon="5.77832">
        <ele>720.2</ele>
        <time>2021-05-26T17:51:06.000Z</time>
      </trkpt>
      <trkpt lat="45.15537" lon="5.77833">
        <ele>720.2</ele>
        <time>2021-05-26T17:51:07.000Z</time>
      </trkpt>
      <trkpt lat="45.15537" lon="5.77834">
        <ele>720.1</ele>
        <time>2021-05-26T17:51:08.000Z</time>
      </trkpt>
      <trkpt lat="45.15538" lon="5.77836">
        <ele>720.1</ele>
        <time>2021-05-26T17:51:09.000Z</time>
      </trkpt>
      <trkpt lat="45.15541" lon="5.77844">
        <ele>719.9</ele>
        <time>2021-05-26T17:51:10.000Z</time>
      </trkpt>
      <trkpt lat="45.15542" lon="5.77846">
        <ele>719.8</ele>
        <time>2021-05-26T17:51:11.000Z</time>
      </trkpt>
      <trkpt lat="45.15543" lon="5.77847">
        <ele>719.8</ele>
        <time>2021-05-26T17:51:12.000Z</time>
      </trkpt>
      <trkpt lat="45.15544" lon="5.77849">
        <ele>719.7</ele>
        <time>2021-05-26T17:51:13.000Z</time>
      </trkpt>
      <trkpt lat="45.15548" lon="5.77857">
        <ele>719.2</ele>
        <time>2021-05-26T17:51:14.000Z</time>
      </trkpt>
      <trkpt lat="45.15549" lon="5.77859">
        <ele>719.1</ele>
        <time>2021-05-26T17:51:15.000Z</time>
      </trkpt>
      <trkpt lat="45.15549" lon="5.7786">
        <ele>719</ele>
        <time>2021-05-26T17:51:16.000Z</time>
      </trkpt>
      <trkpt lat="45.1555" lon="5.77862">
        <ele>718.9</ele>
        <time>2021-05-26T17:51:17.000Z</time>
      </trkpt>
      <trkpt lat="45.15552" lon="5.77873">
        <ele>718.3</ele>
        <time>2021-05-26T17:51:18.000Z</time>
      </trkpt>
      <trkpt lat="45.15553" lon="5.77876">
        <ele>718.1</ele>
        <time>2021-05-26T17:51:19.000Z</time>
      </trkpt>
      <trkpt lat="45.15554" lon="5.7788">
        <ele>718</ele>
        <time>2021-05-26T17:51:20.000Z</time>
      </trkpt>
      <trkpt lat="45.15555" lon="5.77883">
        <ele>717.9</ele>
        <time>2021-05-26T17:51:21.000Z</time>
      </trkpt>
      <trkpt lat="45.15556" lon="5.77887">
        <ele>717.9</ele>
        <time>2021-05-26T17:51:22.000Z</time>
      </trkpt>
      <trkpt lat="45.15557" lon="5.77888">
        <ele>717.9</ele>
        <time>2021-05-26T17:51:23.000Z</time>
      </trkpt>
      <trkpt lat="45.15558" lon="5.7789">
        <ele>717.9</ele>
        <time>2021-05-26T17:51:24.000Z</time>
      </trkpt>
      <trkpt lat="45.15558" lon="5.77892">
        <ele>717.9</ele>
        <time>2021-05-26T17:51:25.000Z</time>
      </trkpt>
      <trkpt lat="45.15559" lon="5.77894">
        <ele>718</ele>
        <time>2021-05-26T17:51:26.000Z</time>
      </trkpt>
      <trkpt lat="45.15561" lon="5.77902">
        <ele>718.3</ele>
        <time>2021-05-26T17:51:27.000Z</time>
      </trkpt>
      <trkpt lat="45.1556" lon="5.77903">
        <ele>718.3</ele>
        <time>2021-05-26T17:51:28.000Z</time>
      </trkpt>
      <trkpt lat="45.1556" lon="5.77904">
        <ele>718.4</ele>
        <time>2021-05-26T17:51:29.000Z</time>
      </trkpt>
      <trkpt lat="45.1556" lon="5.77905">
        <ele>718.4</ele>
        <time>2021-05-26T17:51:30.000Z</time>
      </trkpt>
      <trkpt lat="45.1556" lon="5.77905">
        <ele>718.5</ele>
        <time>2021-05-26T17:51:31.000Z</time>
      </trkpt>
      <trkpt lat="45.1556" lon="5.77906">
        <ele>718.5</ele>
        <time>2021-05-26T17:51:32.000Z</time>
      </trkpt>
      <trkpt lat="45.15559" lon="5.77907">
        <ele>718.6</ele>
        <time>2021-05-26T17:51:33.000Z</time>
      </trkpt>
      <trkpt lat="45.15559" lon="5.77908">
        <ele>718.6</ele>
        <time>2021-05-26T17:51:34.000Z</time>
      </trkpt>
      <trkpt lat="45.15559" lon="5.77909">
        <ele>718.7</ele>
        <time>2021-05-26T17:51:35.000Z</time>
      </trkpt>
      <trkpt lat="45.15559" lon="5.77909">
        <ele>718.7</ele>
        <time>2021-05-26T17:51:36.000Z</time>
      </trkpt>
      <trkpt lat="45.15557" lon="5.77918">
        <ele>719.4</ele>
        <time>2021-05-26T17:51:37.000Z</time>
      </trkpt>
      <trkpt lat="45.15556" lon="5.77918">
        <ele>719.4</ele>
        <time>2021-05-26T17:51:38.000Z</time>
      </trkpt>
      <trkpt lat="45.15556" lon="5.77919">
        <ele>719.5</ele>
        <time>2021-05-26T17:51:39.000Z</time>
      </trkpt>
      <trkpt lat="45.15556" lon="5.77919">
        <ele>719.5</ele>
        <time>2021-05-26T17:51:41.000Z</time>
      </trkpt>
      <trkpt lat="45.15556" lon="5.77919">
        <ele>719.6</ele>
        <time>2021-05-26T17:51:42.000Z</time>
      </trkpt>
      <trkpt lat="45.15556" lon="5.7792">
        <ele>719.6</ele>
        <time>2021-05-26T17:51:43.000Z</time>
      </trkpt>
      <trkpt lat="45.15555" lon="5.7792">
        <ele>719.7</ele>
        <time>2021-05-26T17:51:44.000Z</time>
      </trkpt>
      <trkpt lat="45.15555" lon="5.77921">
        <ele>719.7</ele>
        <time>2021-05-26T17:51:45.000Z</time>
      </trkpt>
      <trkpt lat="45.15555" lon="5.77921">
        <ele>719.7</ele>
        <time>2021-05-26T17:51:46.000Z</time>
      </trkpt>
      <trkpt lat="45.15555" lon="5.77922">
        <ele>719.8</ele>
        <time>2021-05-26T17:51:47.000Z</time>
      </trkpt>
      <trkpt lat="45.15555" lon="5.77922">
        <ele>719.8</ele>
        <time>2021-05-26T17:51:48.000Z</time>
      </trkpt>
      <trkpt lat="45.15555" lon="5.77923">
        <ele>719.9</ele>
        <time>2021-05-26T17:51:49.000Z</time>
      </trkpt>
      <trkpt lat="45.15554" lon="5.77923">
        <ele>719.9</ele>
        <time>2021-05-26T17:51:50.000Z</time>
      </trkpt>
      <trkpt lat="45.15554" lon="5.77924">
        <ele>720</ele>
        <time>2021-05-26T17:51:51.000Z</time>
      </trkpt>
      <trkpt lat="45.15554" lon="5.77924">
        <ele>720</ele>
        <time>2021-05-26T17:51:52.000Z</time>
      </trkpt>
      <trkpt lat="45.15551" lon="5.77931">
        <ele>720.6</ele>
        <time>2021-05-26T17:51:53.000Z</time>
      </trkpt>
      <trkpt lat="45.15551" lon="5.77931">
        <ele>720.4</ele>
        <time>2021-05-26T17:51:54.000Z</time>
      </trkpt>
      <trkpt lat="45.15551" lon="5.77931">
        <ele>720.4</ele>
        <time>2021-05-26T17:51:55.000Z</time>
      </trkpt>
      <trkpt lat="45.15553" lon="5.77936">
        <ele>719.7</ele>
        <time>2021-05-26T17:51:56.000Z</time>
      </trkpt>
      <trkpt lat="45.15553" lon="5.77936">
        <ele>719.7</ele>
        <time>2021-05-26T17:51:57.000Z</time>
      </trkpt>
      <trkpt lat="45.15553" lon="5.77936">
        <ele>719.7</ele>
        <time>2021-05-26T17:51:58.000Z</time>
      </trkpt>
      <trkpt lat="45.15553" lon="5.77936">
        <ele>719.7</ele>
        <time>2021-05-26T17:52:00.000Z</time>
      </trkpt>
      <trkpt lat="45.15553" lon="5.77936">
        <ele>719.7</ele>
        <time>2021-05-26T17:52:01.000Z</time>
      </trkpt>
      <trkpt lat="45.15553" lon="5.77936">
        <ele>719.7</ele>
        <time>2021-05-26T17:52:02.000Z</time>
      </trkpt>
      <trkpt lat="45.15553" lon="5.77936">
        <ele>719.7</ele>
        <time>2021-05-26T17:52:03.000Z</time>
      </trkpt>
      <trkpt lat="45.15553" lon="5.77936">
        <ele>719.7</ele>
        <time>2021-05-26T17:52:04.000Z</time>
      </trkpt>
      <trkpt lat="45.15553" lon="5.77936">
        <ele>719.7</ele>
        <time>2021-05-26T17:52:05.000Z</time>
      </trkpt>
      <trkpt lat="45.15553" lon="5.77936">
        <ele>719.7</ele>
        <time>2021-05-26T17:52:06.000Z</time>
      </trkpt>
      <trkpt lat="45.15553" lon="5.77936">
        <ele>719.7</ele>
        <time>2021-05-26T17:52:07.000Z</time>
      </trkpt>
      <trkpt lat="45.15553" lon="5.77936">
        <ele>719.7</ele>
        <time>2021-05-26T17:52:09.000Z</time>
      </trkpt>
      <trkpt lat="45.15553" lon="5.77936">
        <ele>719.7</ele>
        <time>2021-05-26T17:52:10.000Z</time>
      </trkpt>
      <trkpt lat="45.15553" lon="5.77936">
        <ele>719.7</ele>
        <time>2021-05-26T17:52:11.000Z</time>
      </trkpt>
      <trkpt lat="45.15551" lon="5.7794">
        <ele>719</ele>
        <time>2021-05-26T17:52:12.000Z</time>
      </trkpt>
      <trkpt lat="45.15552" lon="5.77941">
        <ele>718.9</ele>
        <time>2021-05-26T17:52:13.000Z</time>
      </trkpt>
      <trkpt lat="45.15552" lon="5.77941">
        <ele>718.9</ele>
        <time>2021-05-26T17:52:14.000Z</time>
      </trkpt>
      <trkpt lat="45.15552" lon="5.77941">
        <ele>718.8</ele>
        <time>2021-05-26T17:52:15.000Z</time>
      </trkpt>
      <trkpt lat="45.15552" lon="5.77941">
        <ele>718.8</ele>
        <time>2021-05-26T17:52:16.000Z</time>
      </trkpt>
      <trkpt lat="45.15553" lon="5.77942">
        <ele>718.7</ele>
        <time>2021-05-26T17:52:17.000Z</time>
      </trkpt>
      <trkpt lat="45.15553" lon="5.77942">
        <ele>718.7</ele>
        <time>2021-05-26T17:52:19.000Z</time>
      </trkpt>
      <trkpt lat="45.15553" lon="5.77942">
        <ele>718.6</ele>
        <time>2021-05-26T17:52:20.000Z</time>
      </trkpt>
      <trkpt lat="45.15553" lon="5.77943">
        <ele>718.6</ele>
        <time>2021-05-26T17:52:21.000Z</time>
      </trkpt>
      <trkpt lat="45.15554" lon="5.77943">
        <ele>718.5</ele>
        <time>2021-05-26T17:52:22.000Z</time>
      </trkpt>
      <trkpt lat="45.15554" lon="5.77943">
        <ele>718.5</ele>
        <time>2021-05-26T17:52:23.000Z</time>
      </trkpt>
      <trkpt lat="45.15554" lon="5.77943">
        <ele>718.4</ele>
        <time>2021-05-26T17:52:24.000Z</time>
      </trkpt>
      <trkpt lat="45.15554" lon="5.77944">
        <ele>718.3</ele>
        <time>2021-05-26T17:52:25.000Z</time>
      </trkpt>
      <trkpt lat="45.15555" lon="5.77944">
        <ele>718.3</ele>
        <time>2021-05-26T17:52:26.000Z</time>
      </trkpt>
      <trkpt lat="45.15555" lon="5.77944">
        <ele>718.2</ele>
        <time>2021-05-26T17:52:27.000Z</time>
      </trkpt>
      <trkpt lat="45.15555" lon="5.77944">
        <ele>718.2</ele>
        <time>2021-05-26T17:52:29.000Z</time>
      </trkpt>
      <trkpt lat="45.15555" lon="5.77945">
        <ele>718.1</ele>
        <time>2021-05-26T17:52:30.000Z</time>
      </trkpt>
      <trkpt lat="45.15556" lon="5.77945">
        <ele>718.1</ele>
        <time>2021-05-26T17:52:31.000Z</time>
      </trkpt>
      <trkpt lat="45.15561" lon="5.77949">
        <ele>717.1</ele>
        <time>2021-05-26T17:52:32.000Z</time>
      </trkpt>
      <trkpt lat="45.15561" lon="5.77949">
        <ele>717</ele>
        <time>2021-05-26T17:52:33.000Z</time>
      </trkpt>
      <trkpt lat="45.15562" lon="5.77949">
        <ele>716.9</ele>
        <time>2021-05-26T17:52:34.000Z</time>
      </trkpt>
      <trkpt lat="45.15562" lon="5.77948">
        <ele>716.8</ele>
        <time>2021-05-26T17:52:35.000Z</time>
      </trkpt>
      <trkpt lat="45.15563" lon="5.77948">
        <ele>716.7</ele>
        <time>2021-05-26T17:52:36.000Z</time>
      </trkpt>
      <trkpt lat="45.15563" lon="5.77947">
        <ele>716.6</ele>
        <time>2021-05-26T17:52:38.000Z</time>
      </trkpt>
      <trkpt lat="45.15564" lon="5.77947">
        <ele>716.5</ele>
        <time>2021-05-26T17:52:39.000Z</time>
      </trkpt>
      <trkpt lat="45.15565" lon="5.77947">
        <ele>716.4</ele>
        <time>2021-05-26T17:52:40.000Z</time>
      </trkpt>
      <trkpt lat="45.15565" lon="5.77946">
        <ele>716.3</ele>
        <time>2021-05-26T17:52:41.000Z</time>
      </trkpt>
      <trkpt lat="45.15566" lon="5.77946">
        <ele>716.1</ele>
        <time>2021-05-26T17:52:42.000Z</time>
      </trkpt>
      <trkpt lat="45.15572" lon="5.77942">
        <ele>714.8</ele>
        <time>2021-05-26T17:52:43.000Z</time>
      </trkpt>
      <trkpt lat="45.15573" lon="5.77943">
        <ele>714.6</ele>
        <time>2021-05-26T17:52:44.000Z</time>
      </trkpt>
      <trkpt lat="45.15574" lon="5.77943">
        <ele>714.3</ele>
        <time>2021-05-26T17:52:45.000Z</time>
      </trkpt>
      <trkpt lat="45.15575" lon="5.77944">
        <ele>714.1</ele>
        <time>2021-05-26T17:52:46.000Z</time>
      </trkpt>
      <trkpt lat="45.15576" lon="5.77944">
        <ele>713.8</ele>
        <time>2021-05-26T17:52:47.000Z</time>
      </trkpt>
      <trkpt lat="45.15583" lon="5.77946">
        <ele>712.3</ele>
        <time>2021-05-26T17:52:48.000Z</time>
      </trkpt>
      <trkpt lat="45.15584" lon="5.77946">
        <ele>712</ele>
        <time>2021-05-26T17:52:49.000Z</time>
      </trkpt>
      <trkpt lat="45.15585" lon="5.77946">
        <ele>711.7</ele>
        <time>2021-05-26T17:52:50.000Z</time>
      </trkpt>
      <trkpt lat="45.15586" lon="5.77946">
        <ele>711.5</ele>
        <time>2021-05-26T17:52:51.000Z</time>
      </trkpt>
      <trkpt lat="45.15587" lon="5.77945">
        <ele>711.2</ele>
        <time>2021-05-26T17:52:52.000Z</time>
      </trkpt>
      <trkpt lat="45.15593" lon="5.77945">
        <ele>709.8</ele>
        <time>2021-05-26T17:52:53.000Z</time>
      </trkpt>
      <trkpt lat="45.15593" lon="5.77945">
        <ele>709.8</ele>
        <time>2021-05-26T17:52:54.000Z</time>
      </trkpt>
      <trkpt lat="45.15593" lon="5.77945">
        <ele>709.8</ele>
        <time>2021-05-26T17:52:55.000Z</time>
      </trkpt>
      <trkpt lat="45.15604" lon="5.77944">
        <ele>706.7</ele>
        <time>2021-05-26T17:52:57.000Z</time>
      </trkpt>
      <trkpt lat="45.15605" lon="5.77945">
        <ele>706.4</ele>
        <time>2021-05-26T17:52:58.000Z</time>
      </trkpt>
      <trkpt lat="45.15606" lon="5.77945">
        <ele>706.2</ele>
        <time>2021-05-26T17:52:59.000Z</time>
      </trkpt>
      <trkpt lat="45.15607" lon="5.77946">
        <ele>705.9</ele>
        <time>2021-05-26T17:53:00.000Z</time>
      </trkpt>
      <trkpt lat="45.15608" lon="5.77946">
        <ele>705.6</ele>
        <time>2021-05-26T17:53:01.000Z</time>
      </trkpt>
      <trkpt lat="45.15609" lon="5.77947">
        <ele>705.4</ele>
        <time>2021-05-26T17:53:02.000Z</time>
      </trkpt>
      <trkpt lat="45.15617" lon="5.77952">
        <ele>702.5</ele>
        <time>2021-05-26T17:53:04.000Z</time>
      </trkpt>
      <trkpt lat="45.15618" lon="5.77952">
        <ele>702.2</ele>
        <time>2021-05-26T17:53:05.000Z</time>
      </trkpt>
      <trkpt lat="45.15619" lon="5.77952">
        <ele>702</ele>
        <time>2021-05-26T17:53:06.000Z</time>
      </trkpt>
      <trkpt lat="45.1562" lon="5.77953">
        <ele>701.7</ele>
        <time>2021-05-26T17:53:07.000Z</time>
      </trkpt>
      <trkpt lat="45.1562" lon="5.77953">
        <ele>701.5</ele>
        <time>2021-05-26T17:53:08.000Z</time>
      </trkpt>
      <trkpt lat="45.15621" lon="5.77953">
        <ele>701.3</ele>
        <time>2021-05-26T17:53:09.000Z</time>
      </trkpt>
      <trkpt lat="45.15622" lon="5.77953">
        <ele>701</ele>
        <time>2021-05-26T17:53:10.000Z</time>
      </trkpt>
      <trkpt lat="45.15623" lon="5.77953">
        <ele>700.8</ele>
        <time>2021-05-26T17:53:11.000Z</time>
      </trkpt>
      <trkpt lat="45.15629" lon="5.77954">
        <ele>698.4</ele>
        <time>2021-05-26T17:53:12.000Z</time>
      </trkpt>
      <trkpt lat="45.1563" lon="5.77954">
        <ele>698.1</ele>
        <time>2021-05-26T17:53:13.000Z</time>
      </trkpt>
      <trkpt lat="45.15631" lon="5.77955">
        <ele>697.8</ele>
        <time>2021-05-26T17:53:14.000Z</time>
      </trkpt>
      <trkpt lat="45.15632" lon="5.77955">
        <ele>697.4</ele>
        <time>2021-05-26T17:53:16.000Z</time>
      </trkpt>
      <trkpt lat="45.15633" lon="5.77955">
        <ele>697.1</ele>
        <time>2021-05-26T17:53:17.000Z</time>
      </trkpt>
      <trkpt lat="45.15634" lon="5.77956">
        <ele>696.7</ele>
        <time>2021-05-26T17:53:18.000Z</time>
      </trkpt>
      <trkpt lat="45.1564" lon="5.77958">
        <ele>694.4</ele>
        <time>2021-05-26T17:53:19.000Z</time>
      </trkpt>
      <trkpt lat="45.15641" lon="5.77959">
        <ele>694.2</ele>
        <time>2021-05-26T17:53:20.000Z</time>
      </trkpt>
      <trkpt lat="45.15641" lon="5.77959">
        <ele>694</ele>
        <time>2021-05-26T17:53:21.000Z</time>
      </trkpt>
      <trkpt lat="45.15642" lon="5.77959">
        <ele>693.8</ele>
        <time>2021-05-26T17:53:22.000Z</time>
      </trkpt>
      <trkpt lat="45.15642" lon="5.77959">
        <ele>693.6</ele>
        <time>2021-05-26T17:53:23.000Z</time>
      </trkpt>
      <trkpt lat="45.15643" lon="5.77959">
        <ele>693.4</ele>
        <time>2021-05-26T17:53:24.000Z</time>
      </trkpt>
      <trkpt lat="45.15644" lon="5.7796">
        <ele>693.1</ele>
        <time>2021-05-26T17:53:25.000Z</time>
      </trkpt>
      <trkpt lat="45.15644" lon="5.7796">
        <ele>692.9</ele>
        <time>2021-05-26T17:53:26.000Z</time>
      </trkpt>
      <trkpt lat="45.15645" lon="5.7796">
        <ele>692.7</ele>
        <time>2021-05-26T17:53:27.000Z</time>
      </trkpt>
      <trkpt lat="45.15652" lon="5.77962">
        <ele>690.2</ele>
        <time>2021-05-26T17:53:28.000Z</time>
      </trkpt>
      <trkpt lat="45.15653" lon="5.77962">
        <ele>689.7</ele>
        <time>2021-05-26T17:53:29.000Z</time>
      </trkpt>
      <trkpt lat="45.15655" lon="5.77962">
        <ele>689.2</ele>
        <time>2021-05-26T17:53:30.000Z</time>
      </trkpt>
      <trkpt lat="45.15656" lon="5.77962">
        <ele>688.6</ele>
        <time>2021-05-26T17:53:31.000Z</time>
      </trkpt>
      <trkpt lat="45.15657" lon="5.77962">
        <ele>688.1</ele>
        <time>2021-05-26T17:53:32.000Z</time>
      </trkpt>
      <trkpt lat="45.15659" lon="5.77962">
        <ele>687.6</ele>
        <time>2021-05-26T17:53:33.000Z</time>
      </trkpt>
      <trkpt lat="45.1566" lon="5.77962">
        <ele>687.1</ele>
        <time>2021-05-26T17:53:34.000Z</time>
      </trkpt>
      <trkpt lat="45.15662" lon="5.77962">
        <ele>686.5</ele>
        <time>2021-05-26T17:53:35.000Z</time>
      </trkpt>
      <trkpt lat="45.15663" lon="5.77962">
        <ele>686.2</ele>
        <time>2021-05-26T17:53:36.000Z</time>
      </trkpt>
      <trkpt lat="45.15663" lon="5.77961">
        <ele>685.9</ele>
        <time>2021-05-26T17:53:37.000Z</time>
      </trkpt>
      <trkpt lat="45.15664" lon="5.77961">
        <ele>685.7</ele>
        <time>2021-05-26T17:53:38.000Z</time>
      </trkpt>
      <trkpt lat="45.15665" lon="5.77961">
        <ele>685.4</ele>
        <time>2021-05-26T17:53:39.000Z</time>
      </trkpt>
      <trkpt lat="45.15665" lon="5.7796">
        <ele>685.1</ele>
        <time>2021-05-26T17:53:40.000Z</time>
      </trkpt>
      <trkpt lat="45.15666" lon="5.7796">
        <ele>684.8</ele>
        <time>2021-05-26T17:53:41.000Z</time>
      </trkpt>
      <trkpt lat="45.15667" lon="5.7796">
        <ele>684.6</ele>
        <time>2021-05-26T17:53:42.000Z</time>
      </trkpt>
      <trkpt lat="45.15667" lon="5.77959">
        <ele>684.3</ele>
        <time>2021-05-26T17:53:43.000Z</time>
      </trkpt>
      <trkpt lat="45.15674" lon="5.77956">
        <ele>681.7</ele>
        <time>2021-05-26T17:53:44.000Z</time>
      </trkpt>
      <trkpt lat="45.15675" lon="5.77956">
        <ele>681.3</ele>
        <time>2021-05-26T17:53:45.000Z</time>
      </trkpt>
      <trkpt lat="45.15676" lon="5.77956">
        <ele>681</ele>
        <time>2021-05-26T17:53:46.000Z</time>
      </trkpt>
      <trkpt lat="45.15677" lon="5.77956">
        <ele>680.6</ele>
        <time>2021-05-26T17:53:47.000Z</time>
      </trkpt>
      <trkpt lat="45.15678" lon="5.77956">
        <ele>680.2</ele>
        <time>2021-05-26T17:53:48.000Z</time>
      </trkpt>
      <trkpt lat="45.15679" lon="5.77956">
        <ele>679.9</ele>
        <time>2021-05-26T17:53:49.000Z</time>
      </trkpt>
      <trkpt lat="45.15686" lon="5.77956">
        <ele>677.9</ele>
        <time>2021-05-26T17:53:50.000Z</time>
      </trkpt>
      <trkpt lat="45.15686" lon="5.77956">
        <ele>674.8</ele>
        <time>2021-05-26T17:53:51.000Z</time>
      </trkpt>
      <trkpt lat="45.15686" lon="5.77957">
        <ele>674.7</ele>
        <time>2021-05-26T17:53:52.000Z</time>
      </trkpt>
      <trkpt lat="45.15686" lon="5.77957">
        <ele>674.7</ele>
        <time>2021-05-26T17:53:54.000Z</time>
      </trkpt>
      <trkpt lat="45.15687" lon="5.77957">
        <ele>674.7</ele>
        <time>2021-05-26T17:53:55.000Z</time>
      </trkpt>
      <trkpt lat="45.15687" lon="5.77957">
        <ele>674.6</ele>
        <time>2021-05-26T17:53:56.000Z</time>
      </trkpt>
      <trkpt lat="45.15687" lon="5.77958">
        <ele>674.6</ele>
        <time>2021-05-26T17:53:57.000Z</time>
      </trkpt>
      <trkpt lat="45.15687" lon="5.77958">
        <ele>674.6</ele>
        <time>2021-05-26T17:53:58.000Z</time>
      </trkpt>
      <trkpt lat="45.15688" lon="5.77958">
        <ele>674.5</ele>
        <time>2021-05-26T17:53:59.000Z</time>
      </trkpt>
      <trkpt lat="45.15688" lon="5.77958">
        <ele>674.5</ele>
        <time>2021-05-26T17:54:00.000Z</time>
      </trkpt>
      <trkpt lat="45.15688" lon="5.77958">
        <ele>674.5</ele>
        <time>2021-05-26T17:54:01.000Z</time>
      </trkpt>
      <trkpt lat="45.15689" lon="5.77959">
        <ele>674.4</ele>
        <time>2021-05-26T17:54:02.000Z</time>
      </trkpt>
      <trkpt lat="45.15689" lon="5.77959">
        <ele>674.4</ele>
        <time>2021-05-26T17:54:03.000Z</time>
      </trkpt>
      <trkpt lat="45.15689" lon="5.77959">
        <ele>674.4</ele>
        <time>2021-05-26T17:54:04.000Z</time>
      </trkpt>
      <trkpt lat="45.15689" lon="5.77959">
        <ele>674.3</ele>
        <time>2021-05-26T17:54:05.000Z</time>
      </trkpt>
      <trkpt lat="45.1569" lon="5.77959">
        <ele>674.3</ele>
        <time>2021-05-26T17:54:06.000Z</time>
      </trkpt>
      <trkpt lat="45.1569" lon="5.7796">
        <ele>674.3</ele>
        <time>2021-05-26T17:54:07.000Z</time>
      </trkpt>
      <trkpt lat="45.1569" lon="5.7796">
        <ele>674.2</ele>
        <time>2021-05-26T17:54:08.000Z</time>
      </trkpt>
      <trkpt lat="45.15695" lon="5.77963">
        <ele>673.7</ele>
        <time>2021-05-26T17:54:09.000Z</time>
      </trkpt>
      <trkpt lat="45.15695" lon="5.77963">
        <ele>673.7</ele>
        <time>2021-05-26T17:54:10.000Z</time>
      </trkpt>
      <trkpt lat="45.15695" lon="5.77962">
        <ele>673.6</ele>
        <time>2021-05-26T17:54:11.000Z</time>
      </trkpt>
      <trkpt lat="45.15695" lon="5.77962">
        <ele>673.6</ele>
        <time>2021-05-26T17:54:13.000Z</time>
      </trkpt>
      <trkpt lat="45.15695" lon="5.77962">
        <ele>673.6</ele>
        <time>2021-05-26T17:54:14.000Z</time>
      </trkpt>
      <trkpt lat="45.15695" lon="5.77961">
        <ele>673.5</ele>
        <time>2021-05-26T17:54:15.000Z</time>
      </trkpt>
      <trkpt lat="45.15695" lon="5.77961">
        <ele>673.5</ele>
        <time>2021-05-26T17:54:16.000Z</time>
      </trkpt>
      <trkpt lat="45.15695" lon="5.7796">
        <ele>673.5</ele>
        <time>2021-05-26T17:54:17.000Z</time>
      </trkpt>
      <trkpt lat="45.15695" lon="5.7796">
        <ele>673.5</ele>
        <time>2021-05-26T17:54:18.000Z</time>
      </trkpt>
      <trkpt lat="45.15695" lon="5.7796">
        <ele>673.4</ele>
        <time>2021-05-26T17:54:19.000Z</time>
      </trkpt>
      <trkpt lat="45.15695" lon="5.77959">
        <ele>673.4</ele>
        <time>2021-05-26T17:54:20.000Z</time>
      </trkpt>
      <trkpt lat="45.15695" lon="5.77959">
        <ele>673.4</ele>
        <time>2021-05-26T17:54:21.000Z</time>
      </trkpt>
      <trkpt lat="45.15695" lon="5.77958">
        <ele>673.4</ele>
        <time>2021-05-26T17:54:22.000Z</time>
      </trkpt>
      <trkpt lat="45.15694" lon="5.77958">
        <ele>673.3</ele>
        <time>2021-05-26T17:54:23.000Z</time>
      </trkpt>
      <trkpt lat="45.15694" lon="5.77958">
        <ele>673.3</ele>
        <time>2021-05-26T17:54:24.000Z</time>
      </trkpt>
      <trkpt lat="45.15694" lon="5.77957">
        <ele>673.3</ele>
        <time>2021-05-26T17:54:25.000Z</time>
      </trkpt>
      <trkpt lat="45.15694" lon="5.77957">
        <ele>673.2</ele>
        <time>2021-05-26T17:54:26.000Z</time>
      </trkpt>
      <trkpt lat="45.15694" lon="5.77956">
        <ele>673.2</ele>
        <time>2021-05-26T17:54:27.000Z</time>
      </trkpt>
      <trkpt lat="45.15694" lon="5.77956">
        <ele>673.2</ele>
        <time>2021-05-26T17:54:28.000Z</time>
      </trkpt>
      <trkpt lat="45.15694" lon="5.77956">
        <ele>673.2</ele>
        <time>2021-05-26T17:54:29.000Z</time>
      </trkpt>
      <trkpt lat="45.15694" lon="5.77955">
        <ele>673.1</ele>
        <time>2021-05-26T17:54:30.000Z</time>
      </trkpt>
      <trkpt lat="45.15694" lon="5.77955">
        <ele>673.1</ele>
        <time>2021-05-26T17:54:32.000Z</time>
      </trkpt>
      <trkpt lat="45.15694" lon="5.77955">
        <ele>673.1</ele>
        <time>2021-05-26T17:54:33.000Z</time>
      </trkpt>
      <trkpt lat="45.15694" lon="5.77954">
        <ele>673.1</ele>
        <time>2021-05-26T17:54:34.000Z</time>
      </trkpt>
      <trkpt lat="45.15694" lon="5.77954">
        <ele>673</ele>
        <time>2021-05-26T17:54:35.000Z</time>
      </trkpt>
      <trkpt lat="45.15694" lon="5.77953">
        <ele>673</ele>
        <time>2021-05-26T17:54:36.000Z</time>
      </trkpt>
      <trkpt lat="45.15694" lon="5.77953">
        <ele>673</ele>
        <time>2021-05-26T17:54:37.000Z</time>
      </trkpt>
      <trkpt lat="45.15694" lon="5.77953">
        <ele>673</ele>
        <time>2021-05-26T17:54:38.000Z</time>
      </trkpt>
      <trkpt lat="45.15694" lon="5.77952">
        <ele>673</ele>
        <time>2021-05-26T17:54:39.000Z</time>
      </trkpt>
      <trkpt lat="45.15694" lon="5.77952">
        <ele>672.9</ele>
        <time>2021-05-26T17:54:40.000Z</time>
      </trkpt>
      <trkpt lat="45.15694" lon="5.77951">
        <ele>672.9</ele>
        <time>2021-05-26T17:54:41.000Z</time>
      </trkpt>
      <trkpt lat="45.15694" lon="5.77951">
        <ele>672.9</ele>
        <time>2021-05-26T17:54:42.000Z</time>
      </trkpt>
      <trkpt lat="45.15694" lon="5.77951">
        <ele>672.9</ele>
        <time>2021-05-26T17:54:43.000Z</time>
      </trkpt>
      <trkpt lat="45.15694" lon="5.7795">
        <ele>672.8</ele>
        <time>2021-05-26T17:54:44.000Z</time>
      </trkpt>
      <trkpt lat="45.15694" lon="5.7795">
        <ele>672.8</ele>
        <time>2021-05-26T17:54:45.000Z</time>
      </trkpt>
      <trkpt lat="45.15694" lon="5.77949">
        <ele>672.8</ele>
        <time>2021-05-26T17:54:46.000Z</time>
      </trkpt>
      <trkpt lat="45.15694" lon="5.77949">
        <ele>672.8</ele>
        <time>2021-05-26T17:54:47.000Z</time>
      </trkpt>
      <trkpt lat="45.15694" lon="5.77949">
        <ele>672.7</ele>
        <time>2021-05-26T17:54:48.000Z</time>
      </trkpt>
      <trkpt lat="45.15694" lon="5.77948">
        <ele>672.7</ele>
        <time>2021-05-26T17:54:49.000Z</time>
      </trkpt>
      <trkpt lat="45.15694" lon="5.77948">
        <ele>672.7</ele>
        <time>2021-05-26T17:54:50.000Z</time>
      </trkpt>
      <trkpt lat="45.15694" lon="5.77947">
        <ele>672.7</ele>
        <time>2021-05-26T17:54:51.000Z</time>
      </trkpt>
      <trkpt lat="45.15694" lon="5.77946">
        <ele>672.6</ele>
        <time>2021-05-26T17:54:52.000Z</time>
      </trkpt>
      <trkpt lat="45.15695" lon="5.77944">
        <ele>672.5</ele>
        <time>2021-05-26T17:54:53.000Z</time>
      </trkpt>
      <trkpt lat="45.15695" lon="5.77943">
        <ele>672.4</ele>
        <time>2021-05-26T17:54:54.000Z</time>
      </trkpt>
      <trkpt lat="45.15696" lon="5.77941">
        <ele>672.3</ele>
        <time>2021-05-26T17:54:55.000Z</time>
      </trkpt>
      <trkpt lat="45.15696" lon="5.77939">
        <ele>672.2</ele>
        <time>2021-05-26T17:54:56.000Z</time>
      </trkpt>
      <trkpt lat="45.15699" lon="5.7793">
        <ele>671.8</ele>
        <time>2021-05-26T17:54:57.000Z</time>
      </trkpt>
      <trkpt lat="45.157" lon="5.77929">
        <ele>671.7</ele>
        <time>2021-05-26T17:54:58.000Z</time>
      </trkpt>
      <trkpt lat="45.157" lon="5.77927">
        <ele>671.7</ele>
        <time>2021-05-26T17:54:59.000Z</time>
      </trkpt>
      <trkpt lat="45.157" lon="5.77925">
        <ele>671.6</ele>
        <time>2021-05-26T17:55:00.000Z</time>
      </trkpt>
      <trkpt lat="45.157" lon="5.77924">
        <ele>671.6</ele>
        <time>2021-05-26T17:55:01.000Z</time>
      </trkpt>
      <trkpt lat="45.15702" lon="5.77914">
        <ele>671.2</ele>
        <time>2021-05-26T17:55:02.000Z</time>
      </trkpt>
      <trkpt lat="45.15702" lon="5.77913">
        <ele>671.1</ele>
        <time>2021-05-26T17:55:03.000Z</time>
      </trkpt>
      <trkpt lat="45.15701" lon="5.77911">
        <ele>671.1</ele>
        <time>2021-05-26T17:55:04.000Z</time>
      </trkpt>
      <trkpt lat="45.15701" lon="5.77909">
        <ele>671</ele>
        <time>2021-05-26T17:55:05.000Z</time>
      </trkpt>
      <trkpt lat="45.15701" lon="5.77907">
        <ele>670.9</ele>
        <time>2021-05-26T17:55:06.000Z</time>
      </trkpt>
      <trkpt lat="45.15698" lon="5.77893">
        <ele>670.5</ele>
        <time>2021-05-26T17:55:07.000Z</time>
      </trkpt>
      <trkpt lat="45.15697" lon="5.77889">
        <ele>670.3</ele>
        <time>2021-05-26T17:55:08.000Z</time>
      </trkpt>
      <trkpt lat="45.15695" lon="5.77885">
        <ele>670.1</ele>
        <time>2021-05-26T17:55:10.000Z</time>
      </trkpt>
      <trkpt lat="45.15694" lon="5.77881">
        <ele>670</ele>
        <time>2021-05-26T17:55:11.000Z</time>
      </trkpt>
      <trkpt lat="45.15693" lon="5.77879">
        <ele>669.9</ele>
        <time>2021-05-26T17:55:12.000Z</time>
      </trkpt>
      <trkpt lat="45.15692" lon="5.77878">
        <ele>669.8</ele>
        <time>2021-05-26T17:55:13.000Z</time>
      </trkpt>
      <trkpt lat="45.15691" lon="5.77877">
        <ele>669.7</ele>
        <time>2021-05-26T17:55:14.000Z</time>
      </trkpt>
      <trkpt lat="45.1569" lon="5.77875">
        <ele>669.6</ele>
        <time>2021-05-26T17:55:15.000Z</time>
      </trkpt>
      <trkpt lat="45.15685" lon="5.77868">
        <ele>669.2</ele>
        <time>2021-05-26T17:55:16.000Z</time>
      </trkpt>
      <trkpt lat="45.15684" lon="5.77865">
        <ele>669.1</ele>
        <time>2021-05-26T17:55:17.000Z</time>
      </trkpt>
      <trkpt lat="45.15683" lon="5.77863">
        <ele>669</ele>
        <time>2021-05-26T17:55:18.000Z</time>
      </trkpt>
      <trkpt lat="45.15679" lon="5.77855">
        <ele>668.6</ele>
        <time>2021-05-26T17:55:19.000Z</time>
      </trkpt>
      <trkpt lat="45.15678" lon="5.77853">
        <ele>668.6</ele>
        <time>2021-05-26T17:55:20.000Z</time>
      </trkpt>
      <trkpt lat="45.15677" lon="5.77851">
        <ele>668.5</ele>
        <time>2021-05-26T17:55:21.000Z</time>
      </trkpt>
      <trkpt lat="45.15677" lon="5.77849">
        <ele>668.4</ele>
        <time>2021-05-26T17:55:22.000Z</time>
      </trkpt>
      <trkpt lat="45.15673" lon="5.77839">
        <ele>668</ele>
        <time>2021-05-26T17:55:23.000Z</time>
      </trkpt>
      <trkpt lat="45.15672" lon="5.77837">
        <ele>667.9</ele>
        <time>2021-05-26T17:55:24.000Z</time>
      </trkpt>
      <trkpt lat="45.15671" lon="5.77835">
        <ele>667.8</ele>
        <time>2021-05-26T17:55:25.000Z</time>
      </trkpt>
      <trkpt lat="45.15671" lon="5.77834">
        <ele>667.7</ele>
        <time>2021-05-26T17:55:26.000Z</time>
      </trkpt>
      <trkpt lat="45.15667" lon="5.77824">
        <ele>667.2</ele>
        <time>2021-05-26T17:55:27.000Z</time>
      </trkpt>
      <trkpt lat="45.15667" lon="5.77821">
        <ele>667.1</ele>
        <time>2021-05-26T17:55:29.000Z</time>
      </trkpt>
      <trkpt lat="45.15666" lon="5.77818">
        <ele>667</ele>
        <time>2021-05-26T17:55:30.000Z</time>
      </trkpt>
      <trkpt lat="45.15663" lon="5.77809">
        <ele>666.5</ele>
        <time>2021-05-26T17:55:31.000Z</time>
      </trkpt>
      <trkpt lat="45.15663" lon="5.77808">
        <ele>666.5</ele>
        <time>2021-05-26T17:55:32.000Z</time>
      </trkpt>
      <trkpt lat="45.15663" lon="5.77806">
        <ele>666.4</ele>
        <time>2021-05-26T17:55:33.000Z</time>
      </trkpt>
      <trkpt lat="45.15662" lon="5.77804">
        <ele>666.3</ele>
        <time>2021-05-26T17:55:34.000Z</time>
      </trkpt>
      <trkpt lat="45.15662" lon="5.77803">
        <ele>666.2</ele>
        <time>2021-05-26T17:55:35.000Z</time>
      </trkpt>
      <trkpt lat="45.1566" lon="5.77794">
        <ele>665.8</ele>
        <time>2021-05-26T17:55:36.000Z</time>
      </trkpt>
      <trkpt lat="45.15659" lon="5.77792">
        <ele>665.7</ele>
        <time>2021-05-26T17:55:37.000Z</time>
      </trkpt>
      <trkpt lat="45.15659" lon="5.77791">
        <ele>665.7</ele>
        <time>2021-05-26T17:55:38.000Z</time>
      </trkpt>
      <trkpt lat="45.15658" lon="5.77789">
        <ele>665.6</ele>
        <time>2021-05-26T17:55:39.000Z</time>
      </trkpt>
      <trkpt lat="45.15658" lon="5.77787">
        <ele>665.5</ele>
        <time>2021-05-26T17:55:40.000Z</time>
      </trkpt>
      <trkpt lat="45.15655" lon="5.77777">
        <ele>665</ele>
        <time>2021-05-26T17:55:41.000Z</time>
      </trkpt>
      <trkpt lat="45.15654" lon="5.77775">
        <ele>664.9</ele>
        <time>2021-05-26T17:55:42.000Z</time>
      </trkpt>
      <trkpt lat="45.15653" lon="5.77773">
        <ele>664.8</ele>
        <time>2021-05-26T17:55:43.000Z</time>
      </trkpt>
      <trkpt lat="45.15653" lon="5.77772">
        <ele>664.7</ele>
        <time>2021-05-26T17:55:44.000Z</time>
      </trkpt>
      <trkpt lat="45.1565" lon="5.77764">
        <ele>664.2</ele>
        <time>2021-05-26T17:55:45.000Z</time>
      </trkpt>
      <trkpt lat="45.1565" lon="5.77764">
        <ele>664.2</ele>
        <time>2021-05-26T17:55:46.000Z</time>
      </trkpt>
      <trkpt lat="45.15644" lon="5.77749">
        <ele>663</ele>
        <time>2021-05-26T17:55:48.000Z</time>
      </trkpt>
      <trkpt lat="45.15644" lon="5.77747">
        <ele>662.9</ele>
        <time>2021-05-26T17:55:49.000Z</time>
      </trkpt>
      <trkpt lat="45.15644" lon="5.77745">
        <ele>662.7</ele>
        <time>2021-05-26T17:55:50.000Z</time>
      </trkpt>
      <trkpt lat="45.15644" lon="5.77743">
        <ele>662.5</ele>
        <time>2021-05-26T17:55:51.000Z</time>
      </trkpt>
      <trkpt lat="45.15643" lon="5.77741">
        <ele>662.3</ele>
        <time>2021-05-26T17:55:52.000Z</time>
      </trkpt>
      <trkpt lat="45.15642" lon="5.77731">
        <ele>661.4</ele>
        <time>2021-05-26T17:55:53.000Z</time>
      </trkpt>
      <trkpt lat="45.15641" lon="5.77729">
        <ele>661.2</ele>
        <time>2021-05-26T17:55:54.000Z</time>
      </trkpt>
      <trkpt lat="45.15641" lon="5.77727">
        <ele>661</ele>
        <time>2021-05-26T17:55:55.000Z</time>
      </trkpt>
      <trkpt lat="45.1564" lon="5.77725">
        <ele>660.8</ele>
        <time>2021-05-26T17:55:56.000Z</time>
      </trkpt>
      <trkpt lat="45.15637" lon="5.77715">
        <ele>659.8</ele>
        <time>2021-05-26T17:55:57.000Z</time>
      </trkpt>
      <trkpt lat="45.15637" lon="5.77713">
        <ele>659.6</ele>
        <time>2021-05-26T17:55:58.000Z</time>
      </trkpt>
      <trkpt lat="45.15636" lon="5.77711">
        <ele>659.4</ele>
        <time>2021-05-26T17:55:59.000Z</time>
      </trkpt>
      <trkpt lat="45.15635" lon="5.77709">
        <ele>659.2</ele>
        <time>2021-05-26T17:56:00.000Z</time>
      </trkpt>
      <trkpt lat="45.15632" lon="5.77699">
        <ele>658.2</ele>
        <time>2021-05-26T17:56:01.000Z</time>
      </trkpt>
      <trkpt lat="45.15631" lon="5.77697">
        <ele>658</ele>
        <time>2021-05-26T17:56:02.000Z</time>
      </trkpt>
      <trkpt lat="45.15631" lon="5.77695">
        <ele>657.7</ele>
        <time>2021-05-26T17:56:03.000Z</time>
      </trkpt>
      <trkpt lat="45.1563" lon="5.77692">
        <ele>657.5</ele>
        <time>2021-05-26T17:56:04.000Z</time>
      </trkpt>
      <trkpt lat="45.1563" lon="5.7769">
        <ele>657.3</ele>
        <time>2021-05-26T17:56:05.000Z</time>
      </trkpt>
      <trkpt lat="45.15629" lon="5.77687">
        <ele>657.1</ele>
        <time>2021-05-26T17:56:06.000Z</time>
      </trkpt>
      <trkpt lat="45.15628" lon="5.77685">
        <ele>656.9</ele>
        <time>2021-05-26T17:56:07.000Z</time>
      </trkpt>
      <trkpt lat="45.15628" lon="5.77683">
        <ele>656.7</ele>
        <time>2021-05-26T17:56:08.000Z</time>
      </trkpt>
      <trkpt lat="45.15627" lon="5.77681">
        <ele>656.5</ele>
        <time>2021-05-26T17:56:09.000Z</time>
      </trkpt>
      <trkpt lat="45.15626" lon="5.7768">
        <ele>656.4</ele>
        <time>2021-05-26T17:56:10.000Z</time>
      </trkpt>
      <trkpt lat="45.15625" lon="5.77678">
        <ele>656.2</ele>
        <time>2021-05-26T17:56:11.000Z</time>
      </trkpt>
      <trkpt lat="45.1562" lon="5.7767">
        <ele>655.4</ele>
        <time>2021-05-26T17:56:12.000Z</time>
      </trkpt>
      <trkpt lat="45.15619" lon="5.77668">
        <ele>655.3</ele>
        <time>2021-05-26T17:56:13.000Z</time>
      </trkpt>
      <trkpt lat="45.15618" lon="5.77667">
        <ele>655.1</ele>
        <time>2021-05-26T17:56:14.000Z</time>
      </trkpt>
      <trkpt lat="45.15617" lon="5.77665">
        <ele>655</ele>
        <time>2021-05-26T17:56:15.000Z</time>
      </trkpt>
      <trkpt lat="45.15611" lon="5.77658">
        <ele>654.3</ele>
        <time>2021-05-26T17:56:16.000Z</time>
      </trkpt>
      <trkpt lat="45.15609" lon="5.77657">
        <ele>654.2</ele>
        <time>2021-05-26T17:56:17.000Z</time>
      </trkpt>
      <trkpt lat="45.15608" lon="5.77655">
        <ele>654.1</ele>
        <time>2021-05-26T17:56:18.000Z</time>
      </trkpt>
      <trkpt lat="45.15607" lon="5.77654">
        <ele>653.9</ele>
        <time>2021-05-26T17:56:19.000Z</time>
      </trkpt>
      <trkpt lat="45.15601" lon="5.77648">
        <ele>653.4</ele>
        <time>2021-05-26T17:56:20.000Z</time>
      </trkpt>
      <trkpt lat="45.156" lon="5.77647">
        <ele>653.4</ele>
        <time>2021-05-26T17:56:21.000Z</time>
      </trkpt>
      <trkpt lat="45.15599" lon="5.77647">
        <ele>653.3</ele>
        <time>2021-05-26T17:56:22.000Z</time>
      </trkpt>
      <trkpt lat="45.15598" lon="5.77646">
        <ele>653.3</ele>
        <time>2021-05-26T17:56:23.000Z</time>
      </trkpt>
      <trkpt lat="45.15597" lon="5.77645">
        <ele>653.2</ele>
        <time>2021-05-26T17:56:24.000Z</time>
      </trkpt>
      <trkpt lat="45.15586" lon="5.77637">
        <ele>652.3</ele>
        <time>2021-05-26T17:56:26.000Z</time>
      </trkpt>
      <trkpt lat="45.15584" lon="5.77636">
        <ele>652.1</ele>
        <time>2021-05-26T17:56:27.000Z</time>
      </trkpt>
      <trkpt lat="45.15578" lon="5.77632">
        <ele>651.5</ele>
        <time>2021-05-26T17:56:28.000Z</time>
      </trkpt>
      <trkpt lat="45.15577" lon="5.77632">
        <ele>651.4</ele>
        <time>2021-05-26T17:56:29.000Z</time>
      </trkpt>
      <trkpt lat="45.15576" lon="5.77631">
        <ele>651.3</ele>
        <time>2021-05-26T17:56:30.000Z</time>
      </trkpt>
      <trkpt lat="45.15575" lon="5.7763">
        <ele>651.1</ele>
        <time>2021-05-26T17:56:31.000Z</time>
      </trkpt>
      <trkpt lat="45.15574" lon="5.77629">
        <ele>651</ele>
        <time>2021-05-26T17:56:32.000Z</time>
      </trkpt>
      <trkpt lat="45.15568" lon="5.77624">
        <ele>650.3</ele>
        <time>2021-05-26T17:56:33.000Z</time>
      </trkpt>
      <trkpt lat="45.15568" lon="5.77623">
        <ele>650.1</ele>
        <time>2021-05-26T17:56:34.000Z</time>
      </trkpt>
      <trkpt lat="45.15567" lon="5.77622">
        <ele>650</ele>
        <time>2021-05-26T17:56:35.000Z</time>
      </trkpt>
      <trkpt lat="45.15566" lon="5.77621">
        <ele>649.8</ele>
        <time>2021-05-26T17:56:36.000Z</time>
      </trkpt>
      <trkpt lat="45.15565" lon="5.7762">
        <ele>649.7</ele>
        <time>2021-05-26T17:56:37.000Z</time>
      </trkpt>
      <trkpt lat="45.15559" lon="5.77615">
        <ele>648.8</ele>
        <time>2021-05-26T17:56:38.000Z</time>
      </trkpt>
      <trkpt lat="45.15558" lon="5.77614">
        <ele>648.6</ele>
        <time>2021-05-26T17:56:39.000Z</time>
      </trkpt>
      <trkpt lat="45.15557" lon="5.77613">
        <ele>648.5</ele>
        <time>2021-05-26T17:56:40.000Z</time>
      </trkpt>
      <trkpt lat="45.15556" lon="5.77613">
        <ele>648.3</ele>
        <time>2021-05-26T17:56:41.000Z</time>
      </trkpt>
      <trkpt lat="45.15555" lon="5.77612">
        <ele>648.2</ele>
        <time>2021-05-26T17:56:42.000Z</time>
      </trkpt>
      <trkpt lat="45.15548" lon="5.77608">
        <ele>647.3</ele>
        <time>2021-05-26T17:56:43.000Z</time>
      </trkpt>
      <trkpt lat="45.15547" lon="5.77607">
        <ele>647.1</ele>
        <time>2021-05-26T17:56:45.000Z</time>
      </trkpt>
      <trkpt lat="45.15546" lon="5.77606">
        <ele>646.9</ele>
        <time>2021-05-26T17:56:46.000Z</time>
      </trkpt>
      <trkpt lat="45.15544" lon="5.77605">
        <ele>646.7</ele>
        <time>2021-05-26T17:56:47.000Z</time>
      </trkpt>
      <trkpt lat="45.15538" lon="5.77601">
        <ele>645.8</ele>
        <time>2021-05-26T17:56:48.000Z</time>
      </trkpt>
      <trkpt lat="45.15537" lon="5.776">
        <ele>645.7</ele>
        <time>2021-05-26T17:56:49.000Z</time>
      </trkpt>
      <trkpt lat="45.15537" lon="5.77599">
        <ele>645.5</ele>
        <time>2021-05-26T17:56:50.000Z</time>
      </trkpt>
      <trkpt lat="45.15536" lon="5.77598">
        <ele>645.4</ele>
        <time>2021-05-26T17:56:51.000Z</time>
      </trkpt>
      <trkpt lat="45.15535" lon="5.77597">
        <ele>645.2</ele>
        <time>2021-05-26T17:56:52.000Z</time>
      </trkpt>
      <trkpt lat="45.15528" lon="5.77592">
        <ele>644.3</ele>
        <time>2021-05-26T17:56:53.000Z</time>
      </trkpt>
      <trkpt lat="45.15527" lon="5.77591">
        <ele>644.1</ele>
        <time>2021-05-26T17:56:54.000Z</time>
      </trkpt>
      <trkpt lat="45.15526" lon="5.7759">
        <ele>644</ele>
        <time>2021-05-26T17:56:55.000Z</time>
      </trkpt>
      <trkpt lat="45.15525" lon="5.7759">
        <ele>643.8</ele>
        <time>2021-05-26T17:56:56.000Z</time>
      </trkpt>
      <trkpt lat="45.15524" lon="5.77589">
        <ele>643.7</ele>
        <time>2021-05-26T17:56:57.000Z</time>
      </trkpt>
      <trkpt lat="45.15517" lon="5.77585">
        <ele>642.8</ele>
        <time>2021-05-26T17:56:58.000Z</time>
      </trkpt>
      <trkpt lat="45.15516" lon="5.77584">
        <ele>642.7</ele>
        <time>2021-05-26T17:56:59.000Z</time>
      </trkpt>
      <trkpt lat="45.15515" lon="5.77584">
        <ele>642.6</ele>
        <time>2021-05-26T17:57:00.000Z</time>
      </trkpt>
      <trkpt lat="45.15514" lon="5.77583">
        <ele>642.5</ele>
        <time>2021-05-26T17:57:01.000Z</time>
      </trkpt>
      <trkpt lat="45.15514" lon="5.77583">
        <ele>642.4</ele>
        <time>2021-05-26T17:57:02.000Z</time>
      </trkpt>
      <trkpt lat="45.15503" lon="5.77576">
        <ele>641.2</ele>
        <time>2021-05-26T17:57:04.000Z</time>
      </trkpt>
      <trkpt lat="45.15501" lon="5.77575">
        <ele>640.9</ele>
        <time>2021-05-26T17:57:05.000Z</time>
      </trkpt>
      <trkpt lat="45.15499" lon="5.77573">
        <ele>640.6</ele>
        <time>2021-05-26T17:57:06.000Z</time>
      </trkpt>
      <trkpt lat="45.15491" lon="5.77568">
        <ele>639.7</ele>
        <time>2021-05-26T17:57:07.000Z</time>
      </trkpt>
      <trkpt lat="45.15489" lon="5.77567">
        <ele>639.4</ele>
        <time>2021-05-26T17:57:08.000Z</time>
      </trkpt>
      <trkpt lat="45.15487" lon="5.77566">
        <ele>639.2</ele>
        <time>2021-05-26T17:57:09.000Z</time>
      </trkpt>
      <trkpt lat="45.1548" lon="5.77562">
        <ele>638.4</ele>
        <time>2021-05-26T17:57:10.000Z</time>
      </trkpt>
      <trkpt lat="45.15478" lon="5.77561">
        <ele>638.3</ele>
        <time>2021-05-26T17:57:11.000Z</time>
      </trkpt>
      <trkpt lat="45.15477" lon="5.7756">
        <ele>638.1</ele>
        <time>2021-05-26T17:57:12.000Z</time>
      </trkpt>
      <trkpt lat="45.15475" lon="5.77559">
        <ele>637.9</ele>
        <time>2021-05-26T17:57:13.000Z</time>
      </trkpt>
      <trkpt lat="45.15468" lon="5.77555">
        <ele>637.2</ele>
        <time>2021-05-26T17:57:14.000Z</time>
      </trkpt>
      <trkpt lat="45.15466" lon="5.77554">
        <ele>637</ele>
        <time>2021-05-26T17:57:15.000Z</time>
      </trkpt>
      <trkpt lat="45.15465" lon="5.77554">
        <ele>636.9</ele>
        <time>2021-05-26T17:57:16.000Z</time>
      </trkpt>
      <trkpt lat="45.15463" lon="5.77553">
        <ele>636.8</ele>
        <time>2021-05-26T17:57:17.000Z</time>
      </trkpt>
      <trkpt lat="45.15456" lon="5.7755">
        <ele>636.2</ele>
        <time>2021-05-26T17:57:18.000Z</time>
      </trkpt>
      <trkpt lat="45.15456" lon="5.77549">
        <ele>636.1</ele>
        <time>2021-05-26T17:57:19.000Z</time>
      </trkpt>
      <trkpt lat="45.15455" lon="5.77549">
        <ele>636</ele>
        <time>2021-05-26T17:57:20.000Z</time>
      </trkpt>
      <trkpt lat="45.15454" lon="5.77548">
        <ele>635.9</ele>
        <time>2021-05-26T17:57:21.000Z</time>
      </trkpt>
      <trkpt lat="45.15445" lon="5.77544">
        <ele>635.2</ele>
        <time>2021-05-26T17:57:23.000Z</time>
      </trkpt>
      <trkpt lat="45.15443" lon="5.77543">
        <ele>635</ele>
        <time>2021-05-26T17:57:24.000Z</time>
      </trkpt>
      <trkpt lat="45.15441" lon="5.77542">
        <ele>634.9</ele>
        <time>2021-05-26T17:57:25.000Z</time>
      </trkpt>
      <trkpt lat="45.15434" lon="5.7754">
        <ele>634.4</ele>
        <time>2021-05-26T17:57:26.000Z</time>
      </trkpt>
      <trkpt lat="45.15433" lon="5.77539">
        <ele>634.3</ele>
        <time>2021-05-26T17:57:27.000Z</time>
      </trkpt>
      <trkpt lat="45.15432" lon="5.77539">
        <ele>634.2</ele>
        <time>2021-05-26T17:57:28.000Z</time>
      </trkpt>
      <trkpt lat="45.15431" lon="5.77538">
        <ele>634.1</ele>
        <time>2021-05-26T17:57:29.000Z</time>
      </trkpt>
      <trkpt lat="45.1543" lon="5.77538">
        <ele>634.1</ele>
        <time>2021-05-26T17:57:30.000Z</time>
      </trkpt>
      <trkpt lat="45.15423" lon="5.77535">
        <ele>633.6</ele>
        <time>2021-05-26T17:57:31.000Z</time>
      </trkpt>
      <trkpt lat="45.15422" lon="5.77535">
        <ele>633.5</ele>
        <time>2021-05-26T17:57:32.000Z</time>
      </trkpt>
      <trkpt lat="45.1542" lon="5.77535">
        <ele>633.4</ele>
        <time>2021-05-26T17:57:33.000Z</time>
      </trkpt>
      <trkpt lat="45.15419" lon="5.77535">
        <ele>633.3</ele>
        <time>2021-05-26T17:57:34.000Z</time>
      </trkpt>
      <trkpt lat="45.15412" lon="5.77534">
        <ele>632.9</ele>
        <time>2021-05-26T17:57:35.000Z</time>
      </trkpt>
      <trkpt lat="45.15411" lon="5.77534">
        <ele>632.8</ele>
        <time>2021-05-26T17:57:36.000Z</time>
      </trkpt>
      <trkpt lat="45.1541" lon="5.77535">
        <ele>632.7</ele>
        <time>2021-05-26T17:57:37.000Z</time>
      </trkpt>
      <trkpt lat="45.15409" lon="5.77535">
        <ele>632.7</ele>
        <time>2021-05-26T17:57:38.000Z</time>
      </trkpt>
      <trkpt lat="45.15407" lon="5.77535">
        <ele>632.6</ele>
        <time>2021-05-26T17:57:39.000Z</time>
      </trkpt>
      <trkpt lat="45.154" lon="5.77535">
        <ele>632.2</ele>
        <time>2021-05-26T17:57:40.000Z</time>
      </trkpt>
      <trkpt lat="45.15398" lon="5.77536">
        <ele>632.1</ele>
        <time>2021-05-26T17:57:42.000Z</time>
      </trkpt>
      <trkpt lat="45.15396" lon="5.77536">
        <ele>632</ele>
        <time>2021-05-26T17:57:43.000Z</time>
      </trkpt>
      <trkpt lat="45.15395" lon="5.77536">
        <ele>631.9</ele>
        <time>2021-05-26T17:57:44.000Z</time>
      </trkpt>
      <trkpt lat="45.15387" lon="5.77536">
        <ele>631.5</ele>
        <time>2021-05-26T17:57:45.000Z</time>
      </trkpt>
      <trkpt lat="45.15385" lon="5.77536">
        <ele>631.5</ele>
        <time>2021-05-26T17:57:46.000Z</time>
      </trkpt>
      <trkpt lat="45.15384" lon="5.77536">
        <ele>631.4</ele>
        <time>2021-05-26T17:57:47.000Z</time>
      </trkpt>
      <trkpt lat="45.15383" lon="5.77536">
        <ele>631.3</ele>
        <time>2021-05-26T17:57:48.000Z</time>
      </trkpt>
      <trkpt lat="45.15381" lon="5.77536">
        <ele>631.3</ele>
        <time>2021-05-26T17:57:49.000Z</time>
      </trkpt>
      <trkpt lat="45.15373" lon="5.77537">
        <ele>630.8</ele>
        <time>2021-05-26T17:57:50.000Z</time>
      </trkpt>
      <trkpt lat="45.15372" lon="5.77537">
        <ele>630.7</ele>
        <time>2021-05-26T17:57:51.000Z</time>
      </trkpt>
      <trkpt lat="45.15371" lon="5.77538">
        <ele>630.6</ele>
        <time>2021-05-26T17:57:52.000Z</time>
      </trkpt>
      <trkpt lat="45.15369" lon="5.77538">
        <ele>630.5</ele>
        <time>2021-05-26T17:57:53.000Z</time>
      </trkpt>
      <trkpt lat="45.15362" lon="5.77541">
        <ele>630.1</ele>
        <time>2021-05-26T17:57:54.000Z</time>
      </trkpt>
      <trkpt lat="45.1536" lon="5.77542">
        <ele>629.9</ele>
        <time>2021-05-26T17:57:55.000Z</time>
      </trkpt>
      <trkpt lat="45.15358" lon="5.77543">
        <ele>629.8</ele>
        <time>2021-05-26T17:57:56.000Z</time>
      </trkpt>
      <trkpt lat="45.15353" lon="5.77545">
        <ele>629.5</ele>
        <time>2021-05-26T17:57:57.000Z</time>
      </trkpt>
      <trkpt lat="45.15353" lon="5.77545">
        <ele>629.5</ele>
        <time>2021-05-26T17:57:58.000Z</time>
      </trkpt>
      <trkpt lat="45.15353" lon="5.77545">
        <ele>629.5</ele>
        <time>2021-05-26T17:57:59.000Z</time>
      </trkpt>
      <trkpt lat="45.15341" lon="5.77551">
        <ele>628.8</ele>
        <time>2021-05-26T17:58:01.000Z</time>
      </trkpt>
      <trkpt lat="45.1534" lon="5.77552">
        <ele>628.7</ele>
        <time>2021-05-26T17:58:02.000Z</time>
      </trkpt>
      <trkpt lat="45.15339" lon="5.77552">
        <ele>628.7</ele>
        <time>2021-05-26T17:58:04.000Z</time>
      </trkpt>
      <trkpt lat="45.15338" lon="5.77552">
        <ele>628.6</ele>
        <time>2021-05-26T17:58:05.000Z</time>
      </trkpt>
      <trkpt lat="45.15337" lon="5.77553">
        <ele>628.6</ele>
        <time>2021-05-26T17:58:06.000Z</time>
      </trkpt>
      <trkpt lat="45.15336" lon="5.77553">
        <ele>628.5</ele>
        <time>2021-05-26T17:58:07.000Z</time>
      </trkpt>
      <trkpt lat="45.15335" lon="5.77554">
        <ele>628.4</ele>
        <time>2021-05-26T17:58:08.000Z</time>
      </trkpt>
      <trkpt lat="45.15329" lon="5.77557">
        <ele>628</ele>
        <time>2021-05-26T17:58:09.000Z</time>
      </trkpt>
      <trkpt lat="45.15328" lon="5.77558">
        <ele>628</ele>
        <time>2021-05-26T17:58:10.000Z</time>
      </trkpt>
      <trkpt lat="45.15327" lon="5.77558">
        <ele>627.9</ele>
        <time>2021-05-26T17:58:11.000Z</time>
      </trkpt>
      <trkpt lat="45.15326" lon="5.77559">
        <ele>627.9</ele>
        <time>2021-05-26T17:58:12.000Z</time>
      </trkpt>
      <trkpt lat="45.15326" lon="5.7756">
        <ele>627.8</ele>
        <time>2021-05-26T17:58:13.000Z</time>
      </trkpt>
      <trkpt lat="45.15325" lon="5.77561">
        <ele>627.7</ele>
        <time>2021-05-26T17:58:14.000Z</time>
      </trkpt>
      <trkpt lat="45.15324" lon="5.77562">
        <ele>627.7</ele>
        <time>2021-05-26T17:58:15.000Z</time>
      </trkpt>
      <trkpt lat="45.15317" lon="5.77569">
        <ele>627.1</ele>
        <time>2021-05-26T17:58:16.000Z</time>
      </trkpt>
      <trkpt lat="45.15316" lon="5.77572">
        <ele>627</ele>
        <time>2021-05-26T17:58:17.000Z</time>
      </trkpt>
      <trkpt lat="45.15314" lon="5.77574">
        <ele>626.9</ele>
        <time>2021-05-26T17:58:18.000Z</time>
      </trkpt>
      <trkpt lat="45.15313" lon="5.77577">
        <ele>626.8</ele>
        <time>2021-05-26T17:58:20.000Z</time>
      </trkpt>
      <trkpt lat="45.15311" lon="5.77579">
        <ele>626.6</ele>
        <time>2021-05-26T17:58:21.000Z</time>
      </trkpt>
      <trkpt lat="45.1531" lon="5.7758">
        <ele>626.6</ele>
        <time>2021-05-26T17:58:22.000Z</time>
      </trkpt>
      <trkpt lat="45.1531" lon="5.77581">
        <ele>626.5</ele>
        <time>2021-05-26T17:58:23.000Z</time>
      </trkpt>
      <trkpt lat="45.15309" lon="5.77583">
        <ele>626.5</ele>
        <time>2021-05-26T17:58:24.000Z</time>
      </trkpt>
      <trkpt lat="45.15308" lon="5.77584">
        <ele>626.4</ele>
        <time>2021-05-26T17:58:25.000Z</time>
      </trkpt>
      <trkpt lat="45.15307" lon="5.77585">
        <ele>626.4</ele>
        <time>2021-05-26T17:58:26.000Z</time>
      </trkpt>
      <trkpt lat="45.15303" lon="5.77592">
        <ele>626.3</ele>
        <time>2021-05-26T17:58:27.000Z</time>
      </trkpt>
      <trkpt lat="45.15302" lon="5.77593">
        <ele>626</ele>
        <time>2021-05-26T17:58:28.000Z</time>
      </trkpt>
      <trkpt lat="45.15301" lon="5.77594">
        <ele>625.9</ele>
        <time>2021-05-26T17:58:29.000Z</time>
      </trkpt>
      <trkpt lat="45.153" lon="5.77594">
        <ele>625.8</ele>
        <time>2021-05-26T17:58:30.000Z</time>
      </trkpt>
      <trkpt lat="45.15299" lon="5.77595">
        <ele>625.8</ele>
        <time>2021-05-26T17:58:31.000Z</time>
      </trkpt>
      <trkpt lat="45.15298" lon="5.77596">
        <ele>625.7</ele>
        <time>2021-05-26T17:58:32.000Z</time>
      </trkpt>
      <trkpt lat="45.15292" lon="5.77602">
        <ele>625.1</ele>
        <time>2021-05-26T17:58:33.000Z</time>
      </trkpt>
      <trkpt lat="45.15291" lon="5.77603">
        <ele>625</ele>
        <time>2021-05-26T17:58:34.000Z</time>
      </trkpt>
      <trkpt lat="45.15289" lon="5.77605">
        <ele>624.9</ele>
        <time>2021-05-26T17:58:35.000Z</time>
      </trkpt>
      <trkpt lat="45.15288" lon="5.77606">
        <ele>624.7</ele>
        <time>2021-05-26T17:58:36.000Z</time>
      </trkpt>
      <trkpt lat="45.15287" lon="5.77607">
        <ele>624.6</ele>
        <time>2021-05-26T17:58:37.000Z</time>
      </trkpt>
      <trkpt lat="45.15285" lon="5.77608">
        <ele>624.4</ele>
        <time>2021-05-26T17:58:38.000Z</time>
      </trkpt>
      <trkpt lat="45.15284" lon="5.7761">
        <ele>624.3</ele>
        <time>2021-05-26T17:58:39.000Z</time>
      </trkpt>
      <trkpt lat="45.15283" lon="5.77611">
        <ele>624.2</ele>
        <time>2021-05-26T17:58:40.000Z</time>
      </trkpt>
      <trkpt lat="45.15282" lon="5.77612">
        <ele>624.1</ele>
        <time>2021-05-26T17:58:41.000Z</time>
      </trkpt>
      <trkpt lat="45.15281" lon="5.77613">
        <ele>624</ele>
        <time>2021-05-26T17:58:42.000Z</time>
      </trkpt>
      <trkpt lat="45.1528" lon="5.77613">
        <ele>623.8</ele>
        <time>2021-05-26T17:58:43.000Z</time>
      </trkpt>
      <trkpt lat="45.15279" lon="5.77614">
        <ele>623.7</ele>
        <time>2021-05-26T17:58:44.000Z</time>
      </trkpt>
      <trkpt lat="45.15273" lon="5.7762">
        <ele>623.1</ele>
        <time>2021-05-26T17:58:45.000Z</time>
      </trkpt>
      <trkpt lat="45.15272" lon="5.77621">
        <ele>623</ele>
        <time>2021-05-26T17:58:46.000Z</time>
      </trkpt>
      <trkpt lat="45.15272" lon="5.77622">
        <ele>622.9</ele>
        <time>2021-05-26T17:58:47.000Z</time>
      </trkpt>
      <trkpt lat="45.15271" lon="5.77623">
        <ele>622.9</ele>
        <time>2021-05-26T17:58:48.000Z</time>
      </trkpt>
      <trkpt lat="45.15271" lon="5.77624">
        <ele>622.8</ele>
        <time>2021-05-26T17:58:49.000Z</time>
      </trkpt>
      <trkpt lat="45.1527" lon="5.77625">
        <ele>622.7</ele>
        <time>2021-05-26T17:58:50.000Z</time>
      </trkpt>
      <trkpt lat="45.15266" lon="5.77631">
        <ele>622.1</ele>
        <time>2021-05-26T17:58:51.000Z</time>
      </trkpt>
      <trkpt lat="45.15265" lon="5.77632">
        <ele>622.1</ele>
        <time>2021-05-26T17:58:52.000Z</time>
      </trkpt>
      <trkpt lat="45.15265" lon="5.77633">
        <ele>622</ele>
        <time>2021-05-26T17:58:53.000Z</time>
      </trkpt>
      <trkpt lat="45.15264" lon="5.77633">
        <ele>622</ele>
        <time>2021-05-26T17:58:54.000Z</time>
      </trkpt>
      <trkpt lat="45.15264" lon="5.77634">
        <ele>621.9</ele>
        <time>2021-05-26T17:58:55.000Z</time>
      </trkpt>
      <trkpt lat="45.15263" lon="5.77634">
        <ele>621.8</ele>
        <time>2021-05-26T17:58:56.000Z</time>
      </trkpt>
      <trkpt lat="45.15255" lon="5.77642">
        <ele>620.9</ele>
        <time>2021-05-26T17:58:58.000Z</time>
      </trkpt>
      <trkpt lat="45.15254" lon="5.77643">
        <ele>620.8</ele>
        <time>2021-05-26T17:58:59.000Z</time>
      </trkpt>
      <trkpt lat="45.15252" lon="5.77644">
        <ele>620.6</ele>
        <time>2021-05-26T17:59:00.000Z</time>
      </trkpt>
      <trkpt lat="45.15251" lon="5.77645">
        <ele>620.5</ele>
        <time>2021-05-26T17:59:01.000Z</time>
      </trkpt>
      <trkpt lat="45.15243" lon="5.7765">
        <ele>619.7</ele>
        <time>2021-05-26T17:59:02.000Z</time>
      </trkpt>
      <trkpt lat="45.15242" lon="5.7765">
        <ele>619.6</ele>
        <time>2021-05-26T17:59:03.000Z</time>
      </trkpt>
      <trkpt lat="45.1524" lon="5.77651">
        <ele>619.4</ele>
        <time>2021-05-26T17:59:04.000Z</time>
      </trkpt>
      <trkpt lat="45.15239" lon="5.77652">
        <ele>619.2</ele>
        <time>2021-05-26T17:59:05.000Z</time>
      </trkpt>
      <trkpt lat="45.15231" lon="5.77655">
        <ele>618.6</ele>
        <time>2021-05-26T17:59:06.000Z</time>
      </trkpt>
      <trkpt lat="45.1523" lon="5.77656">
        <ele>618.5</ele>
        <time>2021-05-26T17:59:07.000Z</time>
      </trkpt>
      <trkpt lat="45.15229" lon="5.77657">
        <ele>618.4</ele>
        <time>2021-05-26T17:59:08.000Z</time>
      </trkpt>
      <trkpt lat="45.15228" lon="5.77658">
        <ele>618.3</ele>
        <time>2021-05-26T17:59:09.000Z</time>
      </trkpt>
      <trkpt lat="45.15227" lon="5.77658">
        <ele>618.3</ele>
        <time>2021-05-26T17:59:10.000Z</time>
      </trkpt>
      <trkpt lat="45.1522" lon="5.77663">
        <ele>617.9</ele>
        <time>2021-05-26T17:59:11.000Z</time>
      </trkpt>
      <trkpt lat="45.15219" lon="5.77663">
        <ele>617.8</ele>
        <time>2021-05-26T17:59:12.000Z</time>
      </trkpt>
      <trkpt lat="45.15218" lon="5.77664">
        <ele>617.8</ele>
        <time>2021-05-26T17:59:13.000Z</time>
      </trkpt>
      <trkpt lat="45.15218" lon="5.77664">
        <ele>617.7</ele>
        <time>2021-05-26T17:59:14.000Z</time>
      </trkpt>
      <trkpt lat="45.15217" lon="5.77664">
        <ele>617.7</ele>
        <time>2021-05-26T17:59:15.000Z</time>
      </trkpt>
      <trkpt lat="45.15208" lon="5.77669">
        <ele>617.3</ele>
        <time>2021-05-26T17:59:17.000Z</time>
      </trkpt>
      <trkpt lat="45.15207" lon="5.7767">
        <ele>617.2</ele>
        <time>2021-05-26T17:59:18.000Z</time>
      </trkpt>
      <trkpt lat="45.15206" lon="5.77671">
        <ele>617.1</ele>
        <time>2021-05-26T17:59:19.000Z</time>
      </trkpt>
      <trkpt lat="45.15205" lon="5.77671">
        <ele>617.1</ele>
        <time>2021-05-26T17:59:20.000Z</time>
      </trkpt>
      <trkpt lat="45.15204" lon="5.77672">
        <ele>617</ele>
        <time>2021-05-26T17:59:21.000Z</time>
      </trkpt>
      <trkpt lat="45.15196" lon="5.77677">
        <ele>616.5</ele>
        <time>2021-05-26T17:59:22.000Z</time>
      </trkpt>
      <trkpt lat="45.15194" lon="5.77678">
        <ele>616.4</ele>
        <time>2021-05-26T17:59:23.000Z</time>
      </trkpt>
      <trkpt lat="45.15192" lon="5.77679">
        <ele>616.2</ele>
        <time>2021-05-26T17:59:24.000Z</time>
      </trkpt>
      <trkpt lat="45.1519" lon="5.77681">
        <ele>616</ele>
        <time>2021-05-26T17:59:25.000Z</time>
      </trkpt>
      <trkpt lat="45.15188" lon="5.77682">
        <ele>615.8</ele>
        <time>2021-05-26T17:59:27.000Z</time>
      </trkpt>
      <trkpt lat="45.15186" lon="5.77683">
        <ele>615.6</ele>
        <time>2021-05-26T17:59:28.000Z</time>
      </trkpt>
      <trkpt lat="45.15185" lon="5.77683">
        <ele>615.4</ele>
        <time>2021-05-26T17:59:29.000Z</time>
      </trkpt>
      <trkpt lat="45.15183" lon="5.77683">
        <ele>615.3</ele>
        <time>2021-05-26T17:59:30.000Z</time>
      </trkpt>
      <trkpt lat="45.15182" lon="5.77683">
        <ele>615.1</ele>
        <time>2021-05-26T17:59:31.000Z</time>
      </trkpt>
      <trkpt lat="45.1518" lon="5.77683">
        <ele>614.9</ele>
        <time>2021-05-26T17:59:32.000Z</time>
      </trkpt>
      <trkpt lat="45.15173" lon="5.77684">
        <ele>614</ele>
        <time>2021-05-26T17:59:33.000Z</time>
      </trkpt>
      <trkpt lat="45.15172" lon="5.77685">
        <ele>611.7</ele>
        <time>2021-05-26T17:59:34.000Z</time>
      </trkpt>
      <trkpt lat="45.1517" lon="5.77685">
        <ele>611.4</ele>
        <time>2021-05-26T17:59:36.000Z</time>
      </trkpt>
      <trkpt lat="45.15169" lon="5.77686">
        <ele>611.1</ele>
        <time>2021-05-26T17:59:37.000Z</time>
      </trkpt>
      <trkpt lat="45.15162" lon="5.77689">
        <ele>609.6</ele>
        <time>2021-05-26T17:59:38.000Z</time>
      </trkpt>
      <trkpt lat="45.1516" lon="5.77689">
        <ele>609.3</ele>
        <time>2021-05-26T17:59:39.000Z</time>
      </trkpt>
      <trkpt lat="45.15159" lon="5.77689">
        <ele>608.9</ele>
        <time>2021-05-26T17:59:40.000Z</time>
      </trkpt>
      <trkpt lat="45.15157" lon="5.77689">
        <ele>608.6</ele>
        <time>2021-05-26T17:59:41.000Z</time>
      </trkpt>
      <trkpt lat="45.15149" lon="5.7769">
        <ele>606.8</ele>
        <time>2021-05-26T17:59:42.000Z</time>
      </trkpt>
      <trkpt lat="45.15148" lon="5.7769">
        <ele>606.5</ele>
        <time>2021-05-26T17:59:43.000Z</time>
      </trkpt>
      <trkpt lat="45.15146" lon="5.7769">
        <ele>606.2</ele>
        <time>2021-05-26T17:59:44.000Z</time>
      </trkpt>
      <trkpt lat="45.15145" lon="5.7769">
        <ele>605.8</ele>
        <time>2021-05-26T17:59:45.000Z</time>
      </trkpt>
      <trkpt lat="45.15137" lon="5.77691">
        <ele>604.2</ele>
        <time>2021-05-26T17:59:46.000Z</time>
      </trkpt>
      <trkpt lat="45.15136" lon="5.77691">
        <ele>604</ele>
        <time>2021-05-26T17:59:47.000Z</time>
      </trkpt>
      <trkpt lat="45.15135" lon="5.77691">
        <ele>603.7</ele>
        <time>2021-05-26T17:59:48.000Z</time>
      </trkpt>
      <trkpt lat="45.15134" lon="5.77691">
        <ele>603.4</ele>
        <time>2021-05-26T17:59:49.000Z</time>
      </trkpt>
      <trkpt lat="45.15133" lon="5.77691">
        <ele>603.2</ele>
        <time>2021-05-26T17:59:50.000Z</time>
      </trkpt>
      <trkpt lat="45.15127" lon="5.77692">
        <ele>601.7</ele>
        <time>2021-05-26T17:59:51.000Z</time>
      </trkpt>
      <trkpt lat="45.15126" lon="5.77693">
        <ele>601.5</ele>
        <time>2021-05-26T17:59:52.000Z</time>
      </trkpt>
      <trkpt lat="45.15125" lon="5.77693">
        <ele>601.4</ele>
        <time>2021-05-26T17:59:53.000Z</time>
      </trkpt>
      <trkpt lat="45.15125" lon="5.77693">
        <ele>601.2</ele>
        <time>2021-05-26T17:59:55.000Z</time>
      </trkpt>
      <trkpt lat="45.15124" lon="5.77693">
        <ele>601</ele>
        <time>2021-05-26T17:59:56.000Z</time>
      </trkpt>
      <trkpt lat="45.15123" lon="5.77694">
        <ele>600.9</ele>
        <time>2021-05-26T17:59:57.000Z</time>
      </trkpt>
      <trkpt lat="45.15114" lon="5.77697">
        <ele>598.5</ele>
        <time>2021-05-26T17:59:59.000Z</time>
      </trkpt>
      <trkpt lat="45.15113" lon="5.77698">
        <ele>598.2</ele>
        <time>2021-05-26T18:00:00.000Z</time>
      </trkpt>
      <trkpt lat="45.15112" lon="5.77698">
        <ele>597.9</ele>
        <time>2021-05-26T18:00:01.000Z</time>
      </trkpt>
      <trkpt lat="45.15111" lon="5.77699">
        <ele>597.6</ele>
        <time>2021-05-26T18:00:02.000Z</time>
      </trkpt>
      <trkpt lat="45.1511" lon="5.777">
        <ele>597.3</ele>
        <time>2021-05-26T18:00:03.000Z</time>
      </trkpt>
      <trkpt lat="45.15103" lon="5.77703">
        <ele>595.6</ele>
        <time>2021-05-26T18:00:04.000Z</time>
      </trkpt>
      <trkpt lat="45.15103" lon="5.77704">
        <ele>595.4</ele>
        <time>2021-05-26T18:00:05.000Z</time>
      </trkpt>
      <trkpt lat="45.15102" lon="5.77704">
        <ele>595.2</ele>
        <time>2021-05-26T18:00:06.000Z</time>
      </trkpt>
      <trkpt lat="45.15101" lon="5.77704">
        <ele>595</ele>
        <time>2021-05-26T18:00:07.000Z</time>
      </trkpt>
      <trkpt lat="45.15101" lon="5.77705">
        <ele>594.8</ele>
        <time>2021-05-26T18:00:08.000Z</time>
      </trkpt>
      <trkpt lat="45.151" lon="5.77705">
        <ele>594.7</ele>
        <time>2021-05-26T18:00:09.000Z</time>
      </trkpt>
      <trkpt lat="45.15099" lon="5.77706">
        <ele>594.5</ele>
        <time>2021-05-26T18:00:10.000Z</time>
      </trkpt>
      <trkpt lat="45.15099" lon="5.77706">
        <ele>594.3</ele>
        <time>2021-05-26T18:00:11.000Z</time>
      </trkpt>
      <trkpt lat="45.15092" lon="5.7771">
        <ele>592.7</ele>
        <time>2021-05-26T18:00:12.000Z</time>
      </trkpt>
      <trkpt lat="45.15091" lon="5.7771">
        <ele>592.4</ele>
        <time>2021-05-26T18:00:14.000Z</time>
      </trkpt>
      <trkpt lat="45.15091" lon="5.7771">
        <ele>592.2</ele>
        <time>2021-05-26T18:00:15.000Z</time>
      </trkpt>
      <trkpt lat="45.1509" lon="5.77711">
        <ele>592</ele>
        <time>2021-05-26T18:00:16.000Z</time>
      </trkpt>
      <trkpt lat="45.15089" lon="5.77711">
        <ele>591.8</ele>
        <time>2021-05-26T18:00:17.000Z</time>
      </trkpt>
      <trkpt lat="45.15088" lon="5.77711">
        <ele>591.5</ele>
        <time>2021-05-26T18:00:18.000Z</time>
      </trkpt>
      <trkpt lat="45.15081" lon="5.77714">
        <ele>590.1</ele>
        <time>2021-05-26T18:00:19.000Z</time>
      </trkpt>
      <trkpt lat="45.1508" lon="5.77715">
        <ele>590</ele>
        <time>2021-05-26T18:00:20.000Z</time>
      </trkpt>
      <trkpt lat="45.1508" lon="5.77715">
        <ele>589.8</ele>
        <time>2021-05-26T18:00:21.000Z</time>
      </trkpt>
      <trkpt lat="45.15079" lon="5.77716">
        <ele>589.6</ele>
        <time>2021-05-26T18:00:22.000Z</time>
      </trkpt>
      <trkpt lat="45.15078" lon="5.77716">
        <ele>589.5</ele>
        <time>2021-05-26T18:00:23.000Z</time>
      </trkpt>
      <trkpt lat="45.15077" lon="5.77717">
        <ele>589.3</ele>
        <time>2021-05-26T18:00:24.000Z</time>
      </trkpt>
      <trkpt lat="45.15076" lon="5.77717">
        <ele>589.1</ele>
        <time>2021-05-26T18:00:25.000Z</time>
      </trkpt>
      <trkpt lat="45.15069" lon="5.77721">
        <ele>587.8</ele>
        <time>2021-05-26T18:00:26.000Z</time>
      </trkpt>
      <trkpt lat="45.15068" lon="5.77721">
        <ele>587.6</ele>
        <time>2021-05-26T18:00:27.000Z</time>
      </trkpt>
      <trkpt lat="45.15066" lon="5.77721">
        <ele>587.4</ele>
        <time>2021-05-26T18:00:28.000Z</time>
      </trkpt>
      <trkpt lat="45.15065" lon="5.77722">
        <ele>587.1</ele>
        <time>2021-05-26T18:00:29.000Z</time>
      </trkpt>
      <trkpt lat="45.15058" lon="5.77724">
        <ele>586.1</ele>
        <time>2021-05-26T18:00:30.000Z</time>
      </trkpt>
      <trkpt lat="45.15056" lon="5.77725">
        <ele>585.9</ele>
        <time>2021-05-26T18:00:31.000Z</time>
      </trkpt>
      <trkpt lat="45.15055" lon="5.77726">
        <ele>585.7</ele>
        <time>2021-05-26T18:00:33.000Z</time>
      </trkpt>
      <trkpt lat="45.15054" lon="5.77727">
        <ele>585.5</ele>
        <time>2021-05-26T18:00:34.000Z</time>
      </trkpt>
      <trkpt lat="45.15048" lon="5.77733">
        <ele>584.6</ele>
        <time>2021-05-26T18:00:35.000Z</time>
      </trkpt>
      <trkpt lat="45.15047" lon="5.77733">
        <ele>584.5</ele>
        <time>2021-05-26T18:00:36.000Z</time>
      </trkpt>
      <trkpt lat="45.15047" lon="5.77734">
        <ele>584.4</ele>
        <time>2021-05-26T18:00:37.000Z</time>
      </trkpt>
      <trkpt lat="45.15046" lon="5.77735">
        <ele>584.2</ele>
        <time>2021-05-26T18:00:38.000Z</time>
      </trkpt>
      <trkpt lat="45.15045" lon="5.77736">
        <ele>584.1</ele>
        <time>2021-05-26T18:00:39.000Z</time>
      </trkpt>
      <trkpt lat="45.15045" lon="5.77736">
        <ele>584</ele>
        <time>2021-05-26T18:00:40.000Z</time>
      </trkpt>
      <trkpt lat="45.15044" lon="5.77737">
        <ele>583.9</ele>
        <time>2021-05-26T18:00:41.000Z</time>
      </trkpt>
      <trkpt lat="45.15044" lon="5.77738">
        <ele>583.8</ele>
        <time>2021-05-26T18:00:42.000Z</time>
      </trkpt>
      <trkpt lat="45.15038" lon="5.77745">
        <ele>582.4</ele>
        <time>2021-05-26T18:00:43.000Z</time>
      </trkpt>
      <trkpt lat="45.15036" lon="5.77746">
        <ele>582.1</ele>
        <time>2021-05-26T18:00:44.000Z</time>
      </trkpt>
      <trkpt lat="45.15035" lon="5.77746">
        <ele>581.8</ele>
        <time>2021-05-26T18:00:45.000Z</time>
      </trkpt>
      <trkpt lat="45.15033" lon="5.77747">
        <ele>581.4</ele>
        <time>2021-05-26T18:00:46.000Z</time>
      </trkpt>
      <trkpt lat="45.15027" lon="5.77751">
        <ele>579.8</ele>
        <time>2021-05-26T18:00:47.000Z</time>
      </trkpt>
      <trkpt lat="45.15026" lon="5.77751">
        <ele>579.6</ele>
        <time>2021-05-26T18:00:48.000Z</time>
      </trkpt>
      <trkpt lat="45.15025" lon="5.77751">
        <ele>579.3</ele>
        <time>2021-05-26T18:00:49.000Z</time>
      </trkpt>
      <trkpt lat="45.15024" lon="5.77751">
        <ele>579.1</ele>
        <time>2021-05-26T18:00:50.000Z</time>
      </trkpt>
      <trkpt lat="45.15015" lon="5.77753">
        <ele>576.9</ele>
        <time>2021-05-26T18:00:52.000Z</time>
      </trkpt>
      <trkpt lat="45.15013" lon="5.77752">
        <ele>576.5</ele>
        <time>2021-05-26T18:00:53.000Z</time>
      </trkpt>
      <trkpt lat="45.15012" lon="5.77752">
        <ele>576.2</ele>
        <time>2021-05-26T18:00:54.000Z</time>
      </trkpt>
      <trkpt lat="45.15011" lon="5.77752">
        <ele>575.9</ele>
        <time>2021-05-26T18:00:55.000Z</time>
      </trkpt>
      <trkpt lat="45.15009" lon="5.77751">
        <ele>575.5</ele>
        <time>2021-05-26T18:00:56.000Z</time>
      </trkpt>
      <trkpt lat="45.15001" lon="5.77749">
        <ele>573.7</ele>
        <time>2021-05-26T18:00:57.000Z</time>
      </trkpt>
      <trkpt lat="45.15" lon="5.77748">
        <ele>573.4</ele>
        <time>2021-05-26T18:00:58.000Z</time>
      </trkpt>
      <trkpt lat="45.14998" lon="5.77747">
        <ele>573.1</ele>
        <time>2021-05-26T18:00:59.000Z</time>
      </trkpt>
      <trkpt lat="45.14997" lon="5.77747">
        <ele>572.8</ele>
        <time>2021-05-26T18:01:00.000Z</time>
      </trkpt>
      <trkpt lat="45.14991" lon="5.77743">
        <ele>571.5</ele>
        <time>2021-05-26T18:01:01.000Z</time>
      </trkpt>
      <trkpt lat="45.1499" lon="5.77742">
        <ele>571.3</ele>
        <time>2021-05-26T18:01:02.000Z</time>
      </trkpt>
      <trkpt lat="45.14989" lon="5.77741">
        <ele>571.1</ele>
        <time>2021-05-26T18:01:03.000Z</time>
      </trkpt>
      <trkpt lat="45.14988" lon="5.7774">
        <ele>570.9</ele>
        <time>2021-05-26T18:01:04.000Z</time>
      </trkpt>
      <trkpt lat="45.14987" lon="5.77739">
        <ele>570.7</ele>
        <time>2021-05-26T18:01:05.000Z</time>
      </trkpt>
      <trkpt lat="45.14981" lon="5.77734">
        <ele>569.4</ele>
        <time>2021-05-26T18:01:06.000Z</time>
      </trkpt>
      <trkpt lat="45.14979" lon="5.77733">
        <ele>569</ele>
        <time>2021-05-26T18:01:07.000Z</time>
      </trkpt>
      <trkpt lat="45.14978" lon="5.77732">
        <ele>568.7</ele>
        <time>2021-05-26T18:01:08.000Z</time>
      </trkpt>
      <trkpt lat="45.14976" lon="5.77731">
        <ele>568.3</ele>
        <time>2021-05-26T18:01:09.000Z</time>
      </trkpt>
      <trkpt lat="45.14974" lon="5.77729">
        <ele>567.2</ele>
        <time>2021-05-26T18:01:10.000Z</time>
      </trkpt>
      <trkpt lat="45.14972" lon="5.77728">
        <ele>566.9</ele>
        <time>2021-05-26T18:01:11.000Z</time>
      </trkpt>
      <trkpt lat="45.14972" lon="5.77727">
        <ele>566.7</ele>
        <time>2021-05-26T18:01:12.000Z</time>
      </trkpt>
      <trkpt lat="45.14971" lon="5.77726">
        <ele>566.5</ele>
        <time>2021-05-26T18:01:13.000Z</time>
      </trkpt>
      <trkpt lat="45.1497" lon="5.77724">
        <ele>566.3</ele>
        <time>2021-05-26T18:01:14.000Z</time>
      </trkpt>
      <trkpt lat="45.14969" lon="5.77723">
        <ele>566.1</ele>
        <time>2021-05-26T18:01:15.000Z</time>
      </trkpt>
      <trkpt lat="45.14969" lon="5.77722">
        <ele>565.9</ele>
        <time>2021-05-26T18:01:16.000Z</time>
      </trkpt>
      <trkpt lat="45.14964" lon="5.77713">
        <ele>564.7</ele>
        <time>2021-05-26T18:01:17.000Z</time>
      </trkpt>
      <trkpt lat="45.14962" lon="5.77711">
        <ele>564.5</ele>
        <time>2021-05-26T18:01:18.000Z</time>
      </trkpt>
      <trkpt lat="45.14961" lon="5.7771">
        <ele>564.2</ele>
        <time>2021-05-26T18:01:19.000Z</time>
      </trkpt>
      <trkpt lat="45.1496" lon="5.77708">
        <ele>563.9</ele>
        <time>2021-05-26T18:01:20.000Z</time>
      </trkpt>
      <trkpt lat="45.14953" lon="5.77699">
        <ele>562.7</ele>
        <time>2021-05-26T18:01:21.000Z</time>
      </trkpt>
      <trkpt lat="45.14951" lon="5.77697">
        <ele>562.4</ele>
        <time>2021-05-26T18:01:22.000Z</time>
      </trkpt>
      <trkpt lat="45.1495" lon="5.77695">
        <ele>562.1</ele>
        <time>2021-05-26T18:01:23.000Z</time>
      </trkpt>
      <trkpt lat="45.14945" lon="5.77688">
        <ele>561.2</ele>
        <time>2021-05-26T18:01:24.000Z</time>
      </trkpt>
      <trkpt lat="45.14944" lon="5.77687">
        <ele>561</ele>
        <time>2021-05-26T18:01:25.000Z</time>
      </trkpt>
      <trkpt lat="45.14942" lon="5.77686">
        <ele>560.8</ele>
        <time>2021-05-26T18:01:26.000Z</time>
      </trkpt>
      <trkpt lat="45.14941" lon="5.77684">
        <ele>560.7</ele>
        <time>2021-05-26T18:01:27.000Z</time>
      </trkpt>
      <trkpt lat="45.14935" lon="5.77678">
        <ele>559.7</ele>
        <time>2021-05-26T18:01:28.000Z</time>
      </trkpt>
      <trkpt lat="45.14934" lon="5.77678">
        <ele>559.5</ele>
        <time>2021-05-26T18:01:29.000Z</time>
      </trkpt>
      <trkpt lat="45.14932" lon="5.77677">
        <ele>559.3</ele>
        <time>2021-05-26T18:01:30.000Z</time>
      </trkpt>
      <trkpt lat="45.14931" lon="5.77676">
        <ele>559.3</ele>
        <time>2021-05-26T18:01:31.000Z</time>
      </trkpt>
      <trkpt lat="45.1493" lon="5.77676">
        <ele>559</ele>
        <time>2021-05-26T18:01:32.000Z</time>
      </trkpt>
      <trkpt lat="45.14928" lon="5.77675">
        <ele>558.9</ele>
        <time>2021-05-26T18:01:33.000Z</time>
      </trkpt>
      <trkpt lat="45.14927" lon="5.77675">
        <ele>558.7</ele>
        <time>2021-05-26T18:01:34.000Z</time>
      </trkpt>
      <trkpt lat="45.14926" lon="5.77674">
        <ele>558.5</ele>
        <time>2021-05-26T18:01:35.000Z</time>
      </trkpt>
      <trkpt lat="45.14919" lon="5.77672">
        <ele>557.8</ele>
        <time>2021-05-26T18:01:36.000Z</time>
      </trkpt>
      <trkpt lat="45.14919" lon="5.77672">
        <ele>557.7</ele>
        <time>2021-05-26T18:01:37.000Z</time>
      </trkpt>
      <trkpt lat="45.14918" lon="5.77671">
        <ele>557.6</ele>
        <time>2021-05-26T18:01:38.000Z</time>
      </trkpt>
      <trkpt lat="45.14917" lon="5.77671">
        <ele>557.5</ele>
        <time>2021-05-26T18:01:39.000Z</time>
      </trkpt>
      <trkpt lat="45.14917" lon="5.77671">
        <ele>557.4</ele>
        <time>2021-05-26T18:01:40.000Z</time>
      </trkpt>
      <trkpt lat="45.14916" lon="5.77671">
        <ele>557.4</ele>
        <time>2021-05-26T18:01:41.000Z</time>
      </trkpt>
      <trkpt lat="45.14915" lon="5.77671">
        <ele>557.3</ele>
        <time>2021-05-26T18:01:42.000Z</time>
      </trkpt>
      <trkpt lat="45.14915" lon="5.77671">
        <ele>557.2</ele>
        <time>2021-05-26T18:01:43.000Z</time>
      </trkpt>
      <trkpt lat="45.14915" lon="5.77671">
        <ele>557.2</ele>
        <time>2021-05-26T18:01:44.000Z</time>
      </trkpt>
      <trkpt lat="45.14915" lon="5.77671">
        <ele>557.2</ele>
        <time>2021-05-26T18:01:45.000Z</time>
      </trkpt>
      <trkpt lat="45.14911" lon="5.77672">
        <ele>556.7</ele>
        <time>2021-05-26T18:01:46.000Z</time>
      </trkpt>
      <trkpt lat="45.1491" lon="5.77672">
        <ele>556.6</ele>
        <time>2021-05-26T18:01:47.000Z</time>
      </trkpt>
      <trkpt lat="45.14908" lon="5.77672">
        <ele>556.4</ele>
        <time>2021-05-26T18:01:49.000Z</time>
      </trkpt>
      <trkpt lat="45.14907" lon="5.77672">
        <ele>556.3</ele>
        <time>2021-05-26T18:01:50.000Z</time>
      </trkpt>
      <trkpt lat="45.14905" lon="5.77671">
        <ele>556</ele>
        <time>2021-05-26T18:01:52.000Z</time>
      </trkpt>
      <trkpt lat="45.14904" lon="5.7767">
        <ele>555.8</ele>
        <time>2021-05-26T18:01:53.000Z</time>
      </trkpt>
      <trkpt lat="45.14902" lon="5.77669">
        <ele>555.6</ele>
        <time>2021-05-26T18:01:54.000Z</time>
      </trkpt>
      <trkpt lat="45.14895" lon="5.77665">
        <ele>554.5</ele>
        <time>2021-05-26T18:01:55.000Z</time>
      </trkpt>
      <trkpt lat="45.14893" lon="5.77664">
        <ele>554.2</ele>
        <time>2021-05-26T18:01:56.000Z</time>
      </trkpt>
      <trkpt lat="45.14892" lon="5.77662">
        <ele>554.1</ele>
        <time>2021-05-26T18:01:57.000Z</time>
      </trkpt>
      <trkpt lat="45.14891" lon="5.77661">
        <ele>554</ele>
        <time>2021-05-26T18:01:58.000Z</time>
      </trkpt>
      <trkpt lat="45.14891" lon="5.7766">
        <ele>553.8</ele>
        <time>2021-05-26T18:01:59.000Z</time>
      </trkpt>
      <trkpt lat="45.1489" lon="5.77658">
        <ele>553.7</ele>
        <time>2021-05-26T18:02:00.000Z</time>
      </trkpt>
      <trkpt lat="45.1489" lon="5.77657">
        <ele>553.5</ele>
        <time>2021-05-26T18:02:01.000Z</time>
      </trkpt>
      <trkpt lat="45.14886" lon="5.77648">
        <ele>552.7</ele>
        <time>2021-05-26T18:02:02.000Z</time>
      </trkpt>
      <trkpt lat="45.14886" lon="5.77647">
        <ele>552.6</ele>
        <time>2021-05-26T18:02:03.000Z</time>
      </trkpt>
      <trkpt lat="45.14886" lon="5.77646">
        <ele>552.5</ele>
        <time>2021-05-26T18:02:04.000Z</time>
      </trkpt>
      <trkpt lat="45.14886" lon="5.77645">
        <ele>552.4</ele>
        <time>2021-05-26T18:02:05.000Z</time>
      </trkpt>
      <trkpt lat="45.14886" lon="5.77644">
        <ele>552.3</ele>
        <time>2021-05-26T18:02:06.000Z</time>
      </trkpt>
      <trkpt lat="45.14883" lon="5.77632">
        <ele>551.2</ele>
        <time>2021-05-26T18:02:08.000Z</time>
      </trkpt>
      <trkpt lat="45.14881" lon="5.77631">
        <ele>550.9</ele>
        <time>2021-05-26T18:02:09.000Z</time>
      </trkpt>
      <trkpt lat="45.14879" lon="5.77629">
        <ele>550.6</ele>
        <time>2021-05-26T18:02:10.000Z</time>
      </trkpt>
      <trkpt lat="45.14873" lon="5.77622">
        <ele>549.5</ele>
        <time>2021-05-26T18:02:11.000Z</time>
      </trkpt>
      <trkpt lat="45.14871" lon="5.7762">
        <ele>549.2</ele>
        <time>2021-05-26T18:02:12.000Z</time>
      </trkpt>
      <trkpt lat="45.1487" lon="5.77618">
        <ele>548.9</ele>
        <time>2021-05-26T18:02:13.000Z</time>
      </trkpt>
      <trkpt lat="45.14869" lon="5.77614">
        <ele>548.6</ele>
        <time>2021-05-26T18:02:14.000Z</time>
      </trkpt>
      <trkpt lat="45.14868" lon="5.77611">
        <ele>548.3</ele>
        <time>2021-05-26T18:02:15.000Z</time>
      </trkpt>
      <trkpt lat="45.14867" lon="5.77608">
        <ele>548</ele>
        <time>2021-05-26T18:02:16.000Z</time>
      </trkpt>
      <trkpt lat="45.14866" lon="5.77606">
        <ele>547.7</ele>
        <time>2021-05-26T18:02:17.000Z</time>
      </trkpt>
      <trkpt lat="45.14864" lon="5.77603">
        <ele>547.4</ele>
        <time>2021-05-26T18:02:18.000Z</time>
      </trkpt>
      <trkpt lat="45.14862" lon="5.776">
        <ele>547</ele>
        <time>2021-05-26T18:02:19.000Z</time>
      </trkpt>
      <trkpt lat="45.1486" lon="5.77598">
        <ele>546.7</ele>
        <time>2021-05-26T18:02:20.000Z</time>
      </trkpt>
      <trkpt lat="45.14858" lon="5.77595">
        <ele>546.4</ele>
        <time>2021-05-26T18:02:21.000Z</time>
      </trkpt>
      <trkpt lat="45.14856" lon="5.77593">
        <ele>546</ele>
        <time>2021-05-26T18:02:22.000Z</time>
      </trkpt>
      <trkpt lat="45.14854" lon="5.7759">
        <ele>545.6</ele>
        <time>2021-05-26T18:02:23.000Z</time>
      </trkpt>
      <trkpt lat="45.14853" lon="5.77587">
        <ele>545.3</ele>
        <time>2021-05-26T18:02:24.000Z</time>
      </trkpt>
      <trkpt lat="45.14851" lon="5.77584">
        <ele>544.9</ele>
        <time>2021-05-26T18:02:25.000Z</time>
      </trkpt>
      <trkpt lat="45.14849" lon="5.7758">
        <ele>544.3</ele>
        <time>2021-05-26T18:02:27.000Z</time>
      </trkpt>
      <trkpt lat="45.14847" lon="5.77577">
        <ele>543.9</ele>
        <time>2021-05-26T18:02:28.000Z</time>
      </trkpt>
      <trkpt lat="45.14846" lon="5.77575">
        <ele>543.5</ele>
        <time>2021-05-26T18:02:29.000Z</time>
      </trkpt>
      <trkpt lat="45.14846" lon="5.77575">
        <ele>543.5</ele>
        <time>2021-05-26T18:02:30.000Z</time>
      </trkpt>
      <trkpt lat="45.14844" lon="5.7757">
        <ele>542.9</ele>
        <time>2021-05-26T18:02:31.000Z</time>
      </trkpt>
      <trkpt lat="45.14843" lon="5.77569">
        <ele>542.6</ele>
        <time>2021-05-26T18:02:32.000Z</time>
      </trkpt>
      <trkpt lat="45.14842" lon="5.77567">
        <ele>542.4</ele>
        <time>2021-05-26T18:02:33.000Z</time>
      </trkpt>
      <trkpt lat="45.14841" lon="5.77566">
        <ele>542.1</ele>
        <time>2021-05-26T18:02:34.000Z</time>
      </trkpt>
      <trkpt lat="45.14841" lon="5.77564">
        <ele>541.9</ele>
        <time>2021-05-26T18:02:35.000Z</time>
      </trkpt>
      <trkpt lat="45.14837" lon="5.77556">
        <ele>540.6</ele>
        <time>2021-05-26T18:02:36.000Z</time>
      </trkpt>
      <trkpt lat="45.14836" lon="5.77555">
        <ele>540.3</ele>
        <time>2021-05-26T18:02:37.000Z</time>
      </trkpt>
      <trkpt lat="45.14836" lon="5.77553">
        <ele>540</ele>
        <time>2021-05-26T18:02:38.000Z</time>
      </trkpt>
      <trkpt lat="45.14835" lon="5.77551">
        <ele>539.8</ele>
        <time>2021-05-26T18:02:39.000Z</time>
      </trkpt>
      <trkpt lat="45.14835" lon="5.7755">
        <ele>539.5</ele>
        <time>2021-05-26T18:02:40.000Z</time>
      </trkpt>
      <trkpt lat="45.14832" lon="5.77541">
        <ele>538.2</ele>
        <time>2021-05-26T18:02:41.000Z</time>
      </trkpt>
      <trkpt lat="45.14832" lon="5.77541">
        <ele>538.2</ele>
        <time>2021-05-26T18:02:42.000Z</time>
      </trkpt>
      <trkpt lat="45.14832" lon="5.77541">
        <ele>538.2</ele>
        <time>2021-05-26T18:02:43.000Z</time>
      </trkpt>
      <trkpt lat="45.14832" lon="5.77541">
        <ele>538.2</ele>
        <time>2021-05-26T18:02:44.000Z</time>
      </trkpt>
      <trkpt lat="45.14826" lon="5.77525">
        <ele>535.5</ele>
        <time>2021-05-26T18:02:46.000Z</time>
      </trkpt>
      <trkpt lat="45.14825" lon="5.77524">
        <ele>535.3</ele>
        <time>2021-05-26T18:02:47.000Z</time>
      </trkpt>
      <trkpt lat="45.14824" lon="5.77523">
        <ele>535.1</ele>
        <time>2021-05-26T18:02:48.000Z</time>
      </trkpt>
      <trkpt lat="45.14824" lon="5.77521">
        <ele>534.9</ele>
        <time>2021-05-26T18:02:49.000Z</time>
      </trkpt>
      <trkpt lat="45.14823" lon="5.7752">
        <ele>534.6</ele>
        <time>2021-05-26T18:02:50.000Z</time>
      </trkpt>
      <trkpt lat="45.14822" lon="5.77519">
        <ele>534.4</ele>
        <time>2021-05-26T18:02:51.000Z</time>
      </trkpt>
      <trkpt lat="45.14817" lon="5.77512">
        <ele>533</ele>
        <time>2021-05-26T18:02:52.000Z</time>
      </trkpt>
      <trkpt lat="45.14817" lon="5.7751">
        <ele>532.8</ele>
        <time>2021-05-26T18:02:53.000Z</time>
      </trkpt>
      <trkpt lat="45.14816" lon="5.77509">
        <ele>532.5</ele>
        <time>2021-05-26T18:02:54.000Z</time>
      </trkpt>
      <trkpt lat="45.14815" lon="5.77507">
        <ele>532.3</ele>
        <time>2021-05-26T18:02:55.000Z</time>
      </trkpt>
      <trkpt lat="45.14811" lon="5.77497">
        <ele>530.8</ele>
        <time>2021-05-26T18:02:56.000Z</time>
      </trkpt>
      <trkpt lat="45.1481" lon="5.77494">
        <ele>530.4</ele>
        <time>2021-05-26T18:02:57.000Z</time>
      </trkpt>
      <trkpt lat="45.1481" lon="5.7749">
        <ele>530</ele>
        <time>2021-05-26T18:02:58.000Z</time>
      </trkpt>
      <trkpt lat="45.14809" lon="5.77487">
        <ele>529.5</ele>
        <time>2021-05-26T18:02:59.000Z</time>
      </trkpt>
      <trkpt lat="45.14808" lon="5.77484">
        <ele>529.2</ele>
        <time>2021-05-26T18:03:00.000Z</time>
      </trkpt>
      <trkpt lat="45.14808" lon="5.77481">
        <ele>528.8</ele>
        <time>2021-05-26T18:03:01.000Z</time>
      </trkpt>
      <trkpt lat="45.14808" lon="5.77478">
        <ele>528.5</ele>
        <time>2021-05-26T18:03:02.000Z</time>
      </trkpt>
      <trkpt lat="45.14807" lon="5.77475">
        <ele>528.1</ele>
        <time>2021-05-26T18:03:03.000Z</time>
      </trkpt>
      <trkpt lat="45.14807" lon="5.77471">
        <ele>527.7</ele>
        <time>2021-05-26T18:03:04.000Z</time>
      </trkpt>
      <trkpt lat="45.14806" lon="5.77468">
        <ele>527.4</ele>
        <time>2021-05-26T18:03:05.000Z</time>
      </trkpt>
      <trkpt lat="45.14805" lon="5.77467">
        <ele>527.2</ele>
        <time>2021-05-26T18:03:06.000Z</time>
      </trkpt>
      <trkpt lat="45.14805" lon="5.77465">
        <ele>526.9</ele>
        <time>2021-05-26T18:03:07.000Z</time>
      </trkpt>
      <trkpt lat="45.14804" lon="5.77464">
        <ele>526.7</ele>
        <time>2021-05-26T18:03:08.000Z</time>
      </trkpt>
      <trkpt lat="45.14803" lon="5.77462">
        <ele>526.5</ele>
        <time>2021-05-26T18:03:09.000Z</time>
      </trkpt>
      <trkpt lat="45.14799" lon="5.77455">
        <ele>525.4</ele>
        <time>2021-05-26T18:03:10.000Z</time>
      </trkpt>
      <trkpt lat="45.14798" lon="5.77454">
        <ele>525.2</ele>
        <time>2021-05-26T18:03:11.000Z</time>
      </trkpt>
      <trkpt lat="45.14798" lon="5.77453">
        <ele>525.1</ele>
        <time>2021-05-26T18:03:12.000Z</time>
      </trkpt>
      <trkpt lat="45.14797" lon="5.77452">
        <ele>524.9</ele>
        <time>2021-05-26T18:03:13.000Z</time>
      </trkpt>
      <trkpt lat="45.14797" lon="5.7745">
        <ele>524.8</ele>
        <time>2021-05-26T18:03:14.000Z</time>
      </trkpt>
      <trkpt lat="45.14796" lon="5.77449">
        <ele>524.6</ele>
        <time>2021-05-26T18:03:15.000Z</time>
      </trkpt>
      <trkpt lat="45.14792" lon="5.77441">
        <ele>523.5</ele>
        <time>2021-05-26T18:03:16.000Z</time>
      </trkpt>
      <trkpt lat="45.14792" lon="5.7744">
        <ele>523.3</ele>
        <time>2021-05-26T18:03:17.000Z</time>
      </trkpt>
      <trkpt lat="45.14791" lon="5.77438">
        <ele>523.1</ele>
        <time>2021-05-26T18:03:18.000Z</time>
      </trkpt>
      <trkpt lat="45.1479" lon="5.77437">
        <ele>523</ele>
        <time>2021-05-26T18:03:19.000Z</time>
      </trkpt>
      <trkpt lat="45.1479" lon="5.77435">
        <ele>522.8</ele>
        <time>2021-05-26T18:03:20.000Z</time>
      </trkpt>
      <trkpt lat="45.14787" lon="5.77427">
        <ele>521.8</ele>
        <time>2021-05-26T18:03:21.000Z</time>
      </trkpt>
      <trkpt lat="45.14786" lon="5.77425">
        <ele>521.7</ele>
        <time>2021-05-26T18:03:22.000Z</time>
      </trkpt>
      <trkpt lat="45.14786" lon="5.77424">
        <ele>521.5</ele>
        <time>2021-05-26T18:03:24.000Z</time>
      </trkpt>
      <trkpt lat="45.14786" lon="5.77422">
        <ele>521.4</ele>
        <time>2021-05-26T18:03:25.000Z</time>
      </trkpt>
      <trkpt lat="45.14785" lon="5.77421">
        <ele>521.2</ele>
        <time>2021-05-26T18:03:26.000Z</time>
      </trkpt>
      <trkpt lat="45.14782" lon="5.77412">
        <ele>520.3</ele>
        <time>2021-05-26T18:03:27.000Z</time>
      </trkpt>
      <trkpt lat="45.14782" lon="5.7741">
        <ele>520.1</ele>
        <time>2021-05-26T18:03:28.000Z</time>
      </trkpt>
      <trkpt lat="45.14781" lon="5.77408">
        <ele>520</ele>
        <time>2021-05-26T18:03:29.000Z</time>
      </trkpt>
      <trkpt lat="45.14781" lon="5.77407">
        <ele>519.8</ele>
        <time>2021-05-26T18:03:30.000Z</time>
      </trkpt>
      <trkpt lat="45.1478" lon="5.77405">
        <ele>519.6</ele>
        <time>2021-05-26T18:03:31.000Z</time>
      </trkpt>
      <trkpt lat="45.14778" lon="5.77394">
        <ele>518.6</ele>
        <time>2021-05-26T18:03:32.000Z</time>
      </trkpt>
      <trkpt lat="45.14778" lon="5.77392">
        <ele>518.4</ele>
        <time>2021-05-26T18:03:33.000Z</time>
      </trkpt>
      <trkpt lat="45.14778" lon="5.7739">
        <ele>518.2</ele>
        <time>2021-05-26T18:03:34.000Z</time>
      </trkpt>
      <trkpt lat="45.14779" lon="5.77387">
        <ele>518</ele>
        <time>2021-05-26T18:03:35.000Z</time>
      </trkpt>
      <trkpt lat="45.14781" lon="5.77374">
        <ele>516.8</ele>
        <time>2021-05-26T18:03:36.000Z</time>
      </trkpt>
      <trkpt lat="45.14783" lon="5.7737">
        <ele>516.4</ele>
        <time>2021-05-26T18:03:37.000Z</time>
      </trkpt>
      <trkpt lat="45.14785" lon="5.77366">
        <ele>516</ele>
        <time>2021-05-26T18:03:38.000Z</time>
      </trkpt>
      <trkpt lat="45.14787" lon="5.77362">
        <ele>515.6</ele>
        <time>2021-05-26T18:03:39.000Z</time>
      </trkpt>
      <trkpt lat="45.14789" lon="5.77358">
        <ele>515.3</ele>
        <time>2021-05-26T18:03:40.000Z</time>
      </trkpt>
      <trkpt lat="45.1479" lon="5.77355">
        <ele>515.1</ele>
        <time>2021-05-26T18:03:41.000Z</time>
      </trkpt>
      <trkpt lat="45.14791" lon="5.77353">
        <ele>514.9</ele>
        <time>2021-05-26T18:03:42.000Z</time>
      </trkpt>
      <trkpt lat="45.14793" lon="5.77351">
        <ele>514.7</ele>
        <time>2021-05-26T18:03:43.000Z</time>
      </trkpt>
      <trkpt lat="45.14795" lon="5.77345">
        <ele>514.2</ele>
        <time>2021-05-26T18:03:44.000Z</time>
      </trkpt>
      <trkpt lat="45.14797" lon="5.77342">
        <ele>514</ele>
        <time>2021-05-26T18:03:45.000Z</time>
      </trkpt>
      <trkpt lat="45.14798" lon="5.7734">
        <ele>513.8</ele>
        <time>2021-05-26T18:03:46.000Z</time>
      </trkpt>
      <trkpt lat="45.148" lon="5.77338">
        <ele>513.6</ele>
        <time>2021-05-26T18:03:47.000Z</time>
      </trkpt>
      <trkpt lat="45.14802" lon="5.77335">
        <ele>513.4</ele>
        <time>2021-05-26T18:03:48.000Z</time>
      </trkpt>
      <trkpt lat="45.14803" lon="5.77332">
        <ele>513.2</ele>
        <time>2021-05-26T18:03:49.000Z</time>
      </trkpt>
      <trkpt lat="45.14805" lon="5.7733">
        <ele>513</ele>
        <time>2021-05-26T18:03:50.000Z</time>
      </trkpt>
      <trkpt lat="45.14806" lon="5.77328">
        <ele>512.9</ele>
        <time>2021-05-26T18:03:51.000Z</time>
      </trkpt>
      <trkpt lat="45.14807" lon="5.77326">
        <ele>512.8</ele>
        <time>2021-05-26T18:03:52.000Z</time>
      </trkpt>
      <trkpt lat="45.14808" lon="5.77325">
        <ele>512.7</ele>
        <time>2021-05-26T18:03:53.000Z</time>
      </trkpt>
      <trkpt lat="45.14808" lon="5.77323">
        <ele>512.6</ele>
        <time>2021-05-26T18:03:54.000Z</time>
      </trkpt>
      <trkpt lat="45.14813" lon="5.77314">
        <ele>512.1</ele>
        <time>2021-05-26T18:03:55.000Z</time>
      </trkpt>
      <trkpt lat="45.14814" lon="5.77311">
        <ele>511.9</ele>
        <time>2021-05-26T18:03:56.000Z</time>
      </trkpt>
      <trkpt lat="45.14816" lon="5.77308">
        <ele>511.8</ele>
        <time>2021-05-26T18:03:57.000Z</time>
      </trkpt>
      <trkpt lat="45.14818" lon="5.77305">
        <ele>511.7</ele>
        <time>2021-05-26T18:03:58.000Z</time>
      </trkpt>
      <trkpt lat="45.14819" lon="5.77302">
        <ele>511.5</ele>
        <time>2021-05-26T18:03:59.000Z</time>
      </trkpt>
      <trkpt lat="45.14821" lon="5.77299">
        <ele>511.4</ele>
        <time>2021-05-26T18:04:00.000Z</time>
      </trkpt>
      <trkpt lat="45.14824" lon="5.77293">
        <ele>511.2</ele>
        <time>2021-05-26T18:04:02.000Z</time>
      </trkpt>
      <trkpt lat="45.14826" lon="5.7729">
        <ele>511.1</ele>
        <time>2021-05-26T18:04:03.000Z</time>
      </trkpt>
      <trkpt lat="45.14827" lon="5.77287">
        <ele>511</ele>
        <time>2021-05-26T18:04:04.000Z</time>
      </trkpt>
      <trkpt lat="45.14829" lon="5.77284">
        <ele>510.8</ele>
        <time>2021-05-26T18:04:05.000Z</time>
      </trkpt>
      <trkpt lat="45.14831" lon="5.77281">
        <ele>510.7</ele>
        <time>2021-05-26T18:04:06.000Z</time>
      </trkpt>
      <trkpt lat="45.14833" lon="5.77278">
        <ele>510.5</ele>
        <time>2021-05-26T18:04:07.000Z</time>
      </trkpt>
      <trkpt lat="45.14835" lon="5.77275">
        <ele>510.4</ele>
        <time>2021-05-26T18:04:08.000Z</time>
      </trkpt>
      <trkpt lat="45.14837" lon="5.77272">
        <ele>510.2</ele>
        <time>2021-05-26T18:04:09.000Z</time>
      </trkpt>
      <trkpt lat="45.14839" lon="5.77269">
        <ele>510.1</ele>
        <time>2021-05-26T18:04:10.000Z</time>
      </trkpt>
      <trkpt lat="45.14841" lon="5.77266">
        <ele>509.9</ele>
        <time>2021-05-26T18:04:11.000Z</time>
      </trkpt>
      <trkpt lat="45.14843" lon="5.77264">
        <ele>509.8</ele>
        <time>2021-05-26T18:04:12.000Z</time>
      </trkpt>
      <trkpt lat="45.14845" lon="5.77261">
        <ele>509.6</ele>
        <time>2021-05-26T18:04:13.000Z</time>
      </trkpt>
      <trkpt lat="45.14846" lon="5.77259">
        <ele>509.5</ele>
        <time>2021-05-26T18:04:14.000Z</time>
      </trkpt>
      <trkpt lat="45.14848" lon="5.77257">
        <ele>509.4</ele>
        <time>2021-05-26T18:04:15.000Z</time>
      </trkpt>
      <trkpt lat="45.14849" lon="5.77254">
        <ele>509.3</ele>
        <time>2021-05-26T18:04:16.000Z</time>
      </trkpt>
      <trkpt lat="45.14852" lon="5.77252">
        <ele>509.1</ele>
        <time>2021-05-26T18:04:17.000Z</time>
      </trkpt>
      <trkpt lat="45.14854" lon="5.7725">
        <ele>509</ele>
        <time>2021-05-26T18:04:18.000Z</time>
      </trkpt>
      <trkpt lat="45.14855" lon="5.77249">
        <ele>508.9</ele>
        <time>2021-05-26T18:04:19.000Z</time>
      </trkpt>
      <trkpt lat="45.14857" lon="5.77247">
        <ele>508.8</ele>
        <time>2021-05-26T18:04:20.000Z</time>
      </trkpt>
      <trkpt lat="45.14858" lon="5.77246">
        <ele>508.7</ele>
        <time>2021-05-26T18:04:21.000Z</time>
      </trkpt>
      <trkpt lat="45.1486" lon="5.77244">
        <ele>508.5</ele>
        <time>2021-05-26T18:04:22.000Z</time>
      </trkpt>
      <trkpt lat="45.14862" lon="5.77241">
        <ele>508.3</ele>
        <time>2021-05-26T18:04:23.000Z</time>
      </trkpt>
      <trkpt lat="45.14863" lon="5.77239">
        <ele>508.2</ele>
        <time>2021-05-26T18:04:24.000Z</time>
      </trkpt>
      <trkpt lat="45.14865" lon="5.77237">
        <ele>508.1</ele>
        <time>2021-05-26T18:04:25.000Z</time>
      </trkpt>
      <trkpt lat="45.14866" lon="5.77235">
        <ele>507.9</ele>
        <time>2021-05-26T18:04:26.000Z</time>
      </trkpt>
      <trkpt lat="45.14867" lon="5.77233">
        <ele>507.7</ele>
        <time>2021-05-26T18:04:27.000Z</time>
      </trkpt>
      <trkpt lat="45.14868" lon="5.77231">
        <ele>507.5</ele>
        <time>2021-05-26T18:04:28.000Z</time>
      </trkpt>
      <trkpt lat="45.14869" lon="5.7723">
        <ele>507.4</ele>
        <time>2021-05-26T18:04:29.000Z</time>
      </trkpt>
      <trkpt lat="45.1487" lon="5.77229">
        <ele>507.3</ele>
        <time>2021-05-26T18:04:30.000Z</time>
      </trkpt>
      <trkpt lat="45.14871" lon="5.77228">
        <ele>507.1</ele>
        <time>2021-05-26T18:04:31.000Z</time>
      </trkpt>
      <trkpt lat="45.14872" lon="5.77227">
        <ele>507</ele>
        <time>2021-05-26T18:04:32.000Z</time>
      </trkpt>
      <trkpt lat="45.14873" lon="5.77226">
        <ele>506.9</ele>
        <time>2021-05-26T18:04:33.000Z</time>
      </trkpt>
      <trkpt lat="45.1488" lon="5.77218">
        <ele>505.6</ele>
        <time>2021-05-26T18:04:34.000Z</time>
      </trkpt>
      <trkpt lat="45.14882" lon="5.77216">
        <ele>505.2</ele>
        <time>2021-05-26T18:04:35.000Z</time>
      </trkpt>
      <trkpt lat="45.14884" lon="5.77214">
        <ele>504.7</ele>
        <time>2021-05-26T18:04:36.000Z</time>
      </trkpt>
      <trkpt lat="45.14885" lon="5.77211">
        <ele>504.3</ele>
        <time>2021-05-26T18:04:37.000Z</time>
      </trkpt>
      <trkpt lat="45.14886" lon="5.77208">
        <ele>503.9</ele>
        <time>2021-05-26T18:04:38.000Z</time>
      </trkpt>
      <trkpt lat="45.14887" lon="5.77206">
        <ele>503.4</ele>
        <time>2021-05-26T18:04:40.000Z</time>
      </trkpt>
      <trkpt lat="45.14888" lon="5.77203">
        <ele>502.9</ele>
        <time>2021-05-26T18:04:41.000Z</time>
      </trkpt>
      <trkpt lat="45.14889" lon="5.772">
        <ele>502.3</ele>
        <time>2021-05-26T18:04:42.000Z</time>
      </trkpt>
      <trkpt lat="45.1489" lon="5.77196">
        <ele>501.7</ele>
        <time>2021-05-26T18:04:43.000Z</time>
      </trkpt>
      <trkpt lat="45.14891" lon="5.77195">
        <ele>501.5</ele>
        <time>2021-05-26T18:04:44.000Z</time>
      </trkpt>
      <trkpt lat="45.14891" lon="5.77194">
        <ele>501.3</ele>
        <time>2021-05-26T18:04:45.000Z</time>
      </trkpt>
      <trkpt lat="45.14891" lon="5.77193">
        <ele>501</ele>
        <time>2021-05-26T18:04:46.000Z</time>
      </trkpt>
      <trkpt lat="45.14892" lon="5.77191">
        <ele>500.8</ele>
        <time>2021-05-26T18:04:47.000Z</time>
      </trkpt>
      <trkpt lat="45.14892" lon="5.7719">
        <ele>500.5</ele>
        <time>2021-05-26T18:04:48.000Z</time>
      </trkpt>
      <trkpt lat="45.14892" lon="5.77189">
        <ele>500.3</ele>
        <time>2021-05-26T18:04:49.000Z</time>
      </trkpt>
      <trkpt lat="45.14894" lon="5.77179">
        <ele>498.4</ele>
        <time>2021-05-26T18:04:50.000Z</time>
      </trkpt>
      <trkpt lat="45.14895" lon="5.77177">
        <ele>498.1</ele>
        <time>2021-05-26T18:04:51.000Z</time>
      </trkpt>
      <trkpt lat="45.14895" lon="5.77175">
        <ele>497.8</ele>
        <time>2021-05-26T18:04:52.000Z</time>
      </trkpt>
      <trkpt lat="45.14895" lon="5.77174">
        <ele>497.5</ele>
        <time>2021-05-26T18:04:53.000Z</time>
      </trkpt>
      <trkpt lat="45.14896" lon="5.77172">
        <ele>497.1</ele>
        <time>2021-05-26T18:04:54.000Z</time>
      </trkpt>
      <trkpt lat="45.14898" lon="5.7716">
        <ele>494.9</ele>
        <time>2021-05-26T18:04:55.000Z</time>
      </trkpt>
      <trkpt lat="45.14899" lon="5.77156">
        <ele>494.2</ele>
        <time>2021-05-26T18:04:56.000Z</time>
      </trkpt>
      <trkpt lat="45.149" lon="5.77154">
        <ele>493.8</ele>
        <time>2021-05-26T18:04:57.000Z</time>
      </trkpt>
      <trkpt lat="45.149" lon="5.77152">
        <ele>493.5</ele>
        <time>2021-05-26T18:04:58.000Z</time>
      </trkpt>
      <trkpt lat="45.14901" lon="5.7715">
        <ele>493.1</ele>
        <time>2021-05-26T18:04:59.000Z</time>
      </trkpt>
      <trkpt lat="45.14904" lon="5.77145">
        <ele>492.2</ele>
        <time>2021-05-26T18:05:00.000Z</time>
      </trkpt>
      <trkpt lat="45.14904" lon="5.77145">
        <ele>492.2</ele>
        <time>2021-05-26T18:05:01.000Z</time>
      </trkpt>
      <trkpt lat="45.14906" lon="5.77141">
        <ele>491.2</ele>
        <time>2021-05-26T18:05:02.000Z</time>
      </trkpt>
      <trkpt lat="45.14907" lon="5.77138">
        <ele>490.7</ele>
        <time>2021-05-26T18:05:03.000Z</time>
      </trkpt>
      <trkpt lat="45.14908" lon="5.77135">
        <ele>490.2</ele>
        <time>2021-05-26T18:05:04.000Z</time>
      </trkpt>
      <trkpt lat="45.1491" lon="5.77132">
        <ele>489.6</ele>
        <time>2021-05-26T18:05:05.000Z</time>
      </trkpt>
      <trkpt lat="45.14911" lon="5.77129">
        <ele>489.1</ele>
        <time>2021-05-26T18:05:06.000Z</time>
      </trkpt>
      <trkpt lat="45.14912" lon="5.77128">
        <ele>488.9</ele>
        <time>2021-05-26T18:05:07.000Z</time>
      </trkpt>
      <trkpt lat="45.14913" lon="5.77127">
        <ele>488.6</ele>
        <time>2021-05-26T18:05:08.000Z</time>
      </trkpt>
      <trkpt lat="45.14913" lon="5.77126">
        <ele>488.4</ele>
        <time>2021-05-26T18:05:09.000Z</time>
      </trkpt>
      <trkpt lat="45.14914" lon="5.77124">
        <ele>488.2</ele>
        <time>2021-05-26T18:05:10.000Z</time>
      </trkpt>
      <trkpt lat="45.14914" lon="5.77123">
        <ele>487.9</ele>
        <time>2021-05-26T18:05:11.000Z</time>
      </trkpt>
      <trkpt lat="45.14915" lon="5.77122">
        <ele>487.7</ele>
        <time>2021-05-26T18:05:12.000Z</time>
      </trkpt>
      <trkpt lat="45.1492" lon="5.77112">
        <ele>485.9</ele>
        <time>2021-05-26T18:05:13.000Z</time>
      </trkpt>
      <trkpt lat="45.14922" lon="5.77109">
        <ele>485.4</ele>
        <time>2021-05-26T18:05:14.000Z</time>
      </trkpt>
      <trkpt lat="45.14922" lon="5.77107">
        <ele>485</ele>
        <time>2021-05-26T18:05:15.000Z</time>
      </trkpt>
      <trkpt lat="45.14923" lon="5.77105">
        <ele>484.6</ele>
        <time>2021-05-26T18:05:16.000Z</time>
      </trkpt>
      <trkpt lat="45.14924" lon="5.77103">
        <ele>484.3</ele>
        <time>2021-05-26T18:05:17.000Z</time>
      </trkpt>
      <trkpt lat="45.14925" lon="5.77101">
        <ele>483.9</ele>
        <time>2021-05-26T18:05:18.000Z</time>
      </trkpt>
      <trkpt lat="45.14926" lon="5.77097">
        <ele>483.4</ele>
        <time>2021-05-26T18:05:19.000Z</time>
      </trkpt>
      <trkpt lat="45.14926" lon="5.77093">
        <ele>482.8</ele>
        <time>2021-05-26T18:05:20.000Z</time>
      </trkpt>
      <trkpt lat="45.14927" lon="5.77089">
        <ele>482.2</ele>
        <time>2021-05-26T18:05:21.000Z</time>
      </trkpt>
      <trkpt lat="45.14927" lon="5.77087">
        <ele>482</ele>
        <time>2021-05-26T18:05:22.000Z</time>
      </trkpt>
      <trkpt lat="45.14926" lon="5.77085">
        <ele>481.8</ele>
        <time>2021-05-26T18:05:23.000Z</time>
      </trkpt>
      <trkpt lat="45.14926" lon="5.77084">
        <ele>481.6</ele>
        <time>2021-05-26T18:05:24.000Z</time>
      </trkpt>
      <trkpt lat="45.14926" lon="5.77082">
        <ele>481.4</ele>
        <time>2021-05-26T18:05:25.000Z</time>
      </trkpt>
      <trkpt lat="45.14925" lon="5.77081">
        <ele>481.2</ele>
        <time>2021-05-26T18:05:26.000Z</time>
      </trkpt>
      <trkpt lat="45.14924" lon="5.7707">
        <ele>479.9</ele>
        <time>2021-05-26T18:05:27.000Z</time>
      </trkpt>
      <trkpt lat="45.14924" lon="5.77068">
        <ele>479.7</ele>
        <time>2021-05-26T18:05:28.000Z</time>
      </trkpt>
      <trkpt lat="45.14924" lon="5.77066">
        <ele>479.5</ele>
        <time>2021-05-26T18:05:29.000Z</time>
      </trkpt>
      <trkpt lat="45.14924" lon="5.77064">
        <ele>479.2</ele>
        <time>2021-05-26T18:05:30.000Z</time>
      </trkpt>
      <trkpt lat="45.14923" lon="5.77054">
        <ele>478.1</ele>
        <time>2021-05-26T18:05:31.000Z</time>
      </trkpt>
      <trkpt lat="45.14924" lon="5.77052">
        <ele>477.9</ele>
        <time>2021-05-26T18:05:32.000Z</time>
      </trkpt>
      <trkpt lat="45.14924" lon="5.7705">
        <ele>477.6</ele>
        <time>2021-05-26T18:05:33.000Z</time>
      </trkpt>
      <trkpt lat="45.14925" lon="5.77048">
        <ele>477.4</ele>
        <time>2021-05-26T18:05:34.000Z</time>
      </trkpt>
      <trkpt lat="45.14927" lon="5.77038">
        <ele>476.4</ele>
        <time>2021-05-26T18:05:35.000Z</time>
      </trkpt>
      <trkpt lat="45.14928" lon="5.77036">
        <ele>476.1</ele>
        <time>2021-05-26T18:05:37.000Z</time>
      </trkpt>
      <trkpt lat="45.14929" lon="5.77034">
        <ele>475.9</ele>
        <time>2021-05-26T18:05:38.000Z</time>
      </trkpt>
      <trkpt lat="45.14933" lon="5.77025">
        <ele>475.1</ele>
        <time>2021-05-26T18:05:39.000Z</time>
      </trkpt>
      <trkpt lat="45.14934" lon="5.77024">
        <ele>475</ele>
        <time>2021-05-26T18:05:40.000Z</time>
      </trkpt>
      <trkpt lat="45.14935" lon="5.77022">
        <ele>474.8</ele>
        <time>2021-05-26T18:05:41.000Z</time>
      </trkpt>
      <trkpt lat="45.14936" lon="5.7702">
        <ele>474.7</ele>
        <time>2021-05-26T18:05:42.000Z</time>
      </trkpt>
      <trkpt lat="45.1494" lon="5.77013">
        <ele>474.1</ele>
        <time>2021-05-26T18:05:43.000Z</time>
      </trkpt>
      <trkpt lat="45.14941" lon="5.77011">
        <ele>473.9</ele>
        <time>2021-05-26T18:05:44.000Z</time>
      </trkpt>
      <trkpt lat="45.14942" lon="5.7701">
        <ele>473.8</ele>
        <time>2021-05-26T18:05:45.000Z</time>
      </trkpt>
      <trkpt lat="45.14942" lon="5.77008">
        <ele>473.7</ele>
        <time>2021-05-26T18:05:46.000Z</time>
      </trkpt>
      <trkpt lat="45.14946" lon="5.77">
        <ele>473.2</ele>
        <time>2021-05-26T18:05:47.000Z</time>
      </trkpt>
      <trkpt lat="45.14947" lon="5.76999">
        <ele>473.1</ele>
        <time>2021-05-26T18:05:48.000Z</time>
      </trkpt>
      <trkpt lat="45.14948" lon="5.76998">
        <ele>473.1</ele>
        <time>2021-05-26T18:05:49.000Z</time>
      </trkpt>
      <trkpt lat="45.14948" lon="5.76996">
        <ele>473</ele>
        <time>2021-05-26T18:05:50.000Z</time>
      </trkpt>
      <trkpt lat="45.14949" lon="5.76995">
        <ele>472.9</ele>
        <time>2021-05-26T18:05:51.000Z</time>
      </trkpt>
      <trkpt lat="45.14952" lon="5.76987">
        <ele>472.5</ele>
        <time>2021-05-26T18:05:52.000Z</time>
      </trkpt>
      <trkpt lat="45.14952" lon="5.76987">
        <ele>472.5</ele>
        <time>2021-05-26T18:05:53.000Z</time>
      </trkpt>
      <trkpt lat="45.14952" lon="5.76987">
        <ele>472.5</ele>
        <time>2021-05-26T18:05:54.000Z</time>
      </trkpt>
      <trkpt lat="45.14959" lon="5.76971">
        <ele>471.6</ele>
        <time>2021-05-26T18:05:56.000Z</time>
      </trkpt>
      <trkpt lat="45.14959" lon="5.76969">
        <ele>471.6</ele>
        <time>2021-05-26T18:05:57.000Z</time>
      </trkpt>
      <trkpt lat="45.1496" lon="5.76968">
        <ele>471.5</ele>
        <time>2021-05-26T18:05:58.000Z</time>
      </trkpt>
      <trkpt lat="45.14961" lon="5.76966">
        <ele>471.4</ele>
        <time>2021-05-26T18:05:59.000Z</time>
      </trkpt>
      <trkpt lat="45.14961" lon="5.76965">
        <ele>471.3</ele>
        <time>2021-05-26T18:06:00.000Z</time>
      </trkpt>
      <trkpt lat="45.14962" lon="5.76963">
        <ele>471.2</ele>
        <time>2021-05-26T18:06:01.000Z</time>
      </trkpt>
      <trkpt lat="45.14967" lon="5.76953">
        <ele>470.3</ele>
        <time>2021-05-26T18:06:02.000Z</time>
      </trkpt>
      <trkpt lat="45.14968" lon="5.76951">
        <ele>470</ele>
        <time>2021-05-26T18:06:03.000Z</time>
      </trkpt>
      <trkpt lat="45.14969" lon="5.76948">
        <ele>469.7</ele>
        <time>2021-05-26T18:06:04.000Z</time>
      </trkpt>
      <trkpt lat="45.14971" lon="5.76946">
        <ele>469.4</ele>
        <time>2021-05-26T18:06:05.000Z</time>
      </trkpt>
      <trkpt lat="45.14972" lon="5.76943">
        <ele>469</ele>
        <time>2021-05-26T18:06:06.000Z</time>
      </trkpt>
      <trkpt lat="45.14973" lon="5.76941">
        <ele>468.7</ele>
        <time>2021-05-26T18:06:07.000Z</time>
      </trkpt>
      <trkpt lat="45.14974" lon="5.76939">
        <ele>468.4</ele>
        <time>2021-05-26T18:06:08.000Z</time>
      </trkpt>
      <trkpt lat="45.14975" lon="5.76937">
        <ele>468.1</ele>
        <time>2021-05-26T18:06:09.000Z</time>
      </trkpt>
      <trkpt lat="45.14975" lon="5.76935">
        <ele>467.8</ele>
        <time>2021-05-26T18:06:10.000Z</time>
      </trkpt>
      <trkpt lat="45.14976" lon="5.76934">
        <ele>467.6</ele>
        <time>2021-05-26T18:06:11.000Z</time>
      </trkpt>
      <trkpt lat="45.14976" lon="5.76933">
        <ele>467.4</ele>
        <time>2021-05-26T18:06:12.000Z</time>
      </trkpt>
      <trkpt lat="45.14977" lon="5.76932">
        <ele>467.3</ele>
        <time>2021-05-26T18:06:13.000Z</time>
      </trkpt>
      <trkpt lat="45.14977" lon="5.7693">
        <ele>467.1</ele>
        <time>2021-05-26T18:06:15.000Z</time>
      </trkpt>
      <trkpt lat="45.14977" lon="5.76929">
        <ele>466.9</ele>
        <time>2021-05-26T18:06:16.000Z</time>
      </trkpt>
      <trkpt lat="45.14978" lon="5.76928">
        <ele>466.7</ele>
        <time>2021-05-26T18:06:17.000Z</time>
      </trkpt>
      <trkpt lat="45.1498" lon="5.76919">
        <ele>465.3</ele>
        <time>2021-05-26T18:06:18.000Z</time>
      </trkpt>
      <trkpt lat="45.1498" lon="5.76918">
        <ele>465.1</ele>
        <time>2021-05-26T18:06:19.000Z</time>
      </trkpt>
      <trkpt lat="45.1498" lon="5.76917">
        <ele>464.9</ele>
        <time>2021-05-26T18:06:20.000Z</time>
      </trkpt>
      <trkpt lat="45.1498" lon="5.76915">
        <ele>463.2</ele>
        <time>2021-05-26T18:06:21.000Z</time>
      </trkpt>
      <trkpt lat="45.1498" lon="5.76914">
        <ele>463.1</ele>
        <time>2021-05-26T18:06:22.000Z</time>
      </trkpt>
      <trkpt lat="45.14979" lon="5.76913">
        <ele>462.9</ele>
        <time>2021-05-26T18:06:23.000Z</time>
      </trkpt>
      <trkpt lat="45.14978" lon="5.76904">
        <ele>461.8</ele>
        <time>2021-05-26T18:06:24.000Z</time>
      </trkpt>
      <trkpt lat="45.14978" lon="5.76903">
        <ele>461.2</ele>
        <time>2021-05-26T18:06:25.000Z</time>
      </trkpt>
      <trkpt lat="45.14978" lon="5.76902">
        <ele>461</ele>
        <time>2021-05-26T18:06:26.000Z</time>
      </trkpt>
      <trkpt lat="45.14977" lon="5.76901">
        <ele>460.7</ele>
        <time>2021-05-26T18:06:27.000Z</time>
      </trkpt>
      <trkpt lat="45.14977" lon="5.769">
        <ele>460.5</ele>
        <time>2021-05-26T18:06:28.000Z</time>
      </trkpt>
      <trkpt lat="45.14976" lon="5.76899">
        <ele>460.3</ele>
        <time>2021-05-26T18:06:29.000Z</time>
      </trkpt>
      <trkpt lat="45.14976" lon="5.76897">
        <ele>460.1</ele>
        <time>2021-05-26T18:06:30.000Z</time>
      </trkpt>
      <trkpt lat="45.14973" lon="5.76888">
        <ele>458.3</ele>
        <time>2021-05-26T18:06:31.000Z</time>
      </trkpt>
      <trkpt lat="45.14972" lon="5.76887">
        <ele>458</ele>
        <time>2021-05-26T18:06:32.000Z</time>
      </trkpt>
      <trkpt lat="45.14972" lon="5.76885">
        <ele>457.7</ele>
        <time>2021-05-26T18:06:34.000Z</time>
      </trkpt>
      <trkpt lat="45.14972" lon="5.76883">
        <ele>457.4</ele>
        <time>2021-05-26T18:06:35.000Z</time>
      </trkpt>
      <trkpt lat="45.14971" lon="5.76882">
        <ele>457</ele>
        <time>2021-05-26T18:06:36.000Z</time>
      </trkpt>
      <trkpt lat="45.1497" lon="5.76872">
        <ele>455.2</ele>
        <time>2021-05-26T18:06:37.000Z</time>
      </trkpt>
      <trkpt lat="45.14969" lon="5.7687">
        <ele>454.9</ele>
        <time>2021-05-26T18:06:38.000Z</time>
      </trkpt>
      <trkpt lat="45.14969" lon="5.76869">
        <ele>454.7</ele>
        <time>2021-05-26T18:06:39.000Z</time>
      </trkpt>
      <trkpt lat="45.14969" lon="5.76867">
        <ele>454.4</ele>
        <time>2021-05-26T18:06:40.000Z</time>
      </trkpt>
      <trkpt lat="45.14968" lon="5.76865">
        <ele>454.1</ele>
        <time>2021-05-26T18:06:41.000Z</time>
      </trkpt>
      <trkpt lat="45.14966" lon="5.76856">
        <ele>452.4</ele>
        <time>2021-05-26T18:06:42.000Z</time>
      </trkpt>
      <trkpt lat="45.14966" lon="5.76855">
        <ele>452.2</ele>
        <time>2021-05-26T18:06:43.000Z</time>
      </trkpt>
      <trkpt lat="45.14966" lon="5.76854">
        <ele>452</ele>
        <time>2021-05-26T18:06:44.000Z</time>
      </trkpt>
      <trkpt lat="45.14965" lon="5.76853">
        <ele>451.7</ele>
        <time>2021-05-26T18:06:45.000Z</time>
      </trkpt>
      <trkpt lat="45.14965" lon="5.76852">
        <ele>451.5</ele>
        <time>2021-05-26T18:06:46.000Z</time>
      </trkpt>
      <trkpt lat="45.14964" lon="5.7685">
        <ele>451.3</ele>
        <time>2021-05-26T18:06:47.000Z</time>
      </trkpt>
      <trkpt lat="45.1496" lon="5.76841">
        <ele>449.3</ele>
        <time>2021-05-26T18:06:48.000Z</time>
      </trkpt>
      <trkpt lat="45.14959" lon="5.76839">
        <ele>448.7</ele>
        <time>2021-05-26T18:06:49.000Z</time>
      </trkpt>
      <trkpt lat="45.14957" lon="5.76838">
        <ele>448.2</ele>
        <time>2021-05-26T18:06:50.000Z</time>
      </trkpt>
      <trkpt lat="45.14956" lon="5.76836">
        <ele>447.6</ele>
        <time>2021-05-26T18:06:51.000Z</time>
      </trkpt>
      <trkpt lat="45.14954" lon="5.76834">
        <ele>447</ele>
        <time>2021-05-26T18:06:53.000Z</time>
      </trkpt>
      <trkpt lat="45.14953" lon="5.76832">
        <ele>446.5</ele>
        <time>2021-05-26T18:06:54.000Z</time>
      </trkpt>
      <trkpt lat="45.14952" lon="5.7683">
        <ele>446.2</ele>
        <time>2021-05-26T18:06:55.000Z</time>
      </trkpt>
      <trkpt lat="45.14952" lon="5.76829">
        <ele>445.9</ele>
        <time>2021-05-26T18:06:56.000Z</time>
      </trkpt>
      <trkpt lat="45.14951" lon="5.76828">
        <ele>445.5</ele>
        <time>2021-05-26T18:06:57.000Z</time>
      </trkpt>
      <trkpt lat="45.1495" lon="5.76826">
        <ele>445.2</ele>
        <time>2021-05-26T18:06:58.000Z</time>
      </trkpt>
      <trkpt lat="45.1495" lon="5.76825">
        <ele>444.9</ele>
        <time>2021-05-26T18:06:59.000Z</time>
      </trkpt>
      <trkpt lat="45.14946" lon="5.76817">
        <ele>443.1</ele>
        <time>2021-05-26T18:07:00.000Z</time>
      </trkpt>
      <trkpt lat="45.14946" lon="5.76816">
        <ele>442.8</ele>
        <time>2021-05-26T18:07:01.000Z</time>
      </trkpt>
      <trkpt lat="45.14945" lon="5.76815">
        <ele>442.6</ele>
        <time>2021-05-26T18:07:02.000Z</time>
      </trkpt>
      <trkpt lat="45.14944" lon="5.76814">
        <ele>442.3</ele>
        <time>2021-05-26T18:07:03.000Z</time>
      </trkpt>
      <trkpt lat="45.14944" lon="5.76813">
        <ele>442.1</ele>
        <time>2021-05-26T18:07:04.000Z</time>
      </trkpt>
      <trkpt lat="45.14943" lon="5.76812">
        <ele>441.8</ele>
        <time>2021-05-26T18:07:05.000Z</time>
      </trkpt>
      <trkpt lat="45.14938" lon="5.76805">
        <ele>439.9</ele>
        <time>2021-05-26T18:07:06.000Z</time>
      </trkpt>
      <trkpt lat="45.14936" lon="5.76803">
        <ele>439.8</ele>
        <time>2021-05-26T18:07:07.000Z</time>
      </trkpt>
      <trkpt lat="45.14935" lon="5.76802">
        <ele>439.7</ele>
        <time>2021-05-26T18:07:08.000Z</time>
      </trkpt>
      <trkpt lat="45.14934" lon="5.768">
        <ele>439.4</ele>
        <time>2021-05-26T18:07:09.000Z</time>
      </trkpt>
      <trkpt lat="45.14932" lon="5.76799">
        <ele>438.9</ele>
        <time>2021-05-26T18:07:10.000Z</time>
      </trkpt>
      <trkpt lat="45.14931" lon="5.76797">
        <ele>438.5</ele>
        <time>2021-05-26T18:07:11.000Z</time>
      </trkpt>
      <trkpt lat="45.14929" lon="5.76796">
        <ele>438</ele>
        <time>2021-05-26T18:07:12.000Z</time>
      </trkpt>
      <trkpt lat="45.14929" lon="5.76794">
        <ele>437.7</ele>
        <time>2021-05-26T18:07:13.000Z</time>
      </trkpt>
      <trkpt lat="45.14928" lon="5.76793">
        <ele>437.5</ele>
        <time>2021-05-26T18:07:14.000Z</time>
      </trkpt>
      <trkpt lat="45.14928" lon="5.76792">
        <ele>437.3</ele>
        <time>2021-05-26T18:07:15.000Z</time>
      </trkpt>
      <trkpt lat="45.14927" lon="5.76791">
        <ele>437</ele>
        <time>2021-05-26T18:07:16.000Z</time>
      </trkpt>
      <trkpt lat="45.14927" lon="5.7679">
        <ele>436.8</ele>
        <time>2021-05-26T18:07:17.000Z</time>
      </trkpt>
      <trkpt lat="45.14926" lon="5.76789">
        <ele>436.5</ele>
        <time>2021-05-26T18:07:18.000Z</time>
      </trkpt>
      <trkpt lat="45.14923" lon="5.7678">
        <ele>434.6</ele>
        <time>2021-05-26T18:07:19.000Z</time>
      </trkpt>
      <trkpt lat="45.14922" lon="5.76779">
        <ele>434.3</ele>
        <time>2021-05-26T18:07:20.000Z</time>
      </trkpt>
      <trkpt lat="45.14921" lon="5.76778">
        <ele>433.9</ele>
        <time>2021-05-26T18:07:21.000Z</time>
      </trkpt>
      <trkpt lat="45.1492" lon="5.76777">
        <ele>433.6</ele>
        <time>2021-05-26T18:07:22.000Z</time>
      </trkpt>
      <trkpt lat="45.14919" lon="5.76776">
        <ele>433.3</ele>
        <time>2021-05-26T18:07:23.000Z</time>
      </trkpt>
      <trkpt lat="45.14915" lon="5.7677">
        <ele>431.5</ele>
        <time>2021-05-26T18:07:24.000Z</time>
      </trkpt>
      <trkpt lat="45.14915" lon="5.76769">
        <ele>431.3</ele>
        <time>2021-05-26T18:07:25.000Z</time>
      </trkpt>
      <trkpt lat="45.14915" lon="5.76769">
        <ele>431.2</ele>
        <time>2021-05-26T18:07:26.000Z</time>
      </trkpt>
      <trkpt lat="45.14915" lon="5.76768">
        <ele>431</ele>
        <time>2021-05-26T18:07:27.000Z</time>
      </trkpt>
      <trkpt lat="45.14915" lon="5.76767">
        <ele>430.8</ele>
        <time>2021-05-26T18:07:29.000Z</time>
      </trkpt>
      <trkpt lat="45.14915" lon="5.76766">
        <ele>430.6</ele>
        <time>2021-05-26T18:07:31.000Z</time>
      </trkpt>
      <trkpt lat="45.14915" lon="5.76766">
        <ele>430.5</ele>
        <time>2021-05-26T18:07:32.000Z</time>
      </trkpt>
      <trkpt lat="45.14915" lon="5.76765">
        <ele>430.3</ele>
        <time>2021-05-26T18:07:33.000Z</time>
      </trkpt>
      <trkpt lat="45.14915" lon="5.76764">
        <ele>430.1</ele>
        <time>2021-05-26T18:07:34.000Z</time>
      </trkpt>
      <trkpt lat="45.14915" lon="5.76763">
        <ele>429.9</ele>
        <time>2021-05-26T18:07:35.000Z</time>
      </trkpt>
      <trkpt lat="45.14914" lon="5.76754">
        <ele>428</ele>
        <time>2021-05-26T18:07:36.000Z</time>
      </trkpt>
      <trkpt lat="45.14915" lon="5.76753">
        <ele>427.7</ele>
        <time>2021-05-26T18:07:37.000Z</time>
      </trkpt>
      <trkpt lat="45.14915" lon="5.76752">
        <ele>427.4</ele>
        <time>2021-05-26T18:07:38.000Z</time>
      </trkpt>
      <trkpt lat="45.14916" lon="5.76751">
        <ele>427.1</ele>
        <time>2021-05-26T18:07:39.000Z</time>
      </trkpt>
      <trkpt lat="45.14916" lon="5.7675">
        <ele>426.9</ele>
        <time>2021-05-26T18:07:40.000Z</time>
      </trkpt>
      <trkpt lat="45.14917" lon="5.76749">
        <ele>426.6</ele>
        <time>2021-05-26T18:07:41.000Z</time>
      </trkpt>
      <trkpt lat="45.14917" lon="5.76748">
        <ele>426.3</ele>
        <time>2021-05-26T18:07:42.000Z</time>
      </trkpt>
      <trkpt lat="45.14921" lon="5.7674">
        <ele>425.7</ele>
        <time>2021-05-26T18:07:43.000Z</time>
      </trkpt>
      <trkpt lat="45.14921" lon="5.76739">
        <ele>425.6</ele>
        <time>2021-05-26T18:07:44.000Z</time>
      </trkpt>
      <trkpt lat="45.14922" lon="5.76739">
        <ele>425.4</ele>
        <time>2021-05-26T18:07:45.000Z</time>
      </trkpt>
      <trkpt lat="45.14923" lon="5.76738">
        <ele>425.4</ele>
        <time>2021-05-26T18:07:46.000Z</time>
      </trkpt>
      <trkpt lat="45.14923" lon="5.76738">
        <ele>425.2</ele>
        <time>2021-05-26T18:07:47.000Z</time>
      </trkpt>
      <trkpt lat="45.14924" lon="5.76737">
        <ele>425.1</ele>
        <time>2021-05-26T18:07:48.000Z</time>
      </trkpt>
      <trkpt lat="45.14932" lon="5.76732">
        <ele>423.8</ele>
        <time>2021-05-26T18:07:50.000Z</time>
      </trkpt>
      <trkpt lat="45.14932" lon="5.76731">
        <ele>423.7</ele>
        <time>2021-05-26T18:07:51.000Z</time>
      </trkpt>
      <trkpt lat="45.14933" lon="5.76731">
        <ele>423.6</ele>
        <time>2021-05-26T18:07:52.000Z</time>
      </trkpt>
      <trkpt lat="45.14933" lon="5.76731">
        <ele>423.5</ele>
        <time>2021-05-26T18:07:53.000Z</time>
      </trkpt>
      <trkpt lat="45.14934" lon="5.7673">
        <ele>423.4</ele>
        <time>2021-05-26T18:07:54.000Z</time>
      </trkpt>
      <trkpt lat="45.14934" lon="5.7673">
        <ele>423.3</ele>
        <time>2021-05-26T18:07:55.000Z</time>
      </trkpt>
      <trkpt lat="45.14935" lon="5.76729">
        <ele>423.2</ele>
        <time>2021-05-26T18:07:56.000Z</time>
      </trkpt>
      <trkpt lat="45.14935" lon="5.76729">
        <ele>423.1</ele>
        <time>2021-05-26T18:07:57.000Z</time>
      </trkpt>
      <trkpt lat="45.14936" lon="5.76728">
        <ele>423</ele>
        <time>2021-05-26T18:07:58.000Z</time>
      </trkpt>
      <trkpt lat="45.14936" lon="5.76728">
        <ele>422.8</ele>
        <time>2021-05-26T18:07:59.000Z</time>
      </trkpt>
      <trkpt lat="45.14942" lon="5.76724">
        <ele>421.7</ele>
        <time>2021-05-26T18:08:00.000Z</time>
      </trkpt>
      <trkpt lat="45.14942" lon="5.76724">
        <ele>421.1</ele>
        <time>2021-05-26T18:08:01.000Z</time>
      </trkpt>
      <trkpt lat="45.14943" lon="5.76724">
        <ele>420.9</ele>
        <time>2021-05-26T18:08:02.000Z</time>
      </trkpt>
      <trkpt lat="45.14944" lon="5.76724">
        <ele>420.6</ele>
        <time>2021-05-26T18:08:03.000Z</time>
      </trkpt>
      <trkpt lat="45.14944" lon="5.76724">
        <ele>420.4</ele>
        <time>2021-05-26T18:08:04.000Z</time>
      </trkpt>
      <trkpt lat="45.14945" lon="5.76724">
        <ele>420.2</ele>
        <time>2021-05-26T18:08:05.000Z</time>
      </trkpt>
      <trkpt lat="45.14955" lon="5.76723">
        <ele>417.1</ele>
        <time>2021-05-26T18:08:07.000Z</time>
      </trkpt>
      <trkpt lat="45.14957" lon="5.76722">
        <ele>416.5</ele>
        <time>2021-05-26T18:08:09.000Z</time>
      </trkpt>
      <trkpt lat="45.14959" lon="5.76721">
        <ele>416</ele>
        <time>2021-05-26T18:08:10.000Z</time>
      </trkpt>
      <trkpt lat="45.14965" lon="5.76719">
        <ele>414.1</ele>
        <time>2021-05-26T18:08:11.000Z</time>
      </trkpt>
      <trkpt lat="45.14967" lon="5.76719">
        <ele>413.8</ele>
        <time>2021-05-26T18:08:12.000Z</time>
      </trkpt>
      <trkpt lat="45.14968" lon="5.76719">
        <ele>413.4</ele>
        <time>2021-05-26T18:08:13.000Z</time>
      </trkpt>
      <trkpt lat="45.14969" lon="5.76719">
        <ele>413.1</ele>
        <time>2021-05-26T18:08:14.000Z</time>
      </trkpt>
      <trkpt lat="45.1497" lon="5.76719">
        <ele>412.8</ele>
        <time>2021-05-26T18:08:15.000Z</time>
      </trkpt>
      <trkpt lat="45.14977" lon="5.7672">
        <ele>411.1</ele>
        <time>2021-05-26T18:08:16.000Z</time>
      </trkpt>
      <trkpt lat="45.14978" lon="5.7672">
        <ele>410.8</ele>
        <time>2021-05-26T18:08:17.000Z</time>
      </trkpt>
      <trkpt lat="45.14979" lon="5.7672">
        <ele>410.6</ele>
        <time>2021-05-26T18:08:19.000Z</time>
      </trkpt>
      <trkpt lat="45.1498" lon="5.76719">
        <ele>410.4</ele>
        <time>2021-05-26T18:08:20.000Z</time>
      </trkpt>
      <trkpt lat="45.14981" lon="5.76719">
        <ele>410.1</ele>
        <time>2021-05-26T18:08:21.000Z</time>
      </trkpt>
      <trkpt lat="45.14982" lon="5.76719">
        <ele>409.9</ele>
        <time>2021-05-26T18:08:22.000Z</time>
      </trkpt>
      <trkpt lat="45.14989" lon="5.76716">
        <ele>408.5</ele>
        <time>2021-05-26T18:08:23.000Z</time>
      </trkpt>
      <trkpt lat="45.14989" lon="5.76715">
        <ele>408.3</ele>
        <time>2021-05-26T18:08:24.000Z</time>
      </trkpt>
      <trkpt lat="45.1499" lon="5.76714">
        <ele>408.1</ele>
        <time>2021-05-26T18:08:25.000Z</time>
      </trkpt>
      <trkpt lat="45.1499" lon="5.76713">
        <ele>407.9</ele>
        <time>2021-05-26T18:08:26.000Z</time>
      </trkpt>
      <trkpt lat="45.14991" lon="5.76711">
        <ele>407.8</ele>
        <time>2021-05-26T18:08:28.000Z</time>
      </trkpt>
      <trkpt lat="45.14991" lon="5.7671">
        <ele>407.6</ele>
        <time>2021-05-26T18:08:29.000Z</time>
      </trkpt>
      <trkpt lat="45.14995" lon="5.76702">
        <ele>404.8</ele>
        <time>2021-05-26T18:08:30.000Z</time>
      </trkpt>
      <trkpt lat="45.14995" lon="5.76701">
        <ele>404.7</ele>
        <time>2021-05-26T18:08:31.000Z</time>
      </trkpt>
      <trkpt lat="45.14995" lon="5.767">
        <ele>404.5</ele>
        <time>2021-05-26T18:08:32.000Z</time>
      </trkpt>
      <trkpt lat="45.14996" lon="5.76699">
        <ele>404.3</ele>
        <time>2021-05-26T18:08:33.000Z</time>
      </trkpt>
      <trkpt lat="45.14996" lon="5.76698">
        <ele>404.1</ele>
        <time>2021-05-26T18:08:34.000Z</time>
      </trkpt>
      <trkpt lat="45.14997" lon="5.76698">
        <ele>403.9</ele>
        <time>2021-05-26T18:08:35.000Z</time>
      </trkpt>
      <trkpt lat="45.14997" lon="5.76697">
        <ele>403.7</ele>
        <time>2021-05-26T18:08:36.000Z</time>
      </trkpt>
      <trkpt lat="45.15001" lon="5.76688">
        <ele>402.2</ele>
        <time>2021-05-26T18:08:37.000Z</time>
      </trkpt>
      <trkpt lat="45.15002" lon="5.76687">
        <ele>401.9</ele>
        <time>2021-05-26T18:08:38.000Z</time>
      </trkpt>
      <trkpt lat="45.15002" lon="5.76686">
        <ele>401.7</ele>
        <time>2021-05-26T18:08:39.000Z</time>
      </trkpt>
      <trkpt lat="45.15003" lon="5.76685">
        <ele>401.4</ele>
        <time>2021-05-26T18:08:40.000Z</time>
      </trkpt>
      <trkpt lat="45.15004" lon="5.76683">
        <ele>401.2</ele>
        <time>2021-05-26T18:08:41.000Z</time>
      </trkpt>
      <trkpt lat="45.15005" lon="5.76682">
        <ele>400.9</ele>
        <time>2021-05-26T18:08:42.000Z</time>
      </trkpt>
      <trkpt lat="45.15005" lon="5.76681">
        <ele>400.7</ele>
        <time>2021-05-26T18:08:43.000Z</time>
      </trkpt>
      <trkpt lat="45.15006" lon="5.7668">
        <ele>400.5</ele>
        <time>2021-05-26T18:08:44.000Z</time>
      </trkpt>
      <trkpt lat="45.15007" lon="5.76678">
        <ele>400.2</ele>
        <time>2021-05-26T18:08:45.000Z</time>
      </trkpt>
      <trkpt lat="45.15007" lon="5.76677">
        <ele>400</ele>
        <time>2021-05-26T18:08:46.000Z</time>
      </trkpt>
      <trkpt lat="45.15008" lon="5.76676">
        <ele>399.8</ele>
        <time>2021-05-26T18:08:47.000Z</time>
      </trkpt>
      <trkpt lat="45.15009" lon="5.76675">
        <ele>399.6</ele>
        <time>2021-05-26T18:08:48.000Z</time>
      </trkpt>
      <trkpt lat="45.1501" lon="5.76675">
        <ele>399.4</ele>
        <time>2021-05-26T18:08:49.000Z</time>
      </trkpt>
      <trkpt lat="45.15011" lon="5.76674">
        <ele>399.2</ele>
        <time>2021-05-26T18:08:50.000Z</time>
      </trkpt>
      <trkpt lat="45.15011" lon="5.76674">
        <ele>399.1</ele>
        <time>2021-05-26T18:08:51.000Z</time>
      </trkpt>
      <trkpt lat="45.15012" lon="5.76674">
        <ele>398.9</ele>
        <time>2021-05-26T18:08:52.000Z</time>
      </trkpt>
      <trkpt lat="45.15013" lon="5.76673">
        <ele>398.7</ele>
        <time>2021-05-26T18:08:53.000Z</time>
      </trkpt>
      <trkpt lat="45.15019" lon="5.7667">
        <ele>397.5</ele>
        <time>2021-05-26T18:08:54.000Z</time>
      </trkpt>
      <trkpt lat="45.1502" lon="5.7667">
        <ele>397.3</ele>
        <time>2021-05-26T18:08:55.000Z</time>
      </trkpt>
      <trkpt lat="45.15021" lon="5.76671">
        <ele>397.1</ele>
        <time>2021-05-26T18:08:56.000Z</time>
      </trkpt>
      <trkpt lat="45.15022" lon="5.76671">
        <ele>397</ele>
        <time>2021-05-26T18:08:57.000Z</time>
      </trkpt>
      <trkpt lat="45.15023" lon="5.76671">
        <ele>396.8</ele>
        <time>2021-05-26T18:08:58.000Z</time>
      </trkpt>
      <trkpt lat="45.15024" lon="5.76671">
        <ele>396.6</ele>
        <time>2021-05-26T18:08:59.000Z</time>
      </trkpt>
      <trkpt lat="45.15031" lon="5.76672">
        <ele>395.3</ele>
        <time>2021-05-26T18:09:00.000Z</time>
      </trkpt>
      <trkpt lat="45.15031" lon="5.76672">
        <ele>395.1</ele>
        <time>2021-05-26T18:09:01.000Z</time>
      </trkpt>
      <trkpt lat="45.15032" lon="5.76671">
        <ele>395</ele>
        <time>2021-05-26T18:09:02.000Z</time>
      </trkpt>
      <trkpt lat="45.15033" lon="5.76671">
        <ele>394.8</ele>
        <time>2021-05-26T18:09:03.000Z</time>
      </trkpt>
      <trkpt lat="45.15034" lon="5.76671">
        <ele>394.7</ele>
        <time>2021-05-26T18:09:04.000Z</time>
      </trkpt>
      <trkpt lat="45.15041" lon="5.7667">
        <ele>392.8</ele>
        <time>2021-05-26T18:09:06.000Z</time>
      </trkpt>
      <trkpt lat="45.15042" lon="5.76669">
        <ele>392.7</ele>
        <time>2021-05-26T18:09:07.000Z</time>
      </trkpt>
      <trkpt lat="45.15042" lon="5.76669">
        <ele>392.6</ele>
        <time>2021-05-26T18:09:08.000Z</time>
      </trkpt>
      <trkpt lat="45.15043" lon="5.76669">
        <ele>392.5</ele>
        <time>2021-05-26T18:09:09.000Z</time>
      </trkpt>
      <trkpt lat="45.15043" lon="5.76668">
        <ele>392.4</ele>
        <time>2021-05-26T18:09:10.000Z</time>
      </trkpt>
      <trkpt lat="45.15044" lon="5.76668">
        <ele>392.2</ele>
        <time>2021-05-26T18:09:11.000Z</time>
      </trkpt>
      <trkpt lat="45.15044" lon="5.76668">
        <ele>392.1</ele>
        <time>2021-05-26T18:09:12.000Z</time>
      </trkpt>
      <trkpt lat="45.15044" lon="5.76668">
        <ele>392</ele>
        <time>2021-05-26T18:09:13.000Z</time>
      </trkpt>
      <trkpt lat="45.15045" lon="5.76667">
        <ele>391.9</ele>
        <time>2021-05-26T18:09:14.000Z</time>
      </trkpt>
      <trkpt lat="45.15045" lon="5.76667">
        <ele>391.7</ele>
        <time>2021-05-26T18:09:15.000Z</time>
      </trkpt>
      <trkpt lat="45.15046" lon="5.76667">
        <ele>391.6</ele>
        <time>2021-05-26T18:09:16.000Z</time>
      </trkpt>
      <trkpt lat="45.15046" lon="5.76666">
        <ele>391.5</ele>
        <time>2021-05-26T18:09:17.000Z</time>
      </trkpt>
      <trkpt lat="45.15051" lon="5.76661">
        <ele>389.8</ele>
        <time>2021-05-26T18:09:18.000Z</time>
      </trkpt>
      <trkpt lat="45.15052" lon="5.7666">
        <ele>389.5</ele>
        <time>2021-05-26T18:09:19.000Z</time>
      </trkpt>
      <trkpt lat="45.15052" lon="5.76658">
        <ele>389.2</ele>
        <time>2021-05-26T18:09:20.000Z</time>
      </trkpt>
      <trkpt lat="45.15052" lon="5.76656">
        <ele>388.9</ele>
        <time>2021-05-26T18:09:21.000Z</time>
      </trkpt>
      <trkpt lat="45.15052" lon="5.76655">
        <ele>388.6</ele>
        <time>2021-05-26T18:09:22.000Z</time>
      </trkpt>
      <trkpt lat="45.15054" lon="5.76646">
        <ele>387</ele>
        <time>2021-05-26T18:09:23.000Z</time>
      </trkpt>
      <trkpt lat="45.15054" lon="5.76645">
        <ele>386.8</ele>
        <time>2021-05-26T18:09:25.000Z</time>
      </trkpt>
      <trkpt lat="45.15055" lon="5.76644">
        <ele>386.5</ele>
        <time>2021-05-26T18:09:26.000Z</time>
      </trkpt>
      <trkpt lat="45.15056" lon="5.76643">
        <ele>386.3</ele>
        <time>2021-05-26T18:09:27.000Z</time>
      </trkpt>
      <trkpt lat="45.15057" lon="5.76642">
        <ele>386.1</ele>
        <time>2021-05-26T18:09:28.000Z</time>
      </trkpt>
      <trkpt lat="45.15057" lon="5.76641">
        <ele>385.8</ele>
        <time>2021-05-26T18:09:29.000Z</time>
      </trkpt>
      <trkpt lat="45.15063" lon="5.76635">
        <ele>384.4</ele>
        <time>2021-05-26T18:09:30.000Z</time>
      </trkpt>
      <trkpt lat="45.15064" lon="5.76635">
        <ele>384.2</ele>
        <time>2021-05-26T18:09:31.000Z</time>
      </trkpt>
      <trkpt lat="45.15065" lon="5.76635">
        <ele>384</ele>
        <time>2021-05-26T18:09:32.000Z</time>
      </trkpt>
      <trkpt lat="45.15066" lon="5.76635">
        <ele>383.8</ele>
        <time>2021-05-26T18:09:33.000Z</time>
      </trkpt>
      <trkpt lat="45.15067" lon="5.76634">
        <ele>383.6</ele>
        <time>2021-05-26T18:09:34.000Z</time>
      </trkpt>
      <trkpt lat="45.15067" lon="5.76634">
        <ele>383.5</ele>
        <time>2021-05-26T18:09:35.000Z</time>
      </trkpt>
      <trkpt lat="45.15074" lon="5.76633">
        <ele>382.3</ele>
        <time>2021-05-26T18:09:36.000Z</time>
      </trkpt>
      <trkpt lat="45.15074" lon="5.76632">
        <ele>382.2</ele>
        <time>2021-05-26T18:09:37.000Z</time>
      </trkpt>
      <trkpt lat="45.15075" lon="5.76632">
        <ele>382.1</ele>
        <time>2021-05-26T18:09:38.000Z</time>
      </trkpt>
      <trkpt lat="45.15075" lon="5.76632">
        <ele>377.9</ele>
        <time>2021-05-26T18:09:39.000Z</time>
      </trkpt>
      <trkpt lat="45.15076" lon="5.76632">
        <ele>377.7</ele>
        <time>2021-05-26T18:09:40.000Z</time>
      </trkpt>
      <trkpt lat="45.15077" lon="5.76631">
        <ele>377.6</ele>
        <time>2021-05-26T18:09:41.000Z</time>
      </trkpt>
      <trkpt lat="45.15077" lon="5.76631">
        <ele>377.5</ele>
        <time>2021-05-26T18:09:42.000Z</time>
      </trkpt>
      <trkpt lat="45.15078" lon="5.76631">
        <ele>377.3</ele>
        <time>2021-05-26T18:09:44.000Z</time>
      </trkpt>
      <trkpt lat="45.15078" lon="5.7663">
        <ele>377.2</ele>
        <time>2021-05-26T18:09:45.000Z</time>
      </trkpt>
      <trkpt lat="45.15085" lon="5.76627">
        <ele>375.9</ele>
        <time>2021-05-26T18:09:46.000Z</time>
      </trkpt>
      <trkpt lat="45.15086" lon="5.76627">
        <ele>375.7</ele>
        <time>2021-05-26T18:09:47.000Z</time>
      </trkpt>
      <trkpt lat="45.15086" lon="5.76627">
        <ele>375.5</ele>
        <time>2021-05-26T18:09:48.000Z</time>
      </trkpt>
      <trkpt lat="45.15087" lon="5.76626">
        <ele>375.3</ele>
        <time>2021-05-26T18:09:49.000Z</time>
      </trkpt>
      <trkpt lat="45.15088" lon="5.76626">
        <ele>375.1</ele>
        <time>2021-05-26T18:09:50.000Z</time>
      </trkpt>
      <trkpt lat="45.15089" lon="5.76626">
        <ele>375</ele>
        <time>2021-05-26T18:09:51.000Z</time>
      </trkpt>
      <trkpt lat="45.1509" lon="5.76625">
        <ele>374.8</ele>
        <time>2021-05-26T18:09:52.000Z</time>
      </trkpt>
      <trkpt lat="45.15096" lon="5.76622">
        <ele>373.4</ele>
        <time>2021-05-26T18:09:53.000Z</time>
      </trkpt>
      <trkpt lat="45.15097" lon="5.76621">
        <ele>373.2</ele>
        <time>2021-05-26T18:09:54.000Z</time>
      </trkpt>
      <trkpt lat="45.15098" lon="5.7662">
        <ele>373</ele>
        <time>2021-05-26T18:09:55.000Z</time>
      </trkpt>
      <trkpt lat="45.15098" lon="5.7662">
        <ele>372.9</ele>
        <time>2021-05-26T18:09:56.000Z</time>
      </trkpt>
      <trkpt lat="45.15099" lon="5.76619">
        <ele>372.7</ele>
        <time>2021-05-26T18:09:57.000Z</time>
      </trkpt>
      <trkpt lat="45.151" lon="5.76618">
        <ele>372.5</ele>
        <time>2021-05-26T18:09:58.000Z</time>
      </trkpt>
      <trkpt lat="45.15104" lon="5.76611">
        <ele>370.8</ele>
        <time>2021-05-26T18:09:59.000Z</time>
      </trkpt>
      <trkpt lat="45.15105" lon="5.7661">
        <ele>370.5</ele>
        <time>2021-05-26T18:10:00.000Z</time>
      </trkpt>
      <trkpt lat="45.15106" lon="5.76608">
        <ele>370.2</ele>
        <time>2021-05-26T18:10:01.000Z</time>
      </trkpt>
      <trkpt lat="45.15106" lon="5.76607">
        <ele>369.9</ele>
        <time>2021-05-26T18:10:03.000Z</time>
      </trkpt>
      <trkpt lat="45.15107" lon="5.76605">
        <ele>369.6</ele>
        <time>2021-05-26T18:10:04.000Z</time>
      </trkpt>
      <trkpt lat="45.15109" lon="5.76597">
        <ele>367.8</ele>
        <time>2021-05-26T18:10:05.000Z</time>
      </trkpt>
      <trkpt lat="45.1511" lon="5.76595">
        <ele>367</ele>
        <time>2021-05-26T18:10:06.000Z</time>
      </trkpt>
      <trkpt lat="45.1511" lon="5.76594">
        <ele>366.9</ele>
        <time>2021-05-26T18:10:07.000Z</time>
      </trkpt>
      <trkpt lat="45.15111" lon="5.76592">
        <ele>366.8</ele>
        <time>2021-05-26T18:10:08.000Z</time>
      </trkpt>
      <trkpt lat="45.15111" lon="5.7659">
        <ele>366.7</ele>
        <time>2021-05-26T18:10:09.000Z</time>
      </trkpt>
      <trkpt lat="45.15112" lon="5.76581">
        <ele>366.2</ele>
        <time>2021-05-26T18:10:10.000Z</time>
      </trkpt>
      <trkpt lat="45.15112" lon="5.7658">
        <ele>366.1</ele>
        <time>2021-05-26T18:10:11.000Z</time>
      </trkpt>
      <trkpt lat="45.15111" lon="5.76579">
        <ele>366.1</ele>
        <time>2021-05-26T18:10:12.000Z</time>
      </trkpt>
      <trkpt lat="45.15111" lon="5.76578">
        <ele>366</ele>
        <time>2021-05-26T18:10:13.000Z</time>
      </trkpt>
      <trkpt lat="45.1511" lon="5.76577">
        <ele>365.9</ele>
        <time>2021-05-26T18:10:14.000Z</time>
      </trkpt>
      <trkpt lat="45.1511" lon="5.76576">
        <ele>365.9</ele>
        <time>2021-05-26T18:10:15.000Z</time>
      </trkpt>
      <trkpt lat="45.1511" lon="5.76575">
        <ele>365.8</ele>
        <time>2021-05-26T18:10:16.000Z</time>
      </trkpt>
      <trkpt lat="45.15105" lon="5.76565">
        <ele>365.3</ele>
        <time>2021-05-26T18:10:17.000Z</time>
      </trkpt>
      <trkpt lat="45.15104" lon="5.76563">
        <ele>365.2</ele>
        <time>2021-05-26T18:10:18.000Z</time>
      </trkpt>
      <trkpt lat="45.15102" lon="5.76561">
        <ele>365.1</ele>
        <time>2021-05-26T18:10:19.000Z</time>
      </trkpt>
      <trkpt lat="45.15101" lon="5.76559">
        <ele>365</ele>
        <time>2021-05-26T18:10:20.000Z</time>
      </trkpt>
      <trkpt lat="45.15099" lon="5.76557">
        <ele>364.9</ele>
        <time>2021-05-26T18:10:22.000Z</time>
      </trkpt>
      <trkpt lat="45.15097" lon="5.76555">
        <ele>364.8</ele>
        <time>2021-05-26T18:10:23.000Z</time>
      </trkpt>
      <trkpt lat="45.15097" lon="5.76554">
        <ele>364.7</ele>
        <time>2021-05-26T18:10:24.000Z</time>
      </trkpt>
      <trkpt lat="45.15096" lon="5.76553">
        <ele>364.7</ele>
        <time>2021-05-26T18:10:25.000Z</time>
      </trkpt>
      <trkpt lat="45.15096" lon="5.76551">
        <ele>364.6</ele>
        <time>2021-05-26T18:10:26.000Z</time>
      </trkpt>
      <trkpt lat="45.15095" lon="5.7655">
        <ele>364.6</ele>
        <time>2021-05-26T18:10:27.000Z</time>
      </trkpt>
      <trkpt lat="45.15094" lon="5.76548">
        <ele>364.6</ele>
        <time>2021-05-26T18:10:28.000Z</time>
      </trkpt>
      <trkpt lat="45.15091" lon="5.7654">
        <ele>364.3</ele>
        <time>2021-05-26T18:10:29.000Z</time>
      </trkpt>
      <trkpt lat="45.1509" lon="5.76538">
        <ele>364.3</ele>
        <time>2021-05-26T18:10:30.000Z</time>
      </trkpt>
      <trkpt lat="45.1509" lon="5.76536">
        <ele>364.3</ele>
        <time>2021-05-26T18:10:31.000Z</time>
      </trkpt>
      <trkpt lat="45.15089" lon="5.76534">
        <ele>364.2</ele>
        <time>2021-05-26T18:10:32.000Z</time>
      </trkpt>
      <trkpt lat="45.15089" lon="5.76533">
        <ele>364.2</ele>
        <time>2021-05-26T18:10:33.000Z</time>
      </trkpt>
      <trkpt lat="45.15086" lon="5.76522">
        <ele>363.9</ele>
        <time>2021-05-26T18:10:34.000Z</time>
      </trkpt>
      <trkpt lat="45.15086" lon="5.7652">
        <ele>363.8</ele>
        <time>2021-05-26T18:10:35.000Z</time>
      </trkpt>
      <trkpt lat="45.15085" lon="5.76518">
        <ele>363.8</ele>
        <time>2021-05-26T18:10:36.000Z</time>
      </trkpt>
      <trkpt lat="45.15085" lon="5.76516">
        <ele>363.7</ele>
        <time>2021-05-26T18:10:37.000Z</time>
      </trkpt>
      <trkpt lat="45.15084" lon="5.76514">
        <ele>363.7</ele>
        <time>2021-05-26T18:10:38.000Z</time>
      </trkpt>
      <trkpt lat="45.15084" lon="5.76511">
        <ele>363.6</ele>
        <time>2021-05-26T18:10:39.000Z</time>
      </trkpt>
      <trkpt lat="45.15083" lon="5.76509">
        <ele>363.5</ele>
        <time>2021-05-26T18:10:40.000Z</time>
      </trkpt>
      <trkpt lat="45.15083" lon="5.76507">
        <ele>363.5</ele>
        <time>2021-05-26T18:10:41.000Z</time>
      </trkpt>
      <trkpt lat="45.15083" lon="5.76505">
        <ele>363.4</ele>
        <time>2021-05-26T18:10:42.000Z</time>
      </trkpt>
      <trkpt lat="45.15082" lon="5.76504">
        <ele>363.4</ele>
        <time>2021-05-26T18:10:43.000Z</time>
      </trkpt>
      <trkpt lat="45.15082" lon="5.76502">
        <ele>363.3</ele>
        <time>2021-05-26T18:10:44.000Z</time>
      </trkpt>
      <trkpt lat="45.15081" lon="5.765">
        <ele>363.2</ele>
        <time>2021-05-26T18:10:45.000Z</time>
      </trkpt>
      <trkpt lat="45.15079" lon="5.76491">
        <ele>363</ele>
        <time>2021-05-26T18:10:46.000Z</time>
      </trkpt>
      <trkpt lat="45.15079" lon="5.76491">
        <ele>363</ele>
        <time>2021-05-26T18:10:47.000Z</time>
      </trkpt>
      <trkpt lat="45.15079" lon="5.7649">
        <ele>362.9</ele>
        <time>2021-05-26T18:10:48.000Z</time>
      </trkpt>
      <trkpt lat="45.15079" lon="5.7649">
        <ele>362.9</ele>
        <time>2021-05-26T18:10:49.000Z</time>
      </trkpt>
      <trkpt lat="45.15078" lon="5.76489">
        <ele>362.9</ele>
        <time>2021-05-26T18:10:50.000Z</time>
      </trkpt>
      <trkpt lat="45.15078" lon="5.76488">
        <ele>362.9</ele>
        <time>2021-05-26T18:10:51.000Z</time>
      </trkpt>
      <trkpt lat="45.15078" lon="5.76488">
        <ele>362.8</ele>
        <time>2021-05-26T18:10:52.000Z</time>
      </trkpt>
      <trkpt lat="45.15078" lon="5.76487">
        <ele>362.8</ele>
        <time>2021-05-26T18:10:53.000Z</time>
      </trkpt>
      <trkpt lat="45.15077" lon="5.76487">
        <ele>362.8</ele>
        <time>2021-05-26T18:10:54.000Z</time>
      </trkpt>
      <trkpt lat="45.15077" lon="5.76486">
        <ele>362.8</ele>
        <time>2021-05-26T18:10:55.000Z</time>
      </trkpt>
      <trkpt lat="45.15077" lon="5.76486">
        <ele>362.8</ele>
        <time>2021-05-26T18:10:56.000Z</time>
      </trkpt>
      <trkpt lat="45.15076" lon="5.76485">
        <ele>362.7</ele>
        <time>2021-05-26T18:10:57.000Z</time>
      </trkpt>
      <trkpt lat="45.15073" lon="5.76476">
        <ele>362.4</ele>
        <time>2021-05-26T18:10:58.000Z</time>
      </trkpt>
      <trkpt lat="45.15073" lon="5.76474">
        <ele>362.3</ele>
        <time>2021-05-26T18:11:00.000Z</time>
      </trkpt>
      <trkpt lat="45.15073" lon="5.76472">
        <ele>362.2</ele>
        <time>2021-05-26T18:11:01.000Z</time>
      </trkpt>
      <trkpt lat="45.15073" lon="5.76469">
        <ele>362.2</ele>
        <time>2021-05-26T18:11:02.000Z</time>
      </trkpt>
      <trkpt lat="45.15072" lon="5.7646">
        <ele>361.9</ele>
        <time>2021-05-26T18:11:03.000Z</time>
      </trkpt>
      <trkpt lat="45.15072" lon="5.76459">
        <ele>361.6</ele>
        <time>2021-05-26T18:11:04.000Z</time>
      </trkpt>
      <trkpt lat="45.15071" lon="5.76458">
        <ele>361.5</ele>
        <time>2021-05-26T18:11:05.000Z</time>
      </trkpt>
      <trkpt lat="45.15071" lon="5.76457">
        <ele>361.5</ele>
        <time>2021-05-26T18:11:06.000Z</time>
      </trkpt>
      <trkpt lat="45.15071" lon="5.76456">
        <ele>361.5</ele>
        <time>2021-05-26T18:11:07.000Z</time>
      </trkpt>
      <trkpt lat="45.15071" lon="5.76455">
        <ele>361.5</ele>
        <time>2021-05-26T18:11:08.000Z</time>
      </trkpt>
      <trkpt lat="45.1507" lon="5.76454">
        <ele>361.4</ele>
        <time>2021-05-26T18:11:09.000Z</time>
      </trkpt>
      <trkpt lat="45.15069" lon="5.76445">
        <ele>361.2</ele>
        <time>2021-05-26T18:11:10.000Z</time>
      </trkpt>
      <trkpt lat="45.15069" lon="5.76444">
        <ele>361.2</ele>
        <time>2021-05-26T18:11:11.000Z</time>
      </trkpt>
      <trkpt lat="45.15069" lon="5.76442">
        <ele>361.2</ele>
        <time>2021-05-26T18:11:12.000Z</time>
      </trkpt>
      <trkpt lat="45.15069" lon="5.76441">
        <ele>361.1</ele>
        <time>2021-05-26T18:11:13.000Z</time>
      </trkpt>
      <trkpt lat="45.15069" lon="5.7644">
        <ele>361.1</ele>
        <time>2021-05-26T18:11:14.000Z</time>
      </trkpt>
      <trkpt lat="45.15069" lon="5.76438">
        <ele>361.1</ele>
        <time>2021-05-26T18:11:15.000Z</time>
      </trkpt>
      <trkpt lat="45.15069" lon="5.7643">
        <ele>360.8</ele>
        <time>2021-05-26T18:11:16.000Z</time>
      </trkpt>
      <trkpt lat="45.15069" lon="5.7643">
        <ele>360.8</ele>
        <time>2021-05-26T18:11:17.000Z</time>
      </trkpt>
      <trkpt lat="45.15068" lon="5.7643">
        <ele>360.8</ele>
        <time>2021-05-26T18:11:19.000Z</time>
      </trkpt>
      <trkpt lat="45.15068" lon="5.7643">
        <ele>360.7</ele>
        <time>2021-05-26T18:11:20.000Z</time>
      </trkpt>
      <trkpt lat="45.15068" lon="5.7643">
        <ele>360.7</ele>
        <time>2021-05-26T18:11:21.000Z</time>
      </trkpt>
      <trkpt lat="45.15067" lon="5.76429">
        <ele>360.7</ele>
        <time>2021-05-26T18:11:22.000Z</time>
      </trkpt>
      <trkpt lat="45.15067" lon="5.76429">
        <ele>360.7</ele>
        <time>2021-05-26T18:11:23.000Z</time>
      </trkpt>
      <trkpt lat="45.15066" lon="5.76429">
        <ele>360.7</ele>
        <time>2021-05-26T18:11:24.000Z</time>
      </trkpt>
      <trkpt lat="45.15066" lon="5.76429">
        <ele>360.7</ele>
        <time>2021-05-26T18:11:25.000Z</time>
      </trkpt>
      <trkpt lat="45.15066" lon="5.76429">
        <ele>360.6</ele>
        <time>2021-05-26T18:11:26.000Z</time>
      </trkpt>
      <trkpt lat="45.15065" lon="5.76429">
        <ele>360.6</ele>
        <time>2021-05-26T18:11:27.000Z</time>
      </trkpt>
      <trkpt lat="45.15065" lon="5.76428">
        <ele>360.6</ele>
        <time>2021-05-26T18:11:28.000Z</time>
      </trkpt>
      <trkpt lat="45.15064" lon="5.76428">
        <ele>360.6</ele>
        <time>2021-05-26T18:11:29.000Z</time>
      </trkpt>
      <trkpt lat="45.15058" lon="5.76425">
        <ele>360.3</ele>
        <time>2021-05-26T18:11:30.000Z</time>
      </trkpt>
      <trkpt lat="45.15058" lon="5.76424">
        <ele>360.2</ele>
        <time>2021-05-26T18:11:31.000Z</time>
      </trkpt>
      <trkpt lat="45.15057" lon="5.76423">
        <ele>360.2</ele>
        <time>2021-05-26T18:11:32.000Z</time>
      </trkpt>
      <trkpt lat="45.15056" lon="5.76421">
        <ele>360.1</ele>
        <time>2021-05-26T18:11:33.000Z</time>
      </trkpt>
      <trkpt lat="45.15055" lon="5.7642">
        <ele>360.1</ele>
        <time>2021-05-26T18:11:34.000Z</time>
      </trkpt>
      <trkpt lat="45.15051" lon="5.76413">
        <ele>359.8</ele>
        <time>2021-05-26T18:11:35.000Z</time>
      </trkpt>
      <trkpt lat="45.15051" lon="5.7641">
        <ele>359.7</ele>
        <time>2021-05-26T18:11:36.000Z</time>
      </trkpt>
      <trkpt lat="45.1505" lon="5.76408">
        <ele>359.6</ele>
        <time>2021-05-26T18:11:38.000Z</time>
      </trkpt>
      <trkpt lat="45.1505" lon="5.76406">
        <ele>359.6</ele>
        <time>2021-05-26T18:11:39.000Z</time>
      </trkpt>
      <trkpt lat="45.15048" lon="5.76394">
        <ele>359.2</ele>
        <time>2021-05-26T18:11:40.000Z</time>
      </trkpt>
      <trkpt lat="45.15049" lon="5.76392">
        <ele>359.2</ele>
        <time>2021-05-26T18:11:41.000Z</time>
      </trkpt>
      <trkpt lat="45.15049" lon="5.76389">
        <ele>359.1</ele>
        <time>2021-05-26T18:11:42.000Z</time>
      </trkpt>
      <trkpt lat="45.15051" lon="5.7638">
        <ele>358.9</ele>
        <time>2021-05-26T18:11:43.000Z</time>
      </trkpt>
      <trkpt lat="45.15051" lon="5.76378">
        <ele>358.8</ele>
        <time>2021-05-26T18:11:44.000Z</time>
      </trkpt>
      <trkpt lat="45.15052" lon="5.76377">
        <ele>358.8</ele>
        <time>2021-05-26T18:11:45.000Z</time>
      </trkpt>
      <trkpt lat="45.15052" lon="5.76375">
        <ele>358.7</ele>
        <time>2021-05-26T18:11:46.000Z</time>
      </trkpt>
      <trkpt lat="45.15052" lon="5.76374">
        <ele>358.7</ele>
        <time>2021-05-26T18:11:47.000Z</time>
      </trkpt>
      <trkpt lat="45.15052" lon="5.76372">
        <ele>358.7</ele>
        <time>2021-05-26T18:11:48.000Z</time>
      </trkpt>
      <trkpt lat="45.15054" lon="5.76362">
        <ele>358.4</ele>
        <time>2021-05-26T18:11:49.000Z</time>
      </trkpt>
      <trkpt lat="45.15054" lon="5.7636">
        <ele>358.4</ele>
        <time>2021-05-26T18:11:50.000Z</time>
      </trkpt>
      <trkpt lat="45.15054" lon="5.76358">
        <ele>358.3</ele>
        <time>2021-05-26T18:11:51.000Z</time>
      </trkpt>
      <trkpt lat="45.15054" lon="5.76357">
        <ele>358.3</ele>
        <time>2021-05-26T18:11:52.000Z</time>
      </trkpt>
      <trkpt lat="45.15054" lon="5.76355">
        <ele>358.3</ele>
        <time>2021-05-26T18:11:53.000Z</time>
      </trkpt>
      <trkpt lat="45.15056" lon="5.76344">
        <ele>357.8</ele>
        <time>2021-05-26T18:11:54.000Z</time>
      </trkpt>
      <trkpt lat="45.15057" lon="5.76342">
        <ele>357.6</ele>
        <time>2021-05-26T18:11:55.000Z</time>
      </trkpt>
      <trkpt lat="45.15058" lon="5.76341">
        <ele>357.5</ele>
        <time>2021-05-26T18:11:57.000Z</time>
      </trkpt>
      <trkpt lat="45.15058" lon="5.76339">
        <ele>357.4</ele>
        <time>2021-05-26T18:11:58.000Z</time>
      </trkpt>
      <trkpt lat="45.15062" lon="5.7633">
        <ele>356.7</ele>
        <time>2021-05-26T18:11:59.000Z</time>
      </trkpt>
      <trkpt lat="45.15062" lon="5.7633">
        <ele>356.6</ele>
        <time>2021-05-26T18:12:00.000Z</time>
      </trkpt>
      <trkpt lat="45.15063" lon="5.76329">
        <ele>356.5</ele>
        <time>2021-05-26T18:12:01.000Z</time>
      </trkpt>
      <trkpt lat="45.15063" lon="5.76328">
        <ele>356.4</ele>
        <time>2021-05-26T18:12:02.000Z</time>
      </trkpt>
      <trkpt lat="45.15064" lon="5.76328">
        <ele>356.3</ele>
        <time>2021-05-26T18:12:03.000Z</time>
      </trkpt>
      <trkpt lat="45.15064" lon="5.76327">
        <ele>356.2</ele>
        <time>2021-05-26T18:12:04.000Z</time>
      </trkpt>
      <trkpt lat="45.15065" lon="5.76327">
        <ele>356.1</ele>
        <time>2021-05-26T18:12:05.000Z</time>
      </trkpt>
      <trkpt lat="45.15065" lon="5.76326">
        <ele>356</ele>
        <time>2021-05-26T18:12:06.000Z</time>
      </trkpt>
      <trkpt lat="45.1507" lon="5.76319">
        <ele>354.9</ele>
        <time>2021-05-26T18:12:07.000Z</time>
      </trkpt>
      <trkpt lat="45.1507" lon="5.76317">
        <ele>354.7</ele>
        <time>2021-05-26T18:12:08.000Z</time>
      </trkpt>
      <trkpt lat="45.15071" lon="5.76316">
        <ele>354.5</ele>
        <time>2021-05-26T18:12:09.000Z</time>
      </trkpt>
      <trkpt lat="45.15071" lon="5.76314">
        <ele>354.3</ele>
        <time>2021-05-26T18:12:10.000Z</time>
      </trkpt>
      <trkpt lat="45.15072" lon="5.76313">
        <ele>354</ele>
        <time>2021-05-26T18:12:11.000Z</time>
      </trkpt>
      <trkpt lat="45.15072" lon="5.76311">
        <ele>353.8</ele>
        <time>2021-05-26T18:12:12.000Z</time>
      </trkpt>
      <trkpt lat="45.15072" lon="5.76309">
        <ele>353.6</ele>
        <time>2021-05-26T18:12:13.000Z</time>
      </trkpt>
      <trkpt lat="45.15073" lon="5.76308">
        <ele>353.4</ele>
        <time>2021-05-26T18:12:14.000Z</time>
      </trkpt>
      <trkpt lat="45.15073" lon="5.76306">
        <ele>353.2</ele>
        <time>2021-05-26T18:12:15.000Z</time>
      </trkpt>
      <trkpt lat="45.15074" lon="5.76304">
        <ele>352.9</ele>
        <time>2021-05-26T18:12:16.000Z</time>
      </trkpt>
      <trkpt lat="45.15073" lon="5.76304">
        <ele>352.8</ele>
        <time>2021-05-26T18:12:17.000Z</time>
      </trkpt>
      <trkpt lat="45.15073" lon="5.76303">
        <ele>352.7</ele>
        <time>2021-05-26T18:12:18.000Z</time>
      </trkpt>
      <trkpt lat="45.15073" lon="5.76302">
        <ele>352.6</ele>
        <time>2021-05-26T18:12:19.000Z</time>
      </trkpt>
      <trkpt lat="45.15072" lon="5.76302">
        <ele>352.5</ele>
        <time>2021-05-26T18:12:20.000Z</time>
      </trkpt>
      <trkpt lat="45.15072" lon="5.76301">
        <ele>352.4</ele>
        <time>2021-05-26T18:12:21.000Z</time>
      </trkpt>
      <trkpt lat="45.15072" lon="5.763">
        <ele>352.3</ele>
        <time>2021-05-26T18:12:22.000Z</time>
      </trkpt>
      <trkpt lat="45.15071" lon="5.763">
        <ele>352.2</ele>
        <time>2021-05-26T18:12:23.000Z</time>
      </trkpt>
      <trkpt lat="45.15071" lon="5.76299">
        <ele>352.1</ele>
        <time>2021-05-26T18:12:24.000Z</time>
      </trkpt>
      <trkpt lat="45.1507" lon="5.76298">
        <ele>351.9</ele>
        <time>2021-05-26T18:12:25.000Z</time>
      </trkpt>
      <trkpt lat="45.15068" lon="5.76292">
        <ele>350.9</ele>
        <time>2021-05-26T18:12:26.000Z</time>
      </trkpt>
      <trkpt lat="45.15068" lon="5.76291">
        <ele>350.6</ele>
        <time>2021-05-26T18:12:27.000Z</time>
      </trkpt>
      <trkpt lat="45.15068" lon="5.76291">
        <ele>350.4</ele>
        <time>2021-05-26T18:12:28.000Z</time>
      </trkpt>
      <trkpt lat="45.15069" lon="5.76291">
        <ele>350.3</ele>
        <time>2021-05-26T18:12:29.000Z</time>
      </trkpt>
      <trkpt lat="45.15069" lon="5.7629">
        <ele>350.1</ele>
        <time>2021-05-26T18:12:30.000Z</time>
      </trkpt>
      <trkpt lat="45.1507" lon="5.7629">
        <ele>349.9</ele>
        <time>2021-05-26T18:12:31.000Z</time>
      </trkpt>
      <trkpt lat="45.1507" lon="5.76289">
        <ele>349.8</ele>
        <time>2021-05-26T18:12:32.000Z</time>
      </trkpt>
      <trkpt lat="45.1507" lon="5.76289">
        <ele>349.6</ele>
        <time>2021-05-26T18:12:33.000Z</time>
      </trkpt>
      <trkpt lat="45.15078" lon="5.76284">
        <ele>346.5</ele>
        <time>2021-05-26T18:12:35.000Z</time>
      </trkpt>
      <trkpt lat="45.15079" lon="5.76284">
        <ele>346</ele>
        <time>2021-05-26T18:12:36.000Z</time>
      </trkpt>
      <trkpt lat="45.1508" lon="5.76284">
        <ele>345.5</ele>
        <time>2021-05-26T18:12:37.000Z</time>
      </trkpt>
      <trkpt lat="45.15082" lon="5.76284">
        <ele>345</ele>
        <time>2021-05-26T18:12:38.000Z</time>
      </trkpt>
      <trkpt lat="45.15083" lon="5.76284">
        <ele>344.4</ele>
        <time>2021-05-26T18:12:39.000Z</time>
      </trkpt>
      <trkpt lat="45.1509" lon="5.76285">
        <ele>341.4</ele>
        <time>2021-05-26T18:12:40.000Z</time>
      </trkpt>
      <trkpt lat="45.15091" lon="5.76285">
        <ele>341</ele>
        <time>2021-05-26T18:12:41.000Z</time>
      </trkpt>
      <trkpt lat="45.15091" lon="5.76285">
        <ele>340.7</ele>
        <time>2021-05-26T18:12:42.000Z</time>
      </trkpt>
      <trkpt lat="45.15092" lon="5.76285">
        <ele>340.4</ele>
        <time>2021-05-26T18:12:43.000Z</time>
      </trkpt>
      <trkpt lat="45.15093" lon="5.76285">
        <ele>340.1</ele>
        <time>2021-05-26T18:12:44.000Z</time>
      </trkpt>
      <trkpt lat="45.15094" lon="5.76285">
        <ele>339.7</ele>
        <time>2021-05-26T18:12:45.000Z</time>
      </trkpt>
      <trkpt lat="45.15094" lon="5.76284">
        <ele>339.4</ele>
        <time>2021-05-26T18:12:46.000Z</time>
      </trkpt>
      <trkpt lat="45.15095" lon="5.76284">
        <ele>339.1</ele>
        <time>2021-05-26T18:12:47.000Z</time>
      </trkpt>
      <trkpt lat="45.15101" lon="5.76283">
        <ele>336.3</ele>
        <time>2021-05-26T18:12:48.000Z</time>
      </trkpt>
      <trkpt lat="45.15101" lon="5.76282">
        <ele>336.1</ele>
        <time>2021-05-26T18:12:49.000Z</time>
      </trkpt>
      <trkpt lat="45.15102" lon="5.76282">
        <ele>335.9</ele>
        <time>2021-05-26T18:12:50.000Z</time>
      </trkpt>
      <trkpt lat="45.15102" lon="5.76282">
        <ele>335.7</ele>
        <time>2021-05-26T18:12:51.000Z</time>
      </trkpt>
      <trkpt lat="45.15103" lon="5.76281">
        <ele>335.5</ele>
        <time>2021-05-26T18:12:52.000Z</time>
      </trkpt>
      <trkpt lat="45.15103" lon="5.76281">
        <ele>335.3</ele>
        <time>2021-05-26T18:12:54.000Z</time>
      </trkpt>
      <trkpt lat="45.15103" lon="5.76281">
        <ele>335.1</ele>
        <time>2021-05-26T18:12:55.000Z</time>
      </trkpt>
      <trkpt lat="45.15104" lon="5.76281">
        <ele>334.9</ele>
        <time>2021-05-26T18:12:56.000Z</time>
      </trkpt>
      <trkpt lat="45.15104" lon="5.7628">
        <ele>334.7</ele>
        <time>2021-05-26T18:12:57.000Z</time>
      </trkpt>
      <trkpt lat="45.15104" lon="5.7628">
        <ele>334.5</ele>
        <time>2021-05-26T18:12:58.000Z</time>
      </trkpt>
      <trkpt lat="45.15105" lon="5.7628">
        <ele>334.3</ele>
        <time>2021-05-26T18:12:59.000Z</time>
      </trkpt>
      <trkpt lat="45.15105" lon="5.76279">
        <ele>334.1</ele>
        <time>2021-05-26T18:13:00.000Z</time>
      </trkpt>
      <trkpt lat="45.15106" lon="5.76279">
        <ele>333.9</ele>
        <time>2021-05-26T18:13:01.000Z</time>
      </trkpt>
      <trkpt lat="45.15111" lon="5.76275">
        <ele>331.1</ele>
        <time>2021-05-26T18:13:02.000Z</time>
      </trkpt>
      <trkpt lat="45.15111" lon="5.76275">
        <ele>330.8</ele>
        <time>2021-05-26T18:13:03.000Z</time>
      </trkpt>
      <trkpt lat="45.15111" lon="5.76275">
        <ele>330.7</ele>
        <time>2021-05-26T18:13:04.000Z</time>
      </trkpt>
      <trkpt lat="45.15112" lon="5.76274">
        <ele>330.5</ele>
        <time>2021-05-26T18:13:05.000Z</time>
      </trkpt>
      <trkpt lat="45.15112" lon="5.76274">
        <ele>330.3</ele>
        <time>2021-05-26T18:13:07.000Z</time>
      </trkpt>
      <trkpt lat="45.15113" lon="5.76274">
        <ele>330.1</ele>
        <time>2021-05-26T18:13:08.000Z</time>
      </trkpt>
      <trkpt lat="45.15113" lon="5.76274">
        <ele>329.9</ele>
        <time>2021-05-26T18:13:09.000Z</time>
      </trkpt>
      <trkpt lat="45.15113" lon="5.76273">
        <ele>329.7</ele>
        <time>2021-05-26T18:13:10.000Z</time>
      </trkpt>
      <trkpt lat="45.15114" lon="5.76273">
        <ele>329.5</ele>
        <time>2021-05-26T18:13:11.000Z</time>
      </trkpt>
      <trkpt lat="45.15114" lon="5.76273">
        <ele>329.4</ele>
        <time>2021-05-26T18:13:13.000Z</time>
      </trkpt>
      <trkpt lat="45.15114" lon="5.76273">
        <ele>329.2</ele>
        <time>2021-05-26T18:13:14.000Z</time>
      </trkpt>
      <trkpt lat="45.15115" lon="5.76272">
        <ele>329</ele>
        <time>2021-05-26T18:13:15.000Z</time>
      </trkpt>
      <trkpt lat="45.15115" lon="5.76272">
        <ele>328.8</ele>
        <time>2021-05-26T18:13:16.000Z</time>
      </trkpt>
      <trkpt lat="45.15115" lon="5.76272">
        <ele>328.6</ele>
        <time>2021-05-26T18:13:17.000Z</time>
      </trkpt>
      <trkpt lat="45.15116" lon="5.76272">
        <ele>328.4</ele>
        <time>2021-05-26T18:13:18.000Z</time>
      </trkpt>
      <trkpt lat="45.15116" lon="5.76271">
        <ele>328.2</ele>
        <time>2021-05-26T18:13:19.000Z</time>
      </trkpt>
      <trkpt lat="45.15122" lon="5.76267">
        <ele>324.8</ele>
        <time>2021-05-26T18:13:20.000Z</time>
      </trkpt>
      <trkpt lat="45.15123" lon="5.76266">
        <ele>324.4</ele>
        <time>2021-05-26T18:13:21.000Z</time>
      </trkpt>
      <trkpt lat="45.15123" lon="5.76264">
        <ele>323.9</ele>
        <time>2021-05-26T18:13:22.000Z</time>
      </trkpt>
      <trkpt lat="45.15124" lon="5.76263">
        <ele>323.5</ele>
        <time>2021-05-26T18:13:23.000Z</time>
      </trkpt>
      <trkpt lat="45.15124" lon="5.76262">
        <ele>323.1</ele>
        <time>2021-05-26T18:13:24.000Z</time>
      </trkpt>
      <trkpt lat="45.15125" lon="5.76261">
        <ele>322.7</ele>
        <time>2021-05-26T18:13:25.000Z</time>
      </trkpt>
      <trkpt lat="45.15125" lon="5.7626">
        <ele>322.3</ele>
        <time>2021-05-26T18:13:26.000Z</time>
      </trkpt>
      <trkpt lat="45.15126" lon="5.76259">
        <ele>321.9</ele>
        <time>2021-05-26T18:13:27.000Z</time>
      </trkpt>
      <trkpt lat="45.15126" lon="5.76258">
        <ele>321.5</ele>
        <time>2021-05-26T18:13:28.000Z</time>
      </trkpt>
      <trkpt lat="45.15127" lon="5.76257">
        <ele>321.1</ele>
        <time>2021-05-26T18:13:29.000Z</time>
      </trkpt>
      <trkpt lat="45.15128" lon="5.76256">
        <ele>320.7</ele>
        <time>2021-05-26T18:13:30.000Z</time>
      </trkpt>
      <trkpt lat="45.15128" lon="5.76255">
        <ele>320.4</ele>
        <time>2021-05-26T18:13:32.000Z</time>
      </trkpt>
      <trkpt lat="45.15129" lon="5.76254">
        <ele>319.9</ele>
        <time>2021-05-26T18:13:33.000Z</time>
      </trkpt>
      <trkpt lat="45.15129" lon="5.76252">
        <ele>319.5</ele>
        <time>2021-05-26T18:13:34.000Z</time>
      </trkpt>
      <trkpt lat="45.1513" lon="5.76251">
        <ele>319</ele>
        <time>2021-05-26T18:13:35.000Z</time>
      </trkpt>
      <trkpt lat="45.15131" lon="5.7625">
        <ele>318.5</ele>
        <time>2021-05-26T18:13:36.000Z</time>
      </trkpt>
      <trkpt lat="45.15131" lon="5.76248">
        <ele>318</ele>
        <time>2021-05-26T18:13:37.000Z</time>
      </trkpt>
      <trkpt lat="45.15132" lon="5.76247">
        <ele>317.6</ele>
        <time>2021-05-26T18:13:38.000Z</time>
      </trkpt>
      <trkpt lat="45.15136" lon="5.76238">
        <ele>315.2</ele>
        <time>2021-05-26T18:13:39.000Z</time>
      </trkpt>
      <trkpt lat="45.15136" lon="5.76237">
        <ele>314.9</ele>
        <time>2021-05-26T18:13:40.000Z</time>
      </trkpt>
      <trkpt lat="45.15137" lon="5.76237">
        <ele>314.6</ele>
        <time>2021-05-26T18:13:41.000Z</time>
      </trkpt>
      <trkpt lat="45.15138" lon="5.76236">
        <ele>314.3</ele>
        <time>2021-05-26T18:13:42.000Z</time>
      </trkpt>
      <trkpt lat="45.15138" lon="5.76235">
        <ele>314</ele>
        <time>2021-05-26T18:13:43.000Z</time>
      </trkpt>
      <trkpt lat="45.15139" lon="5.76234">
        <ele>313.8</ele>
        <time>2021-05-26T18:13:44.000Z</time>
      </trkpt>
      <trkpt lat="45.1514" lon="5.76233">
        <ele>313.5</ele>
        <time>2021-05-26T18:13:45.000Z</time>
      </trkpt>
      <trkpt lat="45.15146" lon="5.76224">
        <ele>310.8</ele>
        <time>2021-05-26T18:13:46.000Z</time>
      </trkpt>
      <trkpt lat="45.15147" lon="5.76222">
        <ele>310.1</ele>
        <time>2021-05-26T18:13:47.000Z</time>
      </trkpt>
      <trkpt lat="45.15148" lon="5.76219">
        <ele>309.4</ele>
        <time>2021-05-26T18:13:48.000Z</time>
      </trkpt>
      <trkpt lat="45.15149" lon="5.76216">
        <ele>308.6</ele>
        <time>2021-05-26T18:13:49.000Z</time>
      </trkpt>
      <trkpt lat="45.15151" lon="5.76214">
        <ele>307.9</ele>
        <time>2021-05-26T18:13:51.000Z</time>
      </trkpt>
      <trkpt lat="45.15152" lon="5.76211">
        <ele>307.1</ele>
        <time>2021-05-26T18:13:52.000Z</time>
      </trkpt>
      <trkpt lat="45.15153" lon="5.76211">
        <ele>306.8</ele>
        <time>2021-05-26T18:13:53.000Z</time>
      </trkpt>
      <trkpt lat="45.15153" lon="5.7621">
        <ele>306.5</ele>
        <time>2021-05-26T18:13:54.000Z</time>
      </trkpt>
      <trkpt lat="45.15154" lon="5.7621">
        <ele>306.2</ele>
        <time>2021-05-26T18:13:55.000Z</time>
      </trkpt>
      <trkpt lat="45.15155" lon="5.76209">
        <ele>306</ele>
        <time>2021-05-26T18:13:56.000Z</time>
      </trkpt>
      <trkpt lat="45.15156" lon="5.76209">
        <ele>305.7</ele>
        <time>2021-05-26T18:13:57.000Z</time>
      </trkpt>
      <trkpt lat="45.15156" lon="5.76208">
        <ele>305.4</ele>
        <time>2021-05-26T18:13:58.000Z</time>
      </trkpt>
      <trkpt lat="45.15157" lon="5.76208">
        <ele>305.1</ele>
        <time>2021-05-26T18:13:59.000Z</time>
      </trkpt>
      <trkpt lat="45.15163" lon="5.76204">
        <ele>302.9</ele>
        <time>2021-05-26T18:14:00.000Z</time>
      </trkpt>
      <trkpt lat="45.15164" lon="5.76204">
        <ele>302.6</ele>
        <time>2021-05-26T18:14:01.000Z</time>
      </trkpt>
      <trkpt lat="45.15165" lon="5.76204">
        <ele>302.4</ele>
        <time>2021-05-26T18:14:02.000Z</time>
      </trkpt>
      <trkpt lat="45.15165" lon="5.76204">
        <ele>302.2</ele>
        <time>2021-05-26T18:14:03.000Z</time>
      </trkpt>
      <trkpt lat="45.15166" lon="5.76203">
        <ele>301.9</ele>
        <time>2021-05-26T18:14:04.000Z</time>
      </trkpt>
      <trkpt lat="45.15167" lon="5.76203">
        <ele>301.7</ele>
        <time>2021-05-26T18:14:05.000Z</time>
      </trkpt>
      <trkpt lat="45.15168" lon="5.76203">
        <ele>301.4</ele>
        <time>2021-05-26T18:14:06.000Z</time>
      </trkpt>
      <trkpt lat="45.15174" lon="5.762">
        <ele>299.5</ele>
        <time>2021-05-26T18:14:07.000Z</time>
      </trkpt>
      <trkpt lat="45.15176" lon="5.76199">
        <ele>299.2</ele>
        <time>2021-05-26T18:14:08.000Z</time>
      </trkpt>
      <trkpt lat="45.15177" lon="5.76199">
        <ele>298.9</ele>
        <time>2021-05-26T18:14:10.000Z</time>
      </trkpt>
      <trkpt lat="45.15178" lon="5.76198">
        <ele>298.6</ele>
        <time>2021-05-26T18:14:11.000Z</time>
      </trkpt>
      <trkpt lat="45.15184" lon="5.76195">
        <ele>297.3</ele>
        <time>2021-05-26T18:14:12.000Z</time>
      </trkpt>
      <trkpt lat="45.15185" lon="5.76195">
        <ele>297.2</ele>
        <time>2021-05-26T18:14:13.000Z</time>
      </trkpt>
      <trkpt lat="45.15185" lon="5.76195">
        <ele>297</ele>
        <time>2021-05-26T18:14:14.000Z</time>
      </trkpt>
      <trkpt lat="45.15186" lon="5.76195">
        <ele>296.9</ele>
        <time>2021-05-26T18:14:15.000Z</time>
      </trkpt>
      <trkpt lat="45.15187" lon="5.76195">
        <ele>296.8</ele>
        <time>2021-05-26T18:14:16.000Z</time>
      </trkpt>
      <trkpt lat="45.15188" lon="5.76196">
        <ele>296.6</ele>
        <time>2021-05-26T18:14:17.000Z</time>
      </trkpt>
      <trkpt lat="45.15189" lon="5.76196">
        <ele>296.5</ele>
        <time>2021-05-26T18:14:18.000Z</time>
      </trkpt>
      <trkpt lat="45.15195" lon="5.76197">
        <ele>295.5</ele>
        <time>2021-05-26T18:14:19.000Z</time>
      </trkpt>
      <trkpt lat="45.15196" lon="5.76196">
        <ele>295.4</ele>
        <time>2021-05-26T18:14:20.000Z</time>
      </trkpt>
      <trkpt lat="45.15197" lon="5.76195">
        <ele>295.2</ele>
        <time>2021-05-26T18:14:21.000Z</time>
      </trkpt>
      <trkpt lat="45.15198" lon="5.76194">
        <ele>295.1</ele>
        <time>2021-05-26T18:14:22.000Z</time>
      </trkpt>
      <trkpt lat="45.15199" lon="5.76193">
        <ele>294.9</ele>
        <time>2021-05-26T18:14:23.000Z</time>
      </trkpt>
      <trkpt lat="45.152" lon="5.76192">
        <ele>294.8</ele>
        <time>2021-05-26T18:14:24.000Z</time>
      </trkpt>
      <trkpt lat="45.15201" lon="5.76191">
        <ele>294.6</ele>
        <time>2021-05-26T18:14:25.000Z</time>
      </trkpt>
      <trkpt lat="45.15202" lon="5.7619">
        <ele>294.5</ele>
        <time>2021-05-26T18:14:26.000Z</time>
      </trkpt>
      <trkpt lat="45.15203" lon="5.76189">
        <ele>294.4</ele>
        <time>2021-05-26T18:14:27.000Z</time>
      </trkpt>
      <trkpt lat="45.15204" lon="5.76188">
        <ele>294.2</ele>
        <time>2021-05-26T18:14:28.000Z</time>
      </trkpt>
      <trkpt lat="45.15205" lon="5.76188">
        <ele>294.1</ele>
        <time>2021-05-26T18:14:29.000Z</time>
      </trkpt>
      <trkpt lat="45.15205" lon="5.76187">
        <ele>294</ele>
        <time>2021-05-26T18:14:30.000Z</time>
      </trkpt>
      <trkpt lat="45.15206" lon="5.76186">
        <ele>293.9</ele>
        <time>2021-05-26T18:14:31.000Z</time>
      </trkpt>
      <trkpt lat="45.15207" lon="5.76185">
        <ele>293.8</ele>
        <time>2021-05-26T18:14:32.000Z</time>
      </trkpt>
      <trkpt lat="45.15207" lon="5.76184">
        <ele>293.7</ele>
        <time>2021-05-26T18:14:33.000Z</time>
      </trkpt>
      <trkpt lat="45.15208" lon="5.76183">
        <ele>293.6</ele>
        <time>2021-05-26T18:14:34.000Z</time>
      </trkpt>
      <trkpt lat="45.15209" lon="5.76182">
        <ele>293.5</ele>
        <time>2021-05-26T18:14:35.000Z</time>
      </trkpt>
      <trkpt lat="45.15214" lon="5.76178">
        <ele>293.1</ele>
        <time>2021-05-26T18:14:36.000Z</time>
      </trkpt>
      <trkpt lat="45.15214" lon="5.76179">
        <ele>292.6</ele>
        <time>2021-05-26T18:14:37.000Z</time>
      </trkpt>
      <trkpt lat="45.15215" lon="5.76181">
        <ele>292.7</ele>
        <time>2021-05-26T18:14:38.000Z</time>
      </trkpt>
      <trkpt lat="45.1522" lon="5.76188">
        <ele>291.9</ele>
        <time>2021-05-26T18:14:40.000Z</time>
      </trkpt>
      <trkpt lat="45.15231" lon="5.76197">
        <ele>290.5</ele>
        <time>2021-05-26T18:14:42.000Z</time>
      </trkpt>
      <trkpt lat="45.15233" lon="5.76198">
        <ele>290</ele>
        <time>2021-05-26T18:14:43.000Z</time>
      </trkpt>
      <trkpt lat="45.15236" lon="5.76199">
        <ele>289.9</ele>
        <time>2021-05-26T18:14:44.000Z</time>
      </trkpt>
      <trkpt lat="45.15239" lon="5.76201">
        <ele>289.4</ele>
        <time>2021-05-26T18:14:45.000Z</time>
      </trkpt>
      <trkpt lat="45.15242" lon="5.76202">
        <ele>289.5</ele>
        <time>2021-05-26T18:14:46.000Z</time>
      </trkpt>
      <trkpt lat="45.15244" lon="5.76203">
        <ele>289.4</ele>
        <time>2021-05-26T18:14:47.000Z</time>
      </trkpt>
      <trkpt lat="45.15249" lon="5.76206">
        <ele>288.2</ele>
        <time>2021-05-26T18:14:49.000Z</time>
      </trkpt>
      <trkpt lat="45.15249" lon="5.76206">
        <ele>288.3</ele>
        <time>2021-05-26T18:14:50.000Z</time>
      </trkpt>
      <trkpt lat="45.15249" lon="5.76206">
        <ele>288.4</ele>
        <time>2021-05-26T18:14:51.000Z</time>
      </trkpt>
      <trkpt lat="45.15253" lon="5.76209">
        <ele>288.2</ele>
        <time>2021-05-26T18:14:52.000Z</time>
      </trkpt>
      <trkpt lat="45.15254" lon="5.76209">
        <ele>288.3</ele>
        <time>2021-05-26T18:14:53.000Z</time>
      </trkpt>
      <trkpt lat="45.15255" lon="5.7621">
        <ele>287.7</ele>
        <time>2021-05-26T18:14:54.000Z</time>
      </trkpt>
      <trkpt lat="45.15256" lon="5.7621">
        <ele>287.8</ele>
        <time>2021-05-26T18:14:55.000Z</time>
      </trkpt>
      <trkpt lat="45.15257" lon="5.76211">
        <ele>287.3</ele>
        <time>2021-05-26T18:14:56.000Z</time>
      </trkpt>
      <trkpt lat="45.15258" lon="5.76211">
        <ele>287.4</ele>
        <time>2021-05-26T18:14:57.000Z</time>
      </trkpt>
      <trkpt lat="45.1526" lon="5.76211">
        <ele>287.5</ele>
        <time>2021-05-26T18:14:58.000Z</time>
      </trkpt>
      <trkpt lat="45.15261" lon="5.76211">
        <ele>287</ele>
        <time>2021-05-26T18:14:59.000Z</time>
      </trkpt>
      <trkpt lat="45.15262" lon="5.76211">
        <ele>287.1</ele>
        <time>2021-05-26T18:15:00.000Z</time>
      </trkpt>
      <trkpt lat="45.15266" lon="5.7621">
        <ele>286</ele>
        <time>2021-05-26T18:15:01.000Z</time>
      </trkpt>
      <trkpt lat="45.15268" lon="5.7621">
        <ele>286.1</ele>
        <time>2021-05-26T18:15:02.000Z</time>
      </trkpt>
      <trkpt lat="45.15269" lon="5.76209">
        <ele>285.5</ele>
        <time>2021-05-26T18:15:03.000Z</time>
      </trkpt>
      <trkpt lat="45.15271" lon="5.76208">
        <ele>285.6</ele>
        <time>2021-05-26T18:15:04.000Z</time>
      </trkpt>
      <trkpt lat="45.15271" lon="5.76208">
        <ele>285.7</ele>
        <time>2021-05-26T18:15:05.000Z</time>
      </trkpt>
      <trkpt lat="45.15272" lon="5.76208">
        <ele>285.8</ele>
        <time>2021-05-26T18:15:06.000Z</time>
      </trkpt>
      <trkpt lat="45.15272" lon="5.76207">
        <ele>285.2</ele>
        <time>2021-05-26T18:15:08.000Z</time>
      </trkpt>
      <trkpt lat="45.15272" lon="5.76207">
        <ele>284.8</ele>
        <time>2021-05-26T18:15:09.000Z</time>
      </trkpt>
      <trkpt lat="45.15273" lon="5.76207">
        <ele>284.9</ele>
        <time>2021-05-26T18:15:10.000Z</time>
      </trkpt>
      <trkpt lat="45.15273" lon="5.76206">
        <ele>285</ele>
        <time>2021-05-26T18:15:11.000Z</time>
      </trkpt>
      <trkpt lat="45.15274" lon="5.76206">
        <ele>285.1</ele>
        <time>2021-05-26T18:15:12.000Z</time>
      </trkpt>
      <trkpt lat="45.15274" lon="5.76206">
        <ele>285.2</ele>
        <time>2021-05-26T18:15:13.000Z</time>
      </trkpt>
      <trkpt lat="45.15274" lon="5.76205">
        <ele>285.3</ele>
        <time>2021-05-26T18:15:14.000Z</time>
      </trkpt>
      <trkpt lat="45.15276" lon="5.76203">
        <ele>284.6</ele>
        <time>2021-05-26T18:15:15.000Z</time>
      </trkpt>
      <trkpt lat="45.15278" lon="5.76201">
        <ele>283.4</ele>
        <time>2021-05-26T18:15:16.000Z</time>
      </trkpt>
      <trkpt lat="45.15281" lon="5.762">
        <ele>283.5</ele>
        <time>2021-05-26T18:15:17.000Z</time>
      </trkpt>
      <trkpt lat="45.15283" lon="5.76198">
        <ele>282.4</ele>
        <time>2021-05-26T18:15:18.000Z</time>
      </trkpt>
      <trkpt lat="45.15285" lon="5.76198">
        <ele>281.9</ele>
        <time>2021-05-26T18:15:19.000Z</time>
      </trkpt>
      <trkpt lat="45.15287" lon="5.76197">
        <ele>281.9</ele>
        <time>2021-05-26T18:15:20.000Z</time>
      </trkpt>
      <trkpt lat="45.15288" lon="5.76197">
        <ele>281.4</ele>
        <time>2021-05-26T18:15:21.000Z</time>
      </trkpt>
      <trkpt lat="45.1529" lon="5.76196">
        <ele>281.5</ele>
        <time>2021-05-26T18:15:22.000Z</time>
      </trkpt>
      <trkpt lat="45.15299" lon="5.76193">
        <ele>278.4</ele>
        <time>2021-05-26T18:15:23.000Z</time>
      </trkpt>
      <trkpt lat="45.15302" lon="5.76192">
        <ele>277.8</ele>
        <time>2021-05-26T18:15:24.000Z</time>
      </trkpt>
      <trkpt lat="45.15304" lon="5.76191">
        <ele>277.9</ele>
        <time>2021-05-26T18:15:25.000Z</time>
      </trkpt>
      <trkpt lat="45.15306" lon="5.7619">
        <ele>276.8</ele>
        <time>2021-05-26T18:15:26.000Z</time>
      </trkpt>
      <trkpt lat="45.15308" lon="5.76189">
        <ele>276.9</ele>
        <time>2021-05-26T18:15:27.000Z</time>
      </trkpt>
      <trkpt lat="45.1531" lon="5.76188">
        <ele>276.3</ele>
        <time>2021-05-26T18:15:28.000Z</time>
      </trkpt>
      <trkpt lat="45.15311" lon="5.76187">
        <ele>276.4</ele>
        <time>2021-05-26T18:15:29.000Z</time>
      </trkpt>
      <trkpt lat="45.15312" lon="5.76186">
        <ele>275.4</ele>
        <time>2021-05-26T18:15:30.000Z</time>
      </trkpt>
      <trkpt lat="45.15314" lon="5.76185">
        <ele>275.5</ele>
        <time>2021-05-26T18:15:31.000Z</time>
      </trkpt>
      <trkpt lat="45.15321" lon="5.76179">
        <ele>273.2</ele>
        <time>2021-05-26T18:15:32.000Z</time>
      </trkpt>
      <trkpt lat="45.15322" lon="5.76178">
        <ele>273.3</ele>
        <time>2021-05-26T18:15:33.000Z</time>
      </trkpt>
      <trkpt lat="45.15324" lon="5.76177">
        <ele>272.3</ele>
        <time>2021-05-26T18:15:34.000Z</time>
      </trkpt>
      <trkpt lat="45.15326" lon="5.76176">
        <ele>272.4</ele>
        <time>2021-05-26T18:15:35.000Z</time>
      </trkpt>
      <trkpt lat="45.15328" lon="5.76175">
        <ele>271.9</ele>
        <time>2021-05-26T18:15:36.000Z</time>
      </trkpt>
      <trkpt lat="45.1533" lon="5.76174">
        <ele>271.4</ele>
        <time>2021-05-26T18:15:37.000Z</time>
      </trkpt>
      <trkpt lat="45.15332" lon="5.76174">
        <ele>271</ele>
        <time>2021-05-26T18:15:38.000Z</time>
      </trkpt>
      <trkpt lat="45.15334" lon="5.76173">
        <ele>270.7</ele>
        <time>2021-05-26T18:15:39.000Z</time>
      </trkpt>
      <trkpt lat="45.15336" lon="5.76173">
        <ele>270.4</ele>
        <time>2021-05-26T18:15:40.000Z</time>
      </trkpt>
      <trkpt lat="45.15338" lon="5.76173">
        <ele>270</ele>
        <time>2021-05-26T18:15:41.000Z</time>
      </trkpt>
      <trkpt lat="45.15341" lon="5.76173">
        <ele>269.7</ele>
        <time>2021-05-26T18:15:42.000Z</time>
      </trkpt>
      <trkpt lat="45.15343" lon="5.76173">
        <ele>269.4</ele>
        <time>2021-05-26T18:15:43.000Z</time>
      </trkpt>
      <trkpt lat="45.15345" lon="5.76174">
        <ele>269.1</ele>
        <time>2021-05-26T18:15:44.000Z</time>
      </trkpt>
      <trkpt lat="45.15347" lon="5.76174">
        <ele>268.8</ele>
        <time>2021-05-26T18:15:46.000Z</time>
      </trkpt>
      <trkpt lat="45.15349" lon="5.76174">
        <ele>268.5</ele>
        <time>2021-05-26T18:15:47.000Z</time>
      </trkpt>
      <trkpt lat="45.15353" lon="5.76175">
        <ele>268</ele>
        <time>2021-05-26T18:15:48.000Z</time>
      </trkpt>
      <trkpt lat="45.15356" lon="5.76175">
        <ele>267.6</ele>
        <time>2021-05-26T18:15:49.000Z</time>
      </trkpt>
      <trkpt lat="45.15365" lon="5.76178">
        <ele>266.6</ele>
        <time>2021-05-26T18:15:50.000Z</time>
      </trkpt>
      <trkpt lat="45.15367" lon="5.76179">
        <ele>266.4</ele>
        <time>2021-05-26T18:15:51.000Z</time>
      </trkpt>
      <trkpt lat="45.1537" lon="5.7618">
        <ele>266.1</ele>
        <time>2021-05-26T18:15:52.000Z</time>
      </trkpt>
      <trkpt lat="45.15378" lon="5.76185">
        <ele>265.7</ele>
        <time>2021-05-26T18:15:53.000Z</time>
      </trkpt>
      <trkpt lat="45.1538" lon="5.76187">
        <ele>265.7</ele>
        <time>2021-05-26T18:15:54.000Z</time>
      </trkpt>
      <trkpt lat="45.15382" lon="5.76188">
        <ele>265.7</ele>
        <time>2021-05-26T18:15:55.000Z</time>
      </trkpt>
      <trkpt lat="45.1539" lon="5.76194">
        <ele>265.5</ele>
        <time>2021-05-26T18:15:56.000Z</time>
      </trkpt>
      <trkpt lat="45.15391" lon="5.76195">
        <ele>265.4</ele>
        <time>2021-05-26T18:15:57.000Z</time>
      </trkpt>
      <trkpt lat="45.15393" lon="5.76196">
        <ele>265.4</ele>
        <time>2021-05-26T18:15:58.000Z</time>
      </trkpt>
      <trkpt lat="45.15394" lon="5.76198">
        <ele>265.3</ele>
        <time>2021-05-26T18:15:59.000Z</time>
      </trkpt>
      <trkpt lat="45.154" lon="5.76203">
        <ele>265.1</ele>
        <time>2021-05-26T18:16:00.000Z</time>
      </trkpt>
      <trkpt lat="45.15401" lon="5.76203">
        <ele>265.1</ele>
        <time>2021-05-26T18:16:01.000Z</time>
      </trkpt>
      <trkpt lat="45.15402" lon="5.76204">
        <ele>265.1</ele>
        <time>2021-05-26T18:16:02.000Z</time>
      </trkpt>
      <trkpt lat="45.15403" lon="5.76204">
        <ele>265</ele>
        <time>2021-05-26T18:16:03.000Z</time>
      </trkpt>
      <trkpt lat="45.15403" lon="5.76205">
        <ele>265</ele>
        <time>2021-05-26T18:16:05.000Z</time>
      </trkpt>
      <trkpt lat="45.15404" lon="5.76205">
        <ele>265</ele>
        <time>2021-05-26T18:16:06.000Z</time>
      </trkpt>
      <trkpt lat="45.15405" lon="5.76206">
        <ele>265</ele>
        <time>2021-05-26T18:16:07.000Z</time>
      </trkpt>
      <trkpt lat="45.1541" lon="5.7621">
        <ele>264.8</ele>
        <time>2021-05-26T18:16:08.000Z</time>
      </trkpt>
      <trkpt lat="45.15411" lon="5.76211">
        <ele>264.8</ele>
        <time>2021-05-26T18:16:09.000Z</time>
      </trkpt>
      <trkpt lat="45.15411" lon="5.76211">
        <ele>264.8</ele>
        <time>2021-05-26T18:16:10.000Z</time>
      </trkpt>
      <trkpt lat="45.15412" lon="5.76212">
        <ele>264.8</ele>
        <time>2021-05-26T18:16:11.000Z</time>
      </trkpt>
      <trkpt lat="45.15413" lon="5.76212">
        <ele>264.8</ele>
        <time>2021-05-26T18:16:12.000Z</time>
      </trkpt>
      <trkpt lat="45.15413" lon="5.76212">
        <ele>264.8</ele>
        <time>2021-05-26T18:16:13.000Z</time>
      </trkpt>
      <trkpt lat="45.15414" lon="5.76213">
        <ele>264.8</ele>
        <time>2021-05-26T18:16:14.000Z</time>
      </trkpt>
      <trkpt lat="45.15414" lon="5.76213">
        <ele>264.8</ele>
        <time>2021-05-26T18:16:15.000Z</time>
      </trkpt>
      <trkpt lat="45.1542" lon="5.76218">
        <ele>264.7</ele>
        <time>2021-05-26T18:16:16.000Z</time>
      </trkpt>
      <trkpt lat="45.15422" lon="5.76218">
        <ele>264.6</ele>
        <time>2021-05-26T18:16:17.000Z</time>
      </trkpt>
      <trkpt lat="45.15423" lon="5.76219">
        <ele>264.6</ele>
        <time>2021-05-26T18:16:18.000Z</time>
      </trkpt>
      <trkpt lat="45.15424" lon="5.76219">
        <ele>264.6</ele>
        <time>2021-05-26T18:16:19.000Z</time>
      </trkpt>
      <trkpt lat="45.15425" lon="5.7622">
        <ele>264.6</ele>
        <time>2021-05-26T18:16:20.000Z</time>
      </trkpt>
      <trkpt lat="45.15432" lon="5.76225">
        <ele>264.5</ele>
        <time>2021-05-26T18:16:21.000Z</time>
      </trkpt>
      <trkpt lat="45.15433" lon="5.76226">
        <ele>264.4</ele>
        <time>2021-05-26T18:16:22.000Z</time>
      </trkpt>
      <trkpt lat="45.15437" lon="5.76231">
        <ele>264.4</ele>
        <time>2021-05-26T18:16:24.000Z</time>
      </trkpt>
      <trkpt lat="45.15437" lon="5.76232">
        <ele>264.3</ele>
        <time>2021-05-26T18:16:25.000Z</time>
      </trkpt>
      <trkpt lat="45.15438" lon="5.76234">
        <ele>264.3</ele>
        <time>2021-05-26T18:16:26.000Z</time>
      </trkpt>
      <trkpt lat="45.15439" lon="5.76235">
        <ele>264.3</ele>
        <time>2021-05-26T18:16:27.000Z</time>
      </trkpt>
      <trkpt lat="45.15439" lon="5.76236">
        <ele>264.2</ele>
        <time>2021-05-26T18:16:28.000Z</time>
      </trkpt>
      <trkpt lat="45.1544" lon="5.76238">
        <ele>264.2</ele>
        <time>2021-05-26T18:16:29.000Z</time>
      </trkpt>
      <trkpt lat="45.15445" lon="5.76246">
        <ele>264</ele>
        <time>2021-05-26T18:16:30.000Z</time>
      </trkpt>
      <trkpt lat="45.15445" lon="5.76247">
        <ele>263.9</ele>
        <time>2021-05-26T18:16:31.000Z</time>
      </trkpt>
      <trkpt lat="45.15446" lon="5.76248">
        <ele>263.9</ele>
        <time>2021-05-26T18:16:32.000Z</time>
      </trkpt>
      <trkpt lat="45.15447" lon="5.76249">
        <ele>263.8</ele>
        <time>2021-05-26T18:16:33.000Z</time>
      </trkpt>
      <trkpt lat="45.15448" lon="5.76251">
        <ele>263.8</ele>
        <time>2021-05-26T18:16:34.000Z</time>
      </trkpt>
      <trkpt lat="45.15452" lon="5.76258">
        <ele>263.4</ele>
        <time>2021-05-26T18:16:35.000Z</time>
      </trkpt>
      <trkpt lat="45.15453" lon="5.7626">
        <ele>263.3</ele>
        <time>2021-05-26T18:16:36.000Z</time>
      </trkpt>
      <trkpt lat="45.15454" lon="5.76261">
        <ele>263.2</ele>
        <time>2021-05-26T18:16:37.000Z</time>
      </trkpt>
      <trkpt lat="45.15455" lon="5.76263">
        <ele>263.1</ele>
        <time>2021-05-26T18:16:38.000Z</time>
      </trkpt>
      <trkpt lat="45.15455" lon="5.76264">
        <ele>263.1</ele>
        <time>2021-05-26T18:16:39.000Z</time>
      </trkpt>
      <trkpt lat="45.15459" lon="5.76271">
        <ele>262.6</ele>
        <time>2021-05-26T18:16:40.000Z</time>
      </trkpt>
      <trkpt lat="45.15459" lon="5.76271">
        <ele>262.6</ele>
        <time>2021-05-26T18:16:41.000Z</time>
      </trkpt>
      <trkpt lat="45.15468" lon="5.76285">
        <ele>261.2</ele>
        <time>2021-05-26T18:16:43.000Z</time>
      </trkpt>
      <trkpt lat="45.1547" lon="5.76287">
        <ele>261</ele>
        <time>2021-05-26T18:16:44.000Z</time>
      </trkpt>
      <trkpt lat="45.15471" lon="5.7629">
        <ele>260.8</ele>
        <time>2021-05-26T18:16:45.000Z</time>
      </trkpt>
      <trkpt lat="45.15472" lon="5.76292">
        <ele>260.5</ele>
        <time>2021-05-26T18:16:46.000Z</time>
      </trkpt>
      <trkpt lat="45.15478" lon="5.763">
        <ele>259.7</ele>
        <time>2021-05-26T18:16:47.000Z</time>
      </trkpt>
      <trkpt lat="45.15479" lon="5.76302">
        <ele>259.5</ele>
        <time>2021-05-26T18:16:48.000Z</time>
      </trkpt>
      <trkpt lat="45.15481" lon="5.76305">
        <ele>259.3</ele>
        <time>2021-05-26T18:16:49.000Z</time>
      </trkpt>
      <trkpt lat="45.15487" lon="5.76313">
        <ele>258.6</ele>
        <time>2021-05-26T18:16:50.000Z</time>
      </trkpt>
      <trkpt lat="45.15488" lon="5.76315">
        <ele>258.4</ele>
        <time>2021-05-26T18:16:51.000Z</time>
      </trkpt>
      <trkpt lat="45.1549" lon="5.76317">
        <ele>258.3</ele>
        <time>2021-05-26T18:16:52.000Z</time>
      </trkpt>
      <trkpt lat="45.15496" lon="5.76324">
        <ele>258.2</ele>
        <time>2021-05-26T18:16:53.000Z</time>
      </trkpt>
      <trkpt lat="45.15498" lon="5.76326">
        <ele>258.2</ele>
        <time>2021-05-26T18:16:54.000Z</time>
      </trkpt>
      <trkpt lat="45.15499" lon="5.76327">
        <ele>258.2</ele>
        <time>2021-05-26T18:16:55.000Z</time>
      </trkpt>
      <trkpt lat="45.15505" lon="5.76334">
        <ele>258</ele>
        <time>2021-05-26T18:16:56.000Z</time>
      </trkpt>
      <trkpt lat="45.15507" lon="5.76336">
        <ele>258</ele>
        <time>2021-05-26T18:16:57.000Z</time>
      </trkpt>
      <trkpt lat="45.15508" lon="5.76337">
        <ele>257.9</ele>
        <time>2021-05-26T18:16:58.000Z</time>
      </trkpt>
      <trkpt lat="45.15509" lon="5.76339">
        <ele>257.9</ele>
        <time>2021-05-26T18:16:59.000Z</time>
      </trkpt>
      <trkpt lat="45.15516" lon="5.76346">
        <ele>257.7</ele>
        <time>2021-05-26T18:17:00.000Z</time>
      </trkpt>
      <trkpt lat="45.15517" lon="5.76348">
        <ele>257.6</ele>
        <time>2021-05-26T18:17:02.000Z</time>
      </trkpt>
      <trkpt lat="45.15519" lon="5.7635">
        <ele>257.6</ele>
        <time>2021-05-26T18:17:03.000Z</time>
      </trkpt>
      <trkpt lat="45.1552" lon="5.76351">
        <ele>257.5</ele>
        <time>2021-05-26T18:17:04.000Z</time>
      </trkpt>
      <trkpt lat="45.15526" lon="5.76359">
        <ele>257.3</ele>
        <time>2021-05-26T18:17:05.000Z</time>
      </trkpt>
      <trkpt lat="45.15527" lon="5.76361">
        <ele>257.3</ele>
        <time>2021-05-26T18:17:06.000Z</time>
      </trkpt>
      <trkpt lat="45.15528" lon="5.76362">
        <ele>257.2</ele>
        <time>2021-05-26T18:17:07.000Z</time>
      </trkpt>
      <trkpt lat="45.15529" lon="5.76363">
        <ele>257.2</ele>
        <time>2021-05-26T18:17:08.000Z</time>
      </trkpt>
      <trkpt lat="45.15534" lon="5.7637">
        <ele>256.9</ele>
        <time>2021-05-26T18:17:09.000Z</time>
      </trkpt>
      <trkpt lat="45.15536" lon="5.76371">
        <ele>256.9</ele>
        <time>2021-05-26T18:17:10.000Z</time>
      </trkpt>
      <trkpt lat="45.15537" lon="5.76373">
        <ele>256.8</ele>
        <time>2021-05-26T18:17:11.000Z</time>
      </trkpt>
      <trkpt lat="45.15538" lon="5.76374">
        <ele>256.8</ele>
        <time>2021-05-26T18:17:12.000Z</time>
      </trkpt>
      <trkpt lat="45.15544" lon="5.7638">
        <ele>256.5</ele>
        <time>2021-05-26T18:17:13.000Z</time>
      </trkpt>
      <trkpt lat="45.15545" lon="5.76381">
        <ele>256.5</ele>
        <time>2021-05-26T18:17:14.000Z</time>
      </trkpt>
      <trkpt lat="45.15546" lon="5.76382">
        <ele>256.4</ele>
        <time>2021-05-26T18:17:15.000Z</time>
      </trkpt>
      <trkpt lat="45.15547" lon="5.76383">
        <ele>256.3</ele>
        <time>2021-05-26T18:17:16.000Z</time>
      </trkpt>
      <trkpt lat="45.15548" lon="5.76384">
        <ele>256.3</ele>
        <time>2021-05-26T18:17:17.000Z</time>
      </trkpt>
      <trkpt lat="45.15555" lon="5.76392">
        <ele>255.9</ele>
        <time>2021-05-26T18:17:18.000Z</time>
      </trkpt>
      <trkpt lat="45.15556" lon="5.76393">
        <ele>255.8</ele>
        <time>2021-05-26T18:17:19.000Z</time>
      </trkpt>
      <trkpt lat="45.15557" lon="5.76395">
        <ele>255.7</ele>
        <time>2021-05-26T18:17:21.000Z</time>
      </trkpt>
      <trkpt lat="45.15558" lon="5.76397">
        <ele>255.6</ele>
        <time>2021-05-26T18:17:22.000Z</time>
      </trkpt>
      <trkpt lat="45.15564" lon="5.76404">
        <ele>255</ele>
        <time>2021-05-26T18:17:23.000Z</time>
      </trkpt>
      <trkpt lat="45.15565" lon="5.76405">
        <ele>254.9</ele>
        <time>2021-05-26T18:17:24.000Z</time>
      </trkpt>
      <trkpt lat="45.15566" lon="5.76406">
        <ele>254.8</ele>
        <time>2021-05-26T18:17:25.000Z</time>
      </trkpt>
      <trkpt lat="45.15567" lon="5.76407">
        <ele>254.8</ele>
        <time>2021-05-26T18:17:26.000Z</time>
      </trkpt>
      <trkpt lat="45.15568" lon="5.76408">
        <ele>254.7</ele>
        <time>2021-05-26T18:17:27.000Z</time>
      </trkpt>
      <trkpt lat="45.15574" lon="5.76414">
        <ele>254</ele>
        <time>2021-05-26T18:17:28.000Z</time>
      </trkpt>
      <trkpt lat="45.15575" lon="5.76415">
        <ele>253.9</ele>
        <time>2021-05-26T18:17:29.000Z</time>
      </trkpt>
      <trkpt lat="45.15576" lon="5.76416">
        <ele>253.8</ele>
        <time>2021-05-26T18:17:30.000Z</time>
      </trkpt>
      <trkpt lat="45.15576" lon="5.76417">
        <ele>253.7</ele>
        <time>2021-05-26T18:17:31.000Z</time>
      </trkpt>
      <trkpt lat="45.15577" lon="5.76418">
        <ele>253.6</ele>
        <time>2021-05-26T18:17:32.000Z</time>
      </trkpt>
      <trkpt lat="45.15583" lon="5.76424">
        <ele>253.1</ele>
        <time>2021-05-26T18:17:33.000Z</time>
      </trkpt>
      <trkpt lat="45.15584" lon="5.76424">
        <ele>253</ele>
        <time>2021-05-26T18:17:34.000Z</time>
      </trkpt>
      <trkpt lat="45.15585" lon="5.76425">
        <ele>252.9</ele>
        <time>2021-05-26T18:17:35.000Z</time>
      </trkpt>
      <trkpt lat="45.15586" lon="5.76426">
        <ele>252.8</ele>
        <time>2021-05-26T18:17:36.000Z</time>
      </trkpt>
      <trkpt lat="45.15587" lon="5.76427">
        <ele>252.8</ele>
        <time>2021-05-26T18:17:37.000Z</time>
      </trkpt>
      <trkpt lat="45.15593" lon="5.76431">
        <ele>252.2</ele>
        <time>2021-05-26T18:17:38.000Z</time>
      </trkpt>
      <trkpt lat="45.15595" lon="5.76431">
        <ele>252.1</ele>
        <time>2021-05-26T18:17:40.000Z</time>
      </trkpt>
      <trkpt lat="45.15596" lon="5.76432">
        <ele>251.8</ele>
        <time>2021-05-26T18:17:41.000Z</time>
      </trkpt>
      <trkpt lat="45.15598" lon="5.76432">
        <ele>251.6</ele>
        <time>2021-05-26T18:17:42.000Z</time>
      </trkpt>
      <trkpt lat="45.15605" lon="5.76434">
        <ele>250.6</ele>
        <time>2021-05-26T18:17:43.000Z</time>
      </trkpt>
      <trkpt lat="45.15606" lon="5.76434">
        <ele>250.5</ele>
        <time>2021-05-26T18:17:44.000Z</time>
      </trkpt>
      <trkpt lat="45.15607" lon="5.76435">
        <ele>250.3</ele>
        <time>2021-05-26T18:17:45.000Z</time>
      </trkpt>
      <trkpt lat="45.15608" lon="5.76435">
        <ele>250.2</ele>
        <time>2021-05-26T18:17:46.000Z</time>
      </trkpt>
      <trkpt lat="45.1561" lon="5.76435">
        <ele>250.1</ele>
        <time>2021-05-26T18:17:47.000Z</time>
      </trkpt>
      <trkpt lat="45.15616" lon="5.76437">
        <ele>249.3</ele>
        <time>2021-05-26T18:17:48.000Z</time>
      </trkpt>
      <trkpt lat="45.15618" lon="5.76438">
        <ele>249.1</ele>
        <time>2021-05-26T18:17:49.000Z</time>
      </trkpt>
      <trkpt lat="45.15619" lon="5.76438">
        <ele>248.9</ele>
        <time>2021-05-26T18:17:50.000Z</time>
      </trkpt>
      <trkpt lat="45.15621" lon="5.76439">
        <ele>248.7</ele>
        <time>2021-05-26T18:17:51.000Z</time>
      </trkpt>
      <trkpt lat="45.15628" lon="5.76441">
        <ele>248</ele>
        <time>2021-05-26T18:17:52.000Z</time>
      </trkpt>
      <trkpt lat="45.15629" lon="5.76441">
        <ele>247.5</ele>
        <time>2021-05-26T18:17:53.000Z</time>
      </trkpt>
      <trkpt lat="45.15631" lon="5.76441">
        <ele>247.3</ele>
        <time>2021-05-26T18:17:54.000Z</time>
      </trkpt>
      <trkpt lat="45.15632" lon="5.76442">
        <ele>247</ele>
        <time>2021-05-26T18:17:55.000Z</time>
      </trkpt>
      <trkpt lat="45.15639" lon="5.76443">
        <ele>246.1</ele>
        <time>2021-05-26T18:17:56.000Z</time>
      </trkpt>
      <trkpt lat="45.15639" lon="5.76443">
        <ele>246.1</ele>
        <time>2021-05-26T18:17:57.000Z</time>
      </trkpt>
      <trkpt lat="45.15651" lon="5.76441">
        <ele>244.5</ele>
        <time>2021-05-26T18:17:59.000Z</time>
      </trkpt>
      <trkpt lat="45.15652" lon="5.76441">
        <ele>244.3</ele>
        <time>2021-05-26T18:18:00.000Z</time>
      </trkpt>
      <trkpt lat="45.15653" lon="5.76441">
        <ele>244.2</ele>
        <time>2021-05-26T18:18:01.000Z</time>
      </trkpt>
      <trkpt lat="45.15654" lon="5.76441">
        <ele>244</ele>
        <time>2021-05-26T18:18:02.000Z</time>
      </trkpt>
      <trkpt lat="45.15655" lon="5.76441">
        <ele>243.8</ele>
        <time>2021-05-26T18:18:03.000Z</time>
      </trkpt>
      <trkpt lat="45.15657" lon="5.76441">
        <ele>243.7</ele>
        <time>2021-05-26T18:18:04.000Z</time>
      </trkpt>
      <trkpt lat="45.15666" lon="5.7644">
        <ele>242.4</ele>
        <time>2021-05-26T18:18:05.000Z</time>
      </trkpt>
      <trkpt lat="45.15669" lon="5.7644">
        <ele>241.9</ele>
        <time>2021-05-26T18:18:07.000Z</time>
      </trkpt>
      <trkpt lat="45.15673" lon="5.76439">
        <ele>241.4</ele>
        <time>2021-05-26T18:18:08.000Z</time>
      </trkpt>
      <trkpt lat="45.15676" lon="5.76438">
        <ele>240.9</ele>
        <time>2021-05-26T18:18:09.000Z</time>
      </trkpt>
      <trkpt lat="45.15679" lon="5.76437">
        <ele>240.5</ele>
        <time>2021-05-26T18:18:10.000Z</time>
      </trkpt>
      <trkpt lat="45.15681" lon="5.76435">
        <ele>240</ele>
        <time>2021-05-26T18:18:11.000Z</time>
      </trkpt>
      <trkpt lat="45.15688" lon="5.76432">
        <ele>239</ele>
        <time>2021-05-26T18:18:12.000Z</time>
      </trkpt>
      <trkpt lat="45.15689" lon="5.76431">
        <ele>238.7</ele>
        <time>2021-05-26T18:18:13.000Z</time>
      </trkpt>
      <trkpt lat="45.15691" lon="5.7643">
        <ele>238.5</ele>
        <time>2021-05-26T18:18:14.000Z</time>
      </trkpt>
      <trkpt lat="45.15692" lon="5.76428">
        <ele>238.3</ele>
        <time>2021-05-26T18:18:15.000Z</time>
      </trkpt>
      <trkpt lat="45.15699" lon="5.76422">
        <ele>237</ele>
        <time>2021-05-26T18:18:16.000Z</time>
      </trkpt>
      <trkpt lat="45.157" lon="5.76421">
        <ele>236.8</ele>
        <time>2021-05-26T18:18:18.000Z</time>
      </trkpt>
      <trkpt lat="45.15701" lon="5.76419">
        <ele>236.5</ele>
        <time>2021-05-26T18:18:19.000Z</time>
      </trkpt>
      <trkpt lat="45.15707" lon="5.76412">
        <ele>235.4</ele>
        <time>2021-05-26T18:18:20.000Z</time>
      </trkpt>
      <trkpt lat="45.15708" lon="5.7641">
        <ele>235.2</ele>
        <time>2021-05-26T18:18:21.000Z</time>
      </trkpt>
      <trkpt lat="45.15708" lon="5.76409">
        <ele>234.9</ele>
        <time>2021-05-26T18:18:22.000Z</time>
      </trkpt>
      <trkpt lat="45.15709" lon="5.76407">
        <ele>234.7</ele>
        <time>2021-05-26T18:18:23.000Z</time>
      </trkpt>
      <trkpt lat="45.15716" lon="5.76399">
        <ele>233.5</ele>
        <time>2021-05-26T18:18:24.000Z</time>
      </trkpt>
      <trkpt lat="45.15718" lon="5.76396">
        <ele>233.1</ele>
        <time>2021-05-26T18:18:25.000Z</time>
      </trkpt>
      <trkpt lat="45.1572" lon="5.76394">
        <ele>232.6</ele>
        <time>2021-05-26T18:18:26.000Z</time>
      </trkpt>
      <trkpt lat="45.15723" lon="5.76391">
        <ele>232.2</ele>
        <time>2021-05-26T18:18:27.000Z</time>
      </trkpt>
      <trkpt lat="45.15725" lon="5.76387">
        <ele>231.7</ele>
        <time>2021-05-26T18:18:28.000Z</time>
      </trkpt>
      <trkpt lat="45.15726" lon="5.76386">
        <ele>231.5</ele>
        <time>2021-05-26T18:18:29.000Z</time>
      </trkpt>
      <trkpt lat="45.15727" lon="5.76384">
        <ele>231.3</ele>
        <time>2021-05-26T18:18:30.000Z</time>
      </trkpt>
      <trkpt lat="45.15728" lon="5.76383">
        <ele>231.1</ele>
        <time>2021-05-26T18:18:31.000Z</time>
      </trkpt>
      <trkpt lat="45.1573" lon="5.76381">
        <ele>230.8</ele>
        <time>2021-05-26T18:18:32.000Z</time>
      </trkpt>
      <trkpt lat="45.15735" lon="5.76374">
        <ele>229.8</ele>
        <time>2021-05-26T18:18:33.000Z</time>
      </trkpt>
      <trkpt lat="45.15736" lon="5.76372">
        <ele>229.6</ele>
        <time>2021-05-26T18:18:34.000Z</time>
      </trkpt>
      <trkpt lat="45.15737" lon="5.7637">
        <ele>229.4</ele>
        <time>2021-05-26T18:18:35.000Z</time>
      </trkpt>
      <trkpt lat="45.15738" lon="5.76368">
        <ele>229.2</ele>
        <time>2021-05-26T18:18:36.000Z</time>
      </trkpt>
      <trkpt lat="45.15739" lon="5.76366">
        <ele>229</ele>
        <time>2021-05-26T18:18:37.000Z</time>
      </trkpt>
      <trkpt lat="45.15743" lon="5.7636">
        <ele>228.4</ele>
        <time>2021-05-26T18:18:38.000Z</time>
      </trkpt>
      <trkpt lat="45.15743" lon="5.76358">
        <ele>228.3</ele>
        <time>2021-05-26T18:18:39.000Z</time>
      </trkpt>
      <trkpt lat="45.15743" lon="5.76357">
        <ele>228.2</ele>
        <time>2021-05-26T18:18:40.000Z</time>
      </trkpt>
      <trkpt lat="45.15744" lon="5.76356">
        <ele>228</ele>
        <time>2021-05-26T18:18:41.000Z</time>
      </trkpt>
      <trkpt lat="45.15744" lon="5.76354">
        <ele>228</ele>
        <time>2021-05-26T18:18:42.000Z</time>
      </trkpt>
      <trkpt lat="45.15744" lon="5.76353">
        <ele>228</ele>
        <time>2021-05-26T18:18:43.000Z</time>
      </trkpt>
      <trkpt lat="45.15745" lon="5.76351">
        <ele>227.9</ele>
        <time>2021-05-26T18:18:44.000Z</time>
      </trkpt>
      <trkpt lat="45.15746" lon="5.76342">
        <ele>227.6</ele>
        <time>2021-05-26T18:18:45.000Z</time>
      </trkpt>
      <trkpt lat="45.15745" lon="5.76341">
        <ele>227.5</ele>
        <time>2021-05-26T18:18:46.000Z</time>
      </trkpt>
      <trkpt lat="45.15744" lon="5.76339">
        <ele>227.5</ele>
        <time>2021-05-26T18:18:47.000Z</time>
      </trkpt>
      <trkpt lat="45.15743" lon="5.76338">
        <ele>227.4</ele>
        <time>2021-05-26T18:18:48.000Z</time>
      </trkpt>
      <trkpt lat="45.15742" lon="5.76337">
        <ele>227.3</ele>
        <time>2021-05-26T18:18:49.000Z</time>
      </trkpt>
      <trkpt lat="45.15736" lon="5.76329">
        <ele>226.9</ele>
        <time>2021-05-26T18:18:50.000Z</time>
      </trkpt>
      <trkpt lat="45.15734" lon="5.76328">
        <ele>226.8</ele>
        <time>2021-05-26T18:18:51.000Z</time>
      </trkpt>
      <trkpt lat="45.15732" lon="5.76327">
        <ele>226.7</ele>
        <time>2021-05-26T18:18:52.000Z</time>
      </trkpt>
      <trkpt lat="45.15726" lon="5.76322">
        <ele>226.3</ele>
        <time>2021-05-26T18:18:53.000Z</time>
      </trkpt>
      <trkpt lat="45.15725" lon="5.7632">
        <ele>226.2</ele>
        <time>2021-05-26T18:18:54.000Z</time>
      </trkpt>
      <trkpt lat="45.15724" lon="5.76318">
        <ele>226.1</ele>
        <time>2021-05-26T18:18:56.000Z</time>
      </trkpt>
      <trkpt lat="45.15723" lon="5.76317">
        <ele>226</ele>
        <time>2021-05-26T18:18:57.000Z</time>
      </trkpt>
      <trkpt lat="45.15718" lon="5.76308">
        <ele>225.5</ele>
        <time>2021-05-26T18:18:58.000Z</time>
      </trkpt>
      <trkpt lat="45.15717" lon="5.76306">
        <ele>225.5</ele>
        <time>2021-05-26T18:18:59.000Z</time>
      </trkpt>
      <trkpt lat="45.15716" lon="5.76304">
        <ele>225.4</ele>
        <time>2021-05-26T18:19:00.000Z</time>
      </trkpt>
      <trkpt lat="45.15715" lon="5.76303">
        <ele>225.3</ele>
        <time>2021-05-26T18:19:01.000Z</time>
      </trkpt>
      <trkpt lat="45.15711" lon="5.76295">
        <ele>224.9</ele>
        <time>2021-05-26T18:19:02.000Z</time>
      </trkpt>
      <trkpt lat="45.1571" lon="5.76294">
        <ele>224.8</ele>
        <time>2021-05-26T18:19:03.000Z</time>
      </trkpt>
      <trkpt lat="45.15709" lon="5.76292">
        <ele>224.8</ele>
        <time>2021-05-26T18:19:04.000Z</time>
      </trkpt>
      <trkpt lat="45.15709" lon="5.76291">
        <ele>224.7</ele>
        <time>2021-05-26T18:19:05.000Z</time>
      </trkpt>
      <trkpt lat="45.15708" lon="5.76289">
        <ele>224.6</ele>
        <time>2021-05-26T18:19:06.000Z</time>
      </trkpt>
      <trkpt lat="45.15703" lon="5.7628">
        <ele>224.1</ele>
        <time>2021-05-26T18:19:07.000Z</time>
      </trkpt>
      <trkpt lat="45.15702" lon="5.76278">
        <ele>224</ele>
        <time>2021-05-26T18:19:08.000Z</time>
      </trkpt>
      <trkpt lat="45.15701" lon="5.76276">
        <ele>223.9</ele>
        <time>2021-05-26T18:19:09.000Z</time>
      </trkpt>
      <trkpt lat="45.157" lon="5.76274">
        <ele>223.9</ele>
        <time>2021-05-26T18:19:10.000Z</time>
      </trkpt>
      <trkpt lat="45.15697" lon="5.76262">
        <ele>223.5</ele>
        <time>2021-05-26T18:19:11.000Z</time>
      </trkpt>
      <trkpt lat="45.15697" lon="5.76259">
        <ele>223.4</ele>
        <time>2021-05-26T18:19:12.000Z</time>
      </trkpt>
      <trkpt lat="45.15697" lon="5.76256">
        <ele>223.3</ele>
        <time>2021-05-26T18:19:13.000Z</time>
      </trkpt>
      <trkpt lat="45.15697" lon="5.76253">
        <ele>223.2</ele>
        <time>2021-05-26T18:19:14.000Z</time>
      </trkpt>
      <trkpt lat="45.15697" lon="5.76249">
        <ele>223.1</ele>
        <time>2021-05-26T18:19:15.000Z</time>
      </trkpt>
      <trkpt lat="45.15697" lon="5.76244">
        <ele>223</ele>
        <time>2021-05-26T18:19:16.000Z</time>
      </trkpt>
      <trkpt lat="45.15697" lon="5.76239">
        <ele>222.9</ele>
        <time>2021-05-26T18:19:17.000Z</time>
      </trkpt>
      <trkpt lat="45.15698" lon="5.76236">
        <ele>222.8</ele>
        <time>2021-05-26T18:19:18.000Z</time>
      </trkpt>
      <trkpt lat="45.15698" lon="5.76233">
        <ele>222.7</ele>
        <time>2021-05-26T18:19:19.000Z</time>
      </trkpt>
      <trkpt lat="45.15699" lon="5.76229">
        <ele>222.6</ele>
        <time>2021-05-26T18:19:20.000Z</time>
      </trkpt>
      <trkpt lat="45.157" lon="5.76226">
        <ele>222.5</ele>
        <time>2021-05-26T18:19:21.000Z</time>
      </trkpt>
      <trkpt lat="45.157" lon="5.76225">
        <ele>222.5</ele>
        <time>2021-05-26T18:19:22.000Z</time>
      </trkpt>
      <trkpt lat="45.15701" lon="5.76223">
        <ele>222.5</ele>
        <time>2021-05-26T18:19:23.000Z</time>
      </trkpt>
      <trkpt lat="45.15701" lon="5.76221">
        <ele>222.4</ele>
        <time>2021-05-26T18:19:24.000Z</time>
      </trkpt>
      <trkpt lat="45.15702" lon="5.7622">
        <ele>222.4</ele>
        <time>2021-05-26T18:19:25.000Z</time>
      </trkpt>
      <trkpt lat="45.15702" lon="5.76218">
        <ele>222.4</ele>
        <time>2021-05-26T18:19:26.000Z</time>
      </trkpt>
      <trkpt lat="45.15705" lon="5.76209">
        <ele>222.2</ele>
        <time>2021-05-26T18:19:27.000Z</time>
      </trkpt>
      <trkpt lat="45.15705" lon="5.76208">
        <ele>222.2</ele>
        <time>2021-05-26T18:19:28.000Z</time>
      </trkpt>
      <trkpt lat="45.15706" lon="5.76206">
        <ele>222.2</ele>
        <time>2021-05-26T18:19:29.000Z</time>
      </trkpt>
      <trkpt lat="45.15706" lon="5.76204">
        <ele>222.1</ele>
        <time>2021-05-26T18:19:30.000Z</time>
      </trkpt>
      <trkpt lat="45.15707" lon="5.76203">
        <ele>222.1</ele>
        <time>2021-05-26T18:19:31.000Z</time>
      </trkpt>
      <trkpt lat="45.15709" lon="5.76192">
        <ele>221.9</ele>
        <time>2021-05-26T18:19:32.000Z</time>
      </trkpt>
      <trkpt lat="45.1571" lon="5.7619">
        <ele>221.9</ele>
        <time>2021-05-26T18:19:33.000Z</time>
      </trkpt>
      <trkpt lat="45.15711" lon="5.76188">
        <ele>221.8</ele>
        <time>2021-05-26T18:19:34.000Z</time>
      </trkpt>
      <trkpt lat="45.15711" lon="5.76186">
        <ele>221.8</ele>
        <time>2021-05-26T18:19:35.000Z</time>
      </trkpt>
      <trkpt lat="45.15712" lon="5.76184">
        <ele>221.8</ele>
        <time>2021-05-26T18:19:36.000Z</time>
      </trkpt>
      <trkpt lat="45.15713" lon="5.76182">
        <ele>221.7</ele>
        <time>2021-05-26T18:19:37.000Z</time>
      </trkpt>
      <trkpt lat="45.15714" lon="5.7618">
        <ele>221.7</ele>
        <time>2021-05-26T18:19:38.000Z</time>
      </trkpt>
      <trkpt lat="45.15717" lon="5.7617">
        <ele>221.6</ele>
        <time>2021-05-26T18:19:39.000Z</time>
      </trkpt>
      <trkpt lat="45.15718" lon="5.76168">
        <ele>221.5</ele>
        <time>2021-05-26T18:19:40.000Z</time>
      </trkpt>
      <trkpt lat="45.15718" lon="5.76166">
        <ele>221.5</ele>
        <time>2021-05-26T18:19:41.000Z</time>
      </trkpt>
      <trkpt lat="45.15719" lon="5.76165">
        <ele>221.5</ele>
        <time>2021-05-26T18:19:42.000Z</time>
      </trkpt>
      <trkpt lat="45.15724" lon="5.76155">
        <ele>221.3</ele>
        <time>2021-05-26T18:19:43.000Z</time>
      </trkpt>
      <trkpt lat="45.15726" lon="5.76152">
        <ele>221.3</ele>
        <time>2021-05-26T18:19:44.000Z</time>
      </trkpt>
      <trkpt lat="45.15727" lon="5.76149">
        <ele>221.2</ele>
        <time>2021-05-26T18:19:45.000Z</time>
      </trkpt>
      <trkpt lat="45.15729" lon="5.76145">
        <ele>221.2</ele>
        <time>2021-05-26T18:19:46.000Z</time>
      </trkpt>
      <trkpt lat="45.1573" lon="5.76143">
        <ele>221.1</ele>
        <time>2021-05-26T18:19:47.000Z</time>
      </trkpt>
      <trkpt lat="45.15731" lon="5.7614">
        <ele>221.1</ele>
        <time>2021-05-26T18:19:48.000Z</time>
      </trkpt>
      <trkpt lat="45.15733" lon="5.76136">
        <ele>221.1</ele>
        <time>2021-05-26T18:19:49.000Z</time>
      </trkpt>
      <trkpt lat="45.15734" lon="5.76132">
        <ele>221.1</ele>
        <time>2021-05-26T18:19:50.000Z</time>
      </trkpt>
      <trkpt lat="45.15735" lon="5.76128">
        <ele>221</ele>
        <time>2021-05-26T18:19:51.000Z</time>
      </trkpt>
      <trkpt lat="45.15737" lon="5.76124">
        <ele>221</ele>
        <time>2021-05-26T18:19:52.000Z</time>
      </trkpt>
      <trkpt lat="45.15738" lon="5.7612">
        <ele>221</ele>
        <time>2021-05-26T18:19:53.000Z</time>
      </trkpt>
      <trkpt lat="45.1574" lon="5.76116">
        <ele>221</ele>
        <time>2021-05-26T18:19:54.000Z</time>
      </trkpt>
      <trkpt lat="45.15742" lon="5.76113">
        <ele>220.9</ele>
        <time>2021-05-26T18:19:55.000Z</time>
      </trkpt>
      <trkpt lat="45.15744" lon="5.7611">
        <ele>220.9</ele>
        <time>2021-05-26T18:19:56.000Z</time>
      </trkpt>
      <trkpt lat="45.15746" lon="5.76107">
        <ele>220.9</ele>
        <time>2021-05-26T18:19:57.000Z</time>
      </trkpt>
      <trkpt lat="45.15748" lon="5.76104">
        <ele>220.9</ele>
        <time>2021-05-26T18:19:58.000Z</time>
      </trkpt>
      <trkpt lat="45.1575" lon="5.76101">
        <ele>220.9</ele>
        <time>2021-05-26T18:19:59.000Z</time>
      </trkpt>
      <trkpt lat="45.15752" lon="5.76098">
        <ele>220.9</ele>
        <time>2021-05-26T18:20:00.000Z</time>
      </trkpt>
      <trkpt lat="45.15753" lon="5.76096">
        <ele>220.8</ele>
        <time>2021-05-26T18:20:01.000Z</time>
      </trkpt>
      <trkpt lat="45.15755" lon="5.76093">
        <ele>220.8</ele>
        <time>2021-05-26T18:20:02.000Z</time>
      </trkpt>
      <trkpt lat="45.15756" lon="5.7609">
        <ele>220.8</ele>
        <time>2021-05-26T18:20:03.000Z</time>
      </trkpt>
      <trkpt lat="45.15758" lon="5.76087">
        <ele>220.8</ele>
        <time>2021-05-26T18:20:04.000Z</time>
      </trkpt>
      <trkpt lat="45.15759" lon="5.76085">
        <ele>220.8</ele>
        <time>2021-05-26T18:20:05.000Z</time>
      </trkpt>
      <trkpt lat="45.1576" lon="5.76082">
        <ele>220.8</ele>
        <time>2021-05-26T18:20:06.000Z</time>
      </trkpt>
      <trkpt lat="45.15762" lon="5.7608">
        <ele>220.8</ele>
        <time>2021-05-26T18:20:07.000Z</time>
      </trkpt>
      <trkpt lat="45.15764" lon="5.76077">
        <ele>220.8</ele>
        <time>2021-05-26T18:20:08.000Z</time>
      </trkpt>
      <trkpt lat="45.15765" lon="5.76074">
        <ele>220.7</ele>
        <time>2021-05-26T18:20:09.000Z</time>
      </trkpt>
      <trkpt lat="45.15767" lon="5.76072">
        <ele>220.7</ele>
        <time>2021-05-26T18:20:10.000Z</time>
      </trkpt>
      <trkpt lat="45.15769" lon="5.76066">
        <ele>220.7</ele>
        <time>2021-05-26T18:20:12.000Z</time>
      </trkpt>
      <trkpt lat="45.15769" lon="5.76066">
        <ele>220.7</ele>
        <time>2021-05-26T18:20:13.000Z</time>
      </trkpt>
      <trkpt lat="45.15772" lon="5.7606">
        <ele>220.6</ele>
        <time>2021-05-26T18:20:14.000Z</time>
      </trkpt>
      <trkpt lat="45.15773" lon="5.76057">
        <ele>220.6</ele>
        <time>2021-05-26T18:20:15.000Z</time>
      </trkpt>
      <trkpt lat="45.15774" lon="5.76054">
        <ele>220.6</ele>
        <time>2021-05-26T18:20:16.000Z</time>
      </trkpt>
      <trkpt lat="45.15776" lon="5.76051">
        <ele>220.6</ele>
        <time>2021-05-26T18:20:17.000Z</time>
      </trkpt>
      <trkpt lat="45.15777" lon="5.76049">
        <ele>220.6</ele>
        <time>2021-05-26T18:20:18.000Z</time>
      </trkpt>
      <trkpt lat="45.15778" lon="5.76046">
        <ele>220.6</ele>
        <time>2021-05-26T18:20:19.000Z</time>
      </trkpt>
      <trkpt lat="45.1578" lon="5.76043">
        <ele>220.5</ele>
        <time>2021-05-26T18:20:20.000Z</time>
      </trkpt>
      <trkpt lat="45.15781" lon="5.7604">
        <ele>220.5</ele>
        <time>2021-05-26T18:20:21.000Z</time>
      </trkpt>
      <trkpt lat="45.15782" lon="5.76037">
        <ele>220.5</ele>
        <time>2021-05-26T18:20:22.000Z</time>
      </trkpt>
      <trkpt lat="45.15784" lon="5.76034">
        <ele>220.5</ele>
        <time>2021-05-26T18:20:23.000Z</time>
      </trkpt>
      <trkpt lat="45.15785" lon="5.76031">
        <ele>220.5</ele>
        <time>2021-05-26T18:20:24.000Z</time>
      </trkpt>
      <trkpt lat="45.15786" lon="5.76028">
        <ele>220.5</ele>
        <time>2021-05-26T18:20:25.000Z</time>
      </trkpt>
      <trkpt lat="45.15788" lon="5.76025">
        <ele>220.5</ele>
        <time>2021-05-26T18:20:26.000Z</time>
      </trkpt>
      <trkpt lat="45.1579" lon="5.76023">
        <ele>220.4</ele>
        <time>2021-05-26T18:20:27.000Z</time>
      </trkpt>
      <trkpt lat="45.15792" lon="5.7602">
        <ele>220.4</ele>
        <time>2021-05-26T18:20:28.000Z</time>
      </trkpt>
      <trkpt lat="45.15793" lon="5.76019">
        <ele>220.4</ele>
        <time>2021-05-26T18:20:29.000Z</time>
      </trkpt>
      <trkpt lat="45.15794" lon="5.76017">
        <ele>220.4</ele>
        <time>2021-05-26T18:20:30.000Z</time>
      </trkpt>
      <trkpt lat="45.15795" lon="5.76015">
        <ele>220.4</ele>
        <time>2021-05-26T18:20:31.000Z</time>
      </trkpt>
      <trkpt lat="45.15796" lon="5.76013">
        <ele>220.4</ele>
        <time>2021-05-26T18:20:32.000Z</time>
      </trkpt>
      <trkpt lat="45.15797" lon="5.76011">
        <ele>220.4</ele>
        <time>2021-05-26T18:20:33.000Z</time>
      </trkpt>
      <trkpt lat="45.15797" lon="5.7601">
        <ele>220.4</ele>
        <time>2021-05-26T18:20:34.000Z</time>
      </trkpt>
      <trkpt lat="45.15798" lon="5.76008">
        <ele>220.4</ele>
        <time>2021-05-26T18:20:35.000Z</time>
      </trkpt>
      <trkpt lat="45.15802" lon="5.75997">
        <ele>220.3</ele>
        <time>2021-05-26T18:20:36.000Z</time>
      </trkpt>
      <trkpt lat="45.15803" lon="5.75994">
        <ele>220.3</ele>
        <time>2021-05-26T18:20:37.000Z</time>
      </trkpt>
      <trkpt lat="45.15805" lon="5.75992">
        <ele>220.3</ele>
        <time>2021-05-26T18:20:38.000Z</time>
      </trkpt>
      <trkpt lat="45.15806" lon="5.7599">
        <ele>220.3</ele>
        <time>2021-05-26T18:20:39.000Z</time>
      </trkpt>
      <trkpt lat="45.15808" lon="5.75987">
        <ele>220.3</ele>
        <time>2021-05-26T18:20:40.000Z</time>
      </trkpt>
      <trkpt lat="45.15809" lon="5.75985">
        <ele>220.3</ele>
        <time>2021-05-26T18:20:41.000Z</time>
      </trkpt>
      <trkpt lat="45.15812" lon="5.75983">
        <ele>220.3</ele>
        <time>2021-05-26T18:20:42.000Z</time>
      </trkpt>
      <trkpt lat="45.15814" lon="5.75982">
        <ele>220.3</ele>
        <time>2021-05-26T18:20:43.000Z</time>
      </trkpt>
      <trkpt lat="45.15817" lon="5.75979">
        <ele>220.2</ele>
        <time>2021-05-26T18:20:44.000Z</time>
      </trkpt>
      <trkpt lat="45.15819" lon="5.75977">
        <ele>220.2</ele>
        <time>2021-05-26T18:20:45.000Z</time>
      </trkpt>
      <trkpt lat="45.15821" lon="5.75975">
        <ele>220.2</ele>
        <time>2021-05-26T18:20:46.000Z</time>
      </trkpt>
      <trkpt lat="45.15823" lon="5.75974">
        <ele>220.2</ele>
        <time>2021-05-26T18:20:47.000Z</time>
      </trkpt>
      <trkpt lat="45.15824" lon="5.75972">
        <ele>220.2</ele>
        <time>2021-05-26T18:20:48.000Z</time>
      </trkpt>
      <trkpt lat="45.15825" lon="5.75971">
        <ele>220.2</ele>
        <time>2021-05-26T18:20:50.000Z</time>
      </trkpt>
      <trkpt lat="45.15826" lon="5.75969">
        <ele>220.2</ele>
        <time>2021-05-26T18:20:51.000Z</time>
      </trkpt>
      <trkpt lat="45.15831" lon="5.75962">
        <ele>220.1</ele>
        <time>2021-05-26T18:20:52.000Z</time>
      </trkpt>
      <trkpt lat="45.15832" lon="5.7596">
        <ele>220.1</ele>
        <time>2021-05-26T18:20:53.000Z</time>
      </trkpt>
      <trkpt lat="45.15832" lon="5.75959">
        <ele>220.1</ele>
        <time>2021-05-26T18:20:54.000Z</time>
      </trkpt>
      <trkpt lat="45.15833" lon="5.75958">
        <ele>220.1</ele>
        <time>2021-05-26T18:20:55.000Z</time>
      </trkpt>
      <trkpt lat="45.15834" lon="5.75957">
        <ele>220.1</ele>
        <time>2021-05-26T18:20:56.000Z</time>
      </trkpt>
      <trkpt lat="45.15838" lon="5.75946">
        <ele>220.1</ele>
        <time>2021-05-26T18:20:57.000Z</time>
      </trkpt>
      <trkpt lat="45.15839" lon="5.75942">
        <ele>220.2</ele>
        <time>2021-05-26T18:20:58.000Z</time>
      </trkpt>
      <trkpt lat="45.1584" lon="5.75941">
        <ele>220.2</ele>
        <time>2021-05-26T18:20:59.000Z</time>
      </trkpt>
      <trkpt lat="45.1584" lon="5.75941">
        <ele>220.2</ele>
        <time>2021-05-26T18:21:00.000Z</time>
      </trkpt>
      <trkpt lat="45.15841" lon="5.7594">
        <ele>220.2</ele>
        <time>2021-05-26T18:21:01.000Z</time>
      </trkpt>
      <trkpt lat="45.15841" lon="5.7594">
        <ele>220.2</ele>
        <time>2021-05-26T18:21:02.000Z</time>
      </trkpt>
      <trkpt lat="45.15842" lon="5.75939">
        <ele>220.2</ele>
        <time>2021-05-26T18:21:03.000Z</time>
      </trkpt>
      <trkpt lat="45.15842" lon="5.75938">
        <ele>220.2</ele>
        <time>2021-05-26T18:21:04.000Z</time>
      </trkpt>
      <trkpt lat="45.15849" lon="5.75931">
        <ele>220.2</ele>
        <time>2021-05-26T18:21:06.000Z</time>
      </trkpt>
      <trkpt lat="45.15851" lon="5.7593">
        <ele>220.1</ele>
        <time>2021-05-26T18:21:07.000Z</time>
      </trkpt>
      <trkpt lat="45.15853" lon="5.7593">
        <ele>220.1</ele>
        <time>2021-05-26T18:21:09.000Z</time>
      </trkpt>
      <trkpt lat="45.15854" lon="5.7593">
        <ele>220.1</ele>
        <time>2021-05-26T18:21:10.000Z</time>
      </trkpt>
      <trkpt lat="45.15856" lon="5.7593">
        <ele>220</ele>
        <time>2021-05-26T18:21:11.000Z</time>
      </trkpt>
      <trkpt lat="45.15856" lon="5.7593">
        <ele>220</ele>
        <time>2021-05-26T18:21:13.000Z</time>
      </trkpt>
      <trkpt lat="45.15856" lon="5.75931">
        <ele>220</ele>
        <time>2021-05-26T18:21:14.000Z</time>
      </trkpt>
    </trkseg>
  </trk>
</gpx>